<?xml version="1.0" encoding="UTF-8" standalone="no" ?>
<gpx xmlns="http://www.topografix.com/GPX/1/1" xmlns:xsi="http://www.w3.org/2001/XMLSchema-instance" xsi:schemaLocation="http://www.topografix.com/GPX/1/1 http://www.topografix.com/GPX/1/1/gpx.xsd" version="1.1" creator="VisuGPX - https://www.visugpx.com">
  <metadata>
    <name>Trail per AG-- UTAG 2014</name>
    <desc><![CDATA[Trail per l`Alta garrotxa i entrant fins Lamenere i torres de Cabrenys.]]></desc>
  </metadata>
  <trk>
    <name><![CDATA[NOU UTAG]]></name>
    <trkseg>
      <trkpt lat="42.26968" lon="2.59385">
        <ele>279.965</ele>
        <time>2014-02-15T04:55:58Z</time>
      </trkpt>
      <trkpt lat="42.26968" lon="2.59383">
        <ele>279.968</ele>
        <time>2014-02-15T04:56:21Z</time>
      </trkpt>
      <trkpt lat="42.26969" lon="2.59385">
        <ele>280.414</ele>
        <time>2014-02-15T04:56:34Z</time>
      </trkpt>
      <trkpt lat="42.26969" lon="2.59384">
        <ele>279.407</ele>
        <time>2014-02-15T04:56:36Z</time>
      </trkpt>
      <trkpt lat="42.26969" lon="2.59384">
        <ele>279.912</ele>
        <time>2014-02-15T04:56:52Z</time>
      </trkpt>
      <trkpt lat="42.26967" lon="2.59384">
        <ele>279.437</ele>
        <time>2014-02-15T04:57:03Z</time>
      </trkpt>
      <trkpt lat="42.26966" lon="2.59384">
        <ele>279.44</ele>
        <time>2014-02-15T04:57:28Z</time>
      </trkpt>
      <trkpt lat="42.26964" lon="2.59382">
        <ele>279.425</ele>
        <time>2014-02-15T04:57:55Z</time>
      </trkpt>
      <trkpt lat="42.26966" lon="2.59383">
        <ele>279.424</ele>
        <time>2014-02-15T04:58:14Z</time>
      </trkpt>
      <trkpt lat="42.26965" lon="2.59385">
        <ele>280.491</ele>
        <time>2014-02-15T04:58:34Z</time>
      </trkpt>
      <trkpt lat="42.26964" lon="2.59384">
        <ele>284.213</ele>
        <time>2014-02-15T04:58:41Z</time>
      </trkpt>
      <trkpt lat="42.26964" lon="2.59384">
        <ele>280.888</ele>
        <time>2014-02-15T04:58:42Z</time>
      </trkpt>
      <trkpt lat="42.26965" lon="2.59385">
        <ele>279.924</ele>
        <time>2014-02-15T04:58:58Z</time>
      </trkpt>
      <trkpt lat="42.26963" lon="2.59387">
        <ele>280.426</ele>
        <time>2014-02-15T04:59:29Z</time>
      </trkpt>
      <trkpt lat="42.26964" lon="2.59384">
        <ele>281.307</ele>
        <time>2014-02-15T04:59:47Z</time>
      </trkpt>
      <trkpt lat="42.26964" lon="2.59383">
        <ele>282.874</ele>
        <time>2014-02-15T05:00:05Z</time>
      </trkpt>
      <trkpt lat="42.26962" lon="2.59382">
        <ele>282.889</ele>
        <time>2014-02-15T05:00:09Z</time>
      </trkpt>
      <trkpt lat="42.26959" lon="2.59377">
        <ele>282.832</ele>
        <time>2014-02-15T05:00:15Z</time>
      </trkpt>
      <trkpt lat="42.26949" lon="2.59374">
        <ele>282.867</ele>
        <time>2014-02-15T05:00:28Z</time>
      </trkpt>
      <trkpt lat="42.26938" lon="2.59372">
        <ele>282.336</ele>
        <time>2014-02-15T05:00:39Z</time>
      </trkpt>
      <trkpt lat="42.26933" lon="2.59366">
        <ele>281.323</ele>
        <time>2014-02-15T05:00:46Z</time>
      </trkpt>
      <trkpt lat="42.26922" lon="2.59351">
        <ele>281.395</ele>
        <time>2014-02-15T05:01:02Z</time>
      </trkpt>
      <trkpt lat="42.26922" lon="2.59349">
        <ele>281.331</ele>
        <time>2014-02-15T05:01:15Z</time>
      </trkpt>
      <trkpt lat="42.2691" lon="2.59343">
        <ele>278.061</ele>
        <time>2014-02-15T05:01:28Z</time>
      </trkpt>
      <trkpt lat="42.26902" lon="2.59334">
        <ele>274.607</ele>
        <time>2014-02-15T05:01:39Z</time>
      </trkpt>
      <trkpt lat="42.26899" lon="2.59335">
        <ele>273.207</ele>
        <time>2014-02-15T05:01:43Z</time>
      </trkpt>
      <trkpt lat="42.26894" lon="2.59341">
        <ele>271.219</ele>
        <time>2014-02-15T05:01:54Z</time>
      </trkpt>
      <trkpt lat="42.26888" lon="2.59345">
        <ele>268.824</ele>
        <time>2014-02-15T05:02:07Z</time>
      </trkpt>
      <trkpt lat="42.26881" lon="2.59344">
        <ele>265.997</ele>
        <time>2014-02-15T05:02:19Z</time>
      </trkpt>
      <trkpt lat="42.26879" lon="2.59345">
        <ele>265.592</ele>
        <time>2014-02-15T05:02:20Z</time>
      </trkpt>
      <trkpt lat="42.26871" lon="2.59336">
        <ele>265.021</ele>
        <time>2014-02-15T05:02:27Z</time>
      </trkpt>
      <trkpt lat="42.26869" lon="2.59333">
        <ele>264.078</ele>
        <time>2014-02-15T05:02:29Z</time>
      </trkpt>
      <trkpt lat="42.26864" lon="2.5932">
        <ele>261.19</ele>
        <time>2014-02-15T05:02:42Z</time>
      </trkpt>
      <trkpt lat="42.2686" lon="2.59318">
        <ele>258.384</ele>
        <time>2014-02-15T05:02:53Z</time>
      </trkpt>
      <trkpt lat="42.26855" lon="2.5933">
        <ele>255.407</ele>
        <time>2014-02-15T05:03:05Z</time>
      </trkpt>
      <trkpt lat="42.26847" lon="2.59348">
        <ele>252.017</ele>
        <time>2014-02-15T05:03:20Z</time>
      </trkpt>
      <trkpt lat="42.26839" lon="2.59352">
        <ele>250.607</ele>
        <time>2014-02-15T05:03:29Z</time>
      </trkpt>
      <trkpt lat="42.26822" lon="2.59344">
        <ele>250.184</ele>
        <time>2014-02-15T05:03:44Z</time>
      </trkpt>
      <trkpt lat="42.26814" lon="2.59338">
        <ele>250.189</ele>
        <time>2014-02-15T05:03:57Z</time>
      </trkpt>
      <trkpt lat="42.26805" lon="2.59321">
        <ele>250.152</ele>
        <time>2014-02-15T05:04:11Z</time>
      </trkpt>
      <trkpt lat="42.26798" lon="2.59308">
        <ele>250.197</ele>
        <time>2014-02-15T05:04:22Z</time>
      </trkpt>
      <trkpt lat="42.26797" lon="2.59299">
        <ele>249.636</ele>
        <time>2014-02-15T05:04:31Z</time>
      </trkpt>
      <trkpt lat="42.26793" lon="2.59288">
        <ele>251.033</ele>
        <time>2014-02-15T05:04:38Z</time>
      </trkpt>
      <trkpt lat="42.26785" lon="2.59275">
        <ele>251.015</ele>
        <time>2014-02-15T05:04:45Z</time>
      </trkpt>
      <trkpt lat="42.2678" lon="2.59262">
        <ele>251.583</ele>
        <time>2014-02-15T05:04:52Z</time>
      </trkpt>
      <trkpt lat="42.26772" lon="2.59246">
        <ele>252.025</ele>
        <time>2014-02-15T05:05:03Z</time>
      </trkpt>
      <trkpt lat="42.26769" lon="2.59234">
        <ele>252.017</ele>
        <time>2014-02-15T05:05:10Z</time>
      </trkpt>
      <trkpt lat="42.26764" lon="2.59219">
        <ele>252.507</ele>
        <time>2014-02-15T05:05:19Z</time>
      </trkpt>
      <trkpt lat="42.26761" lon="2.59206">
        <ele>252.044</ele>
        <time>2014-02-15T05:05:27Z</time>
      </trkpt>
      <trkpt lat="42.2676" lon="2.59187">
        <ele>252.559</ele>
        <time>2014-02-15T05:05:40Z</time>
      </trkpt>
      <trkpt lat="42.26759" lon="2.59173">
        <ele>252.022</ele>
        <time>2014-02-15T05:05:50Z</time>
      </trkpt>
      <trkpt lat="42.26759" lon="2.59171">
        <ele>251.557</ele>
        <time>2014-02-15T05:05:51Z</time>
      </trkpt>
      <trkpt lat="42.26761" lon="2.5916">
        <ele>251.096</ele>
        <time>2014-02-15T05:05:55Z</time>
      </trkpt>
      <trkpt lat="42.26761" lon="2.59148">
        <ele>250.673</ele>
        <time>2014-02-15T05:06:00Z</time>
      </trkpt>
      <trkpt lat="42.26764" lon="2.59141">
        <ele>251.075</ele>
        <time>2014-02-15T05:06:03Z</time>
      </trkpt>
      <trkpt lat="42.26774" lon="2.59123">
        <ele>251.092</ele>
        <time>2014-02-15T05:06:13Z</time>
      </trkpt>
      <trkpt lat="42.26787" lon="2.59113">
        <ele>252.573</ele>
        <time>2014-02-15T05:06:24Z</time>
      </trkpt>
      <trkpt lat="42.26796" lon="2.59105">
        <ele>253.02</ele>
        <time>2014-02-15T05:06:30Z</time>
      </trkpt>
      <trkpt lat="42.26814" lon="2.59099">
        <ele>253.007</ele>
        <time>2014-02-15T05:06:40Z</time>
      </trkpt>
      <trkpt lat="42.26821" lon="2.59085">
        <ele>253.935</ele>
        <time>2014-02-15T05:06:47Z</time>
      </trkpt>
      <trkpt lat="42.26861" lon="2.59056">
        <ele>253.91</ele>
        <time>2014-02-15T05:07:04Z</time>
      </trkpt>
      <trkpt lat="42.26884" lon="2.59055">
        <ele>253.923</ele>
        <time>2014-02-15T05:07:17Z</time>
      </trkpt>
      <trkpt lat="42.26907" lon="2.59055">
        <ele>253.478</ele>
        <time>2014-02-15T05:07:30Z</time>
      </trkpt>
      <trkpt lat="42.26929" lon="2.59058">
        <ele>253.927</ele>
        <time>2014-02-15T05:07:44Z</time>
      </trkpt>
      <trkpt lat="42.26954" lon="2.5906">
        <ele>254.424</ele>
        <time>2014-02-15T05:08:00Z</time>
      </trkpt>
      <trkpt lat="42.26979" lon="2.59063">
        <ele>254.976</ele>
        <time>2014-02-15T05:08:17Z</time>
      </trkpt>
      <trkpt lat="42.26991" lon="2.59062">
        <ele>254.996</ele>
        <time>2014-02-15T05:08:28Z</time>
      </trkpt>
      <trkpt lat="42.26999" lon="2.59051">
        <ele>253.431</ele>
        <time>2014-02-15T05:08:36Z</time>
      </trkpt>
      <trkpt lat="42.27008" lon="2.59049">
        <ele>252.524</ele>
        <time>2014-02-15T05:08:42Z</time>
      </trkpt>
      <trkpt lat="42.27015" lon="2.59047">
        <ele>252.007</ele>
        <time>2014-02-15T05:08:47Z</time>
      </trkpt>
      <trkpt lat="42.27036" lon="2.59048">
        <ele>251.565</ele>
        <time>2014-02-15T05:09:00Z</time>
      </trkpt>
      <trkpt lat="42.27062" lon="2.59048">
        <ele>252.08</ele>
        <time>2014-02-15T05:09:15Z</time>
      </trkpt>
      <trkpt lat="42.27066" lon="2.59049">
        <ele>251.513</ele>
        <time>2014-02-15T05:09:18Z</time>
      </trkpt>
      <trkpt lat="42.27069" lon="2.59048">
        <ele>252.528</ele>
        <time>2014-02-15T05:09:21Z</time>
      </trkpt>
      <trkpt lat="42.27079" lon="2.59047">
        <ele>256.367</ele>
        <time>2014-02-15T05:09:31Z</time>
      </trkpt>
      <trkpt lat="42.27083" lon="2.59047">
        <ele>257.374</ele>
        <time>2014-02-15T05:09:35Z</time>
      </trkpt>
      <trkpt lat="42.27083" lon="2.59048">
        <ele>258.396</ele>
        <time>2014-02-15T05:09:38Z</time>
      </trkpt>
      <trkpt lat="42.27092" lon="2.59044">
        <ele>261.139</ele>
        <time>2014-02-15T05:09:52Z</time>
      </trkpt>
      <trkpt lat="42.27103" lon="2.59041">
        <ele>264.501</ele>
        <time>2014-02-15T05:10:01Z</time>
      </trkpt>
      <trkpt lat="42.2711" lon="2.59039">
        <ele>265.921</ele>
        <time>2014-02-15T05:10:07Z</time>
      </trkpt>
      <trkpt lat="42.2712" lon="2.59038">
        <ele>269.807</ele>
        <time>2014-02-15T05:10:20Z</time>
      </trkpt>
      <trkpt lat="42.2713" lon="2.59043">
        <ele>272.739</ele>
        <time>2014-02-15T05:10:31Z</time>
      </trkpt>
      <trkpt lat="42.27139" lon="2.59045">
        <ele>275.674</ele>
        <time>2014-02-15T05:10:42Z</time>
      </trkpt>
      <trkpt lat="42.27145" lon="2.59039">
        <ele>278.067</ele>
        <time>2014-02-15T05:10:53Z</time>
      </trkpt>
      <trkpt lat="42.27148" lon="2.59031">
        <ele>280.832</ele>
        <time>2014-02-15T05:11:03Z</time>
      </trkpt>
      <trkpt lat="42.27159" lon="2.59019">
        <ele>283.351</ele>
        <time>2014-02-15T05:11:16Z</time>
      </trkpt>
      <trkpt lat="42.27175" lon="2.59007">
        <ele>283.738</ele>
        <time>2014-02-15T05:11:29Z</time>
      </trkpt>
      <trkpt lat="42.27181" lon="2.59004">
        <ele>285.21</ele>
        <time>2014-02-15T05:11:35Z</time>
      </trkpt>
      <trkpt lat="42.27192" lon="2.59003">
        <ele>288.137</ele>
        <time>2014-02-15T05:11:47Z</time>
      </trkpt>
      <trkpt lat="42.27202" lon="2.59004">
        <ele>291.449</ele>
        <time>2014-02-15T05:12:00Z</time>
      </trkpt>
      <trkpt lat="42.27214" lon="2.59006">
        <ele>292.913</ele>
        <time>2014-02-15T05:12:14Z</time>
      </trkpt>
      <trkpt lat="42.27226" lon="2.59007">
        <ele>296.207</ele>
        <time>2014-02-15T05:12:25Z</time>
      </trkpt>
      <trkpt lat="42.27239" lon="2.59002">
        <ele>299.139</ele>
        <time>2014-02-15T05:12:41Z</time>
      </trkpt>
      <trkpt lat="42.27241" lon="2.58999">
        <ele>301.074</ele>
        <time>2014-02-15T05:12:48Z</time>
      </trkpt>
      <trkpt lat="42.27244" lon="2.58993">
        <ele>304.457</ele>
        <time>2014-02-15T05:13:01Z</time>
      </trkpt>
      <trkpt lat="42.27252" lon="2.58988">
        <ele>307.832</ele>
        <time>2014-02-15T05:13:13Z</time>
      </trkpt>
      <trkpt lat="42.27267" lon="2.5898">
        <ele>311.611</ele>
        <time>2014-02-15T05:13:28Z</time>
      </trkpt>
      <trkpt lat="42.27278" lon="2.58975">
        <ele>314.068</ele>
        <time>2014-02-15T05:13:39Z</time>
      </trkpt>
      <trkpt lat="42.27294" lon="2.58968">
        <ele>316.92</ele>
        <time>2014-02-15T05:13:54Z</time>
      </trkpt>
      <trkpt lat="42.27298" lon="2.58965">
        <ele>318.319</ele>
        <time>2014-02-15T05:13:58Z</time>
      </trkpt>
      <trkpt lat="42.27307" lon="2.58956">
        <ele>321.209</ele>
        <time>2014-02-15T05:14:11Z</time>
      </trkpt>
      <trkpt lat="42.27316" lon="2.5895">
        <ele>324.119</ele>
        <time>2014-02-15T05:14:22Z</time>
      </trkpt>
      <trkpt lat="42.27324" lon="2.58945">
        <ele>327.007</ele>
        <time>2014-02-15T05:14:32Z</time>
      </trkpt>
      <trkpt lat="42.27327" lon="2.58939">
        <ele>328.477</ele>
        <time>2014-02-15T05:14:38Z</time>
      </trkpt>
      <trkpt lat="42.27329" lon="2.58937">
        <ele>328.472</ele>
        <time>2014-02-15T05:14:40Z</time>
      </trkpt>
      <trkpt lat="42.27333" lon="2.58934">
        <ele>329.915</ele>
        <time>2014-02-15T05:14:43Z</time>
      </trkpt>
      <trkpt lat="42.27344" lon="2.58923">
        <ele>332.39</ele>
        <time>2014-02-15T05:14:56Z</time>
      </trkpt>
      <trkpt lat="42.27356" lon="2.58915">
        <ele>333.729</ele>
        <time>2014-02-15T05:15:09Z</time>
      </trkpt>
      <trkpt lat="42.27372" lon="2.58908">
        <ele>335.696</ele>
        <time>2014-02-15T05:15:22Z</time>
      </trkpt>
      <trkpt lat="42.27384" lon="2.58895">
        <ele>337.628</ele>
        <time>2014-02-15T05:15:36Z</time>
      </trkpt>
      <trkpt lat="42.2739" lon="2.58891">
        <ele>339.026</ele>
        <time>2014-02-15T05:15:41Z</time>
      </trkpt>
      <trkpt lat="42.27399" lon="2.58882">
        <ele>342.947</ele>
        <time>2014-02-15T05:15:55Z</time>
      </trkpt>
      <trkpt lat="42.2741" lon="2.58872">
        <ele>344.811</ele>
        <time>2014-02-15T05:16:08Z</time>
      </trkpt>
      <trkpt lat="42.27415" lon="2.58859">
        <ele>347.707</ele>
        <time>2014-02-15T05:16:21Z</time>
      </trkpt>
      <trkpt lat="42.27419" lon="2.58848">
        <ele>350.538</ele>
        <time>2014-02-15T05:16:33Z</time>
      </trkpt>
      <trkpt lat="42.27426" lon="2.58834">
        <ele>352.553</ele>
        <time>2014-02-15T05:16:45Z</time>
      </trkpt>
      <trkpt lat="42.27437" lon="2.58819">
        <ele>355.836</ele>
        <time>2014-02-15T05:16:59Z</time>
      </trkpt>
      <trkpt lat="42.27441" lon="2.58813">
        <ele>356.371</ele>
        <time>2014-02-15T05:17:05Z</time>
      </trkpt>
      <trkpt lat="42.27451" lon="2.58792">
        <ele>357.83</ele>
        <time>2014-02-15T05:17:20Z</time>
      </trkpt>
      <trkpt lat="42.27454" lon="2.58774">
        <ele>360.257</ele>
        <time>2014-02-15T05:17:33Z</time>
      </trkpt>
      <trkpt lat="42.2746" lon="2.5876">
        <ele>362.199</ele>
        <time>2014-02-15T05:17:46Z</time>
      </trkpt>
      <trkpt lat="42.27461" lon="2.58759">
        <ele>362.158</ele>
        <time>2014-02-15T05:17:47Z</time>
      </trkpt>
      <trkpt lat="42.27465" lon="2.58752">
        <ele>363.052</ele>
        <time>2014-02-15T05:17:51Z</time>
      </trkpt>
      <trkpt lat="42.27467" lon="2.5873">
        <ele>366.417</ele>
        <time>2014-02-15T05:18:04Z</time>
      </trkpt>
      <trkpt lat="42.2747" lon="2.58721">
        <ele>368.307</ele>
        <time>2014-02-15T05:18:12Z</time>
      </trkpt>
      <trkpt lat="42.27473" lon="2.58719">
        <ele>369.351</ele>
        <time>2014-02-15T05:18:14Z</time>
      </trkpt>
      <trkpt lat="42.27479" lon="2.58704">
        <ele>369.846</ele>
        <time>2014-02-15T05:18:26Z</time>
      </trkpt>
      <trkpt lat="42.27484" lon="2.5869">
        <ele>372.249</ele>
        <time>2014-02-15T05:18:38Z</time>
      </trkpt>
      <trkpt lat="42.27487" lon="2.58678">
        <ele>374.634</ele>
        <time>2014-02-15T05:18:48Z</time>
      </trkpt>
      <trkpt lat="42.27486" lon="2.58676">
        <ele>375.133</ele>
        <time>2014-02-15T05:18:53Z</time>
      </trkpt>
      <trkpt lat="42.27487" lon="2.58669">
        <ele>376.55</ele>
        <time>2014-02-15T05:19:00Z</time>
      </trkpt>
      <trkpt lat="42.2749" lon="2.58653">
        <ele>378.412</ele>
        <time>2014-02-15T05:19:12Z</time>
      </trkpt>
      <trkpt lat="42.27493" lon="2.5864">
        <ele>379.933</ele>
        <time>2014-02-15T05:19:25Z</time>
      </trkpt>
      <trkpt lat="42.27497" lon="2.58623">
        <ele>381.823</ele>
        <time>2014-02-15T05:19:37Z</time>
      </trkpt>
      <trkpt lat="42.27501" lon="2.58602">
        <ele>381.815</ele>
        <time>2014-02-15T05:19:51Z</time>
      </trkpt>
      <trkpt lat="42.27504" lon="2.5858">
        <ele>383.207</ele>
        <time>2014-02-15T05:20:05Z</time>
      </trkpt>
      <trkpt lat="42.27507" lon="2.58562">
        <ele>381.339</ele>
        <time>2014-02-15T05:20:15Z</time>
      </trkpt>
      <trkpt lat="42.27511" lon="2.58552">
        <ele>382.784</ele>
        <time>2014-02-15T05:20:24Z</time>
      </trkpt>
      <trkpt lat="42.27514" lon="2.58553">
        <ele>382.787</ele>
        <time>2014-02-15T05:20:27Z</time>
      </trkpt>
      <trkpt lat="42.27526" lon="2.58549">
        <ele>385.642</ele>
        <time>2014-02-15T05:20:40Z</time>
      </trkpt>
      <trkpt lat="42.27532" lon="2.58545">
        <ele>387.171</ele>
        <time>2014-02-15T05:20:51Z</time>
      </trkpt>
      <trkpt lat="42.27537" lon="2.58522">
        <ele>390.028</ele>
        <time>2014-02-15T05:21:03Z</time>
      </trkpt>
      <trkpt lat="42.27541" lon="2.58518">
        <ele>392.83</ele>
        <time>2014-02-15T05:21:11Z</time>
      </trkpt>
      <trkpt lat="42.27557" lon="2.58512">
        <ele>394.368</ele>
        <time>2014-02-15T05:21:23Z</time>
      </trkpt>
      <trkpt lat="42.27559" lon="2.58512">
        <ele>395.742</ele>
        <time>2014-02-15T05:21:26Z</time>
      </trkpt>
      <trkpt lat="42.27562" lon="2.58503">
        <ele>399.126</ele>
        <time>2014-02-15T05:21:39Z</time>
      </trkpt>
      <trkpt lat="42.27561" lon="2.58494">
        <ele>402.507</ele>
        <time>2014-02-15T05:21:49Z</time>
      </trkpt>
      <trkpt lat="42.27566" lon="2.58485">
        <ele>404.432</ele>
        <time>2014-02-15T05:22:01Z</time>
      </trkpt>
      <trkpt lat="42.27571" lon="2.58476">
        <ele>407.747</ele>
        <time>2014-02-15T05:22:14Z</time>
      </trkpt>
      <trkpt lat="42.27576" lon="2.58471">
        <ele>410.61</ele>
        <time>2014-02-15T05:22:25Z</time>
      </trkpt>
      <trkpt lat="42.27589" lon="2.58458">
        <ele>412.525</ele>
        <time>2014-02-15T05:22:38Z</time>
      </trkpt>
      <trkpt lat="42.27591" lon="2.58458">
        <ele>413.024</ele>
        <time>2014-02-15T05:22:40Z</time>
      </trkpt>
      <trkpt lat="42.27602" lon="2.58459">
        <ele>416.991</ele>
        <time>2014-02-15T05:22:54Z</time>
      </trkpt>
      <trkpt lat="42.27604" lon="2.58448">
        <ele>419.813</ele>
        <time>2014-02-15T05:23:08Z</time>
      </trkpt>
      <trkpt lat="42.2761" lon="2.58431">
        <ele>421.733</ele>
        <time>2014-02-15T05:23:22Z</time>
      </trkpt>
      <trkpt lat="42.27614" lon="2.5842">
        <ele>425.023</ele>
        <time>2014-02-15T05:23:34Z</time>
      </trkpt>
      <trkpt lat="42.2762" lon="2.58403">
        <ele>427.915</ele>
        <time>2014-02-15T05:23:49Z</time>
      </trkpt>
      <trkpt lat="42.27619" lon="2.58389">
        <ele>430.807</ele>
        <time>2014-02-15T05:24:00Z</time>
      </trkpt>
      <trkpt lat="42.27618" lon="2.58384">
        <ele>431.339</ele>
        <time>2014-02-15T05:24:03Z</time>
      </trkpt>
      <trkpt lat="42.27617" lon="2.58379">
        <ele>431.324</ele>
        <time>2014-02-15T05:24:06Z</time>
      </trkpt>
      <trkpt lat="42.27615" lon="2.58355">
        <ele>433.237</ele>
        <time>2014-02-15T05:24:20Z</time>
      </trkpt>
      <trkpt lat="42.27615" lon="2.58347">
        <ele>433.732</ele>
        <time>2014-02-15T05:24:25Z</time>
      </trkpt>
      <trkpt lat="42.27613" lon="2.58325">
        <ele>435.181</ele>
        <time>2014-02-15T05:24:37Z</time>
      </trkpt>
      <trkpt lat="42.27614" lon="2.58312">
        <ele>437.178</ele>
        <time>2014-02-15T05:24:45Z</time>
      </trkpt>
      <trkpt lat="42.27617" lon="2.58293">
        <ele>439.93</ele>
        <time>2014-02-15T05:24:58Z</time>
      </trkpt>
      <trkpt lat="42.2762" lon="2.58281">
        <ele>442.897</ele>
        <time>2014-02-15T05:25:10Z</time>
      </trkpt>
      <trkpt lat="42.27623" lon="2.58269">
        <ele>445.723</ele>
        <time>2014-02-15T05:25:21Z</time>
      </trkpt>
      <trkpt lat="42.27632" lon="2.58265">
        <ele>447.625</ele>
        <time>2014-02-15T05:25:31Z</time>
      </trkpt>
      <trkpt lat="42.2763" lon="2.58258">
        <ele>450.507</ele>
        <time>2014-02-15T05:25:43Z</time>
      </trkpt>
      <trkpt lat="42.27631" lon="2.5824">
        <ele>452.985</ele>
        <time>2014-02-15T05:25:54Z</time>
      </trkpt>
      <trkpt lat="42.27637" lon="2.58217">
        <ele>455.39</ele>
        <time>2014-02-15T05:26:08Z</time>
      </trkpt>
      <trkpt lat="42.27639" lon="2.58212">
        <ele>455.813</ele>
        <time>2014-02-15T05:26:12Z</time>
      </trkpt>
      <trkpt lat="42.2764" lon="2.58209">
        <ele>456.328</ele>
        <time>2014-02-15T05:26:14Z</time>
      </trkpt>
      <trkpt lat="42.2764" lon="2.58203">
        <ele>457.797</ele>
        <time>2014-02-15T05:26:18Z</time>
      </trkpt>
      <trkpt lat="42.2764" lon="2.58188">
        <ele>460.134</ele>
        <time>2014-02-15T05:26:30Z</time>
      </trkpt>
      <trkpt lat="42.27641" lon="2.58183">
        <ele>461.616</ele>
        <time>2014-02-15T05:26:34Z</time>
      </trkpt>
      <trkpt lat="42.27644" lon="2.58173">
        <ele>464.017</ele>
        <time>2014-02-15T05:26:44Z</time>
      </trkpt>
      <trkpt lat="42.27645" lon="2.5816">
        <ele>465.987</ele>
        <time>2014-02-15T05:26:54Z</time>
      </trkpt>
      <trkpt lat="42.27648" lon="2.58142">
        <ele>469.315</ele>
        <time>2014-02-15T05:27:07Z</time>
      </trkpt>
      <trkpt lat="42.27655" lon="2.58136">
        <ele>472.107</ele>
        <time>2014-02-15T05:27:20Z</time>
      </trkpt>
      <trkpt lat="42.27656" lon="2.58135">
        <ele>472.197</ele>
        <time>2014-02-15T05:27:21Z</time>
      </trkpt>
      <trkpt lat="42.27655" lon="2.58113">
        <ele>475.032</ele>
        <time>2014-02-15T05:27:36Z</time>
      </trkpt>
      <trkpt lat="42.27667" lon="2.58095">
        <ele>477.075</ele>
        <time>2014-02-15T05:27:50Z</time>
      </trkpt>
      <trkpt lat="42.27672" lon="2.58087">
        <ele>478.97</ele>
        <time>2014-02-15T05:28:01Z</time>
      </trkpt>
      <trkpt lat="42.27677" lon="2.5808">
        <ele>482.229</ele>
        <time>2014-02-15T05:28:11Z</time>
      </trkpt>
      <trkpt lat="42.27677" lon="2.58079">
        <ele>481.826</ele>
        <time>2014-02-15T05:28:12Z</time>
      </trkpt>
      <trkpt lat="42.27678" lon="2.58064">
        <ele>482.778</ele>
        <time>2014-02-15T05:28:23Z</time>
      </trkpt>
      <trkpt lat="42.27686" lon="2.58045">
        <ele>486.186</ele>
        <time>2014-02-15T05:28:37Z</time>
      </trkpt>
      <trkpt lat="42.2769" lon="2.58035">
        <ele>488.06</ele>
        <time>2014-02-15T05:28:45Z</time>
      </trkpt>
      <trkpt lat="42.2769" lon="2.58031">
        <ele>488.526</ele>
        <time>2014-02-15T05:28:48Z</time>
      </trkpt>
      <trkpt lat="42.27694" lon="2.58009">
        <ele>488.007</ele>
        <time>2014-02-15T05:29:01Z</time>
      </trkpt>
      <trkpt lat="42.27701" lon="2.57982">
        <ele>489.514</ele>
        <time>2014-02-15T05:29:15Z</time>
      </trkpt>
      <trkpt lat="42.27702" lon="2.57958">
        <ele>490.419</ele>
        <time>2014-02-15T05:29:28Z</time>
      </trkpt>
      <trkpt lat="42.27702" lon="2.57948">
        <ele>490.492</ele>
        <time>2014-02-15T05:29:33Z</time>
      </trkpt>
      <trkpt lat="42.27704" lon="2.57929">
        <ele>492.857</ele>
        <time>2014-02-15T05:29:46Z</time>
      </trkpt>
      <trkpt lat="42.27703" lon="2.57923">
        <ele>493.876</ele>
        <time>2014-02-15T05:29:50Z</time>
      </trkpt>
      <trkpt lat="42.27693" lon="2.57904">
        <ele>493.873</ele>
        <time>2014-02-15T05:30:05Z</time>
      </trkpt>
      <trkpt lat="42.27687" lon="2.57899">
        <ele>493.835</ele>
        <time>2014-02-15T05:30:11Z</time>
      </trkpt>
      <trkpt lat="42.27685" lon="2.57895">
        <ele>493.861</ele>
        <time>2014-02-15T05:30:13Z</time>
      </trkpt>
      <trkpt lat="42.27682" lon="2.57883">
        <ele>495.221</ele>
        <time>2014-02-15T05:30:21Z</time>
      </trkpt>
      <trkpt lat="42.2768" lon="2.57875">
        <ele>495.213</ele>
        <time>2014-02-15T05:30:26Z</time>
      </trkpt>
      <trkpt lat="42.27678" lon="2.57875">
        <ele>496.207</ele>
        <time>2014-02-15T05:30:28Z</time>
      </trkpt>
      <trkpt lat="42.27673" lon="2.57878">
        <ele>495.722</ele>
        <time>2014-02-15T05:30:33Z</time>
      </trkpt>
      <trkpt lat="42.27662" lon="2.57875">
        <ele>497.697</ele>
        <time>2014-02-15T05:30:48Z</time>
      </trkpt>
      <trkpt lat="42.27658" lon="2.57875">
        <ele>497.64</ele>
        <time>2014-02-15T05:31:08Z</time>
      </trkpt>
      <trkpt lat="42.27654" lon="2.57865">
        <ele>499.125</ele>
        <time>2014-02-15T05:31:12Z</time>
      </trkpt>
      <trkpt lat="42.27649" lon="2.5783">
        <ele>500.574</ele>
        <time>2014-02-15T05:31:29Z</time>
      </trkpt>
      <trkpt lat="42.27646" lon="2.57801">
        <ele>500.551</ele>
        <time>2014-02-15T05:31:43Z</time>
      </trkpt>
      <trkpt lat="42.27643" lon="2.5778">
        <ele>498.673</ele>
        <time>2014-02-15T05:31:55Z</time>
      </trkpt>
      <trkpt lat="42.27642" lon="2.57773">
        <ele>498.629</ele>
        <time>2014-02-15T05:31:59Z</time>
      </trkpt>
      <trkpt lat="42.2764" lon="2.57768">
        <ele>497.6</ele>
        <time>2014-02-15T05:32:03Z</time>
      </trkpt>
      <trkpt lat="42.27635" lon="2.57759">
        <ele>496.72</ele>
        <time>2014-02-15T05:32:09Z</time>
      </trkpt>
      <trkpt lat="42.27633" lon="2.57749">
        <ele>496.207</ele>
        <time>2014-02-15T05:32:14Z</time>
      </trkpt>
      <trkpt lat="42.2763" lon="2.57737">
        <ele>494.778</ele>
        <time>2014-02-15T05:32:23Z</time>
      </trkpt>
      <trkpt lat="42.27627" lon="2.57713">
        <ele>494.753</ele>
        <time>2014-02-15T05:32:35Z</time>
      </trkpt>
      <trkpt lat="42.27626" lon="2.57689">
        <ele>492.886</ele>
        <time>2014-02-15T05:32:48Z</time>
      </trkpt>
      <trkpt lat="42.27624" lon="2.57673">
        <ele>491.931</ele>
        <time>2014-02-15T05:32:55Z</time>
      </trkpt>
      <trkpt lat="42.27622" lon="2.57651">
        <ele>492.34</ele>
        <time>2014-02-15T05:33:11Z</time>
      </trkpt>
      <trkpt lat="42.27618" lon="2.57631">
        <ele>492.827</ele>
        <time>2014-02-15T05:33:25Z</time>
      </trkpt>
      <trkpt lat="42.27614" lon="2.57611">
        <ele>490.489</ele>
        <time>2014-02-15T05:33:36Z</time>
      </trkpt>
      <trkpt lat="42.27609" lon="2.57599">
        <ele>487.535</ele>
        <time>2014-02-15T05:33:44Z</time>
      </trkpt>
      <trkpt lat="42.27606" lon="2.57596">
        <ele>487.186</ele>
        <time>2014-02-15T05:33:46Z</time>
      </trkpt>
      <trkpt lat="42.27602" lon="2.57589">
        <ele>486.614</ele>
        <time>2014-02-15T05:33:50Z</time>
      </trkpt>
      <trkpt lat="42.27585" lon="2.57564">
        <ele>485.107</ele>
        <time>2014-02-15T05:34:03Z</time>
      </trkpt>
      <trkpt lat="42.27586" lon="2.57543">
        <ele>487.599</ele>
        <time>2014-02-15T05:34:16Z</time>
      </trkpt>
      <trkpt lat="42.27583" lon="2.57527">
        <ele>491.444</ele>
        <time>2014-02-15T05:34:26Z</time>
      </trkpt>
      <trkpt lat="42.27583" lon="2.57525">
        <ele>491.427</ele>
        <time>2014-02-15T05:34:27Z</time>
      </trkpt>
      <trkpt lat="42.27581" lon="2.57507">
        <ele>494.362</ele>
        <time>2014-02-15T05:34:40Z</time>
      </trkpt>
      <trkpt lat="42.27581" lon="2.57496">
        <ele>497.111</ele>
        <time>2014-02-15T05:34:51Z</time>
      </trkpt>
      <trkpt lat="42.27581" lon="2.57495">
        <ele>497.198</ele>
        <time>2014-02-15T05:34:52Z</time>
      </trkpt>
      <trkpt lat="42.27579" lon="2.57474">
        <ele>500.08</ele>
        <time>2014-02-15T05:35:05Z</time>
      </trkpt>
      <trkpt lat="42.27576" lon="2.57453">
        <ele>501.017</ele>
        <time>2014-02-15T05:35:16Z</time>
      </trkpt>
      <trkpt lat="42.2757" lon="2.57426">
        <ele>503.487</ele>
        <time>2014-02-15T05:35:28Z</time>
      </trkpt>
      <trkpt lat="42.27563" lon="2.57402">
        <ele>504.415</ele>
        <time>2014-02-15T05:35:42Z</time>
      </trkpt>
      <trkpt lat="42.27559" lon="2.57393">
        <ele>504.807</ele>
        <time>2014-02-15T05:35:49Z</time>
      </trkpt>
      <trkpt lat="42.2755" lon="2.57383">
        <ele>505.317</ele>
        <time>2014-02-15T05:35:57Z</time>
      </trkpt>
      <trkpt lat="42.27539" lon="2.57372">
        <ele>507.742</ele>
        <time>2014-02-15T05:36:09Z</time>
      </trkpt>
      <trkpt lat="42.27525" lon="2.57357">
        <ele>507.795</ele>
        <time>2014-02-15T05:36:24Z</time>
      </trkpt>
      <trkpt lat="42.27523" lon="2.57335">
        <ele>509.28</ele>
        <time>2014-02-15T05:36:35Z</time>
      </trkpt>
      <trkpt lat="42.27523" lon="2.57328">
        <ele>510.169</ele>
        <time>2014-02-15T05:36:39Z</time>
      </trkpt>
      <trkpt lat="42.27523" lon="2.57316">
        <ele>511.676</ele>
        <time>2014-02-15T05:36:47Z</time>
      </trkpt>
      <trkpt lat="42.27518" lon="2.57296">
        <ele>514.968</ele>
        <time>2014-02-15T05:37:01Z</time>
      </trkpt>
      <trkpt lat="42.2751" lon="2.57274">
        <ele>516.914</ele>
        <time>2014-02-15T05:37:14Z</time>
      </trkpt>
      <trkpt lat="42.27502" lon="2.57267">
        <ele>517.854</ele>
        <time>2014-02-15T05:37:22Z</time>
      </trkpt>
      <trkpt lat="42.27485" lon="2.57251">
        <ele>520.709</ele>
        <time>2014-02-15T05:37:38Z</time>
      </trkpt>
      <trkpt lat="42.27463" lon="2.57222">
        <ele>522.607</ele>
        <time>2014-02-15T05:37:54Z</time>
      </trkpt>
      <trkpt lat="42.27444" lon="2.57196">
        <ele>524.557</ele>
        <time>2014-02-15T05:38:10Z</time>
      </trkpt>
      <trkpt lat="42.27428" lon="2.57172">
        <ele>526.912</ele>
        <time>2014-02-15T05:38:25Z</time>
      </trkpt>
      <trkpt lat="42.27415" lon="2.57154">
        <ele>528.485</ele>
        <time>2014-02-15T05:38:38Z</time>
      </trkpt>
      <trkpt lat="42.27402" lon="2.57136">
        <ele>529.88</ele>
        <time>2014-02-15T05:38:51Z</time>
      </trkpt>
      <trkpt lat="42.27397" lon="2.5713">
        <ele>530.349</ele>
        <time>2014-02-15T05:38:55Z</time>
      </trkpt>
      <trkpt lat="42.27387" lon="2.57112">
        <ele>531.356</ele>
        <time>2014-02-15T05:39:07Z</time>
      </trkpt>
      <trkpt lat="42.27389" lon="2.57111">
        <ele>530.848</ele>
        <time>2014-02-15T05:39:11Z</time>
      </trkpt>
      <trkpt lat="42.27398" lon="2.57123">
        <ele>530.327</ele>
        <time>2014-02-15T05:39:27Z</time>
      </trkpt>
      <trkpt lat="42.27398" lon="2.57123">
        <ele>530.368</ele>
        <time>2014-02-15T05:39:28Z</time>
      </trkpt>
      <trkpt lat="42.27409" lon="2.57136">
        <ele>528.414</ele>
        <time>2014-02-15T05:39:42Z</time>
      </trkpt>
      <trkpt lat="42.27412" lon="2.57141">
        <ele>527.907</ele>
        <time>2014-02-15T05:39:52Z</time>
      </trkpt>
      <trkpt lat="42.27403" lon="2.57138">
        <ele>529.838</ele>
        <time>2014-02-15T05:40:05Z</time>
      </trkpt>
      <trkpt lat="42.27391" lon="2.5712">
        <ele>530.863</ele>
        <time>2014-02-15T05:40:18Z</time>
      </trkpt>
      <trkpt lat="42.27384" lon="2.5711">
        <ele>532.296</ele>
        <time>2014-02-15T05:40:25Z</time>
      </trkpt>
      <trkpt lat="42.27384" lon="2.57106">
        <ele>532.211</ele>
        <time>2014-02-15T05:40:33Z</time>
      </trkpt>
      <trkpt lat="42.27397" lon="2.57123">
        <ele>529.36</ele>
        <time>2014-02-15T05:40:50Z</time>
      </trkpt>
      <trkpt lat="42.274" lon="2.57126">
        <ele>529.377</ele>
        <time>2014-02-15T05:40:54Z</time>
      </trkpt>
      <trkpt lat="42.27416" lon="2.57142">
        <ele>526.959</ele>
        <time>2014-02-15T05:41:08Z</time>
      </trkpt>
      <trkpt lat="42.27419" lon="2.57146">
        <ele>526.531</ele>
        <time>2014-02-15T05:41:11Z</time>
      </trkpt>
      <trkpt lat="42.2742" lon="2.57148">
        <ele>526.061</ele>
        <time>2014-02-15T05:41:13Z</time>
      </trkpt>
      <trkpt lat="42.27424" lon="2.57155">
        <ele>525.507</ele>
        <time>2014-02-15T05:41:17Z</time>
      </trkpt>
      <trkpt lat="42.27437" lon="2.57175">
        <ele>524.507</ele>
        <time>2014-02-15T05:41:30Z</time>
      </trkpt>
      <trkpt lat="42.27454" lon="2.572">
        <ele>522.149</ele>
        <time>2014-02-15T05:41:47Z</time>
      </trkpt>
      <trkpt lat="42.27472" lon="2.57218">
        <ele>521.294</ele>
        <time>2014-02-15T05:42:02Z</time>
      </trkpt>
      <trkpt lat="42.27487" lon="2.57228">
        <ele>519.337</ele>
        <time>2014-02-15T05:42:14Z</time>
      </trkpt>
      <trkpt lat="42.27503" lon="2.5724">
        <ele>516.932</ele>
        <time>2014-02-15T05:42:27Z</time>
      </trkpt>
      <trkpt lat="42.27513" lon="2.57254">
        <ele>514.421</ele>
        <time>2014-02-15T05:42:40Z</time>
      </trkpt>
      <trkpt lat="42.27519" lon="2.57267">
        <ele>513.088</ele>
        <time>2014-02-15T05:42:52Z</time>
      </trkpt>
      <trkpt lat="42.2752" lon="2.57269">
        <ele>511.67</ele>
        <time>2014-02-15T05:42:54Z</time>
      </trkpt>
      <trkpt lat="42.27527" lon="2.57278">
        <ele>512.026</ele>
        <time>2014-02-15T05:43:10Z</time>
      </trkpt>
      <trkpt lat="42.27528" lon="2.57281">
        <ele>512.047</ele>
        <time>2014-02-15T05:43:27Z</time>
      </trkpt>
      <trkpt lat="42.27528" lon="2.57279">
        <ele>510.611</ele>
        <time>2014-02-15T05:43:36Z</time>
      </trkpt>
      <trkpt lat="42.2753" lon="2.57278">
        <ele>509.207</ele>
        <time>2014-02-15T05:43:39Z</time>
      </trkpt>
      <trkpt lat="42.27534" lon="2.57279">
        <ele>506.328</ele>
        <time>2014-02-15T05:43:45Z</time>
      </trkpt>
      <trkpt lat="42.27535" lon="2.57281">
        <ele>505.313</ele>
        <time>2014-02-15T05:43:47Z</time>
      </trkpt>
      <trkpt lat="42.27539" lon="2.57284">
        <ele>503.436</ele>
        <time>2014-02-15T05:43:53Z</time>
      </trkpt>
      <trkpt lat="42.27545" lon="2.57286">
        <ele>500.081</ele>
        <time>2014-02-15T05:44:03Z</time>
      </trkpt>
      <trkpt lat="42.27548" lon="2.57286">
        <ele>498.66</ele>
        <time>2014-02-15T05:44:07Z</time>
      </trkpt>
      <trkpt lat="42.27557" lon="2.57284">
        <ele>495.277</ele>
        <time>2014-02-15T05:44:18Z</time>
      </trkpt>
      <trkpt lat="42.27563" lon="2.57274">
        <ele>491.429</ele>
        <time>2014-02-15T05:44:29Z</time>
      </trkpt>
      <trkpt lat="42.27568" lon="2.5727">
        <ele>489.517</ele>
        <time>2014-02-15T05:44:33Z</time>
      </trkpt>
      <trkpt lat="42.2757" lon="2.57266">
        <ele>488.087</ele>
        <time>2014-02-15T05:44:36Z</time>
      </trkpt>
      <trkpt lat="42.27581" lon="2.57258">
        <ele>485.115</ele>
        <time>2014-02-15T05:44:47Z</time>
      </trkpt>
      <trkpt lat="42.27586" lon="2.57246">
        <ele>484.607</ele>
        <time>2014-02-15T05:45:01Z</time>
      </trkpt>
      <trkpt lat="42.27583" lon="2.57233">
        <ele>482.257</ele>
        <time>2014-02-15T05:45:11Z</time>
      </trkpt>
      <trkpt lat="42.27582" lon="2.57225">
        <ele>480.882</ele>
        <time>2014-02-15T05:45:16Z</time>
      </trkpt>
      <trkpt lat="42.27582" lon="2.5722">
        <ele>481.395</ele>
        <time>2014-02-15T05:45:19Z</time>
      </trkpt>
      <trkpt lat="42.2758" lon="2.57206">
        <ele>477.92</ele>
        <time>2014-02-15T05:45:28Z</time>
      </trkpt>
      <trkpt lat="42.27579" lon="2.57201">
        <ele>476.589</ele>
        <time>2014-02-15T05:45:31Z</time>
      </trkpt>
      <trkpt lat="42.27574" lon="2.57188">
        <ele>473.126</ele>
        <time>2014-02-15T05:45:38Z</time>
      </trkpt>
      <trkpt lat="42.27573" lon="2.57182">
        <ele>471.768</ele>
        <time>2014-02-15T05:45:43Z</time>
      </trkpt>
      <trkpt lat="42.27569" lon="2.57171">
        <ele>468.825</ele>
        <time>2014-02-15T05:45:52Z</time>
      </trkpt>
      <trkpt lat="42.27564" lon="2.57162">
        <ele>465.426</ele>
        <time>2014-02-15T05:46:00Z</time>
      </trkpt>
      <trkpt lat="42.2756" lon="2.57156">
        <ele>462.508</ele>
        <time>2014-02-15T05:46:05Z</time>
      </trkpt>
      <trkpt lat="42.27559" lon="2.57148">
        <ele>460.107</ele>
        <time>2014-02-15T05:46:11Z</time>
      </trkpt>
      <trkpt lat="42.27549" lon="2.57139">
        <ele>457.788</ele>
        <time>2014-02-15T05:46:24Z</time>
      </trkpt>
      <trkpt lat="42.27548" lon="2.57139">
        <ele>457.263</ele>
        <time>2014-02-15T05:46:25Z</time>
      </trkpt>
      <trkpt lat="42.27545" lon="2.57138">
        <ele>456.396</ele>
        <time>2014-02-15T05:46:28Z</time>
      </trkpt>
      <trkpt lat="42.27542" lon="2.57135">
        <ele>455.381</ele>
        <time>2014-02-15T05:46:31Z</time>
      </trkpt>
      <trkpt lat="42.27535" lon="2.57124">
        <ele>453.48</ele>
        <time>2014-02-15T05:46:42Z</time>
      </trkpt>
      <trkpt lat="42.27527" lon="2.57111">
        <ele>452.477</ele>
        <time>2014-02-15T05:46:52Z</time>
      </trkpt>
      <trkpt lat="42.27521" lon="2.57097">
        <ele>449.119</ele>
        <time>2014-02-15T05:47:02Z</time>
      </trkpt>
      <trkpt lat="42.27513" lon="2.57082">
        <ele>446.232</ele>
        <time>2014-02-15T05:47:12Z</time>
      </trkpt>
      <trkpt lat="42.27512" lon="2.57079">
        <ele>446.292</ele>
        <time>2014-02-15T05:47:14Z</time>
      </trkpt>
      <trkpt lat="42.27502" lon="2.57062">
        <ele>444.311</ele>
        <time>2014-02-15T05:47:27Z</time>
      </trkpt>
      <trkpt lat="42.27495" lon="2.57047">
        <ele>447.607</ele>
        <time>2014-02-15T05:47:37Z</time>
      </trkpt>
      <trkpt lat="42.27492" lon="2.57027">
        <ele>451.019</ele>
        <time>2014-02-15T05:47:50Z</time>
      </trkpt>
      <trkpt lat="42.2749" lon="2.57024">
        <ele>452.044</ele>
        <time>2014-02-15T05:47:53Z</time>
      </trkpt>
      <trkpt lat="42.27488" lon="2.5701">
        <ele>453.997</ele>
        <time>2014-02-15T05:48:01Z</time>
      </trkpt>
      <trkpt lat="42.27498" lon="2.57006">
        <ele>456.862</ele>
        <time>2014-02-15T05:48:15Z</time>
      </trkpt>
      <trkpt lat="42.275" lon="2.57005">
        <ele>457.261</ele>
        <time>2014-02-15T05:48:17Z</time>
      </trkpt>
      <trkpt lat="42.27512" lon="2.57005">
        <ele>458.298</ele>
        <time>2014-02-15T05:48:29Z</time>
      </trkpt>
      <trkpt lat="42.27521" lon="2.57004">
        <ele>460.64</ele>
        <time>2014-02-15T05:48:40Z</time>
      </trkpt>
      <trkpt lat="42.27527" lon="2.57002">
        <ele>464.092</ele>
        <time>2014-02-15T05:48:49Z</time>
      </trkpt>
      <trkpt lat="42.27528" lon="2.56997">
        <ele>465.973</ele>
        <time>2014-02-15T05:49:02Z</time>
      </trkpt>
      <trkpt lat="42.27537" lon="2.56997">
        <ele>468.82</ele>
        <time>2014-02-15T05:49:11Z</time>
      </trkpt>
      <trkpt lat="42.27547" lon="2.56995">
        <ele>471.207</ele>
        <time>2014-02-15T05:49:24Z</time>
      </trkpt>
      <trkpt lat="42.27551" lon="2.56991">
        <ele>473.185</ele>
        <time>2014-02-15T05:49:35Z</time>
      </trkpt>
      <trkpt lat="42.27553" lon="2.5699">
        <ele>474.18</ele>
        <time>2014-02-15T05:49:37Z</time>
      </trkpt>
      <trkpt lat="42.27556" lon="2.56989">
        <ele>474.153</ele>
        <time>2014-02-15T05:49:49Z</time>
      </trkpt>
      <trkpt lat="42.27558" lon="2.56991">
        <ele>474.188</ele>
        <time>2014-02-15T05:50:07Z</time>
      </trkpt>
      <trkpt lat="42.27554" lon="2.56995">
        <ele>471.277</ele>
        <time>2014-02-15T05:50:17Z</time>
      </trkpt>
      <trkpt lat="42.27548" lon="2.56995">
        <ele>469.384</ele>
        <time>2014-02-15T05:50:31Z</time>
      </trkpt>
      <trkpt lat="42.27548" lon="2.56995">
        <ele>469.786</ele>
        <time>2014-02-15T05:50:32Z</time>
      </trkpt>
      <trkpt lat="42.27547" lon="2.5699">
        <ele>470.783</ele>
        <time>2014-02-15T05:50:48Z</time>
      </trkpt>
      <trkpt lat="42.27551" lon="2.56989">
        <ele>473.125</ele>
        <time>2014-02-15T05:51:01Z</time>
      </trkpt>
      <trkpt lat="42.2755" lon="2.56985">
        <ele>474.117</ele>
        <time>2014-02-15T05:51:18Z</time>
      </trkpt>
      <trkpt lat="42.27551" lon="2.56984">
        <ele>475.007</ele>
        <time>2014-02-15T05:51:22Z</time>
      </trkpt>
      <trkpt lat="42.2756" lon="2.56977">
        <ele>478.494</ele>
        <time>2014-02-15T05:51:34Z</time>
      </trkpt>
      <trkpt lat="42.27568" lon="2.56971">
        <ele>480.899</ele>
        <time>2014-02-15T05:51:48Z</time>
      </trkpt>
      <trkpt lat="42.27574" lon="2.56967">
        <ele>483.782</ele>
        <time>2014-02-15T05:52:00Z</time>
      </trkpt>
      <trkpt lat="42.27581" lon="2.56958">
        <ele>486.177</ele>
        <time>2014-02-15T05:52:14Z</time>
      </trkpt>
      <trkpt lat="42.27591" lon="2.56946">
        <ele>489.016</ele>
        <time>2014-02-15T05:52:29Z</time>
      </trkpt>
      <trkpt lat="42.27592" lon="2.56939">
        <ele>489.053</ele>
        <time>2014-02-15T05:52:33Z</time>
      </trkpt>
      <trkpt lat="42.27598" lon="2.56917">
        <ele>490.995</ele>
        <time>2014-02-15T05:52:49Z</time>
      </trkpt>
      <trkpt lat="42.27601" lon="2.56906">
        <ele>490.458</ele>
        <time>2014-02-15T05:53:05Z</time>
      </trkpt>
      <trkpt lat="42.27609" lon="2.569">
        <ele>492.852</ele>
        <time>2014-02-15T05:53:19Z</time>
      </trkpt>
      <trkpt lat="42.27615" lon="2.56898">
        <ele>495.717</ele>
        <time>2014-02-15T05:53:31Z</time>
      </trkpt>
      <trkpt lat="42.27625" lon="2.56897">
        <ele>498.107</ele>
        <time>2014-02-15T05:53:44Z</time>
      </trkpt>
      <trkpt lat="42.27634" lon="2.56901">
        <ele>500.511</ele>
        <time>2014-02-15T05:53:58Z</time>
      </trkpt>
      <trkpt lat="42.27642" lon="2.56902">
        <ele>503.946</ele>
        <time>2014-02-15T05:54:08Z</time>
      </trkpt>
      <trkpt lat="42.27654" lon="2.56905">
        <ele>506.869</ele>
        <time>2014-02-15T05:54:22Z</time>
      </trkpt>
      <trkpt lat="42.27663" lon="2.56909">
        <ele>509.644</ele>
        <time>2014-02-15T05:54:33Z</time>
      </trkpt>
      <trkpt lat="42.27676" lon="2.56909">
        <ele>511.623</ele>
        <time>2014-02-15T05:54:46Z</time>
      </trkpt>
      <trkpt lat="42.27685" lon="2.56911">
        <ele>514.95</ele>
        <time>2014-02-15T05:54:56Z</time>
      </trkpt>
      <trkpt lat="42.27696" lon="2.56918">
        <ele>513.512</ele>
        <time>2014-02-15T05:55:09Z</time>
      </trkpt>
      <trkpt lat="42.27698" lon="2.56917">
        <ele>513.076</ele>
        <time>2014-02-15T05:55:11Z</time>
      </trkpt>
      <trkpt lat="42.27709" lon="2.56911">
        <ele>512.09</ele>
        <time>2014-02-15T05:55:21Z</time>
      </trkpt>
      <trkpt lat="42.27727" lon="2.56912">
        <ele>510.619</ele>
        <time>2014-02-15T05:55:35Z</time>
      </trkpt>
      <trkpt lat="42.27733" lon="2.56916">
        <ele>509.207</ele>
        <time>2014-02-15T05:55:42Z</time>
      </trkpt>
      <trkpt lat="42.27741" lon="2.56923">
        <ele>508.263</ele>
        <time>2014-02-15T05:55:50Z</time>
      </trkpt>
      <trkpt lat="42.27751" lon="2.56932">
        <ele>506.848</ele>
        <time>2014-02-15T05:56:00Z</time>
      </trkpt>
      <trkpt lat="42.2776" lon="2.5694">
        <ele>504.431</ele>
        <time>2014-02-15T05:56:12Z</time>
      </trkpt>
      <trkpt lat="42.27768" lon="2.56946">
        <ele>502.996</ele>
        <time>2014-02-15T05:56:24Z</time>
      </trkpt>
      <trkpt lat="42.27771" lon="2.56948">
        <ele>503.485</ele>
        <time>2014-02-15T05:56:27Z</time>
      </trkpt>
      <trkpt lat="42.27791" lon="2.56961">
        <ele>502.992</ele>
        <time>2014-02-15T05:56:41Z</time>
      </trkpt>
      <trkpt lat="42.27807" lon="2.56973">
        <ele>503.424</ele>
        <time>2014-02-15T05:56:54Z</time>
      </trkpt>
      <trkpt lat="42.27817" lon="2.56977">
        <ele>503.923</ele>
        <time>2014-02-15T05:57:02Z</time>
      </trkpt>
      <trkpt lat="42.27833" lon="2.56977">
        <ele>502.483</ele>
        <time>2014-02-15T05:57:15Z</time>
      </trkpt>
      <trkpt lat="42.27844" lon="2.56975">
        <ele>501.011</ele>
        <time>2014-02-15T05:57:28Z</time>
      </trkpt>
      <trkpt lat="42.2785" lon="2.56971">
        <ele>497.607</ele>
        <time>2014-02-15T05:57:37Z</time>
      </trkpt>
      <trkpt lat="42.27864" lon="2.56965">
        <ele>495.218</ele>
        <time>2014-02-15T05:57:52Z</time>
      </trkpt>
      <trkpt lat="42.2788" lon="2.56956">
        <ele>493.373</ele>
        <time>2014-02-15T05:58:06Z</time>
      </trkpt>
      <trkpt lat="42.27896" lon="2.56949">
        <ele>493.396</ele>
        <time>2014-02-15T05:58:19Z</time>
      </trkpt>
      <trkpt lat="42.27911" lon="2.5694">
        <ele>493.391</ele>
        <time>2014-02-15T05:58:33Z</time>
      </trkpt>
      <trkpt lat="42.27925" lon="2.56935">
        <ele>495.22</ele>
        <time>2014-02-15T05:58:48Z</time>
      </trkpt>
      <trkpt lat="42.27933" lon="2.56936">
        <ele>497.627</ele>
        <time>2014-02-15T05:59:02Z</time>
      </trkpt>
      <trkpt lat="42.27946" lon="2.5694">
        <ele>499.529</ele>
        <time>2014-02-15T05:59:19Z</time>
      </trkpt>
      <trkpt lat="42.27957" lon="2.56938">
        <ele>502.991</ele>
        <time>2014-02-15T05:59:31Z</time>
      </trkpt>
      <trkpt lat="42.27965" lon="2.5694">
        <ele>504.881</ele>
        <time>2014-02-15T05:59:40Z</time>
      </trkpt>
      <trkpt lat="42.2798" lon="2.56942">
        <ele>507.719</ele>
        <time>2014-02-15T05:59:54Z</time>
      </trkpt>
      <trkpt lat="42.27987" lon="2.56945">
        <ele>509.207</ele>
        <time>2014-02-15T06:00:03Z</time>
      </trkpt>
      <trkpt lat="42.27994" lon="2.56949">
        <ele>508.795</ele>
        <time>2014-02-15T06:00:08Z</time>
      </trkpt>
      <trkpt lat="42.27998" lon="2.5695">
        <ele>512.06</ele>
        <time>2014-02-15T06:00:11Z</time>
      </trkpt>
      <trkpt lat="42.28012" lon="2.56949">
        <ele>513.033</ele>
        <time>2014-02-15T06:00:25Z</time>
      </trkpt>
      <trkpt lat="42.2802" lon="2.5695">
        <ele>513.068</ele>
        <time>2014-02-15T06:00:32Z</time>
      </trkpt>
      <trkpt lat="42.28028" lon="2.56953">
        <ele>513.547</ele>
        <time>2014-02-15T06:00:37Z</time>
      </trkpt>
      <trkpt lat="42.28036" lon="2.5695">
        <ele>514.954</ele>
        <time>2014-02-15T06:00:47Z</time>
      </trkpt>
      <trkpt lat="42.28045" lon="2.56943">
        <ele>515.456</ele>
        <time>2014-02-15T06:00:56Z</time>
      </trkpt>
      <trkpt lat="42.28069" lon="2.5693">
        <ele>513.557</ele>
        <time>2014-02-15T06:01:14Z</time>
      </trkpt>
      <trkpt lat="42.28077" lon="2.56926">
        <ele>510.6</ele>
        <time>2014-02-15T06:01:21Z</time>
      </trkpt>
      <trkpt lat="42.28092" lon="2.56919">
        <ele>507.72</ele>
        <time>2014-02-15T06:01:34Z</time>
      </trkpt>
      <trkpt lat="42.28101" lon="2.56913">
        <ele>507.707</ele>
        <time>2014-02-15T06:01:42Z</time>
      </trkpt>
      <trkpt lat="42.28116" lon="2.56901">
        <ele>508.761</ele>
        <time>2014-02-15T06:01:57Z</time>
      </trkpt>
      <trkpt lat="42.28127" lon="2.5689">
        <ele>508.216</ele>
        <time>2014-02-15T06:02:10Z</time>
      </trkpt>
      <trkpt lat="42.28142" lon="2.56883">
        <ele>508.779</ele>
        <time>2014-02-15T06:02:25Z</time>
      </trkpt>
      <trkpt lat="42.28152" lon="2.56876">
        <ele>509.274</ele>
        <time>2014-02-15T06:02:37Z</time>
      </trkpt>
      <trkpt lat="42.28171" lon="2.56867">
        <ele>510.123</ele>
        <time>2014-02-15T06:02:53Z</time>
      </trkpt>
      <trkpt lat="42.28181" lon="2.56863">
        <ele>509.21</ele>
        <time>2014-02-15T06:03:07Z</time>
      </trkpt>
      <trkpt lat="42.28193" lon="2.56857">
        <ele>510.182</ele>
        <time>2014-02-15T06:03:21Z</time>
      </trkpt>
      <trkpt lat="42.28205" lon="2.56847">
        <ele>511.622</ele>
        <time>2014-02-15T06:03:34Z</time>
      </trkpt>
      <trkpt lat="42.28218" lon="2.56837">
        <ele>513.562</ele>
        <time>2014-02-15T06:03:48Z</time>
      </trkpt>
      <trkpt lat="42.28223" lon="2.56834">
        <ele>514.008</ele>
        <time>2014-02-15T06:03:52Z</time>
      </trkpt>
      <trkpt lat="42.28238" lon="2.56826">
        <ele>515.407</ele>
        <time>2014-02-15T06:04:07Z</time>
      </trkpt>
      <trkpt lat="42.28247" lon="2.56819">
        <ele>516.418</ele>
        <time>2014-02-15T06:04:19Z</time>
      </trkpt>
      <trkpt lat="42.28265" lon="2.56813">
        <ele>517.813</ele>
        <time>2014-02-15T06:04:35Z</time>
      </trkpt>
      <trkpt lat="42.28275" lon="2.56812">
        <ele>519.396</ele>
        <time>2014-02-15T06:04:49Z</time>
      </trkpt>
      <trkpt lat="42.28287" lon="2.56807">
        <ele>521.721</ele>
        <time>2014-02-15T06:05:03Z</time>
      </trkpt>
      <trkpt lat="42.28295" lon="2.56799">
        <ele>524.13</ele>
        <time>2014-02-15T06:05:17Z</time>
      </trkpt>
      <trkpt lat="42.283" lon="2.56788">
        <ele>526.547</ele>
        <time>2014-02-15T06:05:29Z</time>
      </trkpt>
      <trkpt lat="42.28303" lon="2.56777">
        <ele>529.399</ele>
        <time>2014-02-15T06:05:40Z</time>
      </trkpt>
      <trkpt lat="42.28305" lon="2.56762">
        <ele>530.861</ele>
        <time>2014-02-15T06:05:53Z</time>
      </trkpt>
      <trkpt lat="42.28306" lon="2.56756">
        <ele>531.321</ele>
        <time>2014-02-15T06:06:08Z</time>
      </trkpt>
      <trkpt lat="42.28307" lon="2.56747">
        <ele>530.313</ele>
        <time>2014-02-15T06:06:24Z</time>
      </trkpt>
      <trkpt lat="42.28306" lon="2.56726">
        <ele>527.907</ele>
        <time>2014-02-15T06:06:38Z</time>
      </trkpt>
      <trkpt lat="42.28311" lon="2.56708">
        <ele>526.982</ele>
        <time>2014-02-15T06:06:53Z</time>
      </trkpt>
      <trkpt lat="42.28317" lon="2.56694">
        <ele>526.087</ele>
        <time>2014-02-15T06:07:06Z</time>
      </trkpt>
      <trkpt lat="42.28326" lon="2.56681">
        <ele>524.57</ele>
        <time>2014-02-15T06:07:19Z</time>
      </trkpt>
      <trkpt lat="42.28333" lon="2.56666">
        <ele>521.775</ele>
        <time>2014-02-15T06:07:32Z</time>
      </trkpt>
      <trkpt lat="42.28334" lon="2.56665">
        <ele>521.234</ele>
        <time>2014-02-15T06:07:33Z</time>
      </trkpt>
      <trkpt lat="42.28344" lon="2.56651">
        <ele>518.311</ele>
        <time>2014-02-15T06:07:47Z</time>
      </trkpt>
      <trkpt lat="42.28355" lon="2.5663">
        <ele>514.943</ele>
        <time>2014-02-15T06:08:02Z</time>
      </trkpt>
      <trkpt lat="42.28355" lon="2.56627">
        <ele>514.021</ele>
        <time>2014-02-15T06:08:04Z</time>
      </trkpt>
      <trkpt lat="42.2836" lon="2.56614">
        <ele>512.041</ele>
        <time>2014-02-15T06:08:15Z</time>
      </trkpt>
      <trkpt lat="42.28361" lon="2.56594">
        <ele>509.605</ele>
        <time>2014-02-15T06:08:30Z</time>
      </trkpt>
      <trkpt lat="42.28358" lon="2.56576">
        <ele>507.707</ele>
        <time>2014-02-15T06:08:43Z</time>
      </trkpt>
      <trkpt lat="42.2836" lon="2.5656">
        <ele>506.338</ele>
        <time>2014-02-15T06:08:55Z</time>
      </trkpt>
      <trkpt lat="42.2836" lon="2.56551">
        <ele>506.323</ele>
        <time>2014-02-15T06:09:00Z</time>
      </trkpt>
      <trkpt lat="42.2836" lon="2.56542">
        <ele>506.886</ele>
        <time>2014-02-15T06:09:06Z</time>
      </trkpt>
      <trkpt lat="42.28359" lon="2.56519">
        <ele>508.771</ele>
        <time>2014-02-15T06:09:20Z</time>
      </trkpt>
      <trkpt lat="42.28357" lon="2.56502">
        <ele>506.85</ele>
        <time>2014-02-15T06:09:33Z</time>
      </trkpt>
      <trkpt lat="42.28356" lon="2.56489">
        <ele>505.387</ele>
        <time>2014-02-15T06:09:44Z</time>
      </trkpt>
      <trkpt lat="42.28355" lon="2.56482">
        <ele>505.359</ele>
        <time>2014-02-15T06:09:48Z</time>
      </trkpt>
      <trkpt lat="42.28355" lon="2.56479">
        <ele>504.828</ele>
        <time>2014-02-15T06:09:50Z</time>
      </trkpt>
      <trkpt lat="42.28347" lon="2.56461">
        <ele>503.489</ele>
        <time>2014-02-15T06:10:07Z</time>
      </trkpt>
      <trkpt lat="42.28354" lon="2.56439">
        <ele>501.517</ele>
        <time>2014-02-15T06:10:23Z</time>
      </trkpt>
      <trkpt lat="42.2836" lon="2.56424">
        <ele>499.107</ele>
        <time>2014-02-15T06:10:37Z</time>
      </trkpt>
      <trkpt lat="42.28361" lon="2.56413">
        <ele>498.188</ele>
        <time>2014-02-15T06:10:45Z</time>
      </trkpt>
      <trkpt lat="42.28358" lon="2.56399">
        <ele>496.743</ele>
        <time>2014-02-15T06:10:58Z</time>
      </trkpt>
      <trkpt lat="42.28357" lon="2.56387">
        <ele>493.846</ele>
        <time>2014-02-15T06:11:11Z</time>
      </trkpt>
      <trkpt lat="42.28351" lon="2.56374">
        <ele>490.421</ele>
        <time>2014-02-15T06:11:24Z</time>
      </trkpt>
      <trkpt lat="42.28347" lon="2.5635">
        <ele>489.55</ele>
        <time>2014-02-15T06:11:40Z</time>
      </trkpt>
      <trkpt lat="42.28342" lon="2.56337">
        <ele>488.057</ele>
        <time>2014-02-15T06:11:52Z</time>
      </trkpt>
      <trkpt lat="42.28333" lon="2.5632">
        <ele>485.139</ele>
        <time>2014-02-15T06:12:05Z</time>
      </trkpt>
      <trkpt lat="42.28325" lon="2.56294">
        <ele>483.249</ele>
        <time>2014-02-15T06:12:21Z</time>
      </trkpt>
      <trkpt lat="42.2832" lon="2.56275">
        <ele>479.802</ele>
        <time>2014-02-15T06:12:35Z</time>
      </trkpt>
      <trkpt lat="42.28316" lon="2.56258">
        <ele>477.422</ele>
        <time>2014-02-15T06:12:49Z</time>
      </trkpt>
      <trkpt lat="42.28314" lon="2.5625">
        <ele>477.007</ele>
        <time>2014-02-15T06:12:56Z</time>
      </trkpt>
      <trkpt lat="42.28311" lon="2.56236">
        <ele>475.57</ele>
        <time>2014-02-15T06:13:09Z</time>
      </trkpt>
      <trkpt lat="42.2831" lon="2.56229">
        <ele>475.045</ele>
        <time>2014-02-15T06:13:14Z</time>
      </trkpt>
      <trkpt lat="42.28307" lon="2.56221">
        <ele>474.628</ele>
        <time>2014-02-15T06:13:20Z</time>
      </trkpt>
      <trkpt lat="42.28299" lon="2.5621">
        <ele>472.633</ele>
        <time>2014-02-15T06:13:34Z</time>
      </trkpt>
      <trkpt lat="42.28299" lon="2.56195">
        <ele>474.192</ele>
        <time>2014-02-15T06:13:47Z</time>
      </trkpt>
      <trkpt lat="42.28306" lon="2.56184">
        <ele>477.019</ele>
        <time>2014-02-15T06:14:00Z</time>
      </trkpt>
      <trkpt lat="42.28311" lon="2.5618">
        <ele>479.461</ele>
        <time>2014-02-15T06:14:16Z</time>
      </trkpt>
      <trkpt lat="42.28319" lon="2.56178">
        <ele>479.884</ele>
        <time>2014-02-15T06:14:29Z</time>
      </trkpt>
      <trkpt lat="42.28331" lon="2.56181">
        <ele>478.907</ele>
        <time>2014-02-15T06:14:41Z</time>
      </trkpt>
      <trkpt lat="42.28339" lon="2.56186">
        <ele>477.417</ele>
        <time>2014-02-15T06:14:46Z</time>
      </trkpt>
      <trkpt lat="42.28359" lon="2.56187">
        <ele>474.107</ele>
        <time>2014-02-15T06:15:00Z</time>
      </trkpt>
      <trkpt lat="42.28373" lon="2.56188">
        <ele>470.744</ele>
        <time>2014-02-15T06:15:12Z</time>
      </trkpt>
      <trkpt lat="42.28385" lon="2.56185">
        <ele>467.319</ele>
        <time>2014-02-15T06:15:23Z</time>
      </trkpt>
      <trkpt lat="42.28395" lon="2.56182">
        <ele>464.552</ele>
        <time>2014-02-15T06:15:34Z</time>
      </trkpt>
      <trkpt lat="42.28404" lon="2.56178">
        <ele>461.687</ele>
        <time>2014-02-15T06:15:47Z</time>
      </trkpt>
      <trkpt lat="42.2841" lon="2.56171">
        <ele>458.796</ele>
        <time>2014-02-15T06:15:59Z</time>
      </trkpt>
      <trkpt lat="42.28414" lon="2.56169">
        <ele>456.883</ele>
        <time>2014-02-15T06:16:04Z</time>
      </trkpt>
      <trkpt lat="42.28421" lon="2.56159">
        <ele>453.915</ele>
        <time>2014-02-15T06:16:14Z</time>
      </trkpt>
      <trkpt lat="42.28429" lon="2.56147">
        <ele>450.572</ele>
        <time>2014-02-15T06:16:25Z</time>
      </trkpt>
      <trkpt lat="42.28435" lon="2.5614">
        <ele>448.113</ele>
        <time>2014-02-15T06:16:33Z</time>
      </trkpt>
      <trkpt lat="42.28441" lon="2.56141">
        <ele>445.714</ele>
        <time>2014-02-15T06:16:47Z</time>
      </trkpt>
      <trkpt lat="42.28445" lon="2.56134">
        <ele>442.307</ele>
        <time>2014-02-15T06:16:58Z</time>
      </trkpt>
      <trkpt lat="42.28449" lon="2.56125">
        <ele>439.523</ele>
        <time>2014-02-15T06:17:09Z</time>
      </trkpt>
      <trkpt lat="42.28453" lon="2.56121">
        <ele>438.598</ele>
        <time>2014-02-15T06:17:14Z</time>
      </trkpt>
      <trkpt lat="42.28463" lon="2.56112">
        <ele>435.141</ele>
        <time>2014-02-15T06:17:26Z</time>
      </trkpt>
      <trkpt lat="42.28467" lon="2.5611">
        <ele>434.216</ele>
        <time>2014-02-15T06:17:32Z</time>
      </trkpt>
      <trkpt lat="42.28478" lon="2.56099">
        <ele>431.345</ele>
        <time>2014-02-15T06:17:45Z</time>
      </trkpt>
      <trkpt lat="42.28483" lon="2.56089">
        <ele>427.942</ele>
        <time>2014-02-15T06:17:58Z</time>
      </trkpt>
      <trkpt lat="42.28493" lon="2.56081">
        <ele>424.614</ele>
        <time>2014-02-15T06:18:10Z</time>
      </trkpt>
      <trkpt lat="42.28504" lon="2.56079">
        <ele>421.249</ele>
        <time>2014-02-15T06:18:20Z</time>
      </trkpt>
      <trkpt lat="42.28513" lon="2.56086">
        <ele>418.802</ele>
        <time>2014-02-15T06:18:33Z</time>
      </trkpt>
      <trkpt lat="42.28521" lon="2.56092">
        <ele>418.822</ele>
        <time>2014-02-15T06:18:52Z</time>
      </trkpt>
      <trkpt lat="42.2852" lon="2.5609">
        <ele>418.307</ele>
        <time>2014-02-15T06:19:07Z</time>
      </trkpt>
      <trkpt lat="42.28521" lon="2.56091">
        <ele>418.81</ele>
        <time>2014-02-15T06:19:20Z</time>
      </trkpt>
      <trkpt lat="42.28522" lon="2.56105">
        <ele>417.835</ele>
        <time>2014-02-15T06:19:32Z</time>
      </trkpt>
      <trkpt lat="42.28516" lon="2.56117">
        <ele>415.418</ele>
        <time>2014-02-15T06:19:45Z</time>
      </trkpt>
      <trkpt lat="42.28513" lon="2.56125">
        <ele>413.593</ele>
        <time>2014-02-15T06:19:53Z</time>
      </trkpt>
      <trkpt lat="42.28504" lon="2.56144">
        <ele>410.672</ele>
        <time>2014-02-15T06:20:09Z</time>
      </trkpt>
      <trkpt lat="42.28501" lon="2.56152">
        <ele>408.729</ele>
        <time>2014-02-15T06:20:18Z</time>
      </trkpt>
      <trkpt lat="42.28502" lon="2.56166">
        <ele>406.321</ele>
        <time>2014-02-15T06:20:32Z</time>
      </trkpt>
      <trkpt lat="42.28502" lon="2.56184">
        <ele>403.963</ele>
        <time>2014-02-15T06:20:45Z</time>
      </trkpt>
      <trkpt lat="42.285" lon="2.56207">
        <ele>401.544</ele>
        <time>2014-02-15T06:21:01Z</time>
      </trkpt>
      <trkpt lat="42.28504" lon="2.56207">
        <ele>398.618</ele>
        <time>2014-02-15T06:21:15Z</time>
      </trkpt>
      <trkpt lat="42.28511" lon="2.56196">
        <ele>395.207</ele>
        <time>2014-02-15T06:21:29Z</time>
      </trkpt>
      <trkpt lat="42.28519" lon="2.56187">
        <ele>391.912</ele>
        <time>2014-02-15T06:21:40Z</time>
      </trkpt>
      <trkpt lat="42.28525" lon="2.56176">
        <ele>389.587</ele>
        <time>2014-02-15T06:21:50Z</time>
      </trkpt>
      <trkpt lat="42.28538" lon="2.56174">
        <ele>386.63</ele>
        <time>2014-02-15T06:22:04Z</time>
      </trkpt>
      <trkpt lat="42.28543" lon="2.56174">
        <ele>384.765</ele>
        <time>2014-02-15T06:22:11Z</time>
      </trkpt>
      <trkpt lat="42.28555" lon="2.56175">
        <ele>381.374</ele>
        <time>2014-02-15T06:22:24Z</time>
      </trkpt>
      <trkpt lat="42.2856" lon="2.56182">
        <ele>378.411</ele>
        <time>2014-02-15T06:22:34Z</time>
      </trkpt>
      <trkpt lat="42.28562" lon="2.56185">
        <ele>377.993</ele>
        <time>2014-02-15T06:22:36Z</time>
      </trkpt>
      <trkpt lat="42.28566" lon="2.56187">
        <ele>377.076</ele>
        <time>2014-02-15T06:22:39Z</time>
      </trkpt>
      <trkpt lat="42.28575" lon="2.56196">
        <ele>373.19</ele>
        <time>2014-02-15T06:22:51Z</time>
      </trkpt>
      <trkpt lat="42.28585" lon="2.56205">
        <ele>370.219</ele>
        <time>2014-02-15T06:23:02Z</time>
      </trkpt>
      <trkpt lat="42.28594" lon="2.56213">
        <ele>367.807</ele>
        <time>2014-02-15T06:23:10Z</time>
      </trkpt>
      <trkpt lat="42.28604" lon="2.56226">
        <ele>365.093</ele>
        <time>2014-02-15T06:23:24Z</time>
      </trkpt>
      <trkpt lat="42.28606" lon="2.56229">
        <ele>363.528</ele>
        <time>2014-02-15T06:23:26Z</time>
      </trkpt>
      <trkpt lat="42.28607" lon="2.56232">
        <ele>363.551</ele>
        <time>2014-02-15T06:23:28Z</time>
      </trkpt>
      <trkpt lat="42.28622" lon="2.56249">
        <ele>361.156</ele>
        <time>2014-02-15T06:23:40Z</time>
      </trkpt>
      <trkpt lat="42.28637" lon="2.56256">
        <ele>360.245</ele>
        <time>2014-02-15T06:23:52Z</time>
      </trkpt>
      <trkpt lat="42.2866" lon="2.56266">
        <ele>358.772</ele>
        <time>2014-02-15T06:24:08Z</time>
      </trkpt>
      <trkpt lat="42.28668" lon="2.56268">
        <ele>358.254</ele>
        <time>2014-02-15T06:24:21Z</time>
      </trkpt>
      <trkpt lat="42.28667" lon="2.56269">
        <ele>358.252</ele>
        <time>2014-02-15T06:24:25Z</time>
      </trkpt>
      <trkpt lat="42.28667" lon="2.56286">
        <ele>357.853</ele>
        <time>2014-02-15T06:24:33Z</time>
      </trkpt>
      <trkpt lat="42.28666" lon="2.56294">
        <ele>357.808</ele>
        <time>2014-02-15T06:24:38Z</time>
      </trkpt>
      <trkpt lat="42.28663" lon="2.56314">
        <ele>356.307</ele>
        <time>2014-02-15T06:24:51Z</time>
      </trkpt>
      <trkpt lat="42.28659" lon="2.56326">
        <ele>355.861</ele>
        <time>2014-02-15T06:24:58Z</time>
      </trkpt>
      <trkpt lat="42.28663" lon="2.56339">
        <ele>354.426</ele>
        <time>2014-02-15T06:25:07Z</time>
      </trkpt>
      <trkpt lat="42.28674" lon="2.56344">
        <ele>353.949</ele>
        <time>2014-02-15T06:25:20Z</time>
      </trkpt>
      <trkpt lat="42.28669" lon="2.56353">
        <ele>352.924</ele>
        <time>2014-02-15T06:25:31Z</time>
      </trkpt>
      <trkpt lat="42.28664" lon="2.56357">
        <ele>352.553</ele>
        <time>2014-02-15T06:25:44Z</time>
      </trkpt>
      <trkpt lat="42.28663" lon="2.56358">
        <ele>352.05</ele>
        <time>2014-02-15T06:25:45Z</time>
      </trkpt>
      <trkpt lat="42.28667" lon="2.56365">
        <ele>349.612</ele>
        <time>2014-02-15T06:25:59Z</time>
      </trkpt>
      <trkpt lat="42.28666" lon="2.56365">
        <ele>349.183</ele>
        <time>2014-02-15T06:26:22Z</time>
      </trkpt>
      <trkpt lat="42.28663" lon="2.56365">
        <ele>351.025</ele>
        <time>2014-02-15T06:26:33Z</time>
      </trkpt>
      <trkpt lat="42.28662" lon="2.56364">
        <ele>351.017</ele>
        <time>2014-02-15T06:26:34Z</time>
      </trkpt>
      <trkpt lat="42.28658" lon="2.56358">
        <ele>352.907</ele>
        <time>2014-02-15T06:26:44Z</time>
      </trkpt>
      <trkpt lat="42.28659" lon="2.56353">
        <ele>353.974</ele>
        <time>2014-02-15T06:26:49Z</time>
      </trkpt>
      <trkpt lat="42.2866" lon="2.56339">
        <ele>354.439</ele>
        <time>2014-02-15T06:27:00Z</time>
      </trkpt>
      <trkpt lat="42.28662" lon="2.56322">
        <ele>355.842</ele>
        <time>2014-02-15T06:27:16Z</time>
      </trkpt>
      <trkpt lat="42.28662" lon="2.5632">
        <ele>355.897</ele>
        <time>2014-02-15T06:27:17Z</time>
      </trkpt>
      <trkpt lat="42.28665" lon="2.56314">
        <ele>355.386</ele>
        <time>2014-02-15T06:27:27Z</time>
      </trkpt>
      <trkpt lat="42.28666" lon="2.56313">
        <ele>356.363</ele>
        <time>2014-02-15T06:27:29Z</time>
      </trkpt>
      <trkpt lat="42.28674" lon="2.56304">
        <ele>356.325</ele>
        <time>2014-02-15T06:27:48Z</time>
      </trkpt>
      <trkpt lat="42.28673" lon="2.56303">
        <ele>355.853</ele>
        <time>2014-02-15T06:28:01Z</time>
      </trkpt>
      <trkpt lat="42.28684" lon="2.56297">
        <ele>350.104</ele>
        <time>2014-02-15T06:28:10Z</time>
      </trkpt>
      <trkpt lat="42.28685" lon="2.56296">
        <ele>365.014</ele>
        <time>2014-02-15T06:28:11Z</time>
      </trkpt>
      <trkpt lat="42.28685" lon="2.56296">
        <ele>361.607</ele>
        <time>2014-02-15T06:28:12Z</time>
      </trkpt>
      <trkpt lat="42.28688" lon="2.56294">
        <ele>355.881</ele>
        <time>2014-02-15T06:28:15Z</time>
      </trkpt>
      <trkpt lat="42.2869" lon="2.56294">
        <ele>354.946</ele>
        <time>2014-02-15T06:28:16Z</time>
      </trkpt>
      <trkpt lat="42.28699" lon="2.56294">
        <ele>355.879</ele>
        <time>2014-02-15T06:28:29Z</time>
      </trkpt>
      <trkpt lat="42.28694" lon="2.56307">
        <ele>354.974</ele>
        <time>2014-02-15T06:28:41Z</time>
      </trkpt>
      <trkpt lat="42.28686" lon="2.56324">
        <ele>355.373</ele>
        <time>2014-02-15T06:28:53Z</time>
      </trkpt>
      <trkpt lat="42.28684" lon="2.56332">
        <ele>354.93</ele>
        <time>2014-02-15T06:28:57Z</time>
      </trkpt>
      <trkpt lat="42.28686" lon="2.56356">
        <ele>352.032</ele>
        <time>2014-02-15T06:29:11Z</time>
      </trkpt>
      <trkpt lat="42.28687" lon="2.56372">
        <ele>350.189</ele>
        <time>2014-02-15T06:29:23Z</time>
      </trkpt>
      <trkpt lat="42.28693" lon="2.56385">
        <ele>346.706</ele>
        <time>2014-02-15T06:29:36Z</time>
      </trkpt>
      <trkpt lat="42.28701" lon="2.56398">
        <ele>344.326</ele>
        <time>2014-02-15T06:29:49Z</time>
      </trkpt>
      <trkpt lat="42.28704" lon="2.56411">
        <ele>340.907</ele>
        <time>2014-02-15T06:30:02Z</time>
      </trkpt>
      <trkpt lat="42.28704" lon="2.56413">
        <ele>340.014</ele>
        <time>2014-02-15T06:30:04Z</time>
      </trkpt>
      <trkpt lat="42.28703" lon="2.56427">
        <ele>337.159</ele>
        <time>2014-02-15T06:30:18Z</time>
      </trkpt>
      <trkpt lat="42.287" lon="2.56435">
        <ele>333.732</ele>
        <time>2014-02-15T06:30:28Z</time>
      </trkpt>
      <trkpt lat="42.287" lon="2.56436">
        <ele>333.277</ele>
        <time>2014-02-15T06:30:32Z</time>
      </trkpt>
      <trkpt lat="42.28708" lon="2.56437">
        <ele>331.856</ele>
        <time>2014-02-15T06:30:43Z</time>
      </trkpt>
      <trkpt lat="42.28712" lon="2.56431">
        <ele>330.853</ele>
        <time>2014-02-15T06:30:57Z</time>
      </trkpt>
      <trkpt lat="42.28714" lon="2.5644">
        <ele>330.825</ele>
        <time>2014-02-15T06:31:10Z</time>
      </trkpt>
      <trkpt lat="42.28715" lon="2.56443">
        <ele>330.811</ele>
        <time>2014-02-15T06:31:22Z</time>
      </trkpt>
      <trkpt lat="42.28715" lon="2.56434">
        <ele>330.421</ele>
        <time>2014-02-15T06:31:33Z</time>
      </trkpt>
      <trkpt lat="42.28723" lon="2.56425">
        <ele>330.403</ele>
        <time>2014-02-15T06:31:46Z</time>
      </trkpt>
      <trkpt lat="42.28726" lon="2.56418">
        <ele>330.807</ele>
        <time>2014-02-15T06:31:55Z</time>
      </trkpt>
      <trkpt lat="42.2873" lon="2.56417">
        <ele>331.357</ele>
        <time>2014-02-15T06:32:09Z</time>
      </trkpt>
      <trkpt lat="42.28735" lon="2.56425">
        <ele>333.252</ele>
        <time>2014-02-15T06:32:21Z</time>
      </trkpt>
      <trkpt lat="42.2874" lon="2.56432">
        <ele>335.645</ele>
        <time>2014-02-15T06:32:33Z</time>
      </trkpt>
      <trkpt lat="42.28743" lon="2.5644">
        <ele>337.14</ele>
        <time>2014-02-15T06:32:45Z</time>
      </trkpt>
      <trkpt lat="42.28741" lon="2.5645">
        <ele>340.949</ele>
        <time>2014-02-15T06:32:58Z</time>
      </trkpt>
      <trkpt lat="42.2874" lon="2.56459">
        <ele>343.346</ele>
        <time>2014-02-15T06:33:10Z</time>
      </trkpt>
      <trkpt lat="42.28744" lon="2.56463">
        <ele>346.798</ele>
        <time>2014-02-15T06:33:20Z</time>
      </trkpt>
      <trkpt lat="42.28751" lon="2.56464">
        <ele>350.118</ele>
        <time>2014-02-15T06:33:34Z</time>
      </trkpt>
      <trkpt lat="42.28756" lon="2.56467">
        <ele>350.598</ele>
        <time>2014-02-15T06:33:45Z</time>
      </trkpt>
      <trkpt lat="42.28765" lon="2.56473">
        <ele>351.517</ele>
        <time>2014-02-15T06:33:59Z</time>
      </trkpt>
      <trkpt lat="42.28774" lon="2.56481">
        <ele>352.907</ele>
        <time>2014-02-15T06:34:12Z</time>
      </trkpt>
      <trkpt lat="42.28782" lon="2.56489">
        <ele>355.387</ele>
        <time>2014-02-15T06:34:24Z</time>
      </trkpt>
      <trkpt lat="42.28788" lon="2.56502">
        <ele>358.282</ele>
        <time>2014-02-15T06:34:38Z</time>
      </trkpt>
      <trkpt lat="42.2879" lon="2.56508">
        <ele>359.785</ele>
        <time>2014-02-15T06:34:44Z</time>
      </trkpt>
      <trkpt lat="42.28793" lon="2.56516">
        <ele>363.03</ele>
        <time>2014-02-15T06:34:59Z</time>
      </trkpt>
      <trkpt lat="42.28793" lon="2.56522">
        <ele>365.499</ele>
        <time>2014-02-15T06:35:13Z</time>
      </trkpt>
      <trkpt lat="42.28794" lon="2.56528">
        <ele>368.836</ele>
        <time>2014-02-15T06:35:24Z</time>
      </trkpt>
      <trkpt lat="42.288" lon="2.56535">
        <ele>370.798</ele>
        <time>2014-02-15T06:35:39Z</time>
      </trkpt>
      <trkpt lat="42.28804" lon="2.5654">
        <ele>370.793</ele>
        <time>2014-02-15T06:35:51Z</time>
      </trkpt>
      <trkpt lat="42.28807" lon="2.56554">
        <ele>370.765</ele>
        <time>2014-02-15T06:36:11Z</time>
      </trkpt>
      <trkpt lat="42.28806" lon="2.56558">
        <ele>371.721</ele>
        <time>2014-02-15T06:36:36Z</time>
      </trkpt>
      <trkpt lat="42.28809" lon="2.56568">
        <ele>370.707</ele>
        <time>2014-02-15T06:37:08Z</time>
      </trkpt>
      <trkpt lat="42.2881" lon="2.56572">
        <ele>371.285</ele>
        <time>2014-02-15T06:37:40Z</time>
      </trkpt>
      <trkpt lat="42.28805" lon="2.56571">
        <ele>371.73</ele>
        <time>2014-02-15T06:38:20Z</time>
      </trkpt>
      <trkpt lat="42.28807" lon="2.5657">
        <ele>371.793</ele>
        <time>2014-02-15T06:38:40Z</time>
      </trkpt>
      <trkpt lat="42.28805" lon="2.56567">
        <ele>373.128</ele>
        <time>2014-02-15T06:38:52Z</time>
      </trkpt>
      <trkpt lat="42.28805" lon="2.56567">
        <ele>372.257</ele>
        <time>2014-02-15T06:38:54Z</time>
      </trkpt>
      <trkpt lat="42.28805" lon="2.56567">
        <ele>368.874</ele>
        <time>2014-02-15T06:38:57Z</time>
      </trkpt>
      <trkpt lat="42.28805" lon="2.56567">
        <ele>370.286</ele>
        <time>2014-02-15T06:38:58Z</time>
      </trkpt>
      <trkpt lat="42.28804" lon="2.56567">
        <ele>374.147</ele>
        <time>2014-02-15T06:38:59Z</time>
      </trkpt>
      <trkpt lat="42.28804" lon="2.56567">
        <ele>372.729</ele>
        <time>2014-02-15T06:39:00Z</time>
      </trkpt>
      <trkpt lat="42.28804" lon="2.56567">
        <ele>371.721</ele>
        <time>2014-02-15T06:39:02Z</time>
      </trkpt>
      <trkpt lat="42.28805" lon="2.56567">
        <ele>371.707</ele>
        <time>2014-02-15T06:39:24Z</time>
      </trkpt>
      <trkpt lat="42.28806" lon="2.56567">
        <ele>371.26</ele>
        <time>2014-02-15T06:39:49Z</time>
      </trkpt>
      <trkpt lat="42.2881" lon="2.56567">
        <ele>370.725</ele>
        <time>2014-02-15T06:40:15Z</time>
      </trkpt>
      <trkpt lat="42.28808" lon="2.56564">
        <ele>369.838</ele>
        <time>2014-02-15T06:40:35Z</time>
      </trkpt>
      <trkpt lat="42.28806" lon="2.56564">
        <ele>370.763</ele>
        <time>2014-02-15T06:40:56Z</time>
      </trkpt>
      <trkpt lat="42.28807" lon="2.56565">
        <ele>370.782</ele>
        <time>2014-02-15T06:41:17Z</time>
      </trkpt>
      <trkpt lat="42.28807" lon="2.56566">
        <ele>371.289</ele>
        <time>2014-02-15T06:41:39Z</time>
      </trkpt>
      <trkpt lat="42.28808" lon="2.56566">
        <ele>370.711</ele>
        <time>2014-02-15T06:42:13Z</time>
      </trkpt>
      <trkpt lat="42.28813" lon="2.56575">
        <ele>369.838</ele>
        <time>2014-02-15T06:42:27Z</time>
      </trkpt>
      <trkpt lat="42.28815" lon="2.56578">
        <ele>368.37</ele>
        <time>2014-02-15T06:42:30Z</time>
      </trkpt>
      <trkpt lat="42.28819" lon="2.56582">
        <ele>366.917</ele>
        <time>2014-02-15T06:42:37Z</time>
      </trkpt>
      <trkpt lat="42.28816" lon="2.56576">
        <ele>367.807</ele>
        <time>2014-02-15T06:42:45Z</time>
      </trkpt>
      <trkpt lat="42.28815" lon="2.5656">
        <ele>370.779</ele>
        <time>2014-02-15T06:43:00Z</time>
      </trkpt>
      <trkpt lat="42.28823" lon="2.56546">
        <ele>372.784</ele>
        <time>2014-02-15T06:43:13Z</time>
      </trkpt>
      <trkpt lat="42.28825" lon="2.56535">
        <ele>375.177</ele>
        <time>2014-02-15T06:43:25Z</time>
      </trkpt>
      <trkpt lat="42.28828" lon="2.56524">
        <ele>377.572</ele>
        <time>2014-02-15T06:43:36Z</time>
      </trkpt>
      <trkpt lat="42.28834" lon="2.56519">
        <ele>379.481</ele>
        <time>2014-02-15T06:43:46Z</time>
      </trkpt>
      <trkpt lat="42.28844" lon="2.56496">
        <ele>380.338</ele>
        <time>2014-02-15T06:44:02Z</time>
      </trkpt>
      <trkpt lat="42.28844" lon="2.56492">
        <ele>381.85</ele>
        <time>2014-02-15T06:44:23Z</time>
      </trkpt>
      <trkpt lat="42.28848" lon="2.56494">
        <ele>381.869</ele>
        <time>2014-02-15T06:44:44Z</time>
      </trkpt>
      <trkpt lat="42.28851" lon="2.56502">
        <ele>384.704</ele>
        <time>2014-02-15T06:44:57Z</time>
      </trkpt>
      <trkpt lat="42.28854" lon="2.56517">
        <ele>386.124</ele>
        <time>2014-02-15T06:45:09Z</time>
      </trkpt>
      <trkpt lat="42.28858" lon="2.56522">
        <ele>387.607</ele>
        <time>2014-02-15T06:45:22Z</time>
      </trkpt>
      <trkpt lat="42.2886" lon="2.56525">
        <ele>388.012</ele>
        <time>2014-02-15T06:45:27Z</time>
      </trkpt>
      <trkpt lat="42.28864" lon="2.56542">
        <ele>390.947</ele>
        <time>2014-02-15T06:45:41Z</time>
      </trkpt>
      <trkpt lat="42.28868" lon="2.56555">
        <ele>394.39</ele>
        <time>2014-02-15T06:45:53Z</time>
      </trkpt>
      <trkpt lat="42.2887" lon="2.56565">
        <ele>396.295</ele>
        <time>2014-02-15T06:46:04Z</time>
      </trkpt>
      <trkpt lat="42.28874" lon="2.56579">
        <ele>400.164</ele>
        <time>2014-02-15T06:46:18Z</time>
      </trkpt>
      <trkpt lat="42.28875" lon="2.56593">
        <ele>402.011</ele>
        <time>2014-02-15T06:46:29Z</time>
      </trkpt>
      <trkpt lat="42.28879" lon="2.56606">
        <ele>404.473</ele>
        <time>2014-02-15T06:46:43Z</time>
      </trkpt>
      <trkpt lat="42.28882" lon="2.56616">
        <ele>406.337</ele>
        <time>2014-02-15T06:46:54Z</time>
      </trkpt>
      <trkpt lat="42.28881" lon="2.5663">
        <ele>408.249</ele>
        <time>2014-02-15T06:47:06Z</time>
      </trkpt>
      <trkpt lat="42.28884" lon="2.56639">
        <ele>409.713</ele>
        <time>2014-02-15T06:47:16Z</time>
      </trkpt>
      <trkpt lat="42.28888" lon="2.56655">
        <ele>411.607</ele>
        <time>2014-02-15T06:47:27Z</time>
      </trkpt>
      <trkpt lat="42.28888" lon="2.56658">
        <ele>412.139</ele>
        <time>2014-02-15T06:47:29Z</time>
      </trkpt>
      <trkpt lat="42.28891" lon="2.56675">
        <ele>412.174</ele>
        <time>2014-02-15T06:47:43Z</time>
      </trkpt>
      <trkpt lat="42.28898" lon="2.56688">
        <ele>412.127</ele>
        <time>2014-02-15T06:47:55Z</time>
      </trkpt>
      <trkpt lat="42.28907" lon="2.56703">
        <ele>414.542</ele>
        <time>2014-02-15T06:48:09Z</time>
      </trkpt>
      <trkpt lat="42.28908" lon="2.56707">
        <ele>413.061</ele>
        <time>2014-02-15T06:48:19Z</time>
      </trkpt>
      <trkpt lat="42.28909" lon="2.56716">
        <ele>415.998</ele>
        <time>2014-02-15T06:48:30Z</time>
      </trkpt>
      <trkpt lat="42.28905" lon="2.56723">
        <ele>419.38</ele>
        <time>2014-02-15T06:48:42Z</time>
      </trkpt>
      <trkpt lat="42.28898" lon="2.5673">
        <ele>420.782</ele>
        <time>2014-02-15T06:48:53Z</time>
      </trkpt>
      <trkpt lat="42.289" lon="2.56735">
        <ele>423.643</ele>
        <time>2014-02-15T06:49:04Z</time>
      </trkpt>
      <trkpt lat="42.28905" lon="2.56738">
        <ele>426.017</ele>
        <time>2014-02-15T06:49:17Z</time>
      </trkpt>
      <trkpt lat="42.28905" lon="2.56743">
        <ele>428.407</ele>
        <time>2014-02-15T06:49:28Z</time>
      </trkpt>
      <trkpt lat="42.28904" lon="2.56743">
        <ele>428.494</ele>
        <time>2014-02-15T06:49:29Z</time>
      </trkpt>
      <trkpt lat="42.28899" lon="2.56747">
        <ele>430.379</ele>
        <time>2014-02-15T06:49:42Z</time>
      </trkpt>
      <trkpt lat="42.28899" lon="2.5675">
        <ele>432.392</ele>
        <time>2014-02-15T06:49:47Z</time>
      </trkpt>
      <trkpt lat="42.28894" lon="2.5676">
        <ele>434.777</ele>
        <time>2014-02-15T06:49:59Z</time>
      </trkpt>
      <trkpt lat="42.28895" lon="2.56765">
        <ele>436.636</ele>
        <time>2014-02-15T06:50:10Z</time>
      </trkpt>
      <trkpt lat="42.28895" lon="2.56772">
        <ele>439.933</ele>
        <time>2014-02-15T06:50:24Z</time>
      </trkpt>
      <trkpt lat="42.28897" lon="2.56771">
        <ele>441.945</ele>
        <time>2014-02-15T06:50:35Z</time>
      </trkpt>
      <trkpt lat="42.28898" lon="2.56784">
        <ele>444.821</ele>
        <time>2014-02-15T06:50:46Z</time>
      </trkpt>
      <trkpt lat="42.28898" lon="2.56791">
        <ele>447.641</ele>
        <time>2014-02-15T06:50:57Z</time>
      </trkpt>
      <trkpt lat="42.28895" lon="2.56797">
        <ele>450.005</ele>
        <time>2014-02-15T06:51:08Z</time>
      </trkpt>
      <trkpt lat="42.28895" lon="2.56803">
        <ele>452.907</ele>
        <time>2014-02-15T06:51:18Z</time>
      </trkpt>
      <trkpt lat="42.28896" lon="2.56802">
        <ele>452.958</ele>
        <time>2014-02-15T06:51:20Z</time>
      </trkpt>
      <trkpt lat="42.28897" lon="2.56797">
        <ele>454.483</ele>
        <time>2014-02-15T06:51:26Z</time>
      </trkpt>
      <trkpt lat="42.28901" lon="2.56795">
        <ele>457.296</ele>
        <time>2014-02-15T06:51:38Z</time>
      </trkpt>
      <trkpt lat="42.28899" lon="2.56798">
        <ele>460.191</ele>
        <time>2014-02-15T06:51:50Z</time>
      </trkpt>
      <trkpt lat="42.28901" lon="2.568">
        <ele>460.63</ele>
        <time>2014-02-15T06:52:03Z</time>
      </trkpt>
      <trkpt lat="42.28903" lon="2.56801">
        <ele>462.537</ele>
        <time>2014-02-15T06:52:13Z</time>
      </trkpt>
      <trkpt lat="42.28909" lon="2.56798">
        <ele>464.979</ele>
        <time>2014-02-15T06:52:23Z</time>
      </trkpt>
      <trkpt lat="42.28914" lon="2.56799">
        <ele>467.834</ele>
        <time>2014-02-15T06:52:34Z</time>
      </trkpt>
      <trkpt lat="42.28911" lon="2.56802">
        <ele>464.955</ele>
        <time>2014-02-15T06:52:45Z</time>
      </trkpt>
      <trkpt lat="42.28908" lon="2.56804">
        <ele>462.11</ele>
        <time>2014-02-15T06:52:53Z</time>
      </trkpt>
      <trkpt lat="42.28901" lon="2.56816">
        <ele>464.007</ele>
        <time>2014-02-15T06:53:07Z</time>
      </trkpt>
      <trkpt lat="42.28901" lon="2.56818">
        <ele>464.989</ele>
        <time>2014-02-15T06:53:09Z</time>
      </trkpt>
      <trkpt lat="42.28902" lon="2.56829">
        <ele>468.364</ele>
        <time>2014-02-15T06:53:18Z</time>
      </trkpt>
      <trkpt lat="42.289" lon="2.56831">
        <ele>468.847</ele>
        <time>2014-02-15T06:53:20Z</time>
      </trkpt>
      <trkpt lat="42.28896" lon="2.56844">
        <ele>472.612</ele>
        <time>2014-02-15T06:53:33Z</time>
      </trkpt>
      <trkpt lat="42.28895" lon="2.56853">
        <ele>475.081</ele>
        <time>2014-02-15T06:53:40Z</time>
      </trkpt>
      <trkpt lat="42.28892" lon="2.56863">
        <ele>477.478</ele>
        <time>2014-02-15T06:53:54Z</time>
      </trkpt>
      <trkpt lat="42.28893" lon="2.56863">
        <ele>479.45</ele>
        <time>2014-02-15T06:53:59Z</time>
      </trkpt>
      <trkpt lat="42.28888" lon="2.56897">
        <ele>477.985</ele>
        <time>2014-02-15T06:54:17Z</time>
      </trkpt>
      <trkpt lat="42.28888" lon="2.56901">
        <ele>478.989</ele>
        <time>2014-02-15T06:54:23Z</time>
      </trkpt>
      <trkpt lat="42.28883" lon="2.56908">
        <ele>481.317</ele>
        <time>2014-02-15T06:54:32Z</time>
      </trkpt>
      <trkpt lat="42.28881" lon="2.56908">
        <ele>482.207</ele>
        <time>2014-02-15T06:54:34Z</time>
      </trkpt>
      <trkpt lat="42.28878" lon="2.56907">
        <ele>482.284</ele>
        <time>2014-02-15T06:54:36Z</time>
      </trkpt>
      <trkpt lat="42.28869" lon="2.569">
        <ele>485.139</ele>
        <time>2014-02-15T06:54:47Z</time>
      </trkpt>
      <trkpt lat="42.28867" lon="2.56899">
        <ele>486.622</ele>
        <time>2014-02-15T06:54:51Z</time>
      </trkpt>
      <trkpt lat="42.2886" lon="2.56903">
        <ele>489.917</ele>
        <time>2014-02-15T06:55:02Z</time>
      </trkpt>
      <trkpt lat="42.2886" lon="2.56913">
        <ele>493.396</ele>
        <time>2014-02-15T06:55:13Z</time>
      </trkpt>
      <trkpt lat="42.28857" lon="2.56913">
        <ele>495.293</ele>
        <time>2014-02-15T06:55:23Z</time>
      </trkpt>
      <trkpt lat="42.2885" lon="2.56911">
        <ele>496.235</ele>
        <time>2014-02-15T06:55:29Z</time>
      </trkpt>
      <trkpt lat="42.2884" lon="2.56901">
        <ele>497.118</ele>
        <time>2014-02-15T06:55:45Z</time>
      </trkpt>
      <trkpt lat="42.28837" lon="2.56895">
        <ele>498.198</ele>
        <time>2014-02-15T06:56:00Z</time>
      </trkpt>
      <trkpt lat="42.28832" lon="2.56886">
        <ele>500.517</ele>
        <time>2014-02-15T06:56:15Z</time>
      </trkpt>
      <trkpt lat="42.28831" lon="2.56884">
        <ele>502.407</ele>
        <time>2014-02-15T06:56:18Z</time>
      </trkpt>
      <trkpt lat="42.28819" lon="2.56874">
        <ele>504.827</ele>
        <time>2014-02-15T06:56:33Z</time>
      </trkpt>
      <trkpt lat="42.28806" lon="2.56863">
        <ele>507.242</ele>
        <time>2014-02-15T06:56:47Z</time>
      </trkpt>
      <trkpt lat="42.28799" lon="2.56857">
        <ele>510.675</ele>
        <time>2014-02-15T06:56:57Z</time>
      </trkpt>
      <trkpt lat="42.28794" lon="2.56851">
        <ele>513.54</ele>
        <time>2014-02-15T06:57:09Z</time>
      </trkpt>
      <trkpt lat="42.28799" lon="2.56856">
        <ele>516.959</ele>
        <time>2014-02-15T06:57:23Z</time>
      </trkpt>
      <trkpt lat="42.28799" lon="2.5687">
        <ele>519.736</ele>
        <time>2014-02-15T06:57:38Z</time>
      </trkpt>
      <trkpt lat="42.28801" lon="2.56881">
        <ele>522.668</ele>
        <time>2014-02-15T06:57:48Z</time>
      </trkpt>
      <trkpt lat="42.288" lon="2.56889">
        <ele>525.063</ele>
        <time>2014-02-15T06:57:59Z</time>
      </trkpt>
      <trkpt lat="42.28792" lon="2.56894">
        <ele>528.444</ele>
        <time>2014-02-15T06:58:11Z</time>
      </trkpt>
      <trkpt lat="42.28787" lon="2.56895">
        <ele>530.318</ele>
        <time>2014-02-15T06:58:24Z</time>
      </trkpt>
      <trkpt lat="42.28782" lon="2.56897">
        <ele>532.707</ele>
        <time>2014-02-15T06:58:39Z</time>
      </trkpt>
      <trkpt lat="42.28781" lon="2.56898">
        <ele>532.772</ele>
        <time>2014-02-15T06:58:40Z</time>
      </trkpt>
      <trkpt lat="42.28777" lon="2.56904">
        <ele>532.237</ele>
        <time>2014-02-15T06:58:52Z</time>
      </trkpt>
      <trkpt lat="42.28776" lon="2.56905">
        <ele>533.26</ele>
        <time>2014-02-15T06:59:08Z</time>
      </trkpt>
      <trkpt lat="42.28776" lon="2.56906">
        <ele>533.295</ele>
        <time>2014-02-15T06:59:21Z</time>
      </trkpt>
      <trkpt lat="42.28776" lon="2.56903">
        <ele>533.264</ele>
        <time>2014-02-15T06:59:37Z</time>
      </trkpt>
      <trkpt lat="42.28776" lon="2.56903">
        <ele>533.231</ele>
        <time>2014-02-15T06:59:55Z</time>
      </trkpt>
      <trkpt lat="42.28777" lon="2.56904">
        <ele>532.723</ele>
        <time>2014-02-15T07:00:09Z</time>
      </trkpt>
      <trkpt lat="42.28779" lon="2.56909">
        <ele>533.713</ele>
        <time>2014-02-15T07:00:23Z</time>
      </trkpt>
      <trkpt lat="42.28781" lon="2.56913">
        <ele>535.143</ele>
        <time>2014-02-15T07:00:31Z</time>
      </trkpt>
      <trkpt lat="42.28785" lon="2.56925">
        <ele>537.507</ele>
        <time>2014-02-15T07:00:44Z</time>
      </trkpt>
      <trkpt lat="42.28789" lon="2.56941">
        <ele>539.407</ele>
        <time>2014-02-15T07:00:58Z</time>
      </trkpt>
      <trkpt lat="42.28789" lon="2.56945">
        <ele>541.867</ele>
        <time>2014-02-15T07:01:04Z</time>
      </trkpt>
      <trkpt lat="42.28787" lon="2.56955">
        <ele>544.232</ele>
        <time>2014-02-15T07:01:17Z</time>
      </trkpt>
      <trkpt lat="42.28785" lon="2.5696">
        <ele>547.155</ele>
        <time>2014-02-15T07:01:26Z</time>
      </trkpt>
      <trkpt lat="42.28787" lon="2.56967">
        <ele>550.55</ele>
        <time>2014-02-15T07:01:39Z</time>
      </trkpt>
      <trkpt lat="42.28787" lon="2.5697">
        <ele>551.939</ele>
        <time>2014-02-15T07:01:46Z</time>
      </trkpt>
      <trkpt lat="42.28787" lon="2.56981">
        <ele>554.386</ele>
        <time>2014-02-15T07:01:58Z</time>
      </trkpt>
      <trkpt lat="42.28786" lon="2.56988">
        <ele>557.258</ele>
        <time>2014-02-15T07:02:11Z</time>
      </trkpt>
      <trkpt lat="42.28783" lon="2.56998">
        <ele>560.133</ele>
        <time>2014-02-15T07:02:26Z</time>
      </trkpt>
      <trkpt lat="42.28784" lon="2.57006">
        <ele>563.523</ele>
        <time>2014-02-15T07:02:40Z</time>
      </trkpt>
      <trkpt lat="42.28782" lon="2.57013">
        <ele>566.415</ele>
        <time>2014-02-15T07:02:52Z</time>
      </trkpt>
      <trkpt lat="42.2878" lon="2.57018">
        <ele>565.907</ele>
        <time>2014-02-15T07:03:10Z</time>
      </trkpt>
      <trkpt lat="42.28782" lon="2.57021">
        <ele>566.419</ele>
        <time>2014-02-15T07:03:32Z</time>
      </trkpt>
      <trkpt lat="42.28787" lon="2.57028">
        <ele>569.714</ele>
        <time>2014-02-15T07:03:41Z</time>
      </trkpt>
      <trkpt lat="42.28787" lon="2.57028">
        <ele>569.727</ele>
        <time>2014-02-15T07:03:42Z</time>
      </trkpt>
      <trkpt lat="42.28786" lon="2.57034">
        <ele>572.632</ele>
        <time>2014-02-15T07:03:51Z</time>
      </trkpt>
      <trkpt lat="42.28785" lon="2.57042">
        <ele>574.561</ele>
        <time>2014-02-15T07:04:00Z</time>
      </trkpt>
      <trkpt lat="42.28786" lon="2.57049">
        <ele>577.938</ele>
        <time>2014-02-15T07:04:11Z</time>
      </trkpt>
      <trkpt lat="42.28784" lon="2.57051">
        <ele>579.34</ele>
        <time>2014-02-15T07:04:16Z</time>
      </trkpt>
      <trkpt lat="42.28786" lon="2.57059">
        <ele>582.223</ele>
        <time>2014-02-15T07:04:27Z</time>
      </trkpt>
      <trkpt lat="42.28788" lon="2.57066">
        <ele>585.183</ele>
        <time>2014-02-15T07:04:39Z</time>
      </trkpt>
      <trkpt lat="42.28792" lon="2.57075">
        <ele>588.011</ele>
        <time>2014-02-15T07:04:50Z</time>
      </trkpt>
      <trkpt lat="42.28793" lon="2.57082">
        <ele>591.807</ele>
        <time>2014-02-15T07:05:02Z</time>
      </trkpt>
      <trkpt lat="42.28793" lon="2.57086">
        <ele>594.798</ele>
        <time>2014-02-15T07:05:11Z</time>
      </trkpt>
      <trkpt lat="42.28791" lon="2.57096">
        <ele>597.113</ele>
        <time>2014-02-15T07:05:26Z</time>
      </trkpt>
      <trkpt lat="42.28794" lon="2.57101">
        <ele>600.046</ele>
        <time>2014-02-15T07:05:36Z</time>
      </trkpt>
      <trkpt lat="42.28795" lon="2.57107">
        <ele>602.491</ele>
        <time>2014-02-15T07:05:48Z</time>
      </trkpt>
      <trkpt lat="42.28799" lon="2.57114">
        <ele>604.32</ele>
        <time>2014-02-15T07:06:00Z</time>
      </trkpt>
      <trkpt lat="42.28802" lon="2.57119">
        <ele>607.767</ele>
        <time>2014-02-15T07:06:11Z</time>
      </trkpt>
      <trkpt lat="42.2881" lon="2.57126">
        <ele>610.139</ele>
        <time>2014-02-15T07:06:24Z</time>
      </trkpt>
      <trkpt lat="42.28818" lon="2.57135">
        <ele>612.568</ele>
        <time>2014-02-15T07:06:38Z</time>
      </trkpt>
      <trkpt lat="42.28824" lon="2.57144">
        <ele>615.942</ele>
        <time>2014-02-15T07:06:48Z</time>
      </trkpt>
      <trkpt lat="42.28825" lon="2.57151">
        <ele>618.826</ele>
        <time>2014-02-15T07:06:58Z</time>
      </trkpt>
      <trkpt lat="42.28826" lon="2.57152">
        <ele>618.807</ele>
        <time>2014-02-15T07:06:59Z</time>
      </trkpt>
      <trkpt lat="42.28836" lon="2.57164">
        <ele>619.292</ele>
        <time>2014-02-15T07:07:12Z</time>
      </trkpt>
      <trkpt lat="42.28848" lon="2.57178">
        <ele>619.747</ele>
        <time>2014-02-15T07:07:26Z</time>
      </trkpt>
      <trkpt lat="42.28855" lon="2.57193">
        <ele>620.71</ele>
        <time>2014-02-15T07:07:38Z</time>
      </trkpt>
      <trkpt lat="42.28862" lon="2.57203">
        <ele>621.275</ele>
        <time>2014-02-15T07:07:51Z</time>
      </trkpt>
      <trkpt lat="42.28866" lon="2.57203">
        <ele>623.194</ele>
        <time>2014-02-15T07:07:57Z</time>
      </trkpt>
      <trkpt lat="42.28873" lon="2.57195">
        <ele>624.081</ele>
        <time>2014-02-15T07:08:06Z</time>
      </trkpt>
      <trkpt lat="42.28886" lon="2.57198">
        <ele>624.543</ele>
        <time>2014-02-15T07:08:20Z</time>
      </trkpt>
      <trkpt lat="42.28892" lon="2.57205">
        <ele>627.473</ele>
        <time>2014-02-15T07:08:32Z</time>
      </trkpt>
      <trkpt lat="42.28896" lon="2.57215">
        <ele>630.885</ele>
        <time>2014-02-15T07:08:43Z</time>
      </trkpt>
      <trkpt lat="42.28897" lon="2.57218">
        <ele>631.213</ele>
        <time>2014-02-15T07:08:47Z</time>
      </trkpt>
      <trkpt lat="42.28904" lon="2.57222">
        <ele>632.207</ele>
        <time>2014-02-15T07:09:02Z</time>
      </trkpt>
      <trkpt lat="42.28904" lon="2.57224">
        <ele>632.793</ele>
        <time>2014-02-15T07:09:04Z</time>
      </trkpt>
      <trkpt lat="42.28913" lon="2.57232">
        <ele>635.658</ele>
        <time>2014-02-15T07:09:17Z</time>
      </trkpt>
      <trkpt lat="42.28921" lon="2.57242">
        <ele>637.591</ele>
        <time>2014-02-15T07:09:29Z</time>
      </trkpt>
      <trkpt lat="42.28935" lon="2.57253">
        <ele>636.526</ele>
        <time>2014-02-15T07:09:43Z</time>
      </trkpt>
      <trkpt lat="42.28939" lon="2.5726">
        <ele>639.415</ele>
        <time>2014-02-15T07:09:55Z</time>
      </trkpt>
      <trkpt lat="42.28942" lon="2.57266">
        <ele>640.432</ele>
        <time>2014-02-15T07:10:06Z</time>
      </trkpt>
      <trkpt lat="42.28945" lon="2.57271">
        <ele>643.774</ele>
        <time>2014-02-15T07:10:16Z</time>
      </trkpt>
      <trkpt lat="42.28953" lon="2.57281">
        <ele>646.685</ele>
        <time>2014-02-15T07:10:29Z</time>
      </trkpt>
      <trkpt lat="42.28966" lon="2.57297">
        <ele>646.189</ele>
        <time>2014-02-15T07:10:43Z</time>
      </trkpt>
      <trkpt lat="42.28974" lon="2.57307">
        <ele>648.117</ele>
        <time>2014-02-15T07:10:56Z</time>
      </trkpt>
      <trkpt lat="42.28984" lon="2.57318">
        <ele>648.607</ele>
        <time>2014-02-15T07:11:08Z</time>
      </trkpt>
      <trkpt lat="42.2899" lon="2.57329">
        <ele>651.054</ele>
        <time>2014-02-15T07:11:20Z</time>
      </trkpt>
      <trkpt lat="42.28996" lon="2.57342">
        <ele>653.819</ele>
        <time>2014-02-15T07:11:33Z</time>
      </trkpt>
      <trkpt lat="42.29001" lon="2.57356">
        <ele>656.772</ele>
        <time>2014-02-15T07:11:45Z</time>
      </trkpt>
      <trkpt lat="42.29001" lon="2.57365">
        <ele>659.187</ele>
        <time>2014-02-15T07:11:56Z</time>
      </trkpt>
      <trkpt lat="42.29003" lon="2.57374">
        <ele>661.566</ele>
        <time>2014-02-15T07:12:10Z</time>
      </trkpt>
      <trkpt lat="42.29005" lon="2.57384">
        <ele>664.433</ele>
        <time>2014-02-15T07:12:23Z</time>
      </trkpt>
      <trkpt lat="42.29004" lon="2.57392">
        <ele>667.365</ele>
        <time>2014-02-15T07:12:34Z</time>
      </trkpt>
      <trkpt lat="42.2901" lon="2.57402">
        <ele>668.736</ele>
        <time>2014-02-15T07:12:45Z</time>
      </trkpt>
      <trkpt lat="42.29015" lon="2.57416">
        <ele>671.117</ele>
        <time>2014-02-15T07:12:59Z</time>
      </trkpt>
      <trkpt lat="42.29019" lon="2.57429">
        <ele>673.518</ele>
        <time>2014-02-15T07:13:12Z</time>
      </trkpt>
      <trkpt lat="42.29022" lon="2.57439">
        <ele>676.907</ele>
        <time>2014-02-15T07:13:26Z</time>
      </trkpt>
      <trkpt lat="42.29028" lon="2.57448">
        <ele>679.889</ele>
        <time>2014-02-15T07:13:37Z</time>
      </trkpt>
      <trkpt lat="42.29032" lon="2.57457">
        <ele>681.214</ele>
        <time>2014-02-15T07:13:48Z</time>
      </trkpt>
      <trkpt lat="42.29035" lon="2.57466">
        <ele>682.217</ele>
        <time>2014-02-15T07:13:57Z</time>
      </trkpt>
      <trkpt lat="42.29043" lon="2.5748">
        <ele>684.142</ele>
        <time>2014-02-15T07:14:12Z</time>
      </trkpt>
      <trkpt lat="42.29048" lon="2.57492">
        <ele>687.071</ele>
        <time>2014-02-15T07:14:23Z</time>
      </trkpt>
      <trkpt lat="42.29053" lon="2.57504">
        <ele>688.418</ele>
        <time>2014-02-15T07:14:35Z</time>
      </trkpt>
      <trkpt lat="42.29059" lon="2.57515">
        <ele>689.41</ele>
        <time>2014-02-15T07:14:47Z</time>
      </trkpt>
      <trkpt lat="42.29062" lon="2.57526">
        <ele>692.363</ele>
        <time>2014-02-15T07:14:59Z</time>
      </trkpt>
      <trkpt lat="42.29065" lon="2.57535">
        <ele>694.744</ele>
        <time>2014-02-15T07:15:11Z</time>
      </trkpt>
      <trkpt lat="42.2907" lon="2.57544">
        <ele>696.118</ele>
        <time>2014-02-15T07:15:23Z</time>
      </trkpt>
      <trkpt lat="42.29075" lon="2.57549">
        <ele>696.107</ele>
        <time>2014-02-15T07:15:37Z</time>
      </trkpt>
      <trkpt lat="42.29082" lon="2.57566">
        <ele>697.632</ele>
        <time>2014-02-15T07:15:48Z</time>
      </trkpt>
      <trkpt lat="42.29086" lon="2.57584">
        <ele>700.537</ele>
        <time>2014-02-15T07:16:00Z</time>
      </trkpt>
      <trkpt lat="42.29089" lon="2.57593">
        <ele>704.35</ele>
        <time>2014-02-15T07:16:11Z</time>
      </trkpt>
      <trkpt lat="42.29089" lon="2.57603">
        <ele>707.255</ele>
        <time>2014-02-15T07:16:24Z</time>
      </trkpt>
      <trkpt lat="42.2909" lon="2.57612">
        <ele>710.664</ele>
        <time>2014-02-15T07:16:35Z</time>
      </trkpt>
      <trkpt lat="42.29092" lon="2.57621">
        <ele>712.521</ele>
        <time>2014-02-15T07:16:47Z</time>
      </trkpt>
      <trkpt lat="42.29093" lon="2.5763">
        <ele>715.813</ele>
        <time>2014-02-15T07:16:59Z</time>
      </trkpt>
      <trkpt lat="42.29097" lon="2.57636">
        <ele>717.826</ele>
        <time>2014-02-15T07:17:11Z</time>
      </trkpt>
      <trkpt lat="42.29099" lon="2.57644">
        <ele>720.247</ele>
        <time>2014-02-15T07:17:22Z</time>
      </trkpt>
      <trkpt lat="42.29105" lon="2.57653">
        <ele>723.111</ele>
        <time>2014-02-15T07:17:36Z</time>
      </trkpt>
      <trkpt lat="42.29107" lon="2.57662">
        <ele>725.507</ele>
        <time>2014-02-15T07:17:48Z</time>
      </trkpt>
      <trkpt lat="42.29112" lon="2.57671">
        <ele>728.818</ele>
        <time>2014-02-15T07:18:00Z</time>
      </trkpt>
      <trkpt lat="42.29112" lon="2.57671">
        <ele>728.813</ele>
        <time>2014-02-15T07:18:01Z</time>
      </trkpt>
      <trkpt lat="42.29114" lon="2.57677">
        <ele>730.766</ele>
        <time>2014-02-15T07:18:11Z</time>
      </trkpt>
      <trkpt lat="42.2912" lon="2.57684">
        <ele>733.621</ele>
        <time>2014-02-15T07:18:21Z</time>
      </trkpt>
      <trkpt lat="42.29126" lon="2.57694">
        <ele>736.52</ele>
        <time>2014-02-15T07:18:34Z</time>
      </trkpt>
      <trkpt lat="42.2913" lon="2.57706">
        <ele>739.947</ele>
        <time>2014-02-15T07:18:46Z</time>
      </trkpt>
      <trkpt lat="42.29132" lon="2.57717">
        <ele>743.259</ele>
        <time>2014-02-15T07:18:58Z</time>
      </trkpt>
      <trkpt lat="42.29138" lon="2.57726">
        <ele>746.147</ele>
        <time>2014-02-15T07:19:11Z</time>
      </trkpt>
      <trkpt lat="42.2914" lon="2.57735">
        <ele>749.029</ele>
        <time>2014-02-15T07:19:23Z</time>
      </trkpt>
      <trkpt lat="42.29135" lon="2.57748">
        <ele>750.921</ele>
        <time>2014-02-15T07:19:36Z</time>
      </trkpt>
      <trkpt lat="42.29131" lon="2.5776">
        <ele>753.307</ele>
        <time>2014-02-15T07:19:50Z</time>
      </trkpt>
      <trkpt lat="42.29132" lon="2.57771">
        <ele>754.39</ele>
        <time>2014-02-15T07:20:00Z</time>
      </trkpt>
      <trkpt lat="42.29127" lon="2.57775">
        <ele>754.815</ele>
        <time>2014-02-15T07:20:13Z</time>
      </trkpt>
      <trkpt lat="42.29126" lon="2.5778">
        <ele>754.838</ele>
        <time>2014-02-15T07:20:35Z</time>
      </trkpt>
      <trkpt lat="42.29123" lon="2.57781">
        <ele>754.883</ele>
        <time>2014-02-15T07:20:50Z</time>
      </trkpt>
      <trkpt lat="42.29126" lon="2.57779">
        <ele>754.352</ele>
        <time>2014-02-15T07:21:06Z</time>
      </trkpt>
      <trkpt lat="42.29128" lon="2.57779">
        <ele>754.399</ele>
        <time>2014-02-15T07:21:30Z</time>
      </trkpt>
      <trkpt lat="42.29127" lon="2.57782">
        <ele>753.881</ele>
        <time>2014-02-15T07:21:46Z</time>
      </trkpt>
      <trkpt lat="42.29129" lon="2.57779">
        <ele>753.866</ele>
        <time>2014-02-15T07:21:54Z</time>
      </trkpt>
      <trkpt lat="42.29138" lon="2.57769">
        <ele>754.829</ele>
        <time>2014-02-15T07:22:08Z</time>
      </trkpt>
      <trkpt lat="42.29153" lon="2.57765">
        <ele>756.221</ele>
        <time>2014-02-15T07:22:22Z</time>
      </trkpt>
      <trkpt lat="42.29161" lon="2.57763">
        <ele>757.207</ele>
        <time>2014-02-15T07:22:36Z</time>
      </trkpt>
      <trkpt lat="42.29166" lon="2.57758">
        <ele>758.612</ele>
        <time>2014-02-15T07:22:48Z</time>
      </trkpt>
      <trkpt lat="42.29172" lon="2.5775">
        <ele>761.087</ele>
        <time>2014-02-15T07:23:00Z</time>
      </trkpt>
      <trkpt lat="42.29176" lon="2.57739">
        <ele>763.41</ele>
        <time>2014-02-15T07:23:14Z</time>
      </trkpt>
      <trkpt lat="42.29179" lon="2.57737">
        <ele>765.815</ele>
        <time>2014-02-15T07:23:21Z</time>
      </trkpt>
      <trkpt lat="42.29189" lon="2.57738">
        <ele>768.744</ele>
        <time>2014-02-15T07:23:35Z</time>
      </trkpt>
      <trkpt lat="42.29192" lon="2.57737">
        <ele>769.721</ele>
        <time>2014-02-15T07:23:39Z</time>
      </trkpt>
      <trkpt lat="42.29196" lon="2.5773">
        <ele>771.173</ele>
        <time>2014-02-15T07:23:52Z</time>
      </trkpt>
      <trkpt lat="42.292" lon="2.57728">
        <ele>773.524</ele>
        <time>2014-02-15T07:24:05Z</time>
      </trkpt>
      <trkpt lat="42.29207" lon="2.5773">
        <ele>775.904</ele>
        <time>2014-02-15T07:24:19Z</time>
      </trkpt>
      <trkpt lat="42.29207" lon="2.57728">
        <ele>775.414</ele>
        <time>2014-02-15T07:24:22Z</time>
      </trkpt>
      <trkpt lat="42.29208" lon="2.57723">
        <ele>777.407</ele>
        <time>2014-02-15T07:24:29Z</time>
      </trkpt>
      <trkpt lat="42.29208" lon="2.57718">
        <ele>778.888</ele>
        <time>2014-02-15T07:24:43Z</time>
      </trkpt>
      <trkpt lat="42.29208" lon="2.57716">
        <ele>778.353</ele>
        <time>2014-02-15T07:24:45Z</time>
      </trkpt>
      <trkpt lat="42.29209" lon="2.5771">
        <ele>778.836</ele>
        <time>2014-02-15T07:25:00Z</time>
      </trkpt>
      <trkpt lat="42.29211" lon="2.57712">
        <ele>779.881</ele>
        <time>2014-02-15T07:25:17Z</time>
      </trkpt>
      <trkpt lat="42.29212" lon="2.57707">
        <ele>779.84</ele>
        <time>2014-02-15T07:25:21Z</time>
      </trkpt>
      <trkpt lat="42.29213" lon="2.57702">
        <ele>781.737</ele>
        <time>2014-02-15T07:25:26Z</time>
      </trkpt>
      <trkpt lat="42.29215" lon="2.57692">
        <ele>784.199</ele>
        <time>2014-02-15T07:25:32Z</time>
      </trkpt>
      <trkpt lat="42.29215" lon="2.57676">
        <ele>786.571</ele>
        <time>2014-02-15T07:25:46Z</time>
      </trkpt>
      <trkpt lat="42.29216" lon="2.57673">
        <ele>787.941</ele>
        <time>2014-02-15T07:25:48Z</time>
      </trkpt>
      <trkpt lat="42.29216" lon="2.57668">
        <ele>789.415</ele>
        <time>2014-02-15T07:25:53Z</time>
      </trkpt>
      <trkpt lat="42.29216" lon="2.57641">
        <ele>791.807</ele>
        <time>2014-02-15T07:26:08Z</time>
      </trkpt>
      <trkpt lat="42.29217" lon="2.57615">
        <ele>793.273</ele>
        <time>2014-02-15T07:26:22Z</time>
      </trkpt>
      <trkpt lat="42.29218" lon="2.57609">
        <ele>794.258</ele>
        <time>2014-02-15T07:26:26Z</time>
      </trkpt>
      <trkpt lat="42.29222" lon="2.57605">
        <ele>792.331</ele>
        <time>2014-02-15T07:26:29Z</time>
      </trkpt>
      <trkpt lat="42.2923" lon="2.57603">
        <ele>795.636</ele>
        <time>2014-02-15T07:26:40Z</time>
      </trkpt>
      <trkpt lat="42.29233" lon="2.57615">
        <ele>798.045</ele>
        <time>2014-02-15T07:26:54Z</time>
      </trkpt>
      <trkpt lat="42.29236" lon="2.57624">
        <ele>801.422</ele>
        <time>2014-02-15T07:27:05Z</time>
      </trkpt>
      <trkpt lat="42.29237" lon="2.57628">
        <ele>801.484</ele>
        <time>2014-02-15T07:27:07Z</time>
      </trkpt>
      <trkpt lat="42.29239" lon="2.5764">
        <ele>803.882</ele>
        <time>2014-02-15T07:27:20Z</time>
      </trkpt>
      <trkpt lat="42.29245" lon="2.57656">
        <ele>807.243</ele>
        <time>2014-02-15T07:27:34Z</time>
      </trkpt>
      <trkpt lat="42.29251" lon="2.57664">
        <ele>809.617</ele>
        <time>2014-02-15T07:27:47Z</time>
      </trkpt>
      <trkpt lat="42.29252" lon="2.57672">
        <ele>812.007</ele>
        <time>2014-02-15T07:28:01Z</time>
      </trkpt>
      <trkpt lat="42.29255" lon="2.57676">
        <ele>814.474</ele>
        <time>2014-02-15T07:28:08Z</time>
      </trkpt>
      <trkpt lat="42.29261" lon="2.57681">
        <ele>815.889</ele>
        <time>2014-02-15T07:28:21Z</time>
      </trkpt>
      <trkpt lat="42.29266" lon="2.57693">
        <ele>818.772</ele>
        <time>2014-02-15T07:28:34Z</time>
      </trkpt>
      <trkpt lat="42.29268" lon="2.57701">
        <ele>821.677</ele>
        <time>2014-02-15T07:28:47Z</time>
      </trkpt>
      <trkpt lat="42.29269" lon="2.5771">
        <ele>824.056</ele>
        <time>2014-02-15T07:28:58Z</time>
      </trkpt>
      <trkpt lat="42.29269" lon="2.57722">
        <ele>825.933</ele>
        <time>2014-02-15T07:29:13Z</time>
      </trkpt>
      <trkpt lat="42.29272" lon="2.57734">
        <ele>827.895</ele>
        <time>2014-02-15T07:29:27Z</time>
      </trkpt>
      <trkpt lat="42.29273" lon="2.57741">
        <ele>826.966</ele>
        <time>2014-02-15T07:29:33Z</time>
      </trkpt>
      <trkpt lat="42.29274" lon="2.57747">
        <ele>828.829</ele>
        <time>2014-02-15T07:29:37Z</time>
      </trkpt>
      <trkpt lat="42.29279" lon="2.57749">
        <ele>829.321</ele>
        <time>2014-02-15T07:29:49Z</time>
      </trkpt>
      <trkpt lat="42.29285" lon="2.57754">
        <ele>832.207</ele>
        <time>2014-02-15T07:30:02Z</time>
      </trkpt>
      <trkpt lat="42.29286" lon="2.57745">
        <ele>835.062</ele>
        <time>2014-02-15T07:30:16Z</time>
      </trkpt>
      <trkpt lat="42.29292" lon="2.57748">
        <ele>837.047</ele>
        <time>2014-02-15T07:30:29Z</time>
      </trkpt>
      <trkpt lat="42.29298" lon="2.57757">
        <ele>839.49</ele>
        <time>2014-02-15T07:30:42Z</time>
      </trkpt>
      <trkpt lat="42.29302" lon="2.57767">
        <ele>840.865</ele>
        <time>2014-02-15T07:30:54Z</time>
      </trkpt>
      <trkpt lat="42.29307" lon="2.57775">
        <ele>843.284</ele>
        <time>2014-02-15T07:31:05Z</time>
      </trkpt>
      <trkpt lat="42.29312" lon="2.57777">
        <ele>844.761</ele>
        <time>2014-02-15T07:31:17Z</time>
      </trkpt>
      <trkpt lat="42.29315" lon="2.57779">
        <ele>845.633</ele>
        <time>2014-02-15T07:31:23Z</time>
      </trkpt>
      <trkpt lat="42.29319" lon="2.57786">
        <ele>848.036</ele>
        <time>2014-02-15T07:31:31Z</time>
      </trkpt>
      <trkpt lat="42.29325" lon="2.57795">
        <ele>849.517</ele>
        <time>2014-02-15T07:31:43Z</time>
      </trkpt>
      <trkpt lat="42.29331" lon="2.57798">
        <ele>852.818</ele>
        <time>2014-02-15T07:31:55Z</time>
      </trkpt>
      <trkpt lat="42.29338" lon="2.57804">
        <ele>855.207</ele>
        <time>2014-02-15T07:32:08Z</time>
      </trkpt>
      <trkpt lat="42.29346" lon="2.57812">
        <ele>857.649</ele>
        <time>2014-02-15T07:32:23Z</time>
      </trkpt>
      <trkpt lat="42.29354" lon="2.57821">
        <ele>860.574</ele>
        <time>2014-02-15T07:32:37Z</time>
      </trkpt>
      <trkpt lat="42.29361" lon="2.57826">
        <ele>862.997</ele>
        <time>2014-02-15T07:32:52Z</time>
      </trkpt>
      <trkpt lat="42.29365" lon="2.57828">
        <ele>865.872</ele>
        <time>2014-02-15T07:33:06Z</time>
      </trkpt>
      <trkpt lat="42.2937" lon="2.57828">
        <ele>867.341</ele>
        <time>2014-02-15T07:33:18Z</time>
      </trkpt>
      <trkpt lat="42.29377" lon="2.57832">
        <ele>870.678</ele>
        <time>2014-02-15T07:33:30Z</time>
      </trkpt>
      <trkpt lat="42.29386" lon="2.5784">
        <ele>874.04</ele>
        <time>2014-02-15T07:33:44Z</time>
      </trkpt>
      <trkpt lat="42.29387" lon="2.5784">
        <ele>874.069</ele>
        <time>2014-02-15T07:33:45Z</time>
      </trkpt>
      <trkpt lat="42.29393" lon="2.57841">
        <ele>875.904</ele>
        <time>2014-02-15T07:33:57Z</time>
      </trkpt>
      <trkpt lat="42.29401" lon="2.57838">
        <ele>879.324</ele>
        <time>2014-02-15T07:34:11Z</time>
      </trkpt>
      <trkpt lat="42.2941" lon="2.57839">
        <ele>880.207</ele>
        <time>2014-02-15T07:34:23Z</time>
      </trkpt>
      <trkpt lat="42.29419" lon="2.57835">
        <ele>881.292</ele>
        <time>2014-02-15T07:34:37Z</time>
      </trkpt>
      <trkpt lat="42.29423" lon="2.57826">
        <ele>881.797</ele>
        <time>2014-02-15T07:34:50Z</time>
      </trkpt>
      <trkpt lat="42.29422" lon="2.57817">
        <ele>884.13</ele>
        <time>2014-02-15T07:35:02Z</time>
      </trkpt>
      <trkpt lat="42.29417" lon="2.57806">
        <ele>884.135</ele>
        <time>2014-02-15T07:35:16Z</time>
      </trkpt>
      <trkpt lat="42.29415" lon="2.5779">
        <ele>885.584</ele>
        <time>2014-02-15T07:35:28Z</time>
      </trkpt>
      <trkpt lat="42.29418" lon="2.57779">
        <ele>887.931</ele>
        <time>2014-02-15T07:35:40Z</time>
      </trkpt>
      <trkpt lat="42.29423" lon="2.57767">
        <ele>889.483</ele>
        <time>2014-02-15T07:35:51Z</time>
      </trkpt>
      <trkpt lat="42.29428" lon="2.57753">
        <ele>891.345</ele>
        <time>2014-02-15T07:36:08Z</time>
      </trkpt>
      <trkpt lat="42.29429" lon="2.57743">
        <ele>893.247</ele>
        <time>2014-02-15T07:36:21Z</time>
      </trkpt>
      <trkpt lat="42.29432" lon="2.57731">
        <ele>895.611</ele>
        <time>2014-02-15T07:36:35Z</time>
      </trkpt>
      <trkpt lat="42.2943" lon="2.57723">
        <ele>898.507</ele>
        <time>2014-02-15T07:36:47Z</time>
      </trkpt>
      <trkpt lat="42.2943" lon="2.57703">
        <ele>900.93</ele>
        <time>2014-02-15T07:37:02Z</time>
      </trkpt>
      <trkpt lat="42.29431" lon="2.57689">
        <ele>902.855</ele>
        <time>2014-02-15T07:37:16Z</time>
      </trkpt>
      <trkpt lat="42.29436" lon="2.57674">
        <ele>905.278</ele>
        <time>2014-02-15T07:37:30Z</time>
      </trkpt>
      <trkpt lat="42.29439" lon="2.57666">
        <ele>908.633</ele>
        <time>2014-02-15T07:37:42Z</time>
      </trkpt>
      <trkpt lat="42.29436" lon="2.57656">
        <ele>910.022</ele>
        <time>2014-02-15T07:37:56Z</time>
      </trkpt>
      <trkpt lat="42.29439" lon="2.57642">
        <ele>913.479</ele>
        <time>2014-02-15T07:38:07Z</time>
      </trkpt>
      <trkpt lat="42.29445" lon="2.5763">
        <ele>913.941</ele>
        <time>2014-02-15T07:38:19Z</time>
      </trkpt>
      <trkpt lat="42.29449" lon="2.57623">
        <ele>916.321</ele>
        <time>2014-02-15T07:38:31Z</time>
      </trkpt>
      <trkpt lat="42.29455" lon="2.57608">
        <ele>919.241</ele>
        <time>2014-02-15T07:38:47Z</time>
      </trkpt>
      <trkpt lat="42.29458" lon="2.57597">
        <ele>921.605</ele>
        <time>2014-02-15T07:39:00Z</time>
      </trkpt>
      <trkpt lat="42.29464" lon="2.57586">
        <ele>924.507</ele>
        <time>2014-02-15T07:39:13Z</time>
      </trkpt>
      <trkpt lat="42.29468" lon="2.57575">
        <ele>926.498</ele>
        <time>2014-02-15T07:39:26Z</time>
      </trkpt>
      <trkpt lat="42.29477" lon="2.57562">
        <ele>928.373</ele>
        <time>2014-02-15T07:39:41Z</time>
      </trkpt>
      <trkpt lat="42.29488" lon="2.57555">
        <ele>928.386</ele>
        <time>2014-02-15T07:39:54Z</time>
      </trkpt>
      <trkpt lat="42.295" lon="2.57539">
        <ele>930.721</ele>
        <time>2014-02-15T07:40:09Z</time>
      </trkpt>
      <trkpt lat="42.29507" lon="2.5753">
        <ele>934.12</ele>
        <time>2014-02-15T07:40:22Z</time>
      </trkpt>
      <trkpt lat="42.29519" lon="2.57513">
        <ele>936.557</ele>
        <time>2014-02-15T07:40:38Z</time>
      </trkpt>
      <trkpt lat="42.29522" lon="2.57505">
        <ele>938.939</ele>
        <time>2014-02-15T07:40:48Z</time>
      </trkpt>
      <trkpt lat="42.29524" lon="2.57495">
        <ele>941.852</ele>
        <time>2014-02-15T07:41:03Z</time>
      </trkpt>
      <trkpt lat="42.29525" lon="2.57489">
        <ele>944.253</ele>
        <time>2014-02-15T07:41:12Z</time>
      </trkpt>
      <trkpt lat="42.29525" lon="2.57478">
        <ele>947.008</ele>
        <time>2014-02-15T07:41:27Z</time>
      </trkpt>
      <trkpt lat="42.29527" lon="2.57465">
        <ele>949.907</ele>
        <time>2014-02-15T07:41:42Z</time>
      </trkpt>
      <trkpt lat="42.29524" lon="2.5746">
        <ele>953.331</ele>
        <time>2014-02-15T07:41:54Z</time>
      </trkpt>
      <trkpt lat="42.29519" lon="2.5746">
        <ele>954.756</ele>
        <time>2014-02-15T07:42:08Z</time>
      </trkpt>
      <trkpt lat="42.29514" lon="2.57453">
        <ele>958.199</ele>
        <time>2014-02-15T07:42:22Z</time>
      </trkpt>
      <trkpt lat="42.2951" lon="2.57444">
        <ele>961.564</ele>
        <time>2014-02-15T07:42:35Z</time>
      </trkpt>
      <trkpt lat="42.29509" lon="2.57433">
        <ele>963.493</ele>
        <time>2014-02-15T07:42:50Z</time>
      </trkpt>
      <trkpt lat="42.29508" lon="2.57425">
        <ele>966.31</ele>
        <time>2014-02-15T07:43:00Z</time>
      </trkpt>
      <trkpt lat="42.29504" lon="2.57419">
        <ele>968.212</ele>
        <time>2014-02-15T07:43:13Z</time>
      </trkpt>
      <trkpt lat="42.29504" lon="2.57406">
        <ele>969.685</ele>
        <time>2014-02-15T07:43:27Z</time>
      </trkpt>
      <trkpt lat="42.295" lon="2.574">
        <ele>971.689</ele>
        <time>2014-02-15T07:43:41Z</time>
      </trkpt>
      <trkpt lat="42.29496" lon="2.57385">
        <ele>973.017</ele>
        <time>2014-02-15T07:43:59Z</time>
      </trkpt>
      <trkpt lat="42.29495" lon="2.57371">
        <ele>974.407</ele>
        <time>2014-02-15T07:44:12Z</time>
      </trkpt>
      <trkpt lat="42.29495" lon="2.57357">
        <ele>975.414</ele>
        <time>2014-02-15T07:44:25Z</time>
      </trkpt>
      <trkpt lat="42.29493" lon="2.57348">
        <ele>977.399</ele>
        <time>2014-02-15T07:44:38Z</time>
      </trkpt>
      <trkpt lat="42.29495" lon="2.57338">
        <ele>978.372</ele>
        <time>2014-02-15T07:44:51Z</time>
      </trkpt>
      <trkpt lat="42.29497" lon="2.5733">
        <ele>979.757</ele>
        <time>2014-02-15T07:45:03Z</time>
      </trkpt>
      <trkpt lat="42.29496" lon="2.57318">
        <ele>981.626</ele>
        <time>2014-02-15T07:45:16Z</time>
      </trkpt>
      <trkpt lat="42.29497" lon="2.57307">
        <ele>982.653</ele>
        <time>2014-02-15T07:45:27Z</time>
      </trkpt>
      <trkpt lat="42.29502" lon="2.57302">
        <ele>981.265</ele>
        <time>2014-02-15T07:45:37Z</time>
      </trkpt>
      <trkpt lat="42.29506" lon="2.57295">
        <ele>981.643</ele>
        <time>2014-02-15T07:45:52Z</time>
      </trkpt>
      <trkpt lat="42.29506" lon="2.57294">
        <ele>982.164</ele>
        <time>2014-02-15T07:46:00Z</time>
      </trkpt>
      <trkpt lat="42.29507" lon="2.57289">
        <ele>981.61</ele>
        <time>2014-02-15T07:46:19Z</time>
      </trkpt>
      <trkpt lat="42.29507" lon="2.57288">
        <ele>981.207</ele>
        <time>2014-02-15T07:46:32Z</time>
      </trkpt>
      <trkpt lat="42.29505" lon="2.57287">
        <ele>981.61</ele>
        <time>2014-02-15T07:46:54Z</time>
      </trkpt>
      <trkpt lat="42.29502" lon="2.57282">
        <ele>984.125</ele>
        <time>2014-02-15T07:47:07Z</time>
      </trkpt>
      <trkpt lat="42.29497" lon="2.57274">
        <ele>986.098</ele>
        <time>2014-02-15T07:47:20Z</time>
      </trkpt>
      <trkpt lat="42.29494" lon="2.57268">
        <ele>988.463</ele>
        <time>2014-02-15T07:47:32Z</time>
      </trkpt>
      <trkpt lat="42.2949" lon="2.57256">
        <ele>988.442</ele>
        <time>2014-02-15T07:47:44Z</time>
      </trkpt>
      <trkpt lat="42.29493" lon="2.57248">
        <ele>988.439</ele>
        <time>2014-02-15T07:48:02Z</time>
      </trkpt>
      <trkpt lat="42.29494" lon="2.5725">
        <ele>988.461</ele>
        <time>2014-02-15T07:48:17Z</time>
      </trkpt>
      <trkpt lat="42.29493" lon="2.57251">
        <ele>988.914</ele>
        <time>2014-02-15T07:48:47Z</time>
      </trkpt>
      <trkpt lat="42.29494" lon="2.57258">
        <ele>986.954</ele>
        <time>2014-02-15T07:48:59Z</time>
      </trkpt>
      <trkpt lat="42.29497" lon="2.57264">
        <ele>986.009</ele>
        <time>2014-02-15T07:49:06Z</time>
      </trkpt>
      <trkpt lat="42.29501" lon="2.57271">
        <ele>984.507</ele>
        <time>2014-02-15T07:49:19Z</time>
      </trkpt>
      <trkpt lat="42.29503" lon="2.57281">
        <ele>982.697</ele>
        <time>2014-02-15T07:49:35Z</time>
      </trkpt>
      <trkpt lat="42.29504" lon="2.57284">
        <ele>981.632</ele>
        <time>2014-02-15T07:49:39Z</time>
      </trkpt>
      <trkpt lat="42.29509" lon="2.57288">
        <ele>980.245</ele>
        <time>2014-02-15T07:49:51Z</time>
      </trkpt>
      <trkpt lat="42.29508" lon="2.5729">
        <ele>980.76</ele>
        <time>2014-02-15T07:50:10Z</time>
      </trkpt>
      <trkpt lat="42.29507" lon="2.57291">
        <ele>979.269</ele>
        <time>2014-02-15T07:50:22Z</time>
      </trkpt>
      <trkpt lat="42.29508" lon="2.57302">
        <ele>975.976</ele>
        <time>2014-02-15T07:50:35Z</time>
      </trkpt>
      <trkpt lat="42.29512" lon="2.57309">
        <ele>972.588</ele>
        <time>2014-02-15T07:50:48Z</time>
      </trkpt>
      <trkpt lat="42.29519" lon="2.57321">
        <ele>970.686</ele>
        <time>2014-02-15T07:51:04Z</time>
      </trkpt>
      <trkpt lat="42.29525" lon="2.57327">
        <ele>967.76</ele>
        <time>2014-02-15T07:51:17Z</time>
      </trkpt>
      <trkpt lat="42.29526" lon="2.57336">
        <ele>965.326</ele>
        <time>2014-02-15T07:51:30Z</time>
      </trkpt>
      <trkpt lat="42.29531" lon="2.57339">
        <ele>961.907</ele>
        <time>2014-02-15T07:51:43Z</time>
      </trkpt>
      <trkpt lat="42.29535" lon="2.57339">
        <ele>960.024</ele>
        <time>2014-02-15T07:51:56Z</time>
      </trkpt>
      <trkpt lat="42.29538" lon="2.57337">
        <ele>957.619</ele>
        <time>2014-02-15T07:52:09Z</time>
      </trkpt>
      <trkpt lat="42.29541" lon="2.57335">
        <ele>954.332</ele>
        <time>2014-02-15T07:52:20Z</time>
      </trkpt>
      <trkpt lat="42.29541" lon="2.57334">
        <ele>954.317</ele>
        <time>2014-02-15T07:52:21Z</time>
      </trkpt>
      <trkpt lat="42.29545" lon="2.57332">
        <ele>950.926</ele>
        <time>2014-02-15T07:52:31Z</time>
      </trkpt>
      <trkpt lat="42.29553" lon="2.57328">
        <ele>947.583</ele>
        <time>2014-02-15T07:52:45Z</time>
      </trkpt>
      <trkpt lat="42.29555" lon="2.57332">
        <ele>945.675</ele>
        <time>2014-02-15T07:52:58Z</time>
      </trkpt>
      <trkpt lat="42.29559" lon="2.57329">
        <ele>942.283</ele>
        <time>2014-02-15T07:53:12Z</time>
      </trkpt>
      <trkpt lat="42.29559" lon="2.57323">
        <ele>938.925</ele>
        <time>2014-02-15T07:53:29Z</time>
      </trkpt>
      <trkpt lat="42.2956" lon="2.57327">
        <ele>938.917</ele>
        <time>2014-02-15T07:53:47Z</time>
      </trkpt>
      <trkpt lat="42.29561" lon="2.57328">
        <ele>936.007</ele>
        <time>2014-02-15T07:54:01Z</time>
      </trkpt>
      <trkpt lat="42.29561" lon="2.57331">
        <ele>935.014</ele>
        <time>2014-02-15T07:54:17Z</time>
      </trkpt>
      <trkpt lat="42.29562" lon="2.57333">
        <ele>933.639</ele>
        <time>2014-02-15T07:54:28Z</time>
      </trkpt>
      <trkpt lat="42.29566" lon="2.57338">
        <ele>930.752</ele>
        <time>2014-02-15T07:54:39Z</time>
      </trkpt>
      <trkpt lat="42.29567" lon="2.57341">
        <ele>929.397</ele>
        <time>2014-02-15T07:54:43Z</time>
      </trkpt>
      <trkpt lat="42.2957" lon="2.57341">
        <ele>925.936</ele>
        <time>2014-02-15T07:54:53Z</time>
      </trkpt>
      <trkpt lat="42.29571" lon="2.57343">
        <ele>923.023</ele>
        <time>2014-02-15T07:55:02Z</time>
      </trkpt>
      <trkpt lat="42.29576" lon="2.57345">
        <ele>919.655</ele>
        <time>2014-02-15T07:55:12Z</time>
      </trkpt>
      <trkpt lat="42.29578" lon="2.57345">
        <ele>918.276</ele>
        <time>2014-02-15T07:55:15Z</time>
      </trkpt>
      <trkpt lat="42.29582" lon="2.57344">
        <ele>915.89</ele>
        <time>2014-02-15T07:55:27Z</time>
      </trkpt>
      <trkpt lat="42.29587" lon="2.57345">
        <ele>912.019</ele>
        <time>2014-02-15T07:55:40Z</time>
      </trkpt>
      <trkpt lat="42.29592" lon="2.57349">
        <ele>909.107</ele>
        <time>2014-02-15T07:55:50Z</time>
      </trkpt>
      <trkpt lat="42.29597" lon="2.57354">
        <ele>906.743</ele>
        <time>2014-02-15T07:56:02Z</time>
      </trkpt>
      <trkpt lat="42.29603" lon="2.57362">
        <ele>903.328</ele>
        <time>2014-02-15T07:56:13Z</time>
      </trkpt>
      <trkpt lat="42.29606" lon="2.57364">
        <ele>899.931</ele>
        <time>2014-02-15T07:56:23Z</time>
      </trkpt>
      <trkpt lat="42.29607" lon="2.57365">
        <ele>899.946</ele>
        <time>2014-02-15T07:56:24Z</time>
      </trkpt>
      <trkpt lat="42.29609" lon="2.57368">
        <ele>897.565</ele>
        <time>2014-02-15T07:56:31Z</time>
      </trkpt>
      <trkpt lat="42.29615" lon="2.57381">
        <ele>893.772</ele>
        <time>2014-02-15T07:56:47Z</time>
      </trkpt>
      <trkpt lat="42.2962" lon="2.57387">
        <ele>890.354</ele>
        <time>2014-02-15T07:57:02Z</time>
      </trkpt>
      <trkpt lat="42.29626" lon="2.57388">
        <ele>888.425</ele>
        <time>2014-02-15T07:57:10Z</time>
      </trkpt>
      <trkpt lat="42.29631" lon="2.57395">
        <ele>885.526</ele>
        <time>2014-02-15T07:57:22Z</time>
      </trkpt>
      <trkpt lat="42.29636" lon="2.57396">
        <ele>882.208</ele>
        <time>2014-02-15T07:57:33Z</time>
      </trkpt>
      <trkpt lat="42.29645" lon="2.57399">
        <ele>879.307</ele>
        <time>2014-02-15T07:57:48Z</time>
      </trkpt>
      <trkpt lat="42.29646" lon="2.57402">
        <ele>877.868</ele>
        <time>2014-02-15T07:57:51Z</time>
      </trkpt>
      <trkpt lat="42.29649" lon="2.57407">
        <ele>875.473</ele>
        <time>2014-02-15T07:57:58Z</time>
      </trkpt>
      <trkpt lat="42.29653" lon="2.57411">
        <ele>872.116</ele>
        <time>2014-02-15T07:58:08Z</time>
      </trkpt>
      <trkpt lat="42.29658" lon="2.57405">
        <ele>868.711</ele>
        <time>2014-02-15T07:58:19Z</time>
      </trkpt>
      <trkpt lat="42.29663" lon="2.57396">
        <ele>865.38</ele>
        <time>2014-02-15T07:58:32Z</time>
      </trkpt>
      <trkpt lat="42.29664" lon="2.57386">
        <ele>862.057</ele>
        <time>2014-02-15T07:58:45Z</time>
      </trkpt>
      <trkpt lat="42.29668" lon="2.57385">
        <ele>859.189</ele>
        <time>2014-02-15T07:59:00Z</time>
      </trkpt>
      <trkpt lat="42.29672" lon="2.57379">
        <ele>856.756</ele>
        <time>2014-02-15T07:59:13Z</time>
      </trkpt>
      <trkpt lat="42.29672" lon="2.57374">
        <ele>853.359</ele>
        <time>2014-02-15T07:59:23Z</time>
      </trkpt>
      <trkpt lat="42.29673" lon="2.57371">
        <ele>851.914</ele>
        <time>2014-02-15T07:59:26Z</time>
      </trkpt>
      <trkpt lat="42.29676" lon="2.57364">
        <ele>849.007</ele>
        <time>2014-02-15T07:59:34Z</time>
      </trkpt>
      <trkpt lat="42.29676" lon="2.57357">
        <ele>845.621</ele>
        <time>2014-02-15T07:59:45Z</time>
      </trkpt>
      <trkpt lat="42.29681" lon="2.57354">
        <ele>842.326</ele>
        <time>2014-02-15T07:59:54Z</time>
      </trkpt>
      <trkpt lat="42.29681" lon="2.57354">
        <ele>842.319</ele>
        <time>2014-02-15T07:59:55Z</time>
      </trkpt>
      <trkpt lat="42.29685" lon="2.57347">
        <ele>839.914</ele>
        <time>2014-02-15T08:00:15Z</time>
      </trkpt>
      <trkpt lat="42.29688" lon="2.57345">
        <ele>837.983</ele>
        <time>2014-02-15T08:00:23Z</time>
      </trkpt>
      <trkpt lat="42.29692" lon="2.57343">
        <ele>835.01</ele>
        <time>2014-02-15T08:00:38Z</time>
      </trkpt>
      <trkpt lat="42.29694" lon="2.5734">
        <ele>833.112</ele>
        <time>2014-02-15T08:00:42Z</time>
      </trkpt>
      <trkpt lat="42.29701" lon="2.57336">
        <ele>829.851</ele>
        <time>2014-02-15T08:00:54Z</time>
      </trkpt>
      <trkpt lat="42.29707" lon="2.57332">
        <ele>827.401</ele>
        <time>2014-02-15T08:01:03Z</time>
      </trkpt>
      <trkpt lat="42.29715" lon="2.57322">
        <ele>824.511</ele>
        <time>2014-02-15T08:01:19Z</time>
      </trkpt>
      <trkpt lat="42.2972" lon="2.57318">
        <ele>822.607</ele>
        <time>2014-02-15T08:01:24Z</time>
      </trkpt>
      <trkpt lat="42.29732" lon="2.57309">
        <ele>819.211</ele>
        <time>2014-02-15T08:01:37Z</time>
      </trkpt>
      <trkpt lat="42.29744" lon="2.573">
        <ele>815.886</ele>
        <time>2014-02-15T08:01:50Z</time>
      </trkpt>
      <trkpt lat="42.29764" lon="2.57293">
        <ele>812.589</ele>
        <time>2014-02-15T08:02:06Z</time>
      </trkpt>
      <trkpt lat="42.29782" lon="2.57283">
        <ele>810.194</ele>
        <time>2014-02-15T08:02:21Z</time>
      </trkpt>
      <trkpt lat="42.29796" lon="2.57265">
        <ele>807.613</ele>
        <time>2014-02-15T08:02:37Z</time>
      </trkpt>
      <trkpt lat="42.29809" lon="2.57247">
        <ele>804.81</ele>
        <time>2014-02-15T08:02:50Z</time>
      </trkpt>
      <trkpt lat="42.29823" lon="2.57238">
        <ele>802.882</ele>
        <time>2014-02-15T08:03:03Z</time>
      </trkpt>
      <trkpt lat="42.29834" lon="2.57233">
        <ele>799.512</ele>
        <time>2014-02-15T08:03:16Z</time>
      </trkpt>
      <trkpt lat="42.29835" lon="2.57232">
        <ele>799.032</ele>
        <time>2014-02-15T08:03:18Z</time>
      </trkpt>
      <trkpt lat="42.29843" lon="2.57226">
        <ele>795.605</ele>
        <time>2014-02-15T08:03:28Z</time>
      </trkpt>
      <trkpt lat="42.29857" lon="2.57236">
        <ele>792.307</ele>
        <time>2014-02-15T08:03:41Z</time>
      </trkpt>
      <trkpt lat="42.29858" lon="2.57237">
        <ele>791.847</ele>
        <time>2014-02-15T08:03:42Z</time>
      </trkpt>
      <trkpt lat="42.29867" lon="2.57238">
        <ele>788.962</ele>
        <time>2014-02-15T08:03:52Z</time>
      </trkpt>
      <trkpt lat="42.29878" lon="2.5724">
        <ele>785.565</ele>
        <time>2014-02-15T08:04:03Z</time>
      </trkpt>
      <trkpt lat="42.29884" lon="2.57238">
        <ele>782.28</ele>
        <time>2014-02-15T08:04:14Z</time>
      </trkpt>
      <trkpt lat="42.29885" lon="2.57237">
        <ele>781.229</ele>
        <time>2014-02-15T08:04:16Z</time>
      </trkpt>
      <trkpt lat="42.29891" lon="2.57232">
        <ele>778.866</ele>
        <time>2014-02-15T08:04:24Z</time>
      </trkpt>
      <trkpt lat="42.29896" lon="2.5723">
        <ele>775.448</ele>
        <time>2014-02-15T08:04:31Z</time>
      </trkpt>
      <trkpt lat="42.29897" lon="2.57229">
        <ele>775.053</ele>
        <time>2014-02-15T08:04:32Z</time>
      </trkpt>
      <trkpt lat="42.299" lon="2.57229">
        <ele>774.004</ele>
        <time>2014-02-15T08:04:36Z</time>
      </trkpt>
      <trkpt lat="42.29907" lon="2.57229">
        <ele>770.614</ele>
        <time>2014-02-15T08:04:45Z</time>
      </trkpt>
      <trkpt lat="42.2991" lon="2.57229">
        <ele>769.207</ele>
        <time>2014-02-15T08:04:48Z</time>
      </trkpt>
      <trkpt lat="42.29912" lon="2.57229">
        <ele>768.281</ele>
        <time>2014-02-15T08:04:50Z</time>
      </trkpt>
      <trkpt lat="42.29914" lon="2.57227">
        <ele>766.846</ele>
        <time>2014-02-15T08:04:53Z</time>
      </trkpt>
      <trkpt lat="42.2992" lon="2.57223">
        <ele>765.439</ele>
        <time>2014-02-15T08:04:59Z</time>
      </trkpt>
      <trkpt lat="42.29941" lon="2.57231">
        <ele>764.414</ele>
        <time>2014-02-15T08:05:12Z</time>
      </trkpt>
      <trkpt lat="42.2995" lon="2.57235">
        <ele>762.553</ele>
        <time>2014-02-15T08:05:19Z</time>
      </trkpt>
      <trkpt lat="42.29953" lon="2.57237">
        <ele>762.04</ele>
        <time>2014-02-15T08:05:22Z</time>
      </trkpt>
      <trkpt lat="42.29961" lon="2.57239">
        <ele>760.162</ele>
        <time>2014-02-15T08:05:28Z</time>
      </trkpt>
      <trkpt lat="42.29967" lon="2.5724">
        <ele>758.659</ele>
        <time>2014-02-15T08:05:31Z</time>
      </trkpt>
      <trkpt lat="42.29972" lon="2.57238">
        <ele>758.103</ele>
        <time>2014-02-15T08:05:35Z</time>
      </trkpt>
      <trkpt lat="42.29988" lon="2.57232">
        <ele>760.523</ele>
        <time>2014-02-15T08:05:49Z</time>
      </trkpt>
      <trkpt lat="42.29998" lon="2.57231">
        <ele>761.507</ele>
        <time>2014-02-15T08:06:02Z</time>
      </trkpt>
      <trkpt lat="42.30005" lon="2.57232">
        <ele>762.561</ele>
        <time>2014-02-15T08:06:08Z</time>
      </trkpt>
      <trkpt lat="42.3001" lon="2.57231">
        <ele>764.926</ele>
        <time>2014-02-15T08:06:13Z</time>
      </trkpt>
      <trkpt lat="42.30016" lon="2.57239">
        <ele>766.389</ele>
        <time>2014-02-15T08:06:27Z</time>
      </trkpt>
      <trkpt lat="42.30017" lon="2.57244">
        <ele>765.874</ele>
        <time>2014-02-15T08:06:42Z</time>
      </trkpt>
      <trkpt lat="42.30018" lon="2.57245">
        <ele>765.423</ele>
        <time>2014-02-15T08:07:02Z</time>
      </trkpt>
      <trkpt lat="42.30018" lon="2.57245">
        <ele>764.97</ele>
        <time>2014-02-15T08:07:39Z</time>
      </trkpt>
      <trkpt lat="42.30019" lon="2.57248">
        <ele>765.442</ele>
        <time>2014-02-15T08:08:18Z</time>
      </trkpt>
      <trkpt lat="42.30021" lon="2.57249">
        <ele>764.451</ele>
        <time>2014-02-15T08:08:57Z</time>
      </trkpt>
      <trkpt lat="42.3002" lon="2.57247">
        <ele>763.901</ele>
        <time>2014-02-15T08:09:34Z</time>
      </trkpt>
      <trkpt lat="42.30019" lon="2.57247">
        <ele>763.911</ele>
        <time>2014-02-15T08:10:08Z</time>
      </trkpt>
      <trkpt lat="42.30018" lon="2.57246">
        <ele>763.907</ele>
        <time>2014-02-15T08:10:45Z</time>
      </trkpt>
      <trkpt lat="42.30018" lon="2.57246">
        <ele>764.451</ele>
        <time>2014-02-15T08:11:29Z</time>
      </trkpt>
      <trkpt lat="42.30014" lon="2.57241">
        <ele>764.936</ele>
        <time>2014-02-15T08:12:04Z</time>
      </trkpt>
      <trkpt lat="42.30016" lon="2.57245">
        <ele>764.999</ele>
        <time>2014-02-15T08:12:38Z</time>
      </trkpt>
      <trkpt lat="42.30018" lon="2.57248">
        <ele>763.974</ele>
        <time>2014-02-15T08:13:19Z</time>
      </trkpt>
      <trkpt lat="42.30018" lon="2.57242">
        <ele>763.943</ele>
        <time>2014-02-15T08:13:52Z</time>
      </trkpt>
      <trkpt lat="42.3002" lon="2.57245">
        <ele>763.94</ele>
        <time>2014-02-15T08:14:26Z</time>
      </trkpt>
      <trkpt lat="42.3002" lon="2.57246">
        <ele>763.922</ele>
        <time>2014-02-15T08:15:04Z</time>
      </trkpt>
      <trkpt lat="42.30017" lon="2.57243">
        <ele>763.458</ele>
        <time>2014-02-15T08:15:39Z</time>
      </trkpt>
      <trkpt lat="42.30017" lon="2.57246">
        <ele>763.952</ele>
        <time>2014-02-15T08:16:11Z</time>
      </trkpt>
      <trkpt lat="42.30017" lon="2.57244">
        <ele>763.417</ele>
        <time>2014-02-15T08:16:43Z</time>
      </trkpt>
      <trkpt lat="42.30018" lon="2.57243">
        <ele>763.407</ele>
        <time>2014-02-15T08:17:16Z</time>
      </trkpt>
      <trkpt lat="42.30021" lon="2.57246">
        <ele>763.431</ele>
        <time>2014-02-15T08:17:57Z</time>
      </trkpt>
      <trkpt lat="42.3002" lon="2.57245">
        <ele>763.926</ele>
        <time>2014-02-15T08:18:21Z</time>
      </trkpt>
      <trkpt lat="42.30019" lon="2.57244">
        <ele>763.969</ele>
        <time>2014-02-15T08:18:34Z</time>
      </trkpt>
      <trkpt lat="42.30016" lon="2.57241">
        <ele>764.464</ele>
        <time>2014-02-15T08:18:47Z</time>
      </trkpt>
      <trkpt lat="42.30016" lon="2.57237">
        <ele>762.963</ele>
        <time>2014-02-15T08:19:08Z</time>
      </trkpt>
      <trkpt lat="42.30015" lon="2.57237">
        <ele>762.98</ele>
        <time>2014-02-15T08:19:25Z</time>
      </trkpt>
      <trkpt lat="42.30014" lon="2.57237">
        <ele>762.952</ele>
        <time>2014-02-15T08:19:58Z</time>
      </trkpt>
      <trkpt lat="42.3002" lon="2.57237">
        <ele>762.028</ele>
        <time>2014-02-15T08:20:11Z</time>
      </trkpt>
      <trkpt lat="42.30036" lon="2.57242">
        <ele>763.489</ele>
        <time>2014-02-15T08:20:25Z</time>
      </trkpt>
      <trkpt lat="42.30036" lon="2.57241">
        <ele>763.917</ele>
        <time>2014-02-15T08:20:40Z</time>
      </trkpt>
      <trkpt lat="42.30047" lon="2.57242">
        <ele>765.807</ele>
        <time>2014-02-15T08:20:51Z</time>
      </trkpt>
      <trkpt lat="42.3005" lon="2.57241">
        <ele>766.888</ele>
        <time>2014-02-15T08:20:55Z</time>
      </trkpt>
      <trkpt lat="42.30055" lon="2.57241">
        <ele>768.243</ele>
        <time>2014-02-15T08:20:59Z</time>
      </trkpt>
      <trkpt lat="42.30071" lon="2.57245">
        <ele>768.786</ele>
        <time>2014-02-15T08:21:13Z</time>
      </trkpt>
      <trkpt lat="42.30074" lon="2.57244">
        <ele>769.231</ele>
        <time>2014-02-15T08:21:16Z</time>
      </trkpt>
      <trkpt lat="42.30083" lon="2.57247">
        <ele>769.23</ele>
        <time>2014-02-15T08:21:25Z</time>
      </trkpt>
      <trkpt lat="42.3009" lon="2.57242">
        <ele>768.717</ele>
        <time>2014-02-15T08:21:32Z</time>
      </trkpt>
      <trkpt lat="42.30108" lon="2.57238">
        <ele>769.719</ele>
        <time>2014-02-15T08:21:48Z</time>
      </trkpt>
      <trkpt lat="42.30115" lon="2.57233">
        <ele>771.157</ele>
        <time>2014-02-15T08:21:58Z</time>
      </trkpt>
      <trkpt lat="42.30121" lon="2.57221">
        <ele>771.6</ele>
        <time>2014-02-15T08:22:12Z</time>
      </trkpt>
      <trkpt lat="42.30126" lon="2.57217">
        <ele>774.02</ele>
        <time>2014-02-15T08:22:20Z</time>
      </trkpt>
      <trkpt lat="42.30129" lon="2.57203">
        <ele>776.407</ele>
        <time>2014-02-15T08:22:35Z</time>
      </trkpt>
      <trkpt lat="42.30134" lon="2.57193">
        <ele>779.321</ele>
        <time>2014-02-15T08:22:50Z</time>
      </trkpt>
      <trkpt lat="42.30137" lon="2.5719">
        <ele>780.776</ele>
        <time>2014-02-15T08:22:53Z</time>
      </trkpt>
      <trkpt lat="42.3014" lon="2.57188">
        <ele>781.789</ele>
        <time>2014-02-15T08:22:56Z</time>
      </trkpt>
      <trkpt lat="42.3014" lon="2.57186">
        <ele>782.784</ele>
        <time>2014-02-15T08:22:58Z</time>
      </trkpt>
      <trkpt lat="42.30139" lon="2.57169">
        <ele>782.743</ele>
        <time>2014-02-15T08:23:10Z</time>
      </trkpt>
      <trkpt lat="42.30135" lon="2.57148">
        <ele>783.19</ele>
        <time>2014-02-15T08:23:23Z</time>
      </trkpt>
      <trkpt lat="42.30135" lon="2.57146">
        <ele>783.652</ele>
        <time>2014-02-15T08:23:24Z</time>
      </trkpt>
      <trkpt lat="42.30131" lon="2.57133">
        <ele>782.744</ele>
        <time>2014-02-15T08:23:33Z</time>
      </trkpt>
      <trkpt lat="42.3013" lon="2.57127">
        <ele>782.705</ele>
        <time>2014-02-15T08:23:37Z</time>
      </trkpt>
      <trkpt lat="42.3013" lon="2.57122">
        <ele>782.715</ele>
        <time>2014-02-15T08:23:41Z</time>
      </trkpt>
      <trkpt lat="42.30129" lon="2.57115">
        <ele>783.107</ele>
        <time>2014-02-15T08:23:45Z</time>
      </trkpt>
      <trkpt lat="42.30124" lon="2.57085">
        <ele>782.28</ele>
        <time>2014-02-15T08:24:02Z</time>
      </trkpt>
      <trkpt lat="42.30125" lon="2.57075">
        <ele>784.115</ele>
        <time>2014-02-15T08:24:14Z</time>
      </trkpt>
      <trkpt lat="42.30124" lon="2.5707">
        <ele>784.638</ele>
        <time>2014-02-15T08:24:19Z</time>
      </trkpt>
      <trkpt lat="42.30126" lon="2.57057">
        <ele>787.963</ele>
        <time>2014-02-15T08:24:31Z</time>
      </trkpt>
      <trkpt lat="42.30127" lon="2.57048">
        <ele>789.492</ele>
        <time>2014-02-15T08:24:38Z</time>
      </trkpt>
      <trkpt lat="42.30129" lon="2.5704">
        <ele>790.349</ele>
        <time>2014-02-15T08:24:45Z</time>
      </trkpt>
      <trkpt lat="42.30128" lon="2.57027">
        <ele>792.741</ele>
        <time>2014-02-15T08:24:54Z</time>
      </trkpt>
      <trkpt lat="42.30132" lon="2.57018">
        <ele>794.269</ele>
        <time>2014-02-15T08:25:03Z</time>
      </trkpt>
      <trkpt lat="42.30132" lon="2.5701">
        <ele>796.604</ele>
        <time>2014-02-15T08:25:09Z</time>
      </trkpt>
      <trkpt lat="42.30135" lon="2.56998">
        <ele>798.524</ele>
        <time>2014-02-15T08:25:21Z</time>
      </trkpt>
      <trkpt lat="42.3014" lon="2.56993">
        <ele>801.407</ele>
        <time>2014-02-15T08:25:32Z</time>
      </trkpt>
      <trkpt lat="42.30141" lon="2.56991">
        <ele>801.452</ele>
        <time>2014-02-15T08:25:34Z</time>
      </trkpt>
      <trkpt lat="42.30141" lon="2.56987">
        <ele>802.817</ele>
        <time>2014-02-15T08:25:37Z</time>
      </trkpt>
      <trkpt lat="42.30146" lon="2.56977">
        <ele>804.86</ele>
        <time>2014-02-15T08:25:49Z</time>
      </trkpt>
      <trkpt lat="42.30152" lon="2.56963">
        <ele>806.775</ele>
        <time>2014-02-15T08:26:01Z</time>
      </trkpt>
      <trkpt lat="42.30154" lon="2.56959">
        <ele>808.164</ele>
        <time>2014-02-15T08:26:04Z</time>
      </trkpt>
      <trkpt lat="42.30166" lon="2.56932">
        <ele>810.521</ele>
        <time>2014-02-15T08:26:20Z</time>
      </trkpt>
      <trkpt lat="42.3017" lon="2.56922">
        <ele>812.523</ele>
        <time>2014-02-15T08:26:28Z</time>
      </trkpt>
      <trkpt lat="42.30174" lon="2.56901">
        <ele>812.928</ele>
        <time>2014-02-15T08:26:41Z</time>
      </trkpt>
      <trkpt lat="42.30174" lon="2.56895">
        <ele>814.489</ele>
        <time>2014-02-15T08:26:45Z</time>
      </trkpt>
      <trkpt lat="42.30171" lon="2.56884">
        <ele>816.817</ele>
        <time>2014-02-15T08:26:57Z</time>
      </trkpt>
      <trkpt lat="42.30176" lon="2.5688">
        <ele>817.307</ele>
        <time>2014-02-15T08:27:02Z</time>
      </trkpt>
      <trkpt lat="42.30178" lon="2.56875">
        <ele>818.798</ele>
        <time>2014-02-15T08:27:10Z</time>
      </trkpt>
      <trkpt lat="42.30181" lon="2.56867">
        <ele>820.143</ele>
        <time>2014-02-15T08:27:22Z</time>
      </trkpt>
      <trkpt lat="42.30181" lon="2.56867">
        <ele>820.696</ele>
        <time>2014-02-15T08:27:23Z</time>
      </trkpt>
      <trkpt lat="42.30183" lon="2.56867">
        <ele>821.191</ele>
        <time>2014-02-15T08:27:25Z</time>
      </trkpt>
      <trkpt lat="42.30186" lon="2.56865">
        <ele>821.61</ele>
        <time>2014-02-15T08:27:28Z</time>
      </trkpt>
      <trkpt lat="42.30184" lon="2.56844">
        <ele>823.537</ele>
        <time>2014-02-15T08:27:43Z</time>
      </trkpt>
      <trkpt lat="42.30187" lon="2.56832">
        <ele>825.929</ele>
        <time>2014-02-15T08:27:53Z</time>
      </trkpt>
      <trkpt lat="42.30195" lon="2.56813">
        <ele>827.898</ele>
        <time>2014-02-15T08:28:08Z</time>
      </trkpt>
      <trkpt lat="42.30197" lon="2.56809">
        <ele>828.815</ele>
        <time>2014-02-15T08:28:11Z</time>
      </trkpt>
      <trkpt lat="42.30198" lon="2.56783">
        <ele>830.726</ele>
        <time>2014-02-15T08:28:26Z</time>
      </trkpt>
      <trkpt lat="42.302" lon="2.56771">
        <ele>832.607</ele>
        <time>2014-02-15T08:28:34Z</time>
      </trkpt>
      <trkpt lat="42.30212" lon="2.56753">
        <ele>834.695</ele>
        <time>2014-02-15T08:28:49Z</time>
      </trkpt>
      <trkpt lat="42.30221" lon="2.56728">
        <ele>837.08</ele>
        <time>2014-02-15T08:29:04Z</time>
      </trkpt>
      <trkpt lat="42.30231" lon="2.56707">
        <ele>840.313</ele>
        <time>2014-02-15T08:29:21Z</time>
      </trkpt>
      <trkpt lat="42.30236" lon="2.56706">
        <ele>840.848</ele>
        <time>2014-02-15T08:29:26Z</time>
      </trkpt>
      <trkpt lat="42.3024" lon="2.56705">
        <ele>841.857</ele>
        <time>2014-02-15T08:29:29Z</time>
      </trkpt>
      <trkpt lat="42.3025" lon="2.56691">
        <ele>844.794</ele>
        <time>2014-02-15T08:29:43Z</time>
      </trkpt>
      <trkpt lat="42.30255" lon="2.56676">
        <ele>848.046</ele>
        <time>2014-02-15T08:29:54Z</time>
      </trkpt>
      <trkpt lat="42.30265" lon="2.56649">
        <ele>848.585</ele>
        <time>2014-02-15T08:30:10Z</time>
      </trkpt>
      <trkpt lat="42.30273" lon="2.56643">
        <ele>849.589</ele>
        <time>2014-02-15T08:30:17Z</time>
      </trkpt>
      <trkpt lat="42.30281" lon="2.56635">
        <ele>849.917</ele>
        <time>2014-02-15T08:30:25Z</time>
      </trkpt>
      <trkpt lat="42.303" lon="2.56613">
        <ele>850.407</ele>
        <time>2014-02-15T08:30:42Z</time>
      </trkpt>
      <trkpt lat="42.30318" lon="2.56602">
        <ele>852.494</ele>
        <time>2014-02-15T08:30:57Z</time>
      </trkpt>
      <trkpt lat="42.30337" lon="2.56591">
        <ele>853.849</ele>
        <time>2014-02-15T08:31:15Z</time>
      </trkpt>
      <trkpt lat="42.3034" lon="2.5659">
        <ele>854.312</ele>
        <time>2014-02-15T08:31:18Z</time>
      </trkpt>
      <trkpt lat="42.30349" lon="2.56581">
        <ele>856.737</ele>
        <time>2014-02-15T08:31:32Z</time>
      </trkpt>
      <trkpt lat="42.30359" lon="2.56561">
        <ele>857.616</ele>
        <time>2014-02-15T08:31:47Z</time>
      </trkpt>
      <trkpt lat="42.30372" lon="2.56546">
        <ele>858.623</ele>
        <time>2014-02-15T08:32:01Z</time>
      </trkpt>
      <trkpt lat="42.30391" lon="2.56529">
        <ele>860.045</ele>
        <time>2014-02-15T08:32:17Z</time>
      </trkpt>
      <trkpt lat="42.30406" lon="2.56525">
        <ele>863.431</ele>
        <time>2014-02-15T08:32:32Z</time>
      </trkpt>
      <trkpt lat="42.30412" lon="2.56521">
        <ele>863.461</ele>
        <time>2014-02-15T08:32:38Z</time>
      </trkpt>
      <trkpt lat="42.30424" lon="2.5651">
        <ele>862.907</ele>
        <time>2014-02-15T08:32:52Z</time>
      </trkpt>
      <trkpt lat="42.30435" lon="2.56496">
        <ele>865.307</ele>
        <time>2014-02-15T08:33:05Z</time>
      </trkpt>
      <trkpt lat="42.30445" lon="2.56485">
        <ele>867.329</ele>
        <time>2014-02-15T08:33:17Z</time>
      </trkpt>
      <trkpt lat="42.30452" lon="2.5647">
        <ele>868.724</ele>
        <time>2014-02-15T08:33:30Z</time>
      </trkpt>
      <trkpt lat="42.30457" lon="2.56464">
        <ele>869.747</ele>
        <time>2014-02-15T08:33:36Z</time>
      </trkpt>
      <trkpt lat="42.30461" lon="2.5646">
        <ele>869.722</ele>
        <time>2014-02-15T08:33:40Z</time>
      </trkpt>
      <trkpt lat="42.30463" lon="2.56454">
        <ele>870.661</ele>
        <time>2014-02-15T08:33:44Z</time>
      </trkpt>
      <trkpt lat="42.3047" lon="2.5644">
        <ele>872.198</ele>
        <time>2014-02-15T08:33:59Z</time>
      </trkpt>
      <trkpt lat="42.30474" lon="2.56437">
        <ele>872.14</ele>
        <time>2014-02-15T08:34:03Z</time>
      </trkpt>
      <trkpt lat="42.3048" lon="2.56428">
        <ele>874.925</ele>
        <time>2014-02-15T08:34:14Z</time>
      </trkpt>
      <trkpt lat="42.30488" lon="2.56416">
        <ele>877.826</ele>
        <time>2014-02-15T08:34:28Z</time>
      </trkpt>
      <trkpt lat="42.30496" lon="2.56404">
        <ele>881.208</ele>
        <time>2014-02-15T08:34:41Z</time>
      </trkpt>
      <trkpt lat="42.30496" lon="2.56403">
        <ele>881.207</ele>
        <time>2014-02-15T08:34:42Z</time>
      </trkpt>
      <trkpt lat="42.30498" lon="2.564">
        <ele>881.768</ele>
        <time>2014-02-15T08:34:44Z</time>
      </trkpt>
      <trkpt lat="42.30506" lon="2.56388">
        <ele>883.183</ele>
        <time>2014-02-15T08:34:54Z</time>
      </trkpt>
      <trkpt lat="42.30512" lon="2.56381">
        <ele>884.196</ele>
        <time>2014-02-15T08:35:00Z</time>
      </trkpt>
      <trkpt lat="42.30518" lon="2.56376">
        <ele>884.631</ele>
        <time>2014-02-15T08:35:05Z</time>
      </trkpt>
      <trkpt lat="42.30521" lon="2.56373">
        <ele>886.04</ele>
        <time>2014-02-15T08:35:08Z</time>
      </trkpt>
      <trkpt lat="42.30525" lon="2.5637">
        <ele>886.077</ele>
        <time>2014-02-15T08:35:11Z</time>
      </trkpt>
      <trkpt lat="42.30528" lon="2.56365">
        <ele>886.529</ele>
        <time>2014-02-15T08:35:15Z</time>
      </trkpt>
      <trkpt lat="42.30544" lon="2.56353">
        <ele>887.078</ele>
        <time>2014-02-15T08:35:29Z</time>
      </trkpt>
      <trkpt lat="42.30548" lon="2.56352">
        <ele>887.033</ele>
        <time>2014-02-15T08:35:32Z</time>
      </trkpt>
      <trkpt lat="42.3056" lon="2.56346">
        <ele>886.026</ele>
        <time>2014-02-15T08:35:43Z</time>
      </trkpt>
      <trkpt lat="42.30578" lon="2.56335">
        <ele>886.007</ele>
        <time>2014-02-15T08:35:59Z</time>
      </trkpt>
      <trkpt lat="42.30592" lon="2.56329">
        <ele>886.093</ele>
        <time>2014-02-15T08:36:11Z</time>
      </trkpt>
      <trkpt lat="42.30611" lon="2.56325">
        <ele>886.578</ele>
        <time>2014-02-15T08:36:26Z</time>
      </trkpt>
      <trkpt lat="42.30618" lon="2.56324">
        <ele>887.051</ele>
        <time>2014-02-15T08:36:31Z</time>
      </trkpt>
      <trkpt lat="42.30634" lon="2.56324">
        <ele>887.956</ele>
        <time>2014-02-15T08:36:44Z</time>
      </trkpt>
      <trkpt lat="42.30651" lon="2.56327">
        <ele>890.365</ele>
        <time>2014-02-15T08:36:58Z</time>
      </trkpt>
      <trkpt lat="42.30661" lon="2.56333">
        <ele>891.882</ele>
        <time>2014-02-15T08:37:10Z</time>
      </trkpt>
      <trkpt lat="42.30667" lon="2.56336">
        <ele>894.694</ele>
        <time>2014-02-15T08:37:19Z</time>
      </trkpt>
      <trkpt lat="42.30678" lon="2.5634">
        <ele>897.527</ele>
        <time>2014-02-15T08:37:32Z</time>
      </trkpt>
      <trkpt lat="42.30689" lon="2.56348">
        <ele>899.968</ele>
        <time>2014-02-15T08:37:45Z</time>
      </trkpt>
      <trkpt lat="42.30694" lon="2.56352">
        <ele>900.414</ele>
        <time>2014-02-15T08:37:50Z</time>
      </trkpt>
      <trkpt lat="42.30709" lon="2.56361">
        <ele>901.907</ele>
        <time>2014-02-15T08:38:04Z</time>
      </trkpt>
      <trkpt lat="42.30723" lon="2.5637">
        <ele>904.338</ele>
        <time>2014-02-15T08:38:19Z</time>
      </trkpt>
      <trkpt lat="42.3073" lon="2.56377">
        <ele>907.653</ele>
        <time>2014-02-15T08:38:30Z</time>
      </trkpt>
      <trkpt lat="42.30731" lon="2.56377">
        <ele>907.676</ele>
        <time>2014-02-15T08:38:31Z</time>
      </trkpt>
      <trkpt lat="42.30734" lon="2.56379">
        <ele>911.011</ele>
        <time>2014-02-15T08:38:40Z</time>
      </trkpt>
      <trkpt lat="42.30739" lon="2.56381">
        <ele>913.42</ele>
        <time>2014-02-15T08:38:52Z</time>
      </trkpt>
      <trkpt lat="42.30747" lon="2.56385">
        <ele>915.377</ele>
        <time>2014-02-15T08:39:03Z</time>
      </trkpt>
      <trkpt lat="42.30757" lon="2.56394">
        <ele>917.799</ele>
        <time>2014-02-15T08:39:14Z</time>
      </trkpt>
      <trkpt lat="42.30759" lon="2.56398">
        <ele>918.258</ele>
        <time>2014-02-15T08:39:17Z</time>
      </trkpt>
      <trkpt lat="42.30766" lon="2.56401">
        <ele>921.652</ele>
        <time>2014-02-15T08:39:27Z</time>
      </trkpt>
      <trkpt lat="42.30766" lon="2.56396">
        <ele>923.517</ele>
        <time>2014-02-15T08:39:40Z</time>
      </trkpt>
      <trkpt lat="42.30765" lon="2.56393">
        <ele>925.907</ele>
        <time>2014-02-15T08:39:53Z</time>
      </trkpt>
      <trkpt lat="42.30766" lon="2.56385">
        <ele>927.351</ele>
        <time>2014-02-15T08:40:05Z</time>
      </trkpt>
      <trkpt lat="42.30769" lon="2.56378">
        <ele>929.356</ele>
        <time>2014-02-15T08:40:14Z</time>
      </trkpt>
      <trkpt lat="42.30775" lon="2.56364">
        <ele>930.219</ele>
        <time>2014-02-15T08:40:27Z</time>
      </trkpt>
      <trkpt lat="42.30784" lon="2.56345">
        <ele>928.814</ele>
        <time>2014-02-15T08:40:42Z</time>
      </trkpt>
      <trkpt lat="42.30787" lon="2.56332">
        <ele>927.383</ele>
        <time>2014-02-15T08:40:48Z</time>
      </trkpt>
      <trkpt lat="42.30786" lon="2.56305">
        <ele>924.53</ele>
        <time>2014-02-15T08:41:03Z</time>
      </trkpt>
      <trkpt lat="42.30788" lon="2.56279">
        <ele>923.082</ele>
        <time>2014-02-15T08:41:16Z</time>
      </trkpt>
      <trkpt lat="42.3079" lon="2.56271">
        <ele>923.053</ele>
        <time>2014-02-15T08:41:20Z</time>
      </trkpt>
      <trkpt lat="42.30793" lon="2.56258">
        <ele>921.104</ele>
        <time>2014-02-15T08:41:27Z</time>
      </trkpt>
      <trkpt lat="42.30794" lon="2.56241">
        <ele>917.714</ele>
        <time>2014-02-15T08:41:38Z</time>
      </trkpt>
      <trkpt lat="42.308" lon="2.56224">
        <ele>915.807</ele>
        <time>2014-02-15T08:41:49Z</time>
      </trkpt>
      <trkpt lat="42.30802" lon="2.5621">
        <ele>913.981</ele>
        <time>2014-02-15T08:41:56Z</time>
      </trkpt>
      <trkpt lat="42.30805" lon="2.56205">
        <ele>912.976</ele>
        <time>2014-02-15T08:42:00Z</time>
      </trkpt>
      <trkpt lat="42.30814" lon="2.56194">
        <ele>913.429</ele>
        <time>2014-02-15T08:42:07Z</time>
      </trkpt>
      <trkpt lat="42.30817" lon="2.56187">
        <ele>912.464</ele>
        <time>2014-02-15T08:42:11Z</time>
      </trkpt>
      <trkpt lat="42.30822" lon="2.56181">
        <ele>912.093</ele>
        <time>2014-02-15T08:42:16Z</time>
      </trkpt>
      <trkpt lat="42.30835" lon="2.56168">
        <ele>908.16</ele>
        <time>2014-02-15T08:42:30Z</time>
      </trkpt>
      <trkpt lat="42.30844" lon="2.56154">
        <ele>904.752</ele>
        <time>2014-02-15T08:42:40Z</time>
      </trkpt>
      <trkpt lat="42.30852" lon="2.56143">
        <ele>902.312</ele>
        <time>2014-02-15T08:42:52Z</time>
      </trkpt>
      <trkpt lat="42.30864" lon="2.56121">
        <ele>901.932</ele>
        <time>2014-02-15T08:43:05Z</time>
      </trkpt>
      <trkpt lat="42.30865" lon="2.56117">
        <ele>901.405</ele>
        <time>2014-02-15T08:43:08Z</time>
      </trkpt>
      <trkpt lat="42.30862" lon="2.56108">
        <ele>901.907</ele>
        <time>2014-02-15T08:43:16Z</time>
      </trkpt>
      <trkpt lat="42.3084" lon="2.56095">
        <ele>901.497</ele>
        <time>2014-02-15T08:43:31Z</time>
      </trkpt>
      <trkpt lat="42.30833" lon="2.56091">
        <ele>901.432</ele>
        <time>2014-02-15T08:43:36Z</time>
      </trkpt>
      <trkpt lat="42.30821" lon="2.56071">
        <ele>902.395</ele>
        <time>2014-02-15T08:43:47Z</time>
      </trkpt>
      <trkpt lat="42.30815" lon="2.56063">
        <ele>902.36</ele>
        <time>2014-02-15T08:43:53Z</time>
      </trkpt>
      <trkpt lat="42.30813" lon="2.56056">
        <ele>902.349</ele>
        <time>2014-02-15T08:43:57Z</time>
      </trkpt>
      <trkpt lat="42.30805" lon="2.56047">
        <ele>900.496</ele>
        <time>2014-02-15T08:44:03Z</time>
      </trkpt>
      <trkpt lat="42.30801" lon="2.56043">
        <ele>898.528</ele>
        <time>2014-02-15T08:44:08Z</time>
      </trkpt>
      <trkpt lat="42.30798" lon="2.56039">
        <ele>898.527</ele>
        <time>2014-02-15T08:44:11Z</time>
      </trkpt>
      <trkpt lat="42.30794" lon="2.56037">
        <ele>898.068</ele>
        <time>2014-02-15T08:44:14Z</time>
      </trkpt>
      <trkpt lat="42.30782" lon="2.56027">
        <ele>898.014</ele>
        <time>2014-02-15T08:44:25Z</time>
      </trkpt>
      <trkpt lat="42.30777" lon="2.56022">
        <ele>899.007</ele>
        <time>2014-02-15T08:44:29Z</time>
      </trkpt>
      <trkpt lat="42.30754" lon="2.56006">
        <ele>899.028</ele>
        <time>2014-02-15T08:44:42Z</time>
      </trkpt>
      <trkpt lat="42.30749" lon="2.56003">
        <ele>898.053</ele>
        <time>2014-02-15T08:44:45Z</time>
      </trkpt>
      <trkpt lat="42.30742" lon="2.55993">
        <ele>898.096</ele>
        <time>2014-02-15T08:44:49Z</time>
      </trkpt>
      <trkpt lat="42.30737" lon="2.55984">
        <ele>897.581</ele>
        <time>2014-02-15T08:44:54Z</time>
      </trkpt>
      <trkpt lat="42.30721" lon="2.55969">
        <ele>893.75</ele>
        <time>2014-02-15T08:45:04Z</time>
      </trkpt>
      <trkpt lat="42.30701" lon="2.55937">
        <ele>892.737</ele>
        <time>2014-02-15T08:45:18Z</time>
      </trkpt>
      <trkpt lat="42.30692" lon="2.55926">
        <ele>893.739</ele>
        <time>2014-02-15T08:45:26Z</time>
      </trkpt>
      <trkpt lat="42.30685" lon="2.55919">
        <ele>894.621</ele>
        <time>2014-02-15T08:45:32Z</time>
      </trkpt>
      <trkpt lat="42.30683" lon="2.55916">
        <ele>895.141</ele>
        <time>2014-02-15T08:45:34Z</time>
      </trkpt>
      <trkpt lat="42.3068" lon="2.55914">
        <ele>895.605</ele>
        <time>2014-02-15T08:45:36Z</time>
      </trkpt>
      <trkpt lat="42.30676" lon="2.55911">
        <ele>896.107</ele>
        <time>2014-02-15T08:45:40Z</time>
      </trkpt>
      <trkpt lat="42.30672" lon="2.55905">
        <ele>897.568</ele>
        <time>2014-02-15T08:45:44Z</time>
      </trkpt>
      <trkpt lat="42.3067" lon="2.55897">
        <ele>898.533</ele>
        <time>2014-02-15T08:45:48Z</time>
      </trkpt>
      <trkpt lat="42.30669" lon="2.55894">
        <ele>898.076</ele>
        <time>2014-02-15T08:45:49Z</time>
      </trkpt>
      <trkpt lat="42.30666" lon="2.55887">
        <ele>899.581</ele>
        <time>2014-02-15T08:45:54Z</time>
      </trkpt>
      <trkpt lat="42.30664" lon="2.55884">
        <ele>898.59</ele>
        <time>2014-02-15T08:45:57Z</time>
      </trkpt>
      <trkpt lat="42.30656" lon="2.55871">
        <ele>898.017</ele>
        <time>2014-02-15T08:46:07Z</time>
      </trkpt>
      <trkpt lat="42.30654" lon="2.55868">
        <ele>897.539</ele>
        <time>2014-02-15T08:46:09Z</time>
      </trkpt>
      <trkpt lat="42.30651" lon="2.55857">
        <ele>896.182</ele>
        <time>2014-02-15T08:46:17Z</time>
      </trkpt>
      <trkpt lat="42.30645" lon="2.55847">
        <ele>894.643</ele>
        <time>2014-02-15T08:46:27Z</time>
      </trkpt>
      <trkpt lat="42.30637" lon="2.55826">
        <ele>893.717</ele>
        <time>2014-02-15T08:46:38Z</time>
      </trkpt>
      <trkpt lat="42.30635" lon="2.55821">
        <ele>894.207</ele>
        <time>2014-02-15T08:46:42Z</time>
      </trkpt>
      <trkpt lat="42.30631" lon="2.55816">
        <ele>893.294</ele>
        <time>2014-02-15T08:46:47Z</time>
      </trkpt>
      <trkpt lat="42.30627" lon="2.55805">
        <ele>893.739</ele>
        <time>2014-02-15T08:46:53Z</time>
      </trkpt>
      <trkpt lat="42.30622" lon="2.55798">
        <ele>893.712</ele>
        <time>2014-02-15T08:47:00Z</time>
      </trkpt>
      <trkpt lat="42.30619" lon="2.55788">
        <ele>894.637</ele>
        <time>2014-02-15T08:47:04Z</time>
      </trkpt>
      <trkpt lat="42.30614" lon="2.55769">
        <ele>893.296</ele>
        <time>2014-02-15T08:47:12Z</time>
      </trkpt>
      <trkpt lat="42.30606" lon="2.55755">
        <ele>893.233</ele>
        <time>2014-02-15T08:47:21Z</time>
      </trkpt>
      <trkpt lat="42.30602" lon="2.55741">
        <ele>892.795</ele>
        <time>2014-02-15T08:47:27Z</time>
      </trkpt>
      <trkpt lat="42.30597" lon="2.55734">
        <ele>891.384</ele>
        <time>2014-02-15T08:47:32Z</time>
      </trkpt>
      <trkpt lat="42.30593" lon="2.5571">
        <ele>890.307</ele>
        <time>2014-02-15T08:47:42Z</time>
      </trkpt>
      <trkpt lat="42.30587" lon="2.55672">
        <ele>889.417</ele>
        <time>2014-02-15T08:47:55Z</time>
      </trkpt>
      <trkpt lat="42.30589" lon="2.55641">
        <ele>886.507</ele>
        <time>2014-02-15T08:48:05Z</time>
      </trkpt>
      <trkpt lat="42.30589" lon="2.55635">
        <ele>885.584</ele>
        <time>2014-02-15T08:48:07Z</time>
      </trkpt>
      <trkpt lat="42.30594" lon="2.55617">
        <ele>884.649</ele>
        <time>2014-02-15T08:48:13Z</time>
      </trkpt>
      <trkpt lat="42.30599" lon="2.55591">
        <ele>884.612</ele>
        <time>2014-02-15T08:48:23Z</time>
      </trkpt>
      <trkpt lat="42.30593" lon="2.5556">
        <ele>883.137</ele>
        <time>2014-02-15T08:48:34Z</time>
      </trkpt>
      <trkpt lat="42.3059" lon="2.55546">
        <ele>883.166</ele>
        <time>2014-02-15T08:48:39Z</time>
      </trkpt>
      <trkpt lat="42.30585" lon="2.55542">
        <ele>884.193</ele>
        <time>2014-02-15T08:48:44Z</time>
      </trkpt>
      <trkpt lat="42.30574" lon="2.55525">
        <ele>886.025</ele>
        <time>2014-02-15T08:48:57Z</time>
      </trkpt>
      <trkpt lat="42.30572" lon="2.55519">
        <ele>886.537</ele>
        <time>2014-02-15T08:49:00Z</time>
      </trkpt>
      <trkpt lat="42.30569" lon="2.55512">
        <ele>887.449</ele>
        <time>2014-02-15T08:49:04Z</time>
      </trkpt>
      <trkpt lat="42.30568" lon="2.55501">
        <ele>888.413</ele>
        <time>2014-02-15T08:49:09Z</time>
      </trkpt>
      <trkpt lat="42.30567" lon="2.55498">
        <ele>889.407</ele>
        <time>2014-02-15T08:49:11Z</time>
      </trkpt>
      <trkpt lat="42.30564" lon="2.5549">
        <ele>889.499</ele>
        <time>2014-02-15T08:49:15Z</time>
      </trkpt>
      <trkpt lat="42.30552" lon="2.55454">
        <ele>890.864</ele>
        <time>2014-02-15T08:49:32Z</time>
      </trkpt>
      <trkpt lat="42.30552" lon="2.55449">
        <ele>890.897</ele>
        <time>2014-02-15T08:49:35Z</time>
      </trkpt>
      <trkpt lat="42.3055" lon="2.55428">
        <ele>890.812</ele>
        <time>2014-02-15T08:49:45Z</time>
      </trkpt>
      <trkpt lat="42.30554" lon="2.55409">
        <ele>891.321</ele>
        <time>2014-02-15T08:49:55Z</time>
      </trkpt>
      <trkpt lat="42.3056" lon="2.55401">
        <ele>893.218</ele>
        <time>2014-02-15T08:50:02Z</time>
      </trkpt>
      <trkpt lat="42.30562" lon="2.55396">
        <ele>893.72</ele>
        <time>2014-02-15T08:50:06Z</time>
      </trkpt>
      <trkpt lat="42.30562" lon="2.55383">
        <ele>892.759</ele>
        <time>2014-02-15T08:50:19Z</time>
      </trkpt>
      <trkpt lat="42.30562" lon="2.55382">
        <ele>893.203</ele>
        <time>2014-02-15T08:50:20Z</time>
      </trkpt>
      <trkpt lat="42.3056" lon="2.55365">
        <ele>894.623</ele>
        <time>2014-02-15T08:50:30Z</time>
      </trkpt>
      <trkpt lat="42.30554" lon="2.55355">
        <ele>893.207</ele>
        <time>2014-02-15T08:50:38Z</time>
      </trkpt>
      <trkpt lat="42.30545" lon="2.55326">
        <ele>892.211</ele>
        <time>2014-02-15T08:50:51Z</time>
      </trkpt>
      <trkpt lat="42.30543" lon="2.55307">
        <ele>892.236</ele>
        <time>2014-02-15T08:50:57Z</time>
      </trkpt>
      <trkpt lat="42.3054" lon="2.55293">
        <ele>891.359</ele>
        <time>2014-02-15T08:51:02Z</time>
      </trkpt>
      <trkpt lat="42.30542" lon="2.55252">
        <ele>889.494</ele>
        <time>2014-02-15T08:51:14Z</time>
      </trkpt>
      <trkpt lat="42.30546" lon="2.55214">
        <ele>887.923</ele>
        <time>2014-02-15T08:51:26Z</time>
      </trkpt>
      <trkpt lat="42.30549" lon="2.55198">
        <ele>888.46</ele>
        <time>2014-02-15T08:51:33Z</time>
      </trkpt>
      <trkpt lat="42.30554" lon="2.55184">
        <ele>888.492</ele>
        <time>2014-02-15T08:51:39Z</time>
      </trkpt>
      <trkpt lat="42.30569" lon="2.5516">
        <ele>888.999</ele>
        <time>2014-02-15T08:51:51Z</time>
      </trkpt>
      <trkpt lat="42.30581" lon="2.55134">
        <ele>887.407</ele>
        <time>2014-02-15T08:52:05Z</time>
      </trkpt>
      <trkpt lat="42.30588" lon="2.5512">
        <ele>887.927</ele>
        <time>2014-02-15T08:52:17Z</time>
      </trkpt>
      <trkpt lat="42.30587" lon="2.55117">
        <ele>888.407</ele>
        <time>2014-02-15T08:52:20Z</time>
      </trkpt>
      <trkpt lat="42.3059" lon="2.55104">
        <ele>891.375</ele>
        <time>2014-02-15T08:52:33Z</time>
      </trkpt>
      <trkpt lat="42.30588" lon="2.55092">
        <ele>893.27</ele>
        <time>2014-02-15T08:52:44Z</time>
      </trkpt>
      <trkpt lat="42.30585" lon="2.55077">
        <ele>896.183</ele>
        <time>2014-02-15T08:52:54Z</time>
      </trkpt>
      <trkpt lat="42.30585" lon="2.5507">
        <ele>897.128</ele>
        <time>2014-02-15T08:52:59Z</time>
      </trkpt>
      <trkpt lat="42.30583" lon="2.55054">
        <ele>898.047</ele>
        <time>2014-02-15T08:53:11Z</time>
      </trkpt>
      <trkpt lat="42.30583" lon="2.55036">
        <ele>900.454</ele>
        <time>2014-02-15T08:53:24Z</time>
      </trkpt>
      <trkpt lat="42.30586" lon="2.55043">
        <ele>901.956</ele>
        <time>2014-02-15T08:53:35Z</time>
      </trkpt>
      <trkpt lat="42.30588" lon="2.55052">
        <ele>905.239</ele>
        <time>2014-02-15T08:53:48Z</time>
      </trkpt>
      <trkpt lat="42.3059" lon="2.5505">
        <ele>908.101</ele>
        <time>2014-02-15T08:54:00Z</time>
      </trkpt>
      <trkpt lat="42.30595" lon="2.55047">
        <ele>910.021</ele>
        <time>2014-02-15T08:54:12Z</time>
      </trkpt>
      <trkpt lat="42.30598" lon="2.55048">
        <ele>910.007</ele>
        <time>2014-02-15T08:54:35Z</time>
      </trkpt>
      <trkpt lat="42.30596" lon="2.55048">
        <ele>911.019</ele>
        <time>2014-02-15T08:54:39Z</time>
      </trkpt>
      <trkpt lat="42.30594" lon="2.55041">
        <ele>912.454</ele>
        <time>2014-02-15T08:54:47Z</time>
      </trkpt>
      <trkpt lat="42.30593" lon="2.55036">
        <ele>913.467</ele>
        <time>2014-02-15T08:54:50Z</time>
      </trkpt>
      <trkpt lat="42.30592" lon="2.55015">
        <ele>914.452</ele>
        <time>2014-02-15T08:55:03Z</time>
      </trkpt>
      <trkpt lat="42.30594" lon="2.54994">
        <ele>916.391</ele>
        <time>2014-02-15T08:55:17Z</time>
      </trkpt>
      <trkpt lat="42.30596" lon="2.54978">
        <ele>919.268</ele>
        <time>2014-02-15T08:55:30Z</time>
      </trkpt>
      <trkpt lat="42.30599" lon="2.54963">
        <ele>922.08</ele>
        <time>2014-02-15T08:55:45Z</time>
      </trkpt>
      <trkpt lat="42.30602" lon="2.54956">
        <ele>925.466</ele>
        <time>2014-02-15T08:55:56Z</time>
      </trkpt>
      <trkpt lat="42.30606" lon="2.54946">
        <ele>927.829</ele>
        <time>2014-02-15T08:56:10Z</time>
      </trkpt>
      <trkpt lat="42.30609" lon="2.54934">
        <ele>929.721</ele>
        <time>2014-02-15T08:56:23Z</time>
      </trkpt>
      <trkpt lat="42.3061" lon="2.54919">
        <ele>931.707</ele>
        <time>2014-02-15T08:56:35Z</time>
      </trkpt>
      <trkpt lat="42.30612" lon="2.54903">
        <ele>933.642</ele>
        <time>2014-02-15T08:56:49Z</time>
      </trkpt>
      <trkpt lat="42.30614" lon="2.54894">
        <ele>935.547</ele>
        <time>2014-02-15T08:57:01Z</time>
      </trkpt>
      <trkpt lat="42.30622" lon="2.54884">
        <ele>938.93</ele>
        <time>2014-02-15T08:57:14Z</time>
      </trkpt>
      <trkpt lat="42.30622" lon="2.54884">
        <ele>938.975</ele>
        <time>2014-02-15T08:57:15Z</time>
      </trkpt>
      <trkpt lat="42.30625" lon="2.54875">
        <ele>941.884</ele>
        <time>2014-02-15T08:57:28Z</time>
      </trkpt>
      <trkpt lat="42.30629" lon="2.5487">
        <ele>944.651</ele>
        <time>2014-02-15T08:57:40Z</time>
      </trkpt>
      <trkpt lat="42.30631" lon="2.54866">
        <ele>945.653</ele>
        <time>2014-02-15T08:57:47Z</time>
      </trkpt>
      <trkpt lat="42.30632" lon="2.54855">
        <ele>946.179</ele>
        <time>2014-02-15T08:58:01Z</time>
      </trkpt>
      <trkpt lat="42.30635" lon="2.54851">
        <ele>949.005</ele>
        <time>2014-02-15T08:58:07Z</time>
      </trkpt>
      <trkpt lat="42.30638" lon="2.54834">
        <ele>950.925</ele>
        <time>2014-02-15T08:58:22Z</time>
      </trkpt>
      <trkpt lat="42.30637" lon="2.54825">
        <ele>951.807</ele>
        <time>2014-02-15T08:58:29Z</time>
      </trkpt>
      <trkpt lat="42.30637" lon="2.54821">
        <ele>951.833</ele>
        <time>2014-02-15T08:58:32Z</time>
      </trkpt>
      <trkpt lat="42.30637" lon="2.54816">
        <ele>952.388</ele>
        <time>2014-02-15T08:58:35Z</time>
      </trkpt>
      <trkpt lat="42.30633" lon="2.54804">
        <ele>953.341</ele>
        <time>2014-02-15T08:58:43Z</time>
      </trkpt>
      <trkpt lat="42.3063" lon="2.54789">
        <ele>951.836</ele>
        <time>2014-02-15T08:58:53Z</time>
      </trkpt>
      <trkpt lat="42.30631" lon="2.54782">
        <ele>952.315</ele>
        <time>2014-02-15T08:58:58Z</time>
      </trkpt>
      <trkpt lat="42.30638" lon="2.54772">
        <ele>953.362</ele>
        <time>2014-02-15T08:59:06Z</time>
      </trkpt>
      <trkpt lat="42.30643" lon="2.54742">
        <ele>953.864</ele>
        <time>2014-02-15T08:59:22Z</time>
      </trkpt>
      <trkpt lat="42.30645" lon="2.54737">
        <ele>953.378</ele>
        <time>2014-02-15T08:59:25Z</time>
      </trkpt>
      <trkpt lat="42.30642" lon="2.54714">
        <ele>950.933</ele>
        <time>2014-02-15T08:59:41Z</time>
      </trkpt>
      <trkpt lat="42.30644" lon="2.54702">
        <ele>949.026</ele>
        <time>2014-02-15T08:59:54Z</time>
      </trkpt>
      <trkpt lat="42.30642" lon="2.54694">
        <ele>948.007</ele>
        <time>2014-02-15T09:00:12Z</time>
      </trkpt>
      <trkpt lat="42.30639" lon="2.54679">
        <ele>944.643</ele>
        <time>2014-02-15T09:00:25Z</time>
      </trkpt>
      <trkpt lat="42.30638" lon="2.54666">
        <ele>941.318</ele>
        <time>2014-02-15T09:00:36Z</time>
      </trkpt>
      <trkpt lat="42.30645" lon="2.54652">
        <ele>937.441</ele>
        <time>2014-02-15T09:00:49Z</time>
      </trkpt>
      <trkpt lat="42.30648" lon="2.54641">
        <ele>933.636</ele>
        <time>2014-02-15T09:01:01Z</time>
      </trkpt>
      <trkpt lat="42.30648" lon="2.54641">
        <ele>933.695</ele>
        <time>2014-02-15T09:01:02Z</time>
      </trkpt>
      <trkpt lat="42.30652" lon="2.54633">
        <ele>930.272</ele>
        <time>2014-02-15T09:01:12Z</time>
      </trkpt>
      <trkpt lat="42.30657" lon="2.54623">
        <ele>926.994</ele>
        <time>2014-02-15T09:01:23Z</time>
      </trkpt>
      <trkpt lat="42.30657" lon="2.54622">
        <ele>926.977</ele>
        <time>2014-02-15T09:01:24Z</time>
      </trkpt>
      <trkpt lat="42.30659" lon="2.54619">
        <ele>925.461</ele>
        <time>2014-02-15T09:01:27Z</time>
      </trkpt>
      <trkpt lat="42.30667" lon="2.54611">
        <ele>922.027</ele>
        <time>2014-02-15T09:01:35Z</time>
      </trkpt>
      <trkpt lat="42.30673" lon="2.54608">
        <ele>920.107</ele>
        <time>2014-02-15T09:01:41Z</time>
      </trkpt>
      <trkpt lat="42.30676" lon="2.54603">
        <ele>917.263</ele>
        <time>2014-02-15T09:01:48Z</time>
      </trkpt>
      <trkpt lat="42.30687" lon="2.54601">
        <ele>914.488</ele>
        <time>2014-02-15T09:02:00Z</time>
      </trkpt>
      <trkpt lat="42.30692" lon="2.54601">
        <ele>912.971</ele>
        <time>2014-02-15T09:02:04Z</time>
      </trkpt>
      <trkpt lat="42.30703" lon="2.54601">
        <ele>909.526</ele>
        <time>2014-02-15T09:02:16Z</time>
      </trkpt>
      <trkpt lat="42.30705" lon="2.54594">
        <ele>906.265</ele>
        <time>2014-02-15T09:02:27Z</time>
      </trkpt>
      <trkpt lat="42.30712" lon="2.54582">
        <ele>902.842</ele>
        <time>2014-02-15T09:02:40Z</time>
      </trkpt>
      <trkpt lat="42.30717" lon="2.54581">
        <ele>901.934</ele>
        <time>2014-02-15T09:02:45Z</time>
      </trkpt>
      <trkpt lat="42.30723" lon="2.54583">
        <ele>899.593</ele>
        <time>2014-02-15T09:02:54Z</time>
      </trkpt>
      <trkpt lat="42.30734" lon="2.54588">
        <ele>896.165</ele>
        <time>2014-02-15T09:03:07Z</time>
      </trkpt>
      <trkpt lat="42.30745" lon="2.54595">
        <ele>893.221</ele>
        <time>2014-02-15T09:03:20Z</time>
      </trkpt>
      <trkpt lat="42.30753" lon="2.54602">
        <ele>890.807</ele>
        <time>2014-02-15T09:03:31Z</time>
      </trkpt>
      <trkpt lat="42.30755" lon="2.54604">
        <ele>890.335</ele>
        <time>2014-02-15T09:03:33Z</time>
      </trkpt>
      <trkpt lat="42.3076" lon="2.54607">
        <ele>890.31</ele>
        <time>2014-02-15T09:03:37Z</time>
      </trkpt>
      <trkpt lat="42.30769" lon="2.54612">
        <ele>889.443</ele>
        <time>2014-02-15T09:03:53Z</time>
      </trkpt>
      <trkpt lat="42.30771" lon="2.54614">
        <ele>889.458</ele>
        <time>2014-02-15T09:04:12Z</time>
      </trkpt>
      <trkpt lat="42.30771" lon="2.54612">
        <ele>887.487</ele>
        <time>2014-02-15T09:04:30Z</time>
      </trkpt>
      <trkpt lat="42.3077" lon="2.54615">
        <ele>888.914</ele>
        <time>2014-02-15T09:04:49Z</time>
      </trkpt>
      <trkpt lat="42.30771" lon="2.54613">
        <ele>888.976</ele>
        <time>2014-02-15T09:04:56Z</time>
      </trkpt>
      <trkpt lat="42.3077" lon="2.54605">
        <ele>887.013</ele>
        <time>2014-02-15T09:05:01Z</time>
      </trkpt>
      <trkpt lat="42.30766" lon="2.54588">
        <ele>883.143</ele>
        <time>2014-02-15T09:05:12Z</time>
      </trkpt>
      <trkpt lat="42.30766" lon="2.54577">
        <ele>879.707</ele>
        <time>2014-02-15T09:05:18Z</time>
      </trkpt>
      <trkpt lat="42.30766" lon="2.54566">
        <ele>877.807</ele>
        <time>2014-02-15T09:05:24Z</time>
      </trkpt>
      <trkpt lat="42.30768" lon="2.54556">
        <ele>875.427</ele>
        <time>2014-02-15T09:05:30Z</time>
      </trkpt>
      <trkpt lat="42.3077" lon="2.54554">
        <ele>874.952</ele>
        <time>2014-02-15T09:05:32Z</time>
      </trkpt>
      <trkpt lat="42.30781" lon="2.54559">
        <ele>871.695</ele>
        <time>2014-02-15T09:05:44Z</time>
      </trkpt>
      <trkpt lat="42.30782" lon="2.5456">
        <ele>871.66</ele>
        <time>2014-02-15T09:05:46Z</time>
      </trkpt>
      <trkpt lat="42.30785" lon="2.54563">
        <ele>870.159</ele>
        <time>2014-02-15T09:05:49Z</time>
      </trkpt>
      <trkpt lat="42.30793" lon="2.54569">
        <ele>870.626</ele>
        <time>2014-02-15T09:05:57Z</time>
      </trkpt>
      <trkpt lat="42.30804" lon="2.54568">
        <ele>867.368</ele>
        <time>2014-02-15T09:06:11Z</time>
      </trkpt>
      <trkpt lat="42.3081" lon="2.54562">
        <ele>863.461</ele>
        <time>2014-02-15T09:06:21Z</time>
      </trkpt>
      <trkpt lat="42.3081" lon="2.54562">
        <ele>863.921</ele>
        <time>2014-02-15T09:06:22Z</time>
      </trkpt>
      <trkpt lat="42.30816" lon="2.54554">
        <ele>860.513</ele>
        <time>2014-02-15T09:06:31Z</time>
      </trkpt>
      <trkpt lat="42.30816" lon="2.54553">
        <ele>860.007</ele>
        <time>2014-02-15T09:06:32Z</time>
      </trkpt>
      <trkpt lat="42.30817" lon="2.54549">
        <ele>858.612</ele>
        <time>2014-02-15T09:06:45Z</time>
      </trkpt>
      <trkpt lat="42.30818" lon="2.54547">
        <ele>857.667</ele>
        <time>2014-02-15T09:06:47Z</time>
      </trkpt>
      <trkpt lat="42.30819" lon="2.54542">
        <ele>854.82</ele>
        <time>2014-02-15T09:06:55Z</time>
      </trkpt>
      <trkpt lat="42.3082" lon="2.5454">
        <ele>853.345</ele>
        <time>2014-02-15T09:06:59Z</time>
      </trkpt>
      <trkpt lat="42.30822" lon="2.54534">
        <ele>850.964</ele>
        <time>2014-02-15T09:07:09Z</time>
      </trkpt>
      <trkpt lat="42.30827" lon="2.54528">
        <ele>847.571</ele>
        <time>2014-02-15T09:07:19Z</time>
      </trkpt>
      <trkpt lat="42.30836" lon="2.54522">
        <ele>844.713</ele>
        <time>2014-02-15T09:07:31Z</time>
      </trkpt>
      <trkpt lat="42.30839" lon="2.5452">
        <ele>843.242</ele>
        <time>2014-02-15T09:07:35Z</time>
      </trkpt>
      <trkpt lat="42.30839" lon="2.5451">
        <ele>839.922</ele>
        <time>2014-02-15T09:07:48Z</time>
      </trkpt>
      <trkpt lat="42.30835" lon="2.54507">
        <ele>838.414</ele>
        <time>2014-02-15T09:07:59Z</time>
      </trkpt>
      <trkpt lat="42.30831" lon="2.54499">
        <ele>835.507</ele>
        <time>2014-02-15T09:08:09Z</time>
      </trkpt>
      <trkpt lat="42.30834" lon="2.54495">
        <ele>833.63</ele>
        <time>2014-02-15T09:08:16Z</time>
      </trkpt>
      <trkpt lat="42.30846" lon="2.54488">
        <ele>830.215</ele>
        <time>2014-02-15T09:08:31Z</time>
      </trkpt>
      <trkpt lat="42.30849" lon="2.54484">
        <ele>827.448</ele>
        <time>2014-02-15T09:08:43Z</time>
      </trkpt>
      <trkpt lat="42.3085" lon="2.54477">
        <ele>825.053</ele>
        <time>2014-02-15T09:08:54Z</time>
      </trkpt>
      <trkpt lat="42.30859" lon="2.54471">
        <ele>821.632</ele>
        <time>2014-02-15T09:09:06Z</time>
      </trkpt>
      <trkpt lat="42.3087" lon="2.54469">
        <ele>818.769</ele>
        <time>2014-02-15T09:09:17Z</time>
      </trkpt>
      <trkpt lat="42.30881" lon="2.54467">
        <ele>816.361</ele>
        <time>2014-02-15T09:09:30Z</time>
      </trkpt>
      <trkpt lat="42.30883" lon="2.54466">
        <ele>814.428</ele>
        <time>2014-02-15T09:09:35Z</time>
      </trkpt>
      <trkpt lat="42.30884" lon="2.54465">
        <ele>812.989</ele>
        <time>2014-02-15T09:09:41Z</time>
      </trkpt>
      <trkpt lat="42.30884" lon="2.54463">
        <ele>812.017</ele>
        <time>2014-02-15T09:09:43Z</time>
      </trkpt>
      <trkpt lat="42.30881" lon="2.54453">
        <ele>808.607</ele>
        <time>2014-02-15T09:09:54Z</time>
      </trkpt>
      <trkpt lat="42.30872" lon="2.5444">
        <ele>805.218</ele>
        <time>2014-02-15T09:10:09Z</time>
      </trkpt>
      <trkpt lat="42.30873" lon="2.54436">
        <ele>803.813</ele>
        <time>2014-02-15T09:10:14Z</time>
      </trkpt>
      <trkpt lat="42.3087" lon="2.54426">
        <ele>801.436</ele>
        <time>2014-02-15T09:10:26Z</time>
      </trkpt>
      <trkpt lat="42.30864" lon="2.5442">
        <ele>799.571</ele>
        <time>2014-02-15T09:10:35Z</time>
      </trkpt>
      <trkpt lat="42.30865" lon="2.54413">
        <ele>796.14</ele>
        <time>2014-02-15T09:10:47Z</time>
      </trkpt>
      <trkpt lat="42.30875" lon="2.54409">
        <ele>793.217</ele>
        <time>2014-02-15T09:11:01Z</time>
      </trkpt>
      <trkpt lat="42.30883" lon="2.54404">
        <ele>790.359</ele>
        <time>2014-02-15T09:11:12Z</time>
      </trkpt>
      <trkpt lat="42.30892" lon="2.54404">
        <ele>788.953</ele>
        <time>2014-02-15T09:11:26Z</time>
      </trkpt>
      <trkpt lat="42.30901" lon="2.54406">
        <ele>786.004</ele>
        <time>2014-02-15T09:11:41Z</time>
      </trkpt>
      <trkpt lat="42.3091" lon="2.54407">
        <ele>784.114</ele>
        <time>2014-02-15T09:11:53Z</time>
      </trkpt>
      <trkpt lat="42.30916" lon="2.54408">
        <ele>782.207</ele>
        <time>2014-02-15T09:12:00Z</time>
      </trkpt>
      <trkpt lat="42.30917" lon="2.54407">
        <ele>780.721</ele>
        <time>2014-02-15T09:12:05Z</time>
      </trkpt>
      <trkpt lat="42.30921" lon="2.544">
        <ele>777.416</ele>
        <time>2014-02-15T09:12:15Z</time>
      </trkpt>
      <trkpt lat="42.30925" lon="2.54393">
        <ele>774.539</ele>
        <time>2014-02-15T09:12:28Z</time>
      </trkpt>
      <trkpt lat="42.3092" lon="2.54388">
        <ele>771.114</ele>
        <time>2014-02-15T09:12:39Z</time>
      </trkpt>
      <trkpt lat="42.30922" lon="2.5438">
        <ele>768.723</ele>
        <time>2014-02-15T09:12:53Z</time>
      </trkpt>
      <trkpt lat="42.3093" lon="2.54375">
        <ele>766.36</ele>
        <time>2014-02-15T09:13:05Z</time>
      </trkpt>
      <trkpt lat="42.30941" lon="2.54371">
        <ele>764.472</ele>
        <time>2014-02-15T09:13:15Z</time>
      </trkpt>
      <trkpt lat="42.3095" lon="2.5437">
        <ele>761.016</ele>
        <time>2014-02-15T09:13:26Z</time>
      </trkpt>
      <trkpt lat="42.30963" lon="2.54364">
        <ele>758.676</ele>
        <time>2014-02-15T09:13:41Z</time>
      </trkpt>
      <trkpt lat="42.30971" lon="2.54361">
        <ele>755.313</ele>
        <time>2014-02-15T09:13:51Z</time>
      </trkpt>
      <trkpt lat="42.30971" lon="2.54354">
        <ele>752.407</ele>
        <time>2014-02-15T09:14:04Z</time>
      </trkpt>
      <trkpt lat="42.30976" lon="2.54347">
        <ele>749.057</ele>
        <time>2014-02-15T09:14:15Z</time>
      </trkpt>
      <trkpt lat="42.30985" lon="2.54343">
        <ele>746.132</ele>
        <time>2014-02-15T09:14:29Z</time>
      </trkpt>
      <trkpt lat="42.30985" lon="2.54336">
        <ele>744.255</ele>
        <time>2014-02-15T09:14:42Z</time>
      </trkpt>
      <trkpt lat="42.30986" lon="2.54328">
        <ele>740.89</ele>
        <time>2014-02-15T09:14:53Z</time>
      </trkpt>
      <trkpt lat="42.30991" lon="2.54326">
        <ele>738.989</ele>
        <time>2014-02-15T09:15:07Z</time>
      </trkpt>
      <trkpt lat="42.30998" lon="2.54328">
        <ele>738.056</ele>
        <time>2014-02-15T09:15:20Z</time>
      </trkpt>
      <trkpt lat="42.31007" lon="2.54331">
        <ele>736.058</ele>
        <time>2014-02-15T09:15:33Z</time>
      </trkpt>
      <trkpt lat="42.31018" lon="2.54339">
        <ele>736.587</ele>
        <time>2014-02-15T09:15:46Z</time>
      </trkpt>
      <trkpt lat="42.31029" lon="2.54343">
        <ele>733.142</ele>
        <time>2014-02-15T09:15:59Z</time>
      </trkpt>
      <trkpt lat="42.31038" lon="2.54346">
        <ele>730.326</ele>
        <time>2014-02-15T09:16:12Z</time>
      </trkpt>
      <trkpt lat="42.31046" lon="2.54349">
        <ele>729.807</ele>
        <time>2014-02-15T09:16:27Z</time>
      </trkpt>
      <trkpt lat="42.31049" lon="2.54355">
        <ele>729.384</ele>
        <time>2014-02-15T09:16:45Z</time>
      </trkpt>
      <trkpt lat="42.31048" lon="2.54358">
        <ele>729.389</ele>
        <time>2014-02-15T09:17:16Z</time>
      </trkpt>
      <trkpt lat="42.31055" lon="2.54362">
        <ele>728.882</ele>
        <time>2014-02-15T09:17:28Z</time>
      </trkpt>
      <trkpt lat="42.31059" lon="2.54361">
        <ele>727.997</ele>
        <time>2014-02-15T09:17:40Z</time>
      </trkpt>
      <trkpt lat="42.31064" lon="2.54364">
        <ele>727.946</ele>
        <time>2014-02-15T09:17:58Z</time>
      </trkpt>
      <trkpt lat="42.31063" lon="2.54361">
        <ele>728.383</ele>
        <time>2014-02-15T09:18:17Z</time>
      </trkpt>
      <trkpt lat="42.31063" lon="2.54359">
        <ele>727.465</ele>
        <time>2014-02-15T09:18:21Z</time>
      </trkpt>
      <trkpt lat="42.31067" lon="2.5435">
        <ele>724.588</ele>
        <time>2014-02-15T09:18:31Z</time>
      </trkpt>
      <trkpt lat="42.31071" lon="2.54341">
        <ele>723.524</ele>
        <time>2014-02-15T09:18:37Z</time>
      </trkpt>
      <trkpt lat="42.31079" lon="2.54331">
        <ele>723.126</ele>
        <time>2014-02-15T09:18:43Z</time>
      </trkpt>
      <trkpt lat="42.31088" lon="2.54316">
        <ele>719.707</ele>
        <time>2014-02-15T09:18:54Z</time>
      </trkpt>
      <trkpt lat="42.31097" lon="2.54308">
        <ele>716.814</ele>
        <time>2014-02-15T09:19:02Z</time>
      </trkpt>
      <trkpt lat="42.31104" lon="2.54304">
        <ele>714.419</ele>
        <time>2014-02-15T09:19:09Z</time>
      </trkpt>
      <trkpt lat="42.31104" lon="2.54298">
        <ele>711.072</ele>
        <time>2014-02-15T09:19:17Z</time>
      </trkpt>
      <trkpt lat="42.31101" lon="2.54299">
        <ele>709.177</ele>
        <time>2014-02-15T09:19:24Z</time>
      </trkpt>
      <trkpt lat="42.31099" lon="2.54301">
        <ele>707.796</ele>
        <time>2014-02-15T09:19:27Z</time>
      </trkpt>
      <trkpt lat="42.31094" lon="2.54297">
        <ele>705.363</ele>
        <time>2014-02-15T09:19:33Z</time>
      </trkpt>
      <trkpt lat="42.31084" lon="2.54285">
        <ele>701.975</ele>
        <time>2014-02-15T09:19:49Z</time>
      </trkpt>
      <trkpt lat="42.31079" lon="2.54284">
        <ele>701.956</ele>
        <time>2014-02-15T09:20:01Z</time>
      </trkpt>
      <trkpt lat="42.31069" lon="2.54282">
        <ele>703.859</ele>
        <time>2014-02-15T09:20:15Z</time>
      </trkpt>
      <trkpt lat="42.31061" lon="2.54275">
        <ele>705.814</ele>
        <time>2014-02-15T09:20:29Z</time>
      </trkpt>
      <trkpt lat="42.3105" lon="2.54268">
        <ele>707.707</ele>
        <time>2014-02-15T09:20:42Z</time>
      </trkpt>
      <trkpt lat="42.31045" lon="2.54263">
        <ele>708.211</ele>
        <time>2014-02-15T09:20:45Z</time>
      </trkpt>
      <trkpt lat="42.31035" lon="2.54248">
        <ele>710.616</ele>
        <time>2014-02-15T09:20:58Z</time>
      </trkpt>
      <trkpt lat="42.31032" lon="2.54237">
        <ele>713.949</ele>
        <time>2014-02-15T09:21:09Z</time>
      </trkpt>
      <trkpt lat="42.31032" lon="2.54237">
        <ele>713.954</ele>
        <time>2014-02-15T09:21:10Z</time>
      </trkpt>
      <trkpt lat="42.31032" lon="2.54225">
        <ele>714.993</ele>
        <time>2014-02-15T09:21:23Z</time>
      </trkpt>
      <trkpt lat="42.31027" lon="2.54214">
        <ele>717.32</ele>
        <time>2014-02-15T09:21:36Z</time>
      </trkpt>
      <trkpt lat="42.31025" lon="2.54193">
        <ele>720.732</ele>
        <time>2014-02-15T09:21:51Z</time>
      </trkpt>
      <trkpt lat="42.31029" lon="2.54187">
        <ele>724.032</ele>
        <time>2014-02-15T09:22:05Z</time>
      </trkpt>
      <trkpt lat="42.31031" lon="2.54185">
        <ele>725.092</ele>
        <time>2014-02-15T09:22:21Z</time>
      </trkpt>
      <trkpt lat="42.31031" lon="2.5419">
        <ele>725.911</ele>
        <time>2014-02-15T09:22:42Z</time>
      </trkpt>
      <trkpt lat="42.31033" lon="2.54185">
        <ele>725.907</ele>
        <time>2014-02-15T09:23:00Z</time>
      </trkpt>
      <trkpt lat="42.31036" lon="2.5418">
        <ele>726.989</ele>
        <time>2014-02-15T09:23:26Z</time>
      </trkpt>
      <trkpt lat="42.3104" lon="2.54184">
        <ele>725.574</ele>
        <time>2014-02-15T09:23:39Z</time>
      </trkpt>
      <trkpt lat="42.31045" lon="2.54197">
        <ele>725.017</ele>
        <time>2014-02-15T09:23:53Z</time>
      </trkpt>
      <trkpt lat="42.31052" lon="2.54213">
        <ele>725.582</ele>
        <time>2014-02-15T09:24:07Z</time>
      </trkpt>
      <trkpt lat="42.31052" lon="2.54215">
        <ele>725.031</ele>
        <time>2014-02-15T09:24:09Z</time>
      </trkpt>
      <trkpt lat="42.31057" lon="2.5423">
        <ele>722.128</ele>
        <time>2014-02-15T09:24:20Z</time>
      </trkpt>
      <trkpt lat="42.31066" lon="2.54242">
        <ele>721.19</ele>
        <time>2014-02-15T09:24:31Z</time>
      </trkpt>
      <trkpt lat="42.31072" lon="2.54247">
        <ele>720.249</ele>
        <time>2014-02-15T09:24:37Z</time>
      </trkpt>
      <trkpt lat="42.31072" lon="2.5425">
        <ele>719.702</ele>
        <time>2014-02-15T09:24:39Z</time>
      </trkpt>
      <trkpt lat="42.31076" lon="2.54253">
        <ele>719.222</ele>
        <time>2014-02-15T09:24:44Z</time>
      </trkpt>
      <trkpt lat="42.31082" lon="2.54252">
        <ele>720.207</ele>
        <time>2014-02-15T09:24:49Z</time>
      </trkpt>
      <trkpt lat="42.31094" lon="2.54258">
        <ele>720.79</ele>
        <time>2014-02-15T09:25:02Z</time>
      </trkpt>
      <trkpt lat="42.31107" lon="2.54264">
        <ele>719.755</ele>
        <time>2014-02-15T09:25:14Z</time>
      </trkpt>
      <trkpt lat="42.31118" lon="2.54272">
        <ele>718.258</ele>
        <time>2014-02-15T09:25:27Z</time>
      </trkpt>
      <trkpt lat="42.31134" lon="2.54277">
        <ele>721.633</ele>
        <time>2014-02-15T09:25:43Z</time>
      </trkpt>
      <trkpt lat="42.31145" lon="2.54284">
        <ele>724.562</ele>
        <time>2014-02-15T09:25:56Z</time>
      </trkpt>
      <trkpt lat="42.31155" lon="2.54292">
        <ele>727.449</ele>
        <time>2014-02-15T09:26:12Z</time>
      </trkpt>
      <trkpt lat="42.31162" lon="2.54294">
        <ele>728.341</ele>
        <time>2014-02-15T09:26:25Z</time>
      </trkpt>
      <trkpt lat="42.31166" lon="2.54295">
        <ele>730.793</ele>
        <time>2014-02-15T09:26:34Z</time>
      </trkpt>
      <trkpt lat="42.31168" lon="2.54295">
        <ele>732.265</ele>
        <time>2014-02-15T09:26:38Z</time>
      </trkpt>
      <trkpt lat="42.31176" lon="2.54297">
        <ele>734.621</ele>
        <time>2014-02-15T09:26:51Z</time>
      </trkpt>
      <trkpt lat="42.31181" lon="2.54302">
        <ele>736.507</ele>
        <time>2014-02-15T09:27:03Z</time>
      </trkpt>
      <trkpt lat="42.31188" lon="2.54306">
        <ele>738.965</ele>
        <time>2014-02-15T09:27:16Z</time>
      </trkpt>
      <trkpt lat="42.3119" lon="2.54307">
        <ele>740.47</ele>
        <time>2014-02-15T09:27:21Z</time>
      </trkpt>
      <trkpt lat="42.31198" lon="2.54314">
        <ele>743.273</ele>
        <time>2014-02-15T09:27:35Z</time>
      </trkpt>
      <trkpt lat="42.31207" lon="2.54321">
        <ele>744.738</ele>
        <time>2014-02-15T09:27:48Z</time>
      </trkpt>
      <trkpt lat="42.31214" lon="2.5433">
        <ele>746.647</ele>
        <time>2014-02-15T09:28:00Z</time>
      </trkpt>
      <trkpt lat="42.31218" lon="2.54341">
        <ele>746.644</ele>
        <time>2014-02-15T09:28:10Z</time>
      </trkpt>
      <trkpt lat="42.31225" lon="2.54354">
        <ele>747.156</ele>
        <time>2014-02-15T09:28:21Z</time>
      </trkpt>
      <trkpt lat="42.3123" lon="2.54371">
        <ele>748.094</ele>
        <time>2014-02-15T09:28:34Z</time>
      </trkpt>
      <trkpt lat="42.31237" lon="2.54379">
        <ele>750.557</ele>
        <time>2014-02-15T09:28:45Z</time>
      </trkpt>
      <trkpt lat="42.31245" lon="2.54387">
        <ele>753.822</ele>
        <time>2014-02-15T09:28:59Z</time>
      </trkpt>
      <trkpt lat="42.31252" lon="2.54393">
        <ele>755.707</ele>
        <time>2014-02-15T09:29:11Z</time>
      </trkpt>
      <trkpt lat="42.31259" lon="2.54396">
        <ele>759.695</ele>
        <time>2014-02-15T09:29:22Z</time>
      </trkpt>
      <trkpt lat="42.31267" lon="2.544">
        <ele>761.55</ele>
        <time>2014-02-15T09:29:36Z</time>
      </trkpt>
      <trkpt lat="42.31273" lon="2.54401">
        <ele>764.923</ele>
        <time>2014-02-15T09:29:49Z</time>
      </trkpt>
      <trkpt lat="42.31277" lon="2.54404">
        <ele>766.888</ele>
        <time>2014-02-15T09:30:00Z</time>
      </trkpt>
      <trkpt lat="42.3128" lon="2.54404">
        <ele>770.237</ele>
        <time>2014-02-15T09:30:11Z</time>
      </trkpt>
      <trkpt lat="42.31285" lon="2.54403">
        <ele>772.664</ele>
        <time>2014-02-15T09:30:23Z</time>
      </trkpt>
      <trkpt lat="42.31289" lon="2.54407">
        <ele>774.576</ele>
        <time>2014-02-15T09:30:35Z</time>
      </trkpt>
      <trkpt lat="42.31291" lon="2.5441">
        <ele>777.875</ele>
        <time>2014-02-15T09:30:48Z</time>
      </trkpt>
      <trkpt lat="42.31293" lon="2.54417">
        <ele>780.328</ele>
        <time>2014-02-15T09:31:03Z</time>
      </trkpt>
      <trkpt lat="42.31295" lon="2.54423">
        <ele>782.72</ele>
        <time>2014-02-15T09:31:20Z</time>
      </trkpt>
      <trkpt lat="42.31294" lon="2.54432">
        <ele>784.607</ele>
        <time>2014-02-15T09:31:35Z</time>
      </trkpt>
      <trkpt lat="42.31292" lon="2.54442">
        <ele>786.523</ele>
        <time>2014-02-15T09:31:51Z</time>
      </trkpt>
      <trkpt lat="42.31295" lon="2.54442">
        <ele>788.488</ele>
        <time>2014-02-15T09:32:00Z</time>
      </trkpt>
      <trkpt lat="42.31304" lon="2.5444">
        <ele>791.381</ele>
        <time>2014-02-15T09:32:14Z</time>
      </trkpt>
      <trkpt lat="42.31314" lon="2.54428">
        <ele>794.236</ele>
        <time>2014-02-15T09:32:29Z</time>
      </trkpt>
      <trkpt lat="42.31317" lon="2.54426">
        <ele>795.235</ele>
        <time>2014-02-15T09:32:33Z</time>
      </trkpt>
      <trkpt lat="42.31324" lon="2.54426">
        <ele>798.092</ele>
        <time>2014-02-15T09:32:47Z</time>
      </trkpt>
      <trkpt lat="42.31326" lon="2.54425">
        <ele>801.474</ele>
        <time>2014-02-15T09:33:01Z</time>
      </trkpt>
      <trkpt lat="42.31324" lon="2.54435">
        <ele>803.315</ele>
        <time>2014-02-15T09:33:17Z</time>
      </trkpt>
      <trkpt lat="42.31326" lon="2.54442">
        <ele>805.765</ele>
        <time>2014-02-15T09:33:37Z</time>
      </trkpt>
      <trkpt lat="42.31327" lon="2.54448">
        <ele>808.611</ele>
        <time>2014-02-15T09:33:47Z</time>
      </trkpt>
      <trkpt lat="42.31325" lon="2.54454">
        <ele>811.507</ele>
        <time>2014-02-15T09:34:00Z</time>
      </trkpt>
      <trkpt lat="42.31334" lon="2.54465">
        <ele>814.477</ele>
        <time>2014-02-15T09:34:13Z</time>
      </trkpt>
      <trkpt lat="42.31339" lon="2.54474">
        <ele>816.332</ele>
        <time>2014-02-15T09:34:28Z</time>
      </trkpt>
      <trkpt lat="42.31344" lon="2.54483">
        <ele>816.845</ele>
        <time>2014-02-15T09:34:40Z</time>
      </trkpt>
      <trkpt lat="42.31348" lon="2.5449">
        <ele>814.93</ele>
        <time>2014-02-15T09:34:57Z</time>
      </trkpt>
      <trkpt lat="42.31349" lon="2.54492">
        <ele>814.919</ele>
        <time>2014-02-15T09:35:00Z</time>
      </trkpt>
      <trkpt lat="42.31358" lon="2.545">
        <ele>816.856</ele>
        <time>2014-02-15T09:35:15Z</time>
      </trkpt>
      <trkpt lat="42.31367" lon="2.54505">
        <ele>818.798</ele>
        <time>2014-02-15T09:35:31Z</time>
      </trkpt>
      <trkpt lat="42.31365" lon="2.54504">
        <ele>818.779</ele>
        <time>2014-02-15T09:35:49Z</time>
      </trkpt>
      <trkpt lat="42.31366" lon="2.54507">
        <ele>818.705</ele>
        <time>2014-02-15T09:36:12Z</time>
      </trkpt>
      <trkpt lat="42.31368" lon="2.54507">
        <ele>818.225</ele>
        <time>2014-02-15T09:36:28Z</time>
      </trkpt>
      <trkpt lat="42.31366" lon="2.54513">
        <ele>818.707</ele>
        <time>2014-02-15T09:36:42Z</time>
      </trkpt>
      <trkpt lat="42.31366" lon="2.54524">
        <ele>818.723</ele>
        <time>2014-02-15T09:36:54Z</time>
      </trkpt>
      <trkpt lat="42.31364" lon="2.54529">
        <ele>818.248</ele>
        <time>2014-02-15T09:37:00Z</time>
      </trkpt>
      <trkpt lat="42.31359" lon="2.54549">
        <ele>818.711</ele>
        <time>2014-02-15T09:37:15Z</time>
      </trkpt>
      <trkpt lat="42.31356" lon="2.54564">
        <ele>819.736</ele>
        <time>2014-02-15T09:37:28Z</time>
      </trkpt>
      <trkpt lat="42.3135" lon="2.54569">
        <ele>819.245</ele>
        <time>2014-02-15T09:37:48Z</time>
      </trkpt>
      <trkpt lat="42.31341" lon="2.54571">
        <ele>818.782</ele>
        <time>2014-02-15T09:38:12Z</time>
      </trkpt>
      <trkpt lat="42.31343" lon="2.54577">
        <ele>819.234</ele>
        <time>2014-02-15T09:38:37Z</time>
      </trkpt>
      <trkpt lat="42.31344" lon="2.54584">
        <ele>819.264</ele>
        <time>2014-02-15T09:38:53Z</time>
      </trkpt>
      <trkpt lat="42.31343" lon="2.54584">
        <ele>818.706</ele>
        <time>2014-02-15T09:39:08Z</time>
      </trkpt>
      <trkpt lat="42.31346" lon="2.54589">
        <ele>819.216</ele>
        <time>2014-02-15T09:39:12Z</time>
      </trkpt>
      <trkpt lat="42.31352" lon="2.54601">
        <ele>823.007</ele>
        <time>2014-02-15T09:39:24Z</time>
      </trkpt>
      <trkpt lat="42.31358" lon="2.54604">
        <ele>825.432</ele>
        <time>2014-02-15T09:39:36Z</time>
      </trkpt>
      <trkpt lat="42.31369" lon="2.5461">
        <ele>825.477</ele>
        <time>2014-02-15T09:39:57Z</time>
      </trkpt>
      <trkpt lat="42.31366" lon="2.5461">
        <ele>825.99</ele>
        <time>2014-02-15T09:40:04Z</time>
      </trkpt>
      <trkpt lat="42.31365" lon="2.54612">
        <ele>825.925</ele>
        <time>2014-02-15T09:40:06Z</time>
      </trkpt>
      <trkpt lat="42.31366" lon="2.54617">
        <ele>827.484</ele>
        <time>2014-02-15T09:40:11Z</time>
      </trkpt>
      <trkpt lat="42.31363" lon="2.54624">
        <ele>827.411</ele>
        <time>2014-02-15T09:40:23Z</time>
      </trkpt>
      <trkpt lat="42.31361" lon="2.54628">
        <ele>830.763</ele>
        <time>2014-02-15T09:40:34Z</time>
      </trkpt>
      <trkpt lat="42.31355" lon="2.54621">
        <ele>833.174</ele>
        <time>2014-02-15T09:40:46Z</time>
      </trkpt>
      <trkpt lat="42.3134" lon="2.54612">
        <ele>836.556</ele>
        <time>2014-02-15T09:40:59Z</time>
      </trkpt>
      <trkpt lat="42.31333" lon="2.5462">
        <ele>839.421</ele>
        <time>2014-02-15T09:41:08Z</time>
      </trkpt>
      <trkpt lat="42.31333" lon="2.54634">
        <ele>840.307</ele>
        <time>2014-02-15T09:41:22Z</time>
      </trkpt>
      <trkpt lat="42.31335" lon="2.54644">
        <ele>841.333</ele>
        <time>2014-02-15T09:41:33Z</time>
      </trkpt>
      <trkpt lat="42.3134" lon="2.54652">
        <ele>843.278</ele>
        <time>2014-02-15T09:41:45Z</time>
      </trkpt>
      <trkpt lat="42.3134" lon="2.54653">
        <ele>844.281</ele>
        <time>2014-02-15T09:41:46Z</time>
      </trkpt>
      <trkpt lat="42.31348" lon="2.54657">
        <ele>845.656</ele>
        <time>2014-02-15T09:41:57Z</time>
      </trkpt>
      <trkpt lat="42.31354" lon="2.54664">
        <ele>847.185</ele>
        <time>2014-02-15T09:42:08Z</time>
      </trkpt>
      <trkpt lat="42.3136" lon="2.54675">
        <ele>846.622</ele>
        <time>2014-02-15T09:42:21Z</time>
      </trkpt>
      <trkpt lat="42.31368" lon="2.5469">
        <ele>847.194</ele>
        <time>2014-02-15T09:42:35Z</time>
      </trkpt>
      <trkpt lat="42.31375" lon="2.54702">
        <ele>846.195</ele>
        <time>2014-02-15T09:42:48Z</time>
      </trkpt>
      <trkpt lat="42.31378" lon="2.54709">
        <ele>839.449</ele>
        <time>2014-02-15T09:42:54Z</time>
      </trkpt>
      <trkpt lat="42.31378" lon="2.54709">
        <ele>846.123</ele>
        <time>2014-02-15T09:42:55Z</time>
      </trkpt>
      <trkpt lat="42.31379" lon="2.54713">
        <ele>844.207</ele>
        <time>2014-02-15T09:42:58Z</time>
      </trkpt>
      <trkpt lat="42.3138" lon="2.54721">
        <ele>845.615</ele>
        <time>2014-02-15T09:43:10Z</time>
      </trkpt>
      <trkpt lat="42.3138" lon="2.54725">
        <ele>849.51</ele>
        <time>2014-02-15T09:43:22Z</time>
      </trkpt>
      <trkpt lat="42.3138" lon="2.54726">
        <ele>851.463</ele>
        <time>2014-02-15T09:43:35Z</time>
      </trkpt>
      <trkpt lat="42.3138" lon="2.54728">
        <ele>854.338</ele>
        <time>2014-02-15T09:43:45Z</time>
      </trkpt>
      <trkpt lat="42.31377" lon="2.5473">
        <ele>857.287</ele>
        <time>2014-02-15T09:43:58Z</time>
      </trkpt>
      <trkpt lat="42.31372" lon="2.54733">
        <ele>860.574</ele>
        <time>2014-02-15T09:44:15Z</time>
      </trkpt>
      <trkpt lat="42.31367" lon="2.54734">
        <ele>862.916</ele>
        <time>2014-02-15T09:44:27Z</time>
      </trkpt>
      <trkpt lat="42.31354" lon="2.54737">
        <ele>865.837</ele>
        <time>2014-02-15T09:44:40Z</time>
      </trkpt>
      <trkpt lat="42.31349" lon="2.54741">
        <ele>869.249</ele>
        <time>2014-02-15T09:44:54Z</time>
      </trkpt>
      <trkpt lat="42.31352" lon="2.54748">
        <ele>871.113</ele>
        <time>2014-02-15T09:45:09Z</time>
      </trkpt>
      <trkpt lat="42.31357" lon="2.5475">
        <ele>871.607</ele>
        <time>2014-02-15T09:45:20Z</time>
      </trkpt>
      <trkpt lat="42.31362" lon="2.54755">
        <ele>874.049</ele>
        <time>2014-02-15T09:45:33Z</time>
      </trkpt>
      <trkpt lat="42.31365" lon="2.54757">
        <ele>877.354</ele>
        <time>2014-02-15T09:45:45Z</time>
      </trkpt>
      <trkpt lat="42.31368" lon="2.54764">
        <ele>880.257</ele>
        <time>2014-02-15T09:45:59Z</time>
      </trkpt>
      <trkpt lat="42.31374" lon="2.54773">
        <ele>883.162</ele>
        <time>2014-02-15T09:46:12Z</time>
      </trkpt>
      <trkpt lat="42.31379" lon="2.5478">
        <ele>882.661</ele>
        <time>2014-02-15T09:46:20Z</time>
      </trkpt>
      <trkpt lat="42.31383" lon="2.54786">
        <ele>884.628</ele>
        <time>2014-02-15T09:46:31Z</time>
      </trkpt>
      <trkpt lat="42.31386" lon="2.54791">
        <ele>886.08</ele>
        <time>2014-02-15T09:46:41Z</time>
      </trkpt>
      <trkpt lat="42.3139" lon="2.54797">
        <ele>887.449</ele>
        <time>2014-02-15T09:46:54Z</time>
      </trkpt>
      <trkpt lat="42.31399" lon="2.54805">
        <ele>889.402</ele>
        <time>2014-02-15T09:47:07Z</time>
      </trkpt>
      <trkpt lat="42.31405" lon="2.54805">
        <ele>889.422</ele>
        <time>2014-02-15T09:47:19Z</time>
      </trkpt>
      <trkpt lat="42.31409" lon="2.54803">
        <ele>887.907</ele>
        <time>2014-02-15T09:47:30Z</time>
      </trkpt>
      <trkpt lat="42.31414" lon="2.54808">
        <ele>891.39</ele>
        <time>2014-02-15T09:47:40Z</time>
      </trkpt>
      <trkpt lat="42.31416" lon="2.54811">
        <ele>892.215</ele>
        <time>2014-02-15T09:47:44Z</time>
      </trkpt>
      <trkpt lat="42.3142" lon="2.54813">
        <ele>891.888</ele>
        <time>2014-02-15T09:47:48Z</time>
      </trkpt>
      <trkpt lat="42.31421" lon="2.54813">
        <ele>892.213</ele>
        <time>2014-02-15T09:47:49Z</time>
      </trkpt>
      <trkpt lat="42.31422" lon="2.54814">
        <ele>891.832</ele>
        <time>2014-02-15T09:47:50Z</time>
      </trkpt>
      <trkpt lat="42.31428" lon="2.54822">
        <ele>894.689</ele>
        <time>2014-02-15T09:48:00Z</time>
      </trkpt>
      <trkpt lat="42.31436" lon="2.54832">
        <ele>897.171</ele>
        <time>2014-02-15T09:48:12Z</time>
      </trkpt>
      <trkpt lat="42.31441" lon="2.54837">
        <ele>899.099</ele>
        <time>2014-02-15T09:48:24Z</time>
      </trkpt>
      <trkpt lat="42.31446" lon="2.54846">
        <ele>900.907</ele>
        <time>2014-02-15T09:48:37Z</time>
      </trkpt>
      <trkpt lat="42.31455" lon="2.5486">
        <ele>902.827</ele>
        <time>2014-02-15T09:48:51Z</time>
      </trkpt>
      <trkpt lat="42.31455" lon="2.54869">
        <ele>904.707</ele>
        <time>2014-02-15T09:49:04Z</time>
      </trkpt>
      <trkpt lat="42.31458" lon="2.54877">
        <ele>905.225</ele>
        <time>2014-02-15T09:49:16Z</time>
      </trkpt>
      <trkpt lat="42.31466" lon="2.54886">
        <ele>904.77</ele>
        <time>2014-02-15T09:49:27Z</time>
      </trkpt>
      <trkpt lat="42.31472" lon="2.54886">
        <ele>903.843</ele>
        <time>2014-02-15T09:49:40Z</time>
      </trkpt>
      <trkpt lat="42.31472" lon="2.54887">
        <ele>904.318</ele>
        <time>2014-02-15T09:49:47Z</time>
      </trkpt>
      <trkpt lat="42.3147" lon="2.54875">
        <ele>904.717</ele>
        <time>2014-02-15T09:49:59Z</time>
      </trkpt>
      <trkpt lat="42.31464" lon="2.54862">
        <ele>908.154</ele>
        <time>2014-02-15T09:50:13Z</time>
      </trkpt>
      <trkpt lat="42.31461" lon="2.54846">
        <ele>909.566</ele>
        <time>2014-02-15T09:50:24Z</time>
      </trkpt>
      <trkpt lat="42.31456" lon="2.54828">
        <ele>910.066</ele>
        <time>2014-02-15T09:50:36Z</time>
      </trkpt>
      <trkpt lat="42.31455" lon="2.54806">
        <ele>911.029</ele>
        <time>2014-02-15T09:50:49Z</time>
      </trkpt>
      <trkpt lat="42.3145" lon="2.54789">
        <ele>912.021</ele>
        <time>2014-02-15T09:51:01Z</time>
      </trkpt>
      <trkpt lat="42.31454" lon="2.54784">
        <ele>913.407</ele>
        <time>2014-02-15T09:51:15Z</time>
      </trkpt>
      <trkpt lat="42.31457" lon="2.54788">
        <ele>913.482</ele>
        <time>2014-02-15T09:51:20Z</time>
      </trkpt>
      <trkpt lat="42.31462" lon="2.54803">
        <ele>913.937</ele>
        <time>2014-02-15T09:51:31Z</time>
      </trkpt>
      <trkpt lat="42.31467" lon="2.54817">
        <ele>913.42</ele>
        <time>2014-02-15T09:51:41Z</time>
      </trkpt>
      <trkpt lat="42.31471" lon="2.54827">
        <ele>913.945</ele>
        <time>2014-02-15T09:51:48Z</time>
      </trkpt>
      <trkpt lat="42.31478" lon="2.54842">
        <ele>914.434</ele>
        <time>2014-02-15T09:51:59Z</time>
      </trkpt>
      <trkpt lat="42.31479" lon="2.54846">
        <ele>913.971</ele>
        <time>2014-02-15T09:52:01Z</time>
      </trkpt>
      <trkpt lat="42.31489" lon="2.54865">
        <ele>913.973</ele>
        <time>2014-02-15T09:52:14Z</time>
      </trkpt>
      <trkpt lat="42.31496" lon="2.54878">
        <ele>914.855</ele>
        <time>2014-02-15T09:52:26Z</time>
      </trkpt>
      <trkpt lat="42.31506" lon="2.54892">
        <ele>918.207</ele>
        <time>2014-02-15T09:52:40Z</time>
      </trkpt>
      <trkpt lat="42.31512" lon="2.54903">
        <ele>919.217</ele>
        <time>2014-02-15T09:52:52Z</time>
      </trkpt>
      <trkpt lat="42.31515" lon="2.5491">
        <ele>919.607</ele>
        <time>2014-02-15T09:52:57Z</time>
      </trkpt>
      <trkpt lat="42.31522" lon="2.54936">
        <ele>921.151</ele>
        <time>2014-02-15T09:53:12Z</time>
      </trkpt>
      <trkpt lat="42.31529" lon="2.54954">
        <ele>922.086</ele>
        <time>2014-02-15T09:53:28Z</time>
      </trkpt>
      <trkpt lat="42.31533" lon="2.54964">
        <ele>921.689</ele>
        <time>2014-02-15T09:53:34Z</time>
      </trkpt>
      <trkpt lat="42.31541" lon="2.54982">
        <ele>922.074</ele>
        <time>2014-02-15T09:53:46Z</time>
      </trkpt>
      <trkpt lat="42.31545" lon="2.54987">
        <ele>922.553</ele>
        <time>2014-02-15T09:53:50Z</time>
      </trkpt>
      <trkpt lat="42.31551" lon="2.54997">
        <ele>922.58</ele>
        <time>2014-02-15T09:53:57Z</time>
      </trkpt>
      <trkpt lat="42.31553" lon="2.54999">
        <ele>922.092</ele>
        <time>2014-02-15T09:53:59Z</time>
      </trkpt>
      <trkpt lat="42.31556" lon="2.55009">
        <ele>921.697</ele>
        <time>2014-02-15T09:54:05Z</time>
      </trkpt>
      <trkpt lat="42.31566" lon="2.55028">
        <ele>922.023</ele>
        <time>2014-02-15T09:54:18Z</time>
      </trkpt>
      <trkpt lat="42.31569" lon="2.55042">
        <ele>923.525</ele>
        <time>2014-02-15T09:54:32Z</time>
      </trkpt>
      <trkpt lat="42.31572" lon="2.55052">
        <ele>924.007</ele>
        <time>2014-02-15T09:54:55Z</time>
      </trkpt>
      <trkpt lat="42.31577" lon="2.55061">
        <ele>925.965</ele>
        <time>2014-02-15T09:55:08Z</time>
      </trkpt>
      <trkpt lat="42.31583" lon="2.55072">
        <ele>927.37</ele>
        <time>2014-02-15T09:55:19Z</time>
      </trkpt>
      <trkpt lat="42.31589" lon="2.55091">
        <ele>929.353</ele>
        <time>2014-02-15T09:55:34Z</time>
      </trkpt>
      <trkpt lat="42.31597" lon="2.55104">
        <ele>931.238</ele>
        <time>2014-02-15T09:55:47Z</time>
      </trkpt>
      <trkpt lat="42.31604" lon="2.55122">
        <ele>932.117</ele>
        <time>2014-02-15T09:56:02Z</time>
      </trkpt>
      <trkpt lat="42.3161" lon="2.55131">
        <ele>934.114</ele>
        <time>2014-02-15T09:56:15Z</time>
      </trkpt>
      <trkpt lat="42.31617" lon="2.55137">
        <ele>934.546</ele>
        <time>2014-02-15T09:56:28Z</time>
      </trkpt>
      <trkpt lat="42.31623" lon="2.5514">
        <ele>937.938</ele>
        <time>2014-02-15T09:56:38Z</time>
      </trkpt>
      <trkpt lat="42.31631" lon="2.55147">
        <ele>939.47</ele>
        <time>2014-02-15T09:56:50Z</time>
      </trkpt>
      <trkpt lat="42.31638" lon="2.55153">
        <ele>941.317</ele>
        <time>2014-02-15T09:57:04Z</time>
      </trkpt>
      <trkpt lat="42.31646" lon="2.55159">
        <ele>944.607</ele>
        <time>2014-02-15T09:57:16Z</time>
      </trkpt>
      <trkpt lat="42.3165" lon="2.55164">
        <ele>944.649</ele>
        <time>2014-02-15T09:57:23Z</time>
      </trkpt>
      <trkpt lat="42.31653" lon="2.55175">
        <ele>945.164</ele>
        <time>2014-02-15T09:57:36Z</time>
      </trkpt>
      <trkpt lat="42.31661" lon="2.55191">
        <ele>945.677</ele>
        <time>2014-02-15T09:57:49Z</time>
      </trkpt>
      <trkpt lat="42.31664" lon="2.55205">
        <ele>943.722</ele>
        <time>2014-02-15T09:58:05Z</time>
      </trkpt>
      <trkpt lat="42.31665" lon="2.55206">
        <ele>943.711</ele>
        <time>2014-02-15T09:58:06Z</time>
      </trkpt>
      <trkpt lat="42.31669" lon="2.55213">
        <ele>944.668</ele>
        <time>2014-02-15T09:58:20Z</time>
      </trkpt>
      <trkpt lat="42.31668" lon="2.55221">
        <ele>947.53</ele>
        <time>2014-02-15T09:58:31Z</time>
      </trkpt>
      <trkpt lat="42.31669" lon="2.55235">
        <ele>950.486</ele>
        <time>2014-02-15T09:58:46Z</time>
      </trkpt>
      <trkpt lat="42.31675" lon="2.55241">
        <ele>952.36</ele>
        <time>2014-02-15T09:58:56Z</time>
      </trkpt>
      <trkpt lat="42.31677" lon="2.55249">
        <ele>954.326</ele>
        <time>2014-02-15T09:59:04Z</time>
      </trkpt>
      <trkpt lat="42.3168" lon="2.55246">
        <ele>955.707</ele>
        <time>2014-02-15T09:59:16Z</time>
      </trkpt>
      <trkpt lat="42.31685" lon="2.55245">
        <ele>958.674</ele>
        <time>2014-02-15T09:59:28Z</time>
      </trkpt>
      <trkpt lat="42.3169" lon="2.55249">
        <ele>961.039</ele>
        <time>2014-02-15T09:59:42Z</time>
      </trkpt>
      <trkpt lat="42.31693" lon="2.55246">
        <ele>962.952</ele>
        <time>2014-02-15T09:59:53Z</time>
      </trkpt>
      <trkpt lat="42.31703" lon="2.55239">
        <ele>964.857</ele>
        <time>2014-02-15T10:00:06Z</time>
      </trkpt>
      <trkpt lat="42.31712" lon="2.55234">
        <ele>966.736</ele>
        <time>2014-02-15T10:00:20Z</time>
      </trkpt>
      <trkpt lat="42.31717" lon="2.55232">
        <ele>969.273</ele>
        <time>2014-02-15T10:00:30Z</time>
      </trkpt>
      <trkpt lat="42.31721" lon="2.55232">
        <ele>971.165</ele>
        <time>2014-02-15T10:00:45Z</time>
      </trkpt>
      <trkpt lat="42.31726" lon="2.55236">
        <ele>974.041</ele>
        <time>2014-02-15T10:01:00Z</time>
      </trkpt>
      <trkpt lat="42.3173" lon="2.55237">
        <ele>975.981</ele>
        <time>2014-02-15T10:01:14Z</time>
      </trkpt>
      <trkpt lat="42.31737" lon="2.55238">
        <ele>978.809</ele>
        <time>2014-02-15T10:01:27Z</time>
      </trkpt>
      <trkpt lat="42.31738" lon="2.55243">
        <ele>978.807</ele>
        <time>2014-02-15T10:01:44Z</time>
      </trkpt>
      <trkpt lat="42.31737" lon="2.55251">
        <ele>980.74</ele>
        <time>2014-02-15T10:01:57Z</time>
      </trkpt>
      <trkpt lat="42.31734" lon="2.55263">
        <ele>983.115</ele>
        <time>2014-02-15T10:02:11Z</time>
      </trkpt>
      <trkpt lat="42.31729" lon="2.55278">
        <ele>985.098</ele>
        <time>2014-02-15T10:02:26Z</time>
      </trkpt>
      <trkpt lat="42.31726" lon="2.55291">
        <ele>986.093</ele>
        <time>2014-02-15T10:02:37Z</time>
      </trkpt>
      <trkpt lat="42.31724" lon="2.55312">
        <ele>986.542</ele>
        <time>2014-02-15T10:02:51Z</time>
      </trkpt>
      <trkpt lat="42.31729" lon="2.55325">
        <ele>989.399</ele>
        <time>2014-02-15T10:03:06Z</time>
      </trkpt>
      <trkpt lat="42.31731" lon="2.55335">
        <ele>989.851</ele>
        <time>2014-02-15T10:03:19Z</time>
      </trkpt>
      <trkpt lat="42.31733" lon="2.55345">
        <ele>992.773</ele>
        <time>2014-02-15T10:03:33Z</time>
      </trkpt>
      <trkpt lat="42.31739" lon="2.55354">
        <ele>995.685</ele>
        <time>2014-02-15T10:03:46Z</time>
      </trkpt>
      <trkpt lat="42.31738" lon="2.55364">
        <ele>997.513</ele>
        <time>2014-02-15T10:03:59Z</time>
      </trkpt>
      <trkpt lat="42.31739" lon="2.55366">
        <ele>999.007</ele>
        <time>2014-02-15T10:04:02Z</time>
      </trkpt>
      <trkpt lat="42.31742" lon="2.55372">
        <ele>1001.493</ele>
        <time>2014-02-15T10:04:16Z</time>
      </trkpt>
      <trkpt lat="42.31746" lon="2.55378">
        <ele>1005.298</ele>
        <time>2014-02-15T10:04:27Z</time>
      </trkpt>
      <trkpt lat="42.31751" lon="2.5539">
        <ele>1006.641</ele>
        <time>2014-02-15T10:04:40Z</time>
      </trkpt>
      <trkpt lat="42.31754" lon="2.55401">
        <ele>1008.656</ele>
        <time>2014-02-15T10:04:52Z</time>
      </trkpt>
      <trkpt lat="42.31756" lon="2.55403">
        <ele>1011.435</ele>
        <time>2014-02-15T10:05:05Z</time>
      </trkpt>
      <trkpt lat="42.31757" lon="2.55409">
        <ele>1013.482</ele>
        <time>2014-02-15T10:05:19Z</time>
      </trkpt>
      <trkpt lat="42.31756" lon="2.55418">
        <ele>1015.864</ele>
        <time>2014-02-15T10:05:32Z</time>
      </trkpt>
      <trkpt lat="42.31762" lon="2.55429">
        <ele>1017.245</ele>
        <time>2014-02-15T10:05:46Z</time>
      </trkpt>
      <trkpt lat="42.31762" lon="2.55437">
        <ele>1019.647</ele>
        <time>2014-02-15T10:05:59Z</time>
      </trkpt>
      <trkpt lat="42.31766" lon="2.55447">
        <ele>1022.511</ele>
        <time>2014-02-15T10:06:15Z</time>
      </trkpt>
      <trkpt lat="42.31771" lon="2.55458">
        <ele>1026.307</ele>
        <time>2014-02-15T10:06:28Z</time>
      </trkpt>
      <trkpt lat="42.31775" lon="2.55468">
        <ele>1028.35</ele>
        <time>2014-02-15T10:06:43Z</time>
      </trkpt>
      <trkpt lat="42.31778" lon="2.5547">
        <ele>1031.235</ele>
        <time>2014-02-15T10:06:57Z</time>
      </trkpt>
      <trkpt lat="42.3178" lon="2.55472">
        <ele>1032.138</ele>
        <time>2014-02-15T10:07:10Z</time>
      </trkpt>
      <trkpt lat="42.31783" lon="2.55473">
        <ele>1035.043</ele>
        <time>2014-02-15T10:07:23Z</time>
      </trkpt>
      <trkpt lat="42.31787" lon="2.55468">
        <ele>1037.952</ele>
        <time>2014-02-15T10:07:36Z</time>
      </trkpt>
      <trkpt lat="42.31792" lon="2.55462">
        <ele>1041.359</ele>
        <time>2014-02-15T10:07:49Z</time>
      </trkpt>
      <trkpt lat="42.31799" lon="2.55456">
        <ele>1042.741</ele>
        <time>2014-02-15T10:08:05Z</time>
      </trkpt>
      <trkpt lat="42.31804" lon="2.55452">
        <ele>1046.157</ele>
        <time>2014-02-15T10:08:17Z</time>
      </trkpt>
      <trkpt lat="42.31806" lon="2.5546">
        <ele>1048</ele>
        <time>2014-02-15T10:08:32Z</time>
      </trkpt>
      <trkpt lat="42.31806" lon="2.55469">
        <ele>1050.42</ele>
        <time>2014-02-15T10:08:47Z</time>
      </trkpt>
      <trkpt lat="42.31807" lon="2.5547">
        <ele>1051.307</ele>
        <time>2014-02-15T10:08:50Z</time>
      </trkpt>
      <trkpt lat="42.31811" lon="2.55476">
        <ele>1054.731</ele>
        <time>2014-02-15T10:09:02Z</time>
      </trkpt>
      <trkpt lat="42.31812" lon="2.55484">
        <ele>1058.186</ele>
        <time>2014-02-15T10:09:14Z</time>
      </trkpt>
      <trkpt lat="42.31816" lon="2.55492">
        <ele>1061.049</ele>
        <time>2014-02-15T10:09:30Z</time>
      </trkpt>
      <trkpt lat="42.31819" lon="2.55493">
        <ele>1063.824</ele>
        <time>2014-02-15T10:09:45Z</time>
      </trkpt>
      <trkpt lat="42.31822" lon="2.55486">
        <ele>1065.883</ele>
        <time>2014-02-15T10:09:59Z</time>
      </trkpt>
      <trkpt lat="42.31828" lon="2.55478">
        <ele>1067.27</ele>
        <time>2014-02-15T10:10:11Z</time>
      </trkpt>
      <trkpt lat="42.31832" lon="2.55467">
        <ele>1068.282</ele>
        <time>2014-02-15T10:10:26Z</time>
      </trkpt>
      <trkpt lat="42.3184" lon="2.55454">
        <ele>1069.694</ele>
        <time>2014-02-15T10:10:39Z</time>
      </trkpt>
      <trkpt lat="42.31844" lon="2.5544">
        <ele>1070.157</ele>
        <time>2014-02-15T10:10:53Z</time>
      </trkpt>
      <trkpt lat="42.31848" lon="2.55424">
        <ele>1071.522</ele>
        <time>2014-02-15T10:11:07Z</time>
      </trkpt>
      <trkpt lat="42.31849" lon="2.55422">
        <ele>1073.007</ele>
        <time>2014-02-15T10:11:10Z</time>
      </trkpt>
      <trkpt lat="42.3185" lon="2.55417">
        <ele>1074.435</ele>
        <time>2014-02-15T10:11:14Z</time>
      </trkpt>
      <trkpt lat="42.31856" lon="2.55405">
        <ele>1076.82</ele>
        <time>2014-02-15T10:11:27Z</time>
      </trkpt>
      <trkpt lat="42.3186" lon="2.55394">
        <ele>1080.243</ele>
        <time>2014-02-15T10:11:41Z</time>
      </trkpt>
      <trkpt lat="42.31868" lon="2.55378">
        <ele>1081.628</ele>
        <time>2014-02-15T10:11:54Z</time>
      </trkpt>
      <trkpt lat="42.31872" lon="2.55369">
        <ele>1083.517</ele>
        <time>2014-02-15T10:12:05Z</time>
      </trkpt>
      <trkpt lat="42.31878" lon="2.55357">
        <ele>1086.934</ele>
        <time>2014-02-15T10:12:18Z</time>
      </trkpt>
      <trkpt lat="42.31885" lon="2.55347">
        <ele>1089.316</ele>
        <time>2014-02-15T10:12:32Z</time>
      </trkpt>
      <trkpt lat="42.31892" lon="2.55339">
        <ele>1092.276</ele>
        <time>2014-02-15T10:12:46Z</time>
      </trkpt>
      <trkpt lat="42.31899" lon="2.5534">
        <ele>1095.19</ele>
        <time>2014-02-15T10:13:00Z</time>
      </trkpt>
      <trkpt lat="42.31904" lon="2.55338">
        <ele>1098.019</ele>
        <time>2014-02-15T10:13:12Z</time>
      </trkpt>
      <trkpt lat="42.31908" lon="2.55339">
        <ele>1098.907</ele>
        <time>2014-02-15T10:13:25Z</time>
      </trkpt>
      <trkpt lat="42.31906" lon="2.55334">
        <ele>1099.923</ele>
        <time>2014-02-15T10:13:40Z</time>
      </trkpt>
      <trkpt lat="42.31911" lon="2.55333">
        <ele>1100.938</ele>
        <time>2014-02-15T10:13:51Z</time>
      </trkpt>
      <trkpt lat="42.31913" lon="2.55324">
        <ele>1103.331</ele>
        <time>2014-02-15T10:14:05Z</time>
      </trkpt>
      <trkpt lat="42.31914" lon="2.55322">
        <ele>1103.726</ele>
        <time>2014-02-15T10:14:06Z</time>
      </trkpt>
      <trkpt lat="42.31924" lon="2.55319">
        <ele>1106.625</ele>
        <time>2014-02-15T10:14:18Z</time>
      </trkpt>
      <trkpt lat="42.31923" lon="2.55329">
        <ele>1109.032</ele>
        <time>2014-02-15T10:14:31Z</time>
      </trkpt>
      <trkpt lat="42.31922" lon="2.55333">
        <ele>1110.014</ele>
        <time>2014-02-15T10:14:36Z</time>
      </trkpt>
      <trkpt lat="42.31915" lon="2.55347">
        <ele>1111.937</ele>
        <time>2014-02-15T10:14:51Z</time>
      </trkpt>
      <trkpt lat="42.31913" lon="2.55359">
        <ele>1115.349</ele>
        <time>2014-02-15T10:15:04Z</time>
      </trkpt>
      <trkpt lat="42.31913" lon="2.55363">
        <ele>1115.313</ele>
        <time>2014-02-15T10:15:06Z</time>
      </trkpt>
      <trkpt lat="42.31908" lon="2.55371">
        <ele>1115.307</ele>
        <time>2014-02-15T10:15:15Z</time>
      </trkpt>
      <trkpt lat="42.31916" lon="2.55376">
        <ele>1118.619</ele>
        <time>2014-02-15T10:15:30Z</time>
      </trkpt>
      <trkpt lat="42.31918" lon="2.55378">
        <ele>1118.654</ele>
        <time>2014-02-15T10:15:47Z</time>
      </trkpt>
      <trkpt lat="42.3192" lon="2.55369">
        <ele>1118.647</ele>
        <time>2014-02-15T10:16:04Z</time>
      </trkpt>
      <trkpt lat="42.3192" lon="2.55368">
        <ele>1117.782</ele>
        <time>2014-02-15T10:16:05Z</time>
      </trkpt>
      <trkpt lat="42.31931" lon="2.5535">
        <ele>1118.221</ele>
        <time>2014-02-15T10:16:21Z</time>
      </trkpt>
      <trkpt lat="42.31941" lon="2.55334">
        <ele>1117.728</ele>
        <time>2014-02-15T10:16:35Z</time>
      </trkpt>
      <trkpt lat="42.31954" lon="2.55321">
        <ele>1118.66</ele>
        <time>2014-02-15T10:16:45Z</time>
      </trkpt>
      <trkpt lat="42.31964" lon="2.55305">
        <ele>1117.255</ele>
        <time>2014-02-15T10:16:59Z</time>
      </trkpt>
      <trkpt lat="42.31965" lon="2.55303">
        <ele>1116.207</ele>
        <time>2014-02-15T10:17:01Z</time>
      </trkpt>
      <trkpt lat="42.31968" lon="2.55286">
        <ele>1117.717</ele>
        <time>2014-02-15T10:17:16Z</time>
      </trkpt>
      <trkpt lat="42.31966" lon="2.5527">
        <ele>1119.107</ele>
        <time>2014-02-15T10:17:28Z</time>
      </trkpt>
      <trkpt lat="42.31961" lon="2.55251">
        <ele>1120.181</ele>
        <time>2014-02-15T10:17:41Z</time>
      </trkpt>
      <trkpt lat="42.31954" lon="2.55229">
        <ele>1121.576</ele>
        <time>2014-02-15T10:17:56Z</time>
      </trkpt>
      <trkpt lat="42.31949" lon="2.55204">
        <ele>1121.559</ele>
        <time>2014-02-15T10:18:12Z</time>
      </trkpt>
      <trkpt lat="42.31946" lon="2.55197">
        <ele>1121.064</ele>
        <time>2014-02-15T10:18:18Z</time>
      </trkpt>
      <trkpt lat="42.31941" lon="2.55187">
        <ele>1119.613</ele>
        <time>2014-02-15T10:18:25Z</time>
      </trkpt>
      <trkpt lat="42.31936" lon="2.55175">
        <ele>1120.11</ele>
        <time>2014-02-15T10:18:36Z</time>
      </trkpt>
      <trkpt lat="42.31932" lon="2.5516">
        <ele>1119.152</ele>
        <time>2014-02-15T10:18:43Z</time>
      </trkpt>
      <trkpt lat="42.31932" lon="2.55156">
        <ele>1119.644</ele>
        <time>2014-02-15T10:18:45Z</time>
      </trkpt>
      <trkpt lat="42.3193" lon="2.5515">
        <ele>1120.105</ele>
        <time>2014-02-15T10:18:49Z</time>
      </trkpt>
      <trkpt lat="42.31925" lon="2.55144">
        <ele>1119.615</ele>
        <time>2014-02-15T10:18:54Z</time>
      </trkpt>
      <trkpt lat="42.31915" lon="2.55114">
        <ele>1121.007</ele>
        <time>2014-02-15T10:19:11Z</time>
      </trkpt>
      <trkpt lat="42.31912" lon="2.55091">
        <ele>1122.54</ele>
        <time>2014-02-15T10:19:24Z</time>
      </trkpt>
      <trkpt lat="42.31911" lon="2.55071">
        <ele>1122.095</ele>
        <time>2014-02-15T10:19:37Z</time>
      </trkpt>
      <trkpt lat="42.31915" lon="2.55068">
        <ele>1122.568</ele>
        <time>2014-02-15T10:20:01Z</time>
      </trkpt>
      <trkpt lat="42.31914" lon="2.55068">
        <ele>1122.013</ele>
        <time>2014-02-15T10:20:05Z</time>
      </trkpt>
      <trkpt lat="42.31914" lon="2.55061">
        <ele>1122.072</ele>
        <time>2014-02-15T10:20:09Z</time>
      </trkpt>
      <trkpt lat="42.31921" lon="2.55028">
        <ele>1122.059</ele>
        <time>2014-02-15T10:20:22Z</time>
      </trkpt>
      <trkpt lat="42.31935" lon="2.55016">
        <ele>1123.011</ele>
        <time>2014-02-15T10:20:36Z</time>
      </trkpt>
      <trkpt lat="42.31934" lon="2.55014">
        <ele>1123.498</ele>
        <time>2014-02-15T10:20:50Z</time>
      </trkpt>
      <trkpt lat="42.31932" lon="2.55012">
        <ele>1123.015</ele>
        <time>2014-02-15T10:21:04Z</time>
      </trkpt>
      <trkpt lat="42.31934" lon="2.55013">
        <ele>1123.026</ele>
        <time>2014-02-15T10:21:21Z</time>
      </trkpt>
      <trkpt lat="42.31933" lon="2.55013">
        <ele>1123.007</ele>
        <time>2014-02-15T10:21:32Z</time>
      </trkpt>
      <trkpt lat="42.31928" lon="2.55033">
        <ele>1123.495</ele>
        <time>2014-02-15T10:21:46Z</time>
      </trkpt>
      <trkpt lat="42.31929" lon="2.5504">
        <ele>1123.98</ele>
        <time>2014-02-15T10:21:52Z</time>
      </trkpt>
      <trkpt lat="42.31937" lon="2.55057">
        <ele>1124.913</ele>
        <time>2014-02-15T10:22:04Z</time>
      </trkpt>
      <trkpt lat="42.31943" lon="2.55079">
        <ele>1127.378</ele>
        <time>2014-02-15T10:22:20Z</time>
      </trkpt>
      <trkpt lat="42.31946" lon="2.5509">
        <ele>1128.267</ele>
        <time>2014-02-15T10:22:27Z</time>
      </trkpt>
      <trkpt lat="42.31949" lon="2.55098">
        <ele>1128.764</ele>
        <time>2014-02-15T10:22:32Z</time>
      </trkpt>
      <trkpt lat="42.31958" lon="2.55115">
        <ele>1129.746</ele>
        <time>2014-02-15T10:22:46Z</time>
      </trkpt>
      <trkpt lat="42.31968" lon="2.55133">
        <ele>1132.156</ele>
        <time>2014-02-15T10:23:01Z</time>
      </trkpt>
      <trkpt lat="42.31971" lon="2.55136">
        <ele>1132.659</ele>
        <time>2014-02-15T10:23:06Z</time>
      </trkpt>
      <trkpt lat="42.31978" lon="2.55153">
        <ele>1134.514</ele>
        <time>2014-02-15T10:23:20Z</time>
      </trkpt>
      <trkpt lat="42.31981" lon="2.55164">
        <ele>1135.507</ele>
        <time>2014-02-15T10:23:29Z</time>
      </trkpt>
      <trkpt lat="42.31991" lon="2.5518">
        <ele>1138.891</ele>
        <time>2014-02-15T10:23:45Z</time>
      </trkpt>
      <trkpt lat="42.32" lon="2.55188">
        <ele>1140.766</ele>
        <time>2014-02-15T10:24:01Z</time>
      </trkpt>
      <trkpt lat="42.32007" lon="2.55196">
        <ele>1143.119</ele>
        <time>2014-02-15T10:24:14Z</time>
      </trkpt>
      <trkpt lat="42.32016" lon="2.55203">
        <ele>1146.044</ele>
        <time>2014-02-15T10:24:28Z</time>
      </trkpt>
      <trkpt lat="42.32024" lon="2.55213">
        <ele>1147.523</ele>
        <time>2014-02-15T10:24:41Z</time>
      </trkpt>
      <trkpt lat="42.32031" lon="2.55218">
        <ele>1149.93</ele>
        <time>2014-02-15T10:24:54Z</time>
      </trkpt>
      <trkpt lat="42.32031" lon="2.55218">
        <ele>1149.912</ele>
        <time>2014-02-15T10:24:55Z</time>
      </trkpt>
      <trkpt lat="42.32038" lon="2.55223">
        <ele>1151.335</ele>
        <time>2014-02-15T10:25:12Z</time>
      </trkpt>
      <trkpt lat="42.32038" lon="2.55229">
        <ele>1151.386</ele>
        <time>2014-02-15T10:25:33Z</time>
      </trkpt>
      <trkpt lat="42.32039" lon="2.55233">
        <ele>1152.314</ele>
        <time>2014-02-15T10:25:49Z</time>
      </trkpt>
      <trkpt lat="42.32043" lon="2.55239">
        <ele>1155.607</ele>
        <time>2014-02-15T10:25:58Z</time>
      </trkpt>
      <trkpt lat="42.32044" lon="2.55242">
        <ele>1156.129</ele>
        <time>2014-02-15T10:26:02Z</time>
      </trkpt>
      <trkpt lat="42.32053" lon="2.55246">
        <ele>1159.014</ele>
        <time>2014-02-15T10:26:14Z</time>
      </trkpt>
      <trkpt lat="42.32058" lon="2.55247">
        <ele>1159.547</ele>
        <time>2014-02-15T10:26:28Z</time>
      </trkpt>
      <trkpt lat="42.32061" lon="2.55248">
        <ele>1159.042</ele>
        <time>2014-02-15T10:26:52Z</time>
      </trkpt>
      <trkpt lat="42.3207" lon="2.5525">
        <ele>1161.451</ele>
        <time>2014-02-15T10:27:06Z</time>
      </trkpt>
      <trkpt lat="42.32078" lon="2.55252">
        <ele>1164.338</ele>
        <time>2014-02-15T10:27:17Z</time>
      </trkpt>
      <trkpt lat="42.32081" lon="2.55249">
        <ele>1167.22</ele>
        <time>2014-02-15T10:27:24Z</time>
      </trkpt>
      <trkpt lat="42.32089" lon="2.55248">
        <ele>1170.155</ele>
        <time>2014-02-15T10:27:35Z</time>
      </trkpt>
      <trkpt lat="42.321" lon="2.55248">
        <ele>1171.007</ele>
        <time>2014-02-15T10:27:47Z</time>
      </trkpt>
      <trkpt lat="42.32108" lon="2.55248">
        <ele>1171.517</ele>
        <time>2014-02-15T10:27:53Z</time>
      </trkpt>
      <trkpt lat="42.32115" lon="2.55243">
        <ele>1171.007</ele>
        <time>2014-02-15T10:27:58Z</time>
      </trkpt>
      <trkpt lat="42.32124" lon="2.55248">
        <ele>1171.511</ele>
        <time>2014-02-15T10:28:05Z</time>
      </trkpt>
      <trkpt lat="42.32132" lon="2.55252">
        <ele>1174.416</ele>
        <time>2014-02-15T10:28:15Z</time>
      </trkpt>
      <trkpt lat="42.3214" lon="2.55252">
        <ele>1175.439</ele>
        <time>2014-02-15T10:28:23Z</time>
      </trkpt>
      <trkpt lat="42.32153" lon="2.55252">
        <ele>1178.764</ele>
        <time>2014-02-15T10:28:39Z</time>
      </trkpt>
      <trkpt lat="42.32162" lon="2.55252">
        <ele>1182.633</ele>
        <time>2014-02-15T10:28:53Z</time>
      </trkpt>
      <trkpt lat="42.3217" lon="2.5525">
        <ele>1185.06</ele>
        <time>2014-02-15T10:29:11Z</time>
      </trkpt>
      <trkpt lat="42.32175" lon="2.55249">
        <ele>1186.982</ele>
        <time>2014-02-15T10:29:18Z</time>
      </trkpt>
      <trkpt lat="42.32183" lon="2.5525">
        <ele>1190.397</ele>
        <time>2014-02-15T10:29:32Z</time>
      </trkpt>
      <trkpt lat="42.32186" lon="2.55251">
        <ele>1192.223</ele>
        <time>2014-02-15T10:29:43Z</time>
      </trkpt>
      <trkpt lat="42.32187" lon="2.55253">
        <ele>1193.125</ele>
        <time>2014-02-15T10:29:48Z</time>
      </trkpt>
      <trkpt lat="42.32193" lon="2.55258">
        <ele>1195.507</ele>
        <time>2014-02-15T10:30:02Z</time>
      </trkpt>
      <trkpt lat="42.32197" lon="2.55263">
        <ele>1198.435</ele>
        <time>2014-02-15T10:30:09Z</time>
      </trkpt>
      <trkpt lat="42.32208" lon="2.55268">
        <ele>1200.31</ele>
        <time>2014-02-15T10:30:18Z</time>
      </trkpt>
      <trkpt lat="42.3222" lon="2.55272">
        <ele>1201.883</ele>
        <time>2014-02-15T10:30:31Z</time>
      </trkpt>
      <trkpt lat="42.32237" lon="2.55272">
        <ele>1203.258</ele>
        <time>2014-02-15T10:30:46Z</time>
      </trkpt>
      <trkpt lat="42.32248" lon="2.55272">
        <ele>1205.287</ele>
        <time>2014-02-15T10:31:00Z</time>
      </trkpt>
      <trkpt lat="42.32262" lon="2.5527">
        <ele>1207.124</ele>
        <time>2014-02-15T10:31:15Z</time>
      </trkpt>
      <trkpt lat="42.32274" lon="2.55269">
        <ele>1209.546</ele>
        <time>2014-02-15T10:31:27Z</time>
      </trkpt>
      <trkpt lat="42.3229" lon="2.55269">
        <ele>1211.958</ele>
        <time>2014-02-15T10:31:43Z</time>
      </trkpt>
      <trkpt lat="42.32296" lon="2.55269">
        <ele>1212.852</ele>
        <time>2014-02-15T10:31:50Z</time>
      </trkpt>
      <trkpt lat="42.3231" lon="2.55266">
        <ele>1215.217</ele>
        <time>2014-02-15T10:32:05Z</time>
      </trkpt>
      <trkpt lat="42.32318" lon="2.55266">
        <ele>1217.707</ele>
        <time>2014-02-15T10:32:17Z</time>
      </trkpt>
      <trkpt lat="42.32331" lon="2.55263">
        <ele>1219.171</ele>
        <time>2014-02-15T10:32:31Z</time>
      </trkpt>
      <trkpt lat="42.32334" lon="2.55265">
        <ele>1220.136</ele>
        <time>2014-02-15T10:32:45Z</time>
      </trkpt>
      <trkpt lat="42.32339" lon="2.55265">
        <ele>1222.029</ele>
        <time>2014-02-15T10:32:57Z</time>
      </trkpt>
      <trkpt lat="42.32349" lon="2.55266">
        <ele>1223.924</ele>
        <time>2014-02-15T10:33:09Z</time>
      </trkpt>
      <trkpt lat="42.32359" lon="2.55256">
        <ele>1225.833</ele>
        <time>2014-02-15T10:33:23Z</time>
      </trkpt>
      <trkpt lat="42.32367" lon="2.5525">
        <ele>1226.81</ele>
        <time>2014-02-15T10:33:33Z</time>
      </trkpt>
      <trkpt lat="42.32375" lon="2.55249">
        <ele>1227.362</ele>
        <time>2014-02-15T10:33:39Z</time>
      </trkpt>
      <trkpt lat="42.32377" lon="2.5525">
        <ele>1227.346</ele>
        <time>2014-02-15T10:33:41Z</time>
      </trkpt>
      <trkpt lat="42.3239" lon="2.55252">
        <ele>1226.888</ele>
        <time>2014-02-15T10:33:53Z</time>
      </trkpt>
      <trkpt lat="42.32398" lon="2.55251">
        <ele>1229.716</ele>
        <time>2014-02-15T10:34:04Z</time>
      </trkpt>
      <trkpt lat="42.32403" lon="2.55249">
        <ele>1230.107</ele>
        <time>2014-02-15T10:34:10Z</time>
      </trkpt>
      <trkpt lat="42.32414" lon="2.55249">
        <ele>1230.65</ele>
        <time>2014-02-15T10:34:23Z</time>
      </trkpt>
      <trkpt lat="42.32414" lon="2.55248">
        <ele>1232.185</ele>
        <time>2014-02-15T10:34:26Z</time>
      </trkpt>
      <trkpt lat="42.32416" lon="2.55237">
        <ele>1232.178</ele>
        <time>2014-02-15T10:34:39Z</time>
      </trkpt>
      <trkpt lat="42.32417" lon="2.55226">
        <ele>1233.543</ele>
        <time>2014-02-15T10:34:48Z</time>
      </trkpt>
      <trkpt lat="42.3242" lon="2.55213">
        <ele>1232.632</ele>
        <time>2014-02-15T10:34:57Z</time>
      </trkpt>
      <trkpt lat="42.32422" lon="2.55193">
        <ele>1231.689</ele>
        <time>2014-02-15T10:35:10Z</time>
      </trkpt>
      <trkpt lat="42.32424" lon="2.55184">
        <ele>1231.631</ele>
        <time>2014-02-15T10:35:16Z</time>
      </trkpt>
      <trkpt lat="42.32426" lon="2.55162">
        <ele>1232.631</ele>
        <time>2014-02-15T10:35:31Z</time>
      </trkpt>
      <trkpt lat="42.32426" lon="2.55159">
        <ele>1233.061</ele>
        <time>2014-02-15T10:35:33Z</time>
      </trkpt>
      <trkpt lat="42.32427" lon="2.55149">
        <ele>1232.607</ele>
        <time>2014-02-15T10:35:39Z</time>
      </trkpt>
      <trkpt lat="42.32437" lon="2.55129">
        <ele>1233.007</ele>
        <time>2014-02-15T10:35:54Z</time>
      </trkpt>
      <trkpt lat="42.3244" lon="2.55123">
        <ele>1231.129</ele>
        <time>2014-02-15T10:35:59Z</time>
      </trkpt>
      <trkpt lat="42.32445" lon="2.55115">
        <ele>1229.724</ele>
        <time>2014-02-15T10:36:06Z</time>
      </trkpt>
      <trkpt lat="42.32455" lon="2.55101">
        <ele>1228.737</ele>
        <time>2014-02-15T10:36:19Z</time>
      </trkpt>
      <trkpt lat="42.32467" lon="2.55085">
        <ele>1230.112</ele>
        <time>2014-02-15T10:36:32Z</time>
      </trkpt>
      <trkpt lat="42.32469" lon="2.55082">
        <ele>1230.691</ele>
        <time>2014-02-15T10:36:34Z</time>
      </trkpt>
      <trkpt lat="42.32478" lon="2.55062">
        <ele>1230.188</ele>
        <time>2014-02-15T10:36:49Z</time>
      </trkpt>
      <trkpt lat="42.32494" lon="2.55045">
        <ele>1228.71</ele>
        <time>2014-02-15T10:37:05Z</time>
      </trkpt>
      <trkpt lat="42.32495" lon="2.55044">
        <ele>1228.787</ele>
        <time>2014-02-15T10:37:06Z</time>
      </trkpt>
      <trkpt lat="42.32499" lon="2.55042">
        <ele>1228.742</ele>
        <time>2014-02-15T10:37:10Z</time>
      </trkpt>
      <trkpt lat="42.32513" lon="2.55037">
        <ele>1227.326</ele>
        <time>2014-02-15T10:37:21Z</time>
      </trkpt>
      <trkpt lat="42.32533" lon="2.55035">
        <ele>1229.207</ele>
        <time>2014-02-15T10:37:37Z</time>
      </trkpt>
      <trkpt lat="42.32546" lon="2.55034">
        <ele>1232.664</ele>
        <time>2014-02-15T10:37:51Z</time>
      </trkpt>
      <trkpt lat="42.32557" lon="2.55034">
        <ele>1233.519</ele>
        <time>2014-02-15T10:38:04Z</time>
      </trkpt>
      <trkpt lat="42.32565" lon="2.55032">
        <ele>1232.642</ele>
        <time>2014-02-15T10:38:16Z</time>
      </trkpt>
      <trkpt lat="42.32572" lon="2.5503">
        <ele>1233.597</ele>
        <time>2014-02-15T10:38:22Z</time>
      </trkpt>
      <trkpt lat="42.32588" lon="2.55033">
        <ele>1235.426</ele>
        <time>2014-02-15T10:38:37Z</time>
      </trkpt>
      <trkpt lat="42.32597" lon="2.55035">
        <ele>1237.843</ele>
        <time>2014-02-15T10:38:50Z</time>
      </trkpt>
      <trkpt lat="42.326" lon="2.55035">
        <ele>1238.345</ele>
        <time>2014-02-15T10:39:03Z</time>
      </trkpt>
      <trkpt lat="42.32597" lon="2.5504">
        <ele>1238.366</ele>
        <time>2014-02-15T10:39:24Z</time>
      </trkpt>
      <trkpt lat="42.32596" lon="2.55036">
        <ele>1237.429</ele>
        <time>2014-02-15T10:39:59Z</time>
      </trkpt>
      <trkpt lat="42.32595" lon="2.55033">
        <ele>1236.921</ele>
        <time>2014-02-15T10:40:27Z</time>
      </trkpt>
      <trkpt lat="42.32599" lon="2.55034">
        <ele>1237.807</ele>
        <time>2014-02-15T10:40:39Z</time>
      </trkpt>
      <trkpt lat="42.32599" lon="2.55033">
        <ele>1237.422</ele>
        <time>2014-02-15T10:41:02Z</time>
      </trkpt>
      <trkpt lat="42.32605" lon="2.55043">
        <ele>1236.477</ele>
        <time>2014-02-15T10:41:34Z</time>
      </trkpt>
      <trkpt lat="42.32604" lon="2.55045">
        <ele>1236.47</ele>
        <time>2014-02-15T10:42:04Z</time>
      </trkpt>
      <trkpt lat="42.32602" lon="2.55037">
        <ele>1237.455</ele>
        <time>2014-02-15T10:42:27Z</time>
      </trkpt>
      <trkpt lat="42.32598" lon="2.55034">
        <ele>1236.974</ele>
        <time>2014-02-15T10:42:44Z</time>
      </trkpt>
      <trkpt lat="42.32599" lon="2.55038">
        <ele>1237.411</ele>
        <time>2014-02-15T10:43:05Z</time>
      </trkpt>
      <trkpt lat="42.326" lon="2.55038">
        <ele>1237.493</ele>
        <time>2014-02-15T10:43:40Z</time>
      </trkpt>
      <trkpt lat="42.32597" lon="2.55037">
        <ele>1236.911</ele>
        <time>2014-02-15T10:44:05Z</time>
      </trkpt>
      <trkpt lat="42.32595" lon="2.55029">
        <ele>1236.921</ele>
        <time>2014-02-15T10:44:34Z</time>
      </trkpt>
      <trkpt lat="42.32596" lon="2.5503">
        <ele>1236.903</ele>
        <time>2014-02-15T10:44:58Z</time>
      </trkpt>
      <trkpt lat="42.32597" lon="2.55035">
        <ele>1236.907</ele>
        <time>2014-02-15T10:45:19Z</time>
      </trkpt>
      <trkpt lat="42.32598" lon="2.55035">
        <ele>1236.967</ele>
        <time>2014-02-15T10:45:45Z</time>
      </trkpt>
      <trkpt lat="42.32596" lon="2.55033">
        <ele>1236.952</ele>
        <time>2014-02-15T10:45:56Z</time>
      </trkpt>
      <trkpt lat="42.32594" lon="2.55037">
        <ele>1236.445</ele>
        <time>2014-02-15T10:46:11Z</time>
      </trkpt>
      <trkpt lat="42.32595" lon="2.55037">
        <ele>1238.36</ele>
        <time>2014-02-15T10:46:23Z</time>
      </trkpt>
      <trkpt lat="42.32596" lon="2.55041">
        <ele>1238.879</ele>
        <time>2014-02-15T10:46:44Z</time>
      </trkpt>
      <trkpt lat="42.32596" lon="2.5504">
        <ele>1238.856</ele>
        <time>2014-02-15T10:47:14Z</time>
      </trkpt>
      <trkpt lat="42.32597" lon="2.55038">
        <ele>1238.878</ele>
        <time>2014-02-15T10:47:42Z</time>
      </trkpt>
      <trkpt lat="42.326" lon="2.55038">
        <ele>1237.871</ele>
        <time>2014-02-15T10:47:48Z</time>
      </trkpt>
      <trkpt lat="42.32613" lon="2.55035">
        <ele>1240.741</ele>
        <time>2014-02-15T10:48:02Z</time>
      </trkpt>
      <trkpt lat="42.32623" lon="2.55032">
        <ele>1241.715</ele>
        <time>2014-02-15T10:48:15Z</time>
      </trkpt>
      <trkpt lat="42.32633" lon="2.55029">
        <ele>1242.607</ele>
        <time>2014-02-15T10:48:26Z</time>
      </trkpt>
      <trkpt lat="42.32637" lon="2.55027">
        <ele>1242.693</ele>
        <time>2014-02-15T10:48:31Z</time>
      </trkpt>
      <trkpt lat="42.32651" lon="2.55025">
        <ele>1243.618</ele>
        <time>2014-02-15T10:48:41Z</time>
      </trkpt>
      <trkpt lat="42.32654" lon="2.55025">
        <ele>1243.141</ele>
        <time>2014-02-15T10:48:43Z</time>
      </trkpt>
      <trkpt lat="42.32665" lon="2.55016">
        <ele>1244.686</ele>
        <time>2014-02-15T10:48:56Z</time>
      </trkpt>
      <trkpt lat="42.32678" lon="2.55009">
        <ele>1247.955</ele>
        <time>2014-02-15T10:49:08Z</time>
      </trkpt>
      <trkpt lat="42.32683" lon="2.55008">
        <ele>1247.932</ele>
        <time>2014-02-15T10:49:13Z</time>
      </trkpt>
      <trkpt lat="42.32699" lon="2.55002">
        <ele>1249.494</ele>
        <time>2014-02-15T10:49:28Z</time>
      </trkpt>
      <trkpt lat="42.32702" lon="2.55">
        <ele>1250.365</ele>
        <time>2014-02-15T10:49:31Z</time>
      </trkpt>
      <trkpt lat="42.32718" lon="2.54992">
        <ele>1252.368</ele>
        <time>2014-02-15T10:49:46Z</time>
      </trkpt>
      <trkpt lat="42.32721" lon="2.54991">
        <ele>1252.314</ele>
        <time>2014-02-15T10:49:49Z</time>
      </trkpt>
      <trkpt lat="42.32726" lon="2.54988">
        <ele>1253.207</ele>
        <time>2014-02-15T10:49:55Z</time>
      </trkpt>
      <trkpt lat="42.32735" lon="2.54982">
        <ele>1254.772</ele>
        <time>2014-02-15T10:50:05Z</time>
      </trkpt>
      <trkpt lat="42.3275" lon="2.54978">
        <ele>1256.627</ele>
        <time>2014-02-15T10:50:19Z</time>
      </trkpt>
      <trkpt lat="42.32758" lon="2.54979">
        <ele>1257.16</ele>
        <time>2014-02-15T10:50:27Z</time>
      </trkpt>
      <trkpt lat="42.32774" lon="2.54975">
        <ele>1259.515</ele>
        <time>2014-02-15T10:50:42Z</time>
      </trkpt>
      <trkpt lat="42.32783" lon="2.5497">
        <ele>1259.914</ele>
        <time>2014-02-15T10:50:52Z</time>
      </trkpt>
      <trkpt lat="42.32787" lon="2.54967">
        <ele>1261.481</ele>
        <time>2014-02-15T10:50:57Z</time>
      </trkpt>
      <trkpt lat="42.32795" lon="2.54964">
        <ele>1261.423</ele>
        <time>2014-02-15T10:51:04Z</time>
      </trkpt>
      <trkpt lat="42.32804" lon="2.54967">
        <ele>1264.339</ele>
        <time>2014-02-15T10:51:21Z</time>
      </trkpt>
      <trkpt lat="42.32808" lon="2.54971">
        <ele>1267.601</ele>
        <time>2014-02-15T10:51:34Z</time>
      </trkpt>
      <trkpt lat="42.32818" lon="2.54969">
        <ele>1269.621</ele>
        <time>2014-02-15T10:51:49Z</time>
      </trkpt>
      <trkpt lat="42.32822" lon="2.54974">
        <ele>1272.407</ele>
        <time>2014-02-15T10:51:57Z</time>
      </trkpt>
      <trkpt lat="42.32829" lon="2.54975">
        <ele>1274.419</ele>
        <time>2014-02-15T10:52:11Z</time>
      </trkpt>
      <trkpt lat="42.32834" lon="2.54978">
        <ele>1277.374</ele>
        <time>2014-02-15T10:52:21Z</time>
      </trkpt>
      <trkpt lat="42.32833" lon="2.54986">
        <ele>1281.177</ele>
        <time>2014-02-15T10:52:33Z</time>
      </trkpt>
      <trkpt lat="42.3284" lon="2.5499">
        <ele>1284.022</ele>
        <time>2014-02-15T10:52:45Z</time>
      </trkpt>
      <trkpt lat="42.32844" lon="2.54996">
        <ele>1286.921</ele>
        <time>2014-02-15T10:52:55Z</time>
      </trkpt>
      <trkpt lat="42.32845" lon="2.55002">
        <ele>1288.848</ele>
        <time>2014-02-15T10:53:02Z</time>
      </trkpt>
      <trkpt lat="42.32848" lon="2.55006">
        <ele>1291.71</ele>
        <time>2014-02-15T10:53:12Z</time>
      </trkpt>
      <trkpt lat="42.32855" lon="2.55013">
        <ele>1295.099</ele>
        <time>2014-02-15T10:53:25Z</time>
      </trkpt>
      <trkpt lat="42.32858" lon="2.55012">
        <ele>1297.007</ele>
        <time>2014-02-15T10:53:30Z</time>
      </trkpt>
      <trkpt lat="42.3286" lon="2.55011">
        <ele>1298.427</ele>
        <time>2014-02-15T10:53:34Z</time>
      </trkpt>
      <trkpt lat="42.32868" lon="2.55009">
        <ele>1301.307</ele>
        <time>2014-02-15T10:53:44Z</time>
      </trkpt>
      <trkpt lat="42.32871" lon="2.5501">
        <ele>1302.235</ele>
        <time>2014-02-15T10:53:49Z</time>
      </trkpt>
      <trkpt lat="42.32876" lon="2.55009">
        <ele>1304.75</ele>
        <time>2014-02-15T10:53:58Z</time>
      </trkpt>
      <trkpt lat="42.32881" lon="2.55003">
        <ele>1306.143</ele>
        <time>2014-02-15T10:54:09Z</time>
      </trkpt>
      <trkpt lat="42.32882" lon="2.55015">
        <ele>1309.558</ele>
        <time>2014-02-15T10:54:23Z</time>
      </trkpt>
      <trkpt lat="42.32882" lon="2.55016">
        <ele>1309.547</ele>
        <time>2014-02-15T10:54:24Z</time>
      </trkpt>
      <trkpt lat="42.32882" lon="2.55019">
        <ele>1309.514</ele>
        <time>2014-02-15T10:54:27Z</time>
      </trkpt>
      <trkpt lat="42.32877" lon="2.55035">
        <ele>1311.936</ele>
        <time>2014-02-15T10:54:40Z</time>
      </trkpt>
      <trkpt lat="42.32879" lon="2.55036">
        <ele>1314.332</ele>
        <time>2014-02-15T10:54:44Z</time>
      </trkpt>
      <trkpt lat="42.32881" lon="2.55037">
        <ele>1315.792</ele>
        <time>2014-02-15T10:54:48Z</time>
      </trkpt>
      <trkpt lat="42.32884" lon="2.55043">
        <ele>1318.611</ele>
        <time>2014-02-15T10:55:00Z</time>
      </trkpt>
      <trkpt lat="42.32891" lon="2.55036">
        <ele>1318.607</ele>
        <time>2014-02-15T10:55:13Z</time>
      </trkpt>
      <trkpt lat="42.329" lon="2.55037">
        <ele>1323.439</ele>
        <time>2014-02-15T10:55:25Z</time>
      </trkpt>
      <trkpt lat="42.32899" lon="2.55047">
        <ele>1323.974</ele>
        <time>2014-02-15T10:55:38Z</time>
      </trkpt>
      <trkpt lat="42.329" lon="2.5505">
        <ele>1323.427</ele>
        <time>2014-02-15T10:55:56Z</time>
      </trkpt>
      <trkpt lat="42.32901" lon="2.55048">
        <ele>1323.912</ele>
        <time>2014-02-15T10:56:15Z</time>
      </trkpt>
      <trkpt lat="42.32906" lon="2.55046">
        <ele>1321.521</ele>
        <time>2014-02-15T10:56:26Z</time>
      </trkpt>
      <trkpt lat="42.32911" lon="2.55043">
        <ele>1317.698</ele>
        <time>2014-02-15T10:56:38Z</time>
      </trkpt>
      <trkpt lat="42.32912" lon="2.55047">
        <ele>1316.76</ele>
        <time>2014-02-15T10:56:43Z</time>
      </trkpt>
      <trkpt lat="42.32916" lon="2.55052">
        <ele>1313.814</ele>
        <time>2014-02-15T10:56:55Z</time>
      </trkpt>
      <trkpt lat="42.3292" lon="2.55054">
        <ele>1312.854</ele>
        <time>2014-02-15T10:57:12Z</time>
      </trkpt>
      <trkpt lat="42.32926" lon="2.55048">
        <ele>1309.509</ele>
        <time>2014-02-15T10:57:27Z</time>
      </trkpt>
      <trkpt lat="42.32929" lon="2.55043">
        <ele>1311.907</ele>
        <time>2014-02-15T10:57:34Z</time>
      </trkpt>
      <trkpt lat="42.32928" lon="2.55037">
        <ele>1315.217</ele>
        <time>2014-02-15T10:57:44Z</time>
      </trkpt>
      <trkpt lat="42.32934" lon="2.5503">
        <ele>1316.262</ele>
        <time>2014-02-15T10:58:01Z</time>
      </trkpt>
      <trkpt lat="42.32937" lon="2.55029">
        <ele>1315.755</ele>
        <time>2014-02-15T10:58:35Z</time>
      </trkpt>
      <trkpt lat="42.3294" lon="2.55031">
        <ele>1317.13</ele>
        <time>2014-02-15T10:59:09Z</time>
      </trkpt>
      <trkpt lat="42.32936" lon="2.55033">
        <ele>1317.689</ele>
        <time>2014-02-15T10:59:48Z</time>
      </trkpt>
      <trkpt lat="42.32921" lon="2.55027">
        <ele>1318.156</ele>
        <time>2014-02-15T11:00:22Z</time>
      </trkpt>
      <trkpt lat="42.32921" lon="2.55023">
        <ele>1318.188</ele>
        <time>2014-02-15T11:01:00Z</time>
      </trkpt>
      <trkpt lat="42.32926" lon="2.55026">
        <ele>1318.635</ele>
        <time>2014-02-15T11:01:35Z</time>
      </trkpt>
      <trkpt lat="42.32934" lon="2.55023">
        <ele>1322.086</ele>
        <time>2014-02-15T11:01:54Z</time>
      </trkpt>
      <trkpt lat="42.32935" lon="2.55022">
        <ele>1321.514</ele>
        <time>2014-02-15T11:01:55Z</time>
      </trkpt>
      <trkpt lat="42.3294" lon="2.5501">
        <ele>1323.907</ele>
        <time>2014-02-15T11:02:08Z</time>
      </trkpt>
      <trkpt lat="42.32943" lon="2.55006">
        <ele>1325.389</ele>
        <time>2014-02-15T11:02:13Z</time>
      </trkpt>
      <trkpt lat="42.32952" lon="2.54992">
        <ele>1328.794</ele>
        <time>2014-02-15T11:02:29Z</time>
      </trkpt>
      <trkpt lat="42.32954" lon="2.54981">
        <ele>1331.647</ele>
        <time>2014-02-15T11:02:41Z</time>
      </trkpt>
      <trkpt lat="42.32957" lon="2.54972">
        <ele>1334.952</ele>
        <time>2014-02-15T11:02:54Z</time>
      </trkpt>
      <trkpt lat="42.3296" lon="2.54964">
        <ele>1335.941</ele>
        <time>2014-02-15T11:03:08Z</time>
      </trkpt>
      <trkpt lat="42.32966" lon="2.5495">
        <ele>1338.848</ele>
        <time>2014-02-15T11:03:21Z</time>
      </trkpt>
      <trkpt lat="42.32968" lon="2.54942">
        <ele>1340.27</ele>
        <time>2014-02-15T11:03:32Z</time>
      </trkpt>
      <trkpt lat="42.32971" lon="2.54926">
        <ele>1341.739</ele>
        <time>2014-02-15T11:03:48Z</time>
      </trkpt>
      <trkpt lat="42.32972" lon="2.54923">
        <ele>1343.101</ele>
        <time>2014-02-15T11:03:50Z</time>
      </trkpt>
      <trkpt lat="42.32978" lon="2.54905">
        <ele>1344.521</ele>
        <time>2014-02-15T11:04:01Z</time>
      </trkpt>
      <trkpt lat="42.32978" lon="2.54903">
        <ele>1344.507</ele>
        <time>2014-02-15T11:04:03Z</time>
      </trkpt>
      <trkpt lat="42.3299" lon="2.54869">
        <ele>1346.929</ele>
        <time>2014-02-15T11:04:18Z</time>
      </trkpt>
      <trkpt lat="42.33" lon="2.54851">
        <ele>1348.964</ele>
        <time>2014-02-15T11:04:31Z</time>
      </trkpt>
      <trkpt lat="42.33008" lon="2.54827">
        <ele>1351.877</ele>
        <time>2014-02-15T11:04:44Z</time>
      </trkpt>
      <trkpt lat="42.3301" lon="2.54821">
        <ele>1352.712</ele>
        <time>2014-02-15T11:04:48Z</time>
      </trkpt>
      <trkpt lat="42.33011" lon="2.54806">
        <ele>1349.881</ele>
        <time>2014-02-15T11:04:56Z</time>
      </trkpt>
      <trkpt lat="42.33017" lon="2.54785">
        <ele>1347.488</ele>
        <time>2014-02-15T11:05:06Z</time>
      </trkpt>
      <trkpt lat="42.33024" lon="2.54775">
        <ele>1346.97</ele>
        <time>2014-02-15T11:05:11Z</time>
      </trkpt>
      <trkpt lat="42.33033" lon="2.5475">
        <ele>1344.177</ele>
        <time>2014-02-15T11:05:26Z</time>
      </trkpt>
      <trkpt lat="42.33034" lon="2.54749">
        <ele>1345.061</ele>
        <time>2014-02-15T11:05:27Z</time>
      </trkpt>
      <trkpt lat="42.33035" lon="2.5474">
        <ele>1344.127</ele>
        <time>2014-02-15T11:05:36Z</time>
      </trkpt>
      <trkpt lat="42.33041" lon="2.54718">
        <ele>1344.107</ele>
        <time>2014-02-15T11:05:49Z</time>
      </trkpt>
      <trkpt lat="42.33049" lon="2.54699">
        <ele>1343.113</ele>
        <time>2014-02-15T11:06:02Z</time>
      </trkpt>
      <trkpt lat="42.33061" lon="2.54677">
        <ele>1342.168</ele>
        <time>2014-02-15T11:06:16Z</time>
      </trkpt>
      <trkpt lat="42.33069" lon="2.54655">
        <ele>1341.751</ele>
        <time>2014-02-15T11:06:29Z</time>
      </trkpt>
      <trkpt lat="42.33081" lon="2.54633">
        <ele>1341.786</ele>
        <time>2014-02-15T11:06:44Z</time>
      </trkpt>
      <trkpt lat="42.33095" lon="2.54611">
        <ele>1340.785</ele>
        <time>2014-02-15T11:06:59Z</time>
      </trkpt>
      <trkpt lat="42.3311" lon="2.54592">
        <ele>1342.612</ele>
        <time>2014-02-15T11:07:15Z</time>
      </trkpt>
      <trkpt lat="42.33111" lon="2.54591">
        <ele>1343.124</ele>
        <time>2014-02-15T11:07:16Z</time>
      </trkpt>
      <trkpt lat="42.33123" lon="2.54575">
        <ele>1347.433</ele>
        <time>2014-02-15T11:07:30Z</time>
      </trkpt>
      <trkpt lat="42.33128" lon="2.5457">
        <ele>1348.423</ele>
        <time>2014-02-15T11:07:36Z</time>
      </trkpt>
      <trkpt lat="42.3313" lon="2.54568">
        <ele>1348.915</ele>
        <time>2014-02-15T11:07:38Z</time>
      </trkpt>
      <trkpt lat="42.33138" lon="2.54557">
        <ele>1351.307</ele>
        <time>2014-02-15T11:07:49Z</time>
      </trkpt>
      <trkpt lat="42.33144" lon="2.54544">
        <ele>1351.899</ele>
        <time>2014-02-15T11:07:58Z</time>
      </trkpt>
      <trkpt lat="42.33151" lon="2.54534">
        <ele>1354.224</ele>
        <time>2014-02-15T11:08:12Z</time>
      </trkpt>
      <trkpt lat="42.33164" lon="2.54529">
        <ele>1356.687</ele>
        <time>2014-02-15T11:08:26Z</time>
      </trkpt>
      <trkpt lat="42.33166" lon="2.54526">
        <ele>1356.642</ele>
        <time>2014-02-15T11:08:29Z</time>
      </trkpt>
      <trkpt lat="42.33174" lon="2.54516">
        <ele>1358.031</ele>
        <time>2014-02-15T11:08:44Z</time>
      </trkpt>
      <trkpt lat="42.33175" lon="2.54514">
        <ele>1361.448</ele>
        <time>2014-02-15T11:08:49Z</time>
      </trkpt>
      <trkpt lat="42.33178" lon="2.54509">
        <ele>1362.88</ele>
        <time>2014-02-15T11:08:56Z</time>
      </trkpt>
      <trkpt lat="42.33187" lon="2.54503">
        <ele>1365.229</ele>
        <time>2014-02-15T11:09:08Z</time>
      </trkpt>
      <trkpt lat="42.33188" lon="2.54501">
        <ele>1366.7</ele>
        <time>2014-02-15T11:09:11Z</time>
      </trkpt>
      <trkpt lat="42.33192" lon="2.54496">
        <ele>1368.62</ele>
        <time>2014-02-15T11:09:20Z</time>
      </trkpt>
      <trkpt lat="42.33193" lon="2.54493">
        <ele>1368.607</ele>
        <time>2014-02-15T11:09:22Z</time>
      </trkpt>
      <trkpt lat="42.33196" lon="2.5449">
        <ele>1368.128</ele>
        <time>2014-02-15T11:09:25Z</time>
      </trkpt>
      <trkpt lat="42.33197" lon="2.54483">
        <ele>1367.163</ele>
        <time>2014-02-15T11:09:29Z</time>
      </trkpt>
      <trkpt lat="42.33201" lon="2.54476">
        <ele>1370.076</ele>
        <time>2014-02-15T11:09:35Z</time>
      </trkpt>
      <trkpt lat="42.33208" lon="2.54461">
        <ele>1369.551</ele>
        <time>2014-02-15T11:09:48Z</time>
      </trkpt>
      <trkpt lat="42.33218" lon="2.5445">
        <ele>1367.17</ele>
        <time>2014-02-15T11:09:57Z</time>
      </trkpt>
      <trkpt lat="42.33225" lon="2.54445">
        <ele>1369.587</ele>
        <time>2014-02-15T11:10:04Z</time>
      </trkpt>
      <trkpt lat="42.33232" lon="2.54431">
        <ele>1371.099</ele>
        <time>2014-02-15T11:10:16Z</time>
      </trkpt>
      <trkpt lat="42.33235" lon="2.54422">
        <ele>1371.945</ele>
        <time>2014-02-15T11:10:23Z</time>
      </trkpt>
      <trkpt lat="42.33234" lon="2.5442">
        <ele>1372.947</ele>
        <time>2014-02-15T11:10:25Z</time>
      </trkpt>
      <trkpt lat="42.33236" lon="2.54414">
        <ele>1373.911</ele>
        <time>2014-02-15T11:10:30Z</time>
      </trkpt>
      <trkpt lat="42.33242" lon="2.544">
        <ele>1374.307</ele>
        <time>2014-02-15T11:10:39Z</time>
      </trkpt>
      <trkpt lat="42.33251" lon="2.54378">
        <ele>1376.89</ele>
        <time>2014-02-15T11:10:54Z</time>
      </trkpt>
      <trkpt lat="42.33251" lon="2.54377">
        <ele>1377.285</ele>
        <time>2014-02-15T11:10:55Z</time>
      </trkpt>
      <trkpt lat="42.33267" lon="2.54362">
        <ele>1376.888</ele>
        <time>2014-02-15T11:11:12Z</time>
      </trkpt>
      <trkpt lat="42.33277" lon="2.54361">
        <ele>1376.333</ele>
        <time>2014-02-15T11:11:25Z</time>
      </trkpt>
      <trkpt lat="42.33279" lon="2.54361">
        <ele>1376.382</ele>
        <time>2014-02-15T11:11:39Z</time>
      </trkpt>
      <trkpt lat="42.33279" lon="2.5436">
        <ele>1376.339</ele>
        <time>2014-02-15T11:11:40Z</time>
      </trkpt>
      <trkpt lat="42.33289" lon="2.54332">
        <ele>1376.341</ele>
        <time>2014-02-15T11:11:57Z</time>
      </trkpt>
      <trkpt lat="42.33294" lon="2.54322">
        <ele>1377.743</ele>
        <time>2014-02-15T11:12:04Z</time>
      </trkpt>
      <trkpt lat="42.33297" lon="2.54317">
        <ele>1377.764</ele>
        <time>2014-02-15T11:12:22Z</time>
      </trkpt>
      <trkpt lat="42.33298" lon="2.54312">
        <ele>1378.21</ele>
        <time>2014-02-15T11:12:40Z</time>
      </trkpt>
      <trkpt lat="42.33309" lon="2.54285">
        <ele>1379.607</ele>
        <time>2014-02-15T11:12:56Z</time>
      </trkpt>
      <trkpt lat="42.33312" lon="2.54281">
        <ele>1379.61</ele>
        <time>2014-02-15T11:13:00Z</time>
      </trkpt>
      <trkpt lat="42.33318" lon="2.54253">
        <ele>1382.515</ele>
        <time>2014-02-15T11:13:16Z</time>
      </trkpt>
      <trkpt lat="42.33319" lon="2.54228">
        <ele>1384.438</ele>
        <time>2014-02-15T11:13:31Z</time>
      </trkpt>
      <trkpt lat="42.33321" lon="2.54208">
        <ele>1386.473</ele>
        <time>2014-02-15T11:13:43Z</time>
      </trkpt>
      <trkpt lat="42.33322" lon="2.54183">
        <ele>1387.312</ele>
        <time>2014-02-15T11:13:56Z</time>
      </trkpt>
      <trkpt lat="42.33327" lon="2.54151">
        <ele>1386.469</ele>
        <time>2014-02-15T11:14:13Z</time>
      </trkpt>
      <trkpt lat="42.33333" lon="2.54122">
        <ele>1387.351</ele>
        <time>2014-02-15T11:14:28Z</time>
      </trkpt>
      <trkpt lat="42.33335" lon="2.54096">
        <ele>1389.727</ele>
        <time>2014-02-15T11:14:41Z</time>
      </trkpt>
      <trkpt lat="42.33335" lon="2.54072">
        <ele>1389.768</ele>
        <time>2014-02-15T11:14:55Z</time>
      </trkpt>
      <trkpt lat="42.33336" lon="2.54068">
        <ele>1389.714</ele>
        <time>2014-02-15T11:14:57Z</time>
      </trkpt>
      <trkpt lat="42.33339" lon="2.54043">
        <ele>1389.707</ele>
        <time>2014-02-15T11:15:11Z</time>
      </trkpt>
      <trkpt lat="42.33343" lon="2.54024">
        <ele>1389.228</ele>
        <time>2014-02-15T11:15:21Z</time>
      </trkpt>
      <trkpt lat="42.33349" lon="2.54004">
        <ele>1389.793</ele>
        <time>2014-02-15T11:15:32Z</time>
      </trkpt>
      <trkpt lat="42.33355" lon="2.53972">
        <ele>1391.266</ele>
        <time>2014-02-15T11:15:48Z</time>
      </trkpt>
      <trkpt lat="42.3336" lon="2.53949">
        <ele>1393.651</ele>
        <time>2014-02-15T11:16:02Z</time>
      </trkpt>
      <trkpt lat="42.33361" lon="2.53923">
        <ele>1394.52</ele>
        <time>2014-02-15T11:16:16Z</time>
      </trkpt>
      <trkpt lat="42.33363" lon="2.53921">
        <ele>1396.017</ele>
        <time>2014-02-15T11:16:19Z</time>
      </trkpt>
      <trkpt lat="42.33367" lon="2.53915">
        <ele>1396.949</ele>
        <time>2014-02-15T11:16:26Z</time>
      </trkpt>
      <trkpt lat="42.33369" lon="2.53912">
        <ele>1397.977</ele>
        <time>2014-02-15T11:16:29Z</time>
      </trkpt>
      <trkpt lat="42.3338" lon="2.5389">
        <ele>1399.361</ele>
        <time>2014-02-15T11:16:45Z</time>
      </trkpt>
      <trkpt lat="42.33383" lon="2.53864">
        <ele>1400.827</ele>
        <time>2014-02-15T11:17:00Z</time>
      </trkpt>
      <trkpt lat="42.33384" lon="2.5386">
        <ele>1402.207</ele>
        <time>2014-02-15T11:17:03Z</time>
      </trkpt>
      <trkpt lat="42.33384" lon="2.53845">
        <ele>1404.613</ele>
        <time>2014-02-15T11:17:19Z</time>
      </trkpt>
      <trkpt lat="42.33383" lon="2.53842">
        <ele>1405.148</ele>
        <time>2014-02-15T11:17:23Z</time>
      </trkpt>
      <trkpt lat="42.33384" lon="2.53828">
        <ele>1405.151</ele>
        <time>2014-02-15T11:17:31Z</time>
      </trkpt>
      <trkpt lat="42.33383" lon="2.53811">
        <ele>1405.686</ele>
        <time>2014-02-15T11:17:41Z</time>
      </trkpt>
      <trkpt lat="42.33383" lon="2.53799">
        <ele>1405.115</ele>
        <time>2014-02-15T11:17:47Z</time>
      </trkpt>
      <trkpt lat="42.33381" lon="2.53787">
        <ele>1406.172</ele>
        <time>2014-02-15T11:17:54Z</time>
      </trkpt>
      <trkpt lat="42.33379" lon="2.53778">
        <ele>1405.654</ele>
        <time>2014-02-15T11:18:00Z</time>
      </trkpt>
      <trkpt lat="42.33379" lon="2.53772">
        <ele>1406.161</ele>
        <time>2014-02-15T11:18:03Z</time>
      </trkpt>
      <trkpt lat="42.33374" lon="2.53741">
        <ele>1404.621</ele>
        <time>2014-02-15T11:18:19Z</time>
      </trkpt>
      <trkpt lat="42.33375" lon="2.53714">
        <ele>1405.113</ele>
        <time>2014-02-15T11:18:35Z</time>
      </trkpt>
      <trkpt lat="42.33377" lon="2.53687">
        <ele>1404.607</ele>
        <time>2014-02-15T11:18:50Z</time>
      </trkpt>
      <trkpt lat="42.33379" lon="2.53671">
        <ele>1405.112</ele>
        <time>2014-02-15T11:19:11Z</time>
      </trkpt>
      <trkpt lat="42.33388" lon="2.53642">
        <ele>1403.717</ele>
        <time>2014-02-15T11:19:26Z</time>
      </trkpt>
      <trkpt lat="42.33388" lon="2.53641">
        <ele>1403.26</ele>
        <time>2014-02-15T11:19:27Z</time>
      </trkpt>
      <trkpt lat="42.33394" lon="2.53604">
        <ele>1405.655</ele>
        <time>2014-02-15T11:19:46Z</time>
      </trkpt>
      <trkpt lat="42.33393" lon="2.53594">
        <ele>1407.564</ele>
        <time>2014-02-15T11:19:52Z</time>
      </trkpt>
      <trkpt lat="42.33389" lon="2.5358">
        <ele>1410.931</ele>
        <time>2014-02-15T11:20:05Z</time>
      </trkpt>
      <trkpt lat="42.33386" lon="2.53568">
        <ele>1413.343</ele>
        <time>2014-02-15T11:20:17Z</time>
      </trkpt>
      <trkpt lat="42.33383" lon="2.53555">
        <ele>1416.617</ele>
        <time>2014-02-15T11:20:29Z</time>
      </trkpt>
      <trkpt lat="42.33382" lon="2.53554">
        <ele>1416.287</ele>
        <time>2014-02-15T11:20:30Z</time>
      </trkpt>
      <trkpt lat="42.33382" lon="2.53549">
        <ele>1417.115</ele>
        <time>2014-02-15T11:20:34Z</time>
      </trkpt>
      <trkpt lat="42.33379" lon="2.53537">
        <ele>1420.007</ele>
        <time>2014-02-15T11:20:44Z</time>
      </trkpt>
      <trkpt lat="42.33379" lon="2.53533">
        <ele>1420.067</ele>
        <time>2014-02-15T11:20:47Z</time>
      </trkpt>
      <trkpt lat="42.3338" lon="2.53528">
        <ele>1421.532</ele>
        <time>2014-02-15T11:20:51Z</time>
      </trkpt>
      <trkpt lat="42.3338" lon="2.53522">
        <ele>1421.965</ele>
        <time>2014-02-15T11:20:55Z</time>
      </trkpt>
      <trkpt lat="42.33379" lon="2.53511">
        <ele>1424.81</ele>
        <time>2014-02-15T11:21:08Z</time>
      </trkpt>
      <trkpt lat="42.33379" lon="2.53505">
        <ele>1428.279</ele>
        <time>2014-02-15T11:21:17Z</time>
      </trkpt>
      <trkpt lat="42.3338" lon="2.53493">
        <ele>1430.196</ele>
        <time>2014-02-15T11:21:28Z</time>
      </trkpt>
      <trkpt lat="42.33381" lon="2.5349">
        <ele>1430.648</ele>
        <time>2014-02-15T11:21:31Z</time>
      </trkpt>
      <trkpt lat="42.33381" lon="2.53487">
        <ele>1431.138</ele>
        <time>2014-02-15T11:21:33Z</time>
      </trkpt>
      <trkpt lat="42.33383" lon="2.53472">
        <ele>1433.07</ele>
        <time>2014-02-15T11:21:48Z</time>
      </trkpt>
      <trkpt lat="42.33383" lon="2.53459">
        <ele>1434.917</ele>
        <time>2014-02-15T11:22:00Z</time>
      </trkpt>
      <trkpt lat="42.33379" lon="2.53448">
        <ele>1438.807</ele>
        <time>2014-02-15T11:22:12Z</time>
      </trkpt>
      <trkpt lat="42.33378" lon="2.53438">
        <ele>1440.769</ele>
        <time>2014-02-15T11:22:24Z</time>
      </trkpt>
      <trkpt lat="42.33374" lon="2.5343">
        <ele>1443.614</ele>
        <time>2014-02-15T11:22:37Z</time>
      </trkpt>
      <trkpt lat="42.3337" lon="2.53421">
        <ele>1446.027</ele>
        <time>2014-02-15T11:22:52Z</time>
      </trkpt>
      <trkpt lat="42.33368" lon="2.53416">
        <ele>1448.422</ele>
        <time>2014-02-15T11:23:05Z</time>
      </trkpt>
      <trkpt lat="42.33365" lon="2.5341">
        <ele>1451.331</ele>
        <time>2014-02-15T11:23:23Z</time>
      </trkpt>
      <trkpt lat="42.33367" lon="2.53405">
        <ele>1454.628</ele>
        <time>2014-02-15T11:23:36Z</time>
      </trkpt>
      <trkpt lat="42.33364" lon="2.53401">
        <ele>1457.53</ele>
        <time>2014-02-15T11:23:50Z</time>
      </trkpt>
      <trkpt lat="42.3336" lon="2.53399">
        <ele>1460.976</ele>
        <time>2014-02-15T11:24:02Z</time>
      </trkpt>
      <trkpt lat="42.33362" lon="2.53399">
        <ele>1463.79</ele>
        <time>2014-02-15T11:24:15Z</time>
      </trkpt>
      <trkpt lat="42.33361" lon="2.534">
        <ele>1464.719</ele>
        <time>2014-02-15T11:24:21Z</time>
      </trkpt>
      <trkpt lat="42.33357" lon="2.534">
        <ele>1468.107</ele>
        <time>2014-02-15T11:24:33Z</time>
      </trkpt>
      <trkpt lat="42.33346" lon="2.53395">
        <ele>1470.023</ele>
        <time>2014-02-15T11:24:45Z</time>
      </trkpt>
      <trkpt lat="42.33342" lon="2.53391">
        <ele>1471.918</ele>
        <time>2014-02-15T11:24:58Z</time>
      </trkpt>
      <trkpt lat="42.33339" lon="2.53385">
        <ele>1475.371</ele>
        <time>2014-02-15T11:25:13Z</time>
      </trkpt>
      <trkpt lat="42.33336" lon="2.53379">
        <ele>1477.276</ele>
        <time>2014-02-15T11:25:25Z</time>
      </trkpt>
      <trkpt lat="42.33335" lon="2.53372">
        <ele>1479.665</ele>
        <time>2014-02-15T11:25:37Z</time>
      </trkpt>
      <trkpt lat="42.33331" lon="2.53368">
        <ele>1482.542</ele>
        <time>2014-02-15T11:25:49Z</time>
      </trkpt>
      <trkpt lat="42.33328" lon="2.53363">
        <ele>1484.964</ele>
        <time>2014-02-15T11:25:59Z</time>
      </trkpt>
      <trkpt lat="42.33326" lon="2.5336">
        <ele>1487.338</ele>
        <time>2014-02-15T11:26:14Z</time>
      </trkpt>
      <trkpt lat="42.33323" lon="2.53356">
        <ele>1490.77</ele>
        <time>2014-02-15T11:26:24Z</time>
      </trkpt>
      <trkpt lat="42.33318" lon="2.53351">
        <ele>1493.617</ele>
        <time>2014-02-15T11:26:33Z</time>
      </trkpt>
      <trkpt lat="42.33316" lon="2.53345">
        <ele>1496.407</ele>
        <time>2014-02-15T11:26:45Z</time>
      </trkpt>
      <trkpt lat="42.33311" lon="2.53342">
        <ele>1500.379</ele>
        <time>2014-02-15T11:26:56Z</time>
      </trkpt>
      <trkpt lat="42.33311" lon="2.53342">
        <ele>1500.394</ele>
        <time>2014-02-15T11:26:57Z</time>
      </trkpt>
      <trkpt lat="42.33306" lon="2.53339">
        <ele>1500.357</ele>
        <time>2014-02-15T11:27:11Z</time>
      </trkpt>
      <trkpt lat="42.33304" lon="2.53327">
        <ele>1498.442</ele>
        <time>2014-02-15T11:27:19Z</time>
      </trkpt>
      <trkpt lat="42.33306" lon="2.53326">
        <ele>1501.221</ele>
        <time>2014-02-15T11:27:24Z</time>
      </trkpt>
      <trkpt lat="42.33303" lon="2.53321">
        <ele>1503.268</ele>
        <time>2014-02-15T11:27:39Z</time>
      </trkpt>
      <trkpt lat="42.33299" lon="2.53316">
        <ele>1506.55</ele>
        <time>2014-02-15T11:27:49Z</time>
      </trkpt>
      <trkpt lat="42.33298" lon="2.533">
        <ele>1506.028</ele>
        <time>2014-02-15T11:28:01Z</time>
      </trkpt>
      <trkpt lat="42.33293" lon="2.53287">
        <ele>1506.589</ele>
        <time>2014-02-15T11:28:10Z</time>
      </trkpt>
      <trkpt lat="42.33291" lon="2.53284">
        <ele>1507.017</ele>
        <time>2014-02-15T11:28:13Z</time>
      </trkpt>
      <trkpt lat="42.33287" lon="2.53268">
        <ele>1509.407</ele>
        <time>2014-02-15T11:28:26Z</time>
      </trkpt>
      <trkpt lat="42.33283" lon="2.53252">
        <ele>1509.428</ele>
        <time>2014-02-15T11:28:43Z</time>
      </trkpt>
      <trkpt lat="42.33283" lon="2.53248">
        <ele>1506.533</ele>
        <time>2014-02-15T11:28:52Z</time>
      </trkpt>
      <trkpt lat="42.33284" lon="2.53245">
        <ele>1508.986</ele>
        <time>2014-02-15T11:29:08Z</time>
      </trkpt>
      <trkpt lat="42.33285" lon="2.53239">
        <ele>1509.441</ele>
        <time>2014-02-15T11:29:18Z</time>
      </trkpt>
      <trkpt lat="42.33287" lon="2.53237">
        <ele>1507.52</ele>
        <time>2014-02-15T11:29:20Z</time>
      </trkpt>
      <trkpt lat="42.33289" lon="2.53235">
        <ele>1508.027</ele>
        <time>2014-02-15T11:29:23Z</time>
      </trkpt>
      <trkpt lat="42.33296" lon="2.53223">
        <ele>1507.539</ele>
        <time>2014-02-15T11:29:37Z</time>
      </trkpt>
      <trkpt lat="42.33301" lon="2.53213">
        <ele>1508.599</ele>
        <time>2014-02-15T11:29:48Z</time>
      </trkpt>
      <trkpt lat="42.33304" lon="2.53197">
        <ele>1508.907</ele>
        <time>2014-02-15T11:30:00Z</time>
      </trkpt>
      <trkpt lat="42.33303" lon="2.53188">
        <ele>1510.927</ele>
        <time>2014-02-15T11:30:08Z</time>
      </trkpt>
      <trkpt lat="42.33304" lon="2.53153">
        <ele>1511.307</ele>
        <time>2014-02-15T11:30:20Z</time>
      </trkpt>
      <trkpt lat="42.33306" lon="2.53146">
        <ele>1511.885</ele>
        <time>2014-02-15T11:30:23Z</time>
      </trkpt>
      <trkpt lat="42.33309" lon="2.53123">
        <ele>1512.33</ele>
        <time>2014-02-15T11:30:38Z</time>
      </trkpt>
      <trkpt lat="42.33309" lon="2.53121">
        <ele>1511.863</ele>
        <time>2014-02-15T11:30:39Z</time>
      </trkpt>
      <trkpt lat="42.33309" lon="2.53106">
        <ele>1514.248</ele>
        <time>2014-02-15T11:30:52Z</time>
      </trkpt>
      <trkpt lat="42.3331" lon="2.53085">
        <ele>1516.647</ele>
        <time>2014-02-15T11:31:04Z</time>
      </trkpt>
      <trkpt lat="42.33309" lon="2.53075">
        <ele>1520.044</ele>
        <time>2014-02-15T11:31:13Z</time>
      </trkpt>
      <trkpt lat="42.3331" lon="2.53062">
        <ele>1522.996</ele>
        <time>2014-02-15T11:31:26Z</time>
      </trkpt>
      <trkpt lat="42.33309" lon="2.53059">
        <ele>1523.854</ele>
        <time>2014-02-15T11:31:30Z</time>
      </trkpt>
      <trkpt lat="42.33308" lon="2.53047">
        <ele>1526.256</ele>
        <time>2014-02-15T11:31:42Z</time>
      </trkpt>
      <trkpt lat="42.33308" lon="2.53046">
        <ele>1527.711</ele>
        <time>2014-02-15T11:31:45Z</time>
      </trkpt>
      <trkpt lat="42.33307" lon="2.53032">
        <ele>1530.607</ele>
        <time>2014-02-15T11:31:58Z</time>
      </trkpt>
      <trkpt lat="42.33304" lon="2.53024">
        <ele>1533.031</ele>
        <time>2014-02-15T11:32:08Z</time>
      </trkpt>
      <trkpt lat="42.33304" lon="2.53017">
        <ele>1534.496</ele>
        <time>2014-02-15T11:32:19Z</time>
      </trkpt>
      <trkpt lat="42.33305" lon="2.53005">
        <ele>1537.339</ele>
        <time>2014-02-15T11:32:32Z</time>
      </trkpt>
      <trkpt lat="42.33303" lon="2.53003">
        <ele>1538.774</ele>
        <time>2014-02-15T11:32:37Z</time>
      </trkpt>
      <trkpt lat="42.333" lon="2.52987">
        <ele>1542.173</ele>
        <time>2014-02-15T11:32:48Z</time>
      </trkpt>
      <trkpt lat="42.33303" lon="2.52971">
        <ele>1543.13</ele>
        <time>2014-02-15T11:32:59Z</time>
      </trkpt>
      <trkpt lat="42.33304" lon="2.52964">
        <ele>1544.012</ele>
        <time>2014-02-15T11:33:04Z</time>
      </trkpt>
      <trkpt lat="42.3331" lon="2.52938">
        <ele>1545.561</ele>
        <time>2014-02-15T11:33:20Z</time>
      </trkpt>
      <trkpt lat="42.33319" lon="2.52915">
        <ele>1544.521</ele>
        <time>2014-02-15T11:33:33Z</time>
      </trkpt>
      <trkpt lat="42.33321" lon="2.52895">
        <ele>1546.413</ele>
        <time>2014-02-15T11:33:47Z</time>
      </trkpt>
      <trkpt lat="42.33321" lon="2.52882">
        <ele>1548.807</ele>
        <time>2014-02-15T11:33:55Z</time>
      </trkpt>
      <trkpt lat="42.3332" lon="2.52875">
        <ele>1549.322</ele>
        <time>2014-02-15T11:34:02Z</time>
      </trkpt>
      <trkpt lat="42.33321" lon="2.5287">
        <ele>1550.367</ele>
        <time>2014-02-15T11:34:06Z</time>
      </trkpt>
      <trkpt lat="42.33321" lon="2.52868">
        <ele>1550.79</ele>
        <time>2014-02-15T11:34:08Z</time>
      </trkpt>
      <trkpt lat="42.33323" lon="2.5286">
        <ele>1551.725</ele>
        <time>2014-02-15T11:34:14Z</time>
      </trkpt>
      <trkpt lat="42.33323" lon="2.52851">
        <ele>1554.144</ele>
        <time>2014-02-15T11:34:26Z</time>
      </trkpt>
      <trkpt lat="42.33323" lon="2.52848">
        <ele>1554.181</ele>
        <time>2014-02-15T11:34:40Z</time>
      </trkpt>
      <trkpt lat="42.33324" lon="2.52844">
        <ele>1553.683</ele>
        <time>2014-02-15T11:35:04Z</time>
      </trkpt>
      <trkpt lat="42.33325" lon="2.52843">
        <ele>1555.612</ele>
        <time>2014-02-15T11:35:19Z</time>
      </trkpt>
      <trkpt lat="42.33324" lon="2.5284">
        <ele>1556.032</ele>
        <time>2014-02-15T11:35:25Z</time>
      </trkpt>
      <trkpt lat="42.33324" lon="2.52838">
        <ele>1556.005</ele>
        <time>2014-02-15T11:35:27Z</time>
      </trkpt>
      <trkpt lat="42.33327" lon="2.52821">
        <ele>1559.407</ele>
        <time>2014-02-15T11:35:42Z</time>
      </trkpt>
      <trkpt lat="42.33328" lon="2.52816">
        <ele>1560.447</ele>
        <time>2014-02-15T11:35:46Z</time>
      </trkpt>
      <trkpt lat="42.33329" lon="2.5281">
        <ele>1561.832</ele>
        <time>2014-02-15T11:35:52Z</time>
      </trkpt>
      <trkpt lat="42.33329" lon="2.52798">
        <ele>1565.685</ele>
        <time>2014-02-15T11:36:00Z</time>
      </trkpt>
      <trkpt lat="42.33331" lon="2.52784">
        <ele>1564.75</ele>
        <time>2014-02-15T11:36:13Z</time>
      </trkpt>
      <trkpt lat="42.33333" lon="2.52781">
        <ele>1563.789</ele>
        <time>2014-02-15T11:36:41Z</time>
      </trkpt>
      <trkpt lat="42.33334" lon="2.5278">
        <ele>1563.796</ele>
        <time>2014-02-15T11:37:05Z</time>
      </trkpt>
      <trkpt lat="42.33332" lon="2.52779">
        <ele>1564.228</ele>
        <time>2014-02-15T11:37:35Z</time>
      </trkpt>
      <trkpt lat="42.33334" lon="2.52782">
        <ele>1565.299</ele>
        <time>2014-02-15T11:38:06Z</time>
      </trkpt>
      <trkpt lat="42.33334" lon="2.52778">
        <ele>1564.707</ele>
        <time>2014-02-15T11:38:37Z</time>
      </trkpt>
      <trkpt lat="42.33335" lon="2.52777">
        <ele>1565.227</ele>
        <time>2014-02-15T11:39:02Z</time>
      </trkpt>
      <trkpt lat="42.33332" lon="2.52779">
        <ele>1565.207</ele>
        <time>2014-02-15T11:39:13Z</time>
      </trkpt>
      <trkpt lat="42.33332" lon="2.52777">
        <ele>1564.275</ele>
        <time>2014-02-15T11:39:31Z</time>
      </trkpt>
      <trkpt lat="42.33333" lon="2.52779">
        <ele>1564.75</ele>
        <time>2014-02-15T11:39:38Z</time>
      </trkpt>
      <trkpt lat="42.33338" lon="2.52767">
        <ele>1561.883</ele>
        <time>2014-02-15T11:39:48Z</time>
      </trkpt>
      <trkpt lat="42.33336" lon="2.52764">
        <ele>1559.988</ele>
        <time>2014-02-15T11:40:06Z</time>
      </trkpt>
      <trkpt lat="42.33336" lon="2.52766">
        <ele>1560.457</ele>
        <time>2014-02-15T11:40:37Z</time>
      </trkpt>
      <trkpt lat="42.33337" lon="2.52767">
        <ele>1562.374</ele>
        <time>2014-02-15T11:40:55Z</time>
      </trkpt>
      <trkpt lat="42.33336" lon="2.52767">
        <ele>1560.836</ele>
        <time>2014-02-15T11:41:16Z</time>
      </trkpt>
      <trkpt lat="42.33338" lon="2.52756">
        <ele>1558.953</ele>
        <time>2014-02-15T11:41:30Z</time>
      </trkpt>
      <trkpt lat="42.33335" lon="2.52748">
        <ele>1559.904</ele>
        <time>2014-02-15T11:41:41Z</time>
      </trkpt>
      <trkpt lat="42.33333" lon="2.52731">
        <ele>1558.414</ele>
        <time>2014-02-15T11:41:51Z</time>
      </trkpt>
      <trkpt lat="42.33332" lon="2.52729">
        <ele>1558.907</ele>
        <time>2014-02-15T11:41:52Z</time>
      </trkpt>
      <trkpt lat="42.33332" lon="2.52726">
        <ele>1559.421</ele>
        <time>2014-02-15T11:41:54Z</time>
      </trkpt>
      <trkpt lat="42.33331" lon="2.5272">
        <ele>1557.526</ele>
        <time>2014-02-15T11:41:57Z</time>
      </trkpt>
      <trkpt lat="42.33331" lon="2.52715">
        <ele>1557.019</ele>
        <time>2014-02-15T11:41:59Z</time>
      </trkpt>
      <trkpt lat="42.33332" lon="2.52708">
        <ele>1557.014</ele>
        <time>2014-02-15T11:42:02Z</time>
      </trkpt>
      <trkpt lat="42.33334" lon="2.52703">
        <ele>1555.123</ele>
        <time>2014-02-15T11:42:05Z</time>
      </trkpt>
      <trkpt lat="42.33336" lon="2.52683">
        <ele>1558.08</ele>
        <time>2014-02-15T11:42:19Z</time>
      </trkpt>
      <trkpt lat="42.33337" lon="2.52679">
        <ele>1559.952</ele>
        <time>2014-02-15T11:42:22Z</time>
      </trkpt>
      <trkpt lat="42.33338" lon="2.52675">
        <ele>1558.424</ele>
        <time>2014-02-15T11:42:25Z</time>
      </trkpt>
      <trkpt lat="42.33338" lon="2.52672">
        <ele>1558.904</ele>
        <time>2014-02-15T11:42:27Z</time>
      </trkpt>
      <trkpt lat="42.33337" lon="2.52667">
        <ele>1560.414</ele>
        <time>2014-02-15T11:42:31Z</time>
      </trkpt>
      <trkpt lat="42.33338" lon="2.52663">
        <ele>1560.807</ele>
        <time>2014-02-15T11:42:34Z</time>
      </trkpt>
      <trkpt lat="42.33338" lon="2.52659">
        <ele>1561.838</ele>
        <time>2014-02-15T11:42:37Z</time>
      </trkpt>
      <trkpt lat="42.33342" lon="2.5265">
        <ele>1558.463</ele>
        <time>2014-02-15T11:42:43Z</time>
      </trkpt>
      <trkpt lat="42.33346" lon="2.52639">
        <ele>1556.586</ele>
        <time>2014-02-15T11:42:49Z</time>
      </trkpt>
      <trkpt lat="42.33348" lon="2.52633">
        <ele>1556.561</ele>
        <time>2014-02-15T11:42:53Z</time>
      </trkpt>
      <trkpt lat="42.33352" lon="2.5262">
        <ele>1554.18</ele>
        <time>2014-02-15T11:43:05Z</time>
      </trkpt>
      <trkpt lat="42.33357" lon="2.52607">
        <ele>1552.747</ele>
        <time>2014-02-15T11:43:17Z</time>
      </trkpt>
      <trkpt lat="42.33356" lon="2.52606">
        <ele>1553.689</ele>
        <time>2014-02-15T11:43:18Z</time>
      </trkpt>
      <trkpt lat="42.33355" lon="2.52598">
        <ele>1550.314</ele>
        <time>2014-02-15T11:43:26Z</time>
      </trkpt>
      <trkpt lat="42.33354" lon="2.52596">
        <ele>1548.854</ele>
        <time>2014-02-15T11:43:27Z</time>
      </trkpt>
      <trkpt lat="42.33354" lon="2.52592">
        <ele>1547.409</ele>
        <time>2014-02-15T11:43:29Z</time>
      </trkpt>
      <trkpt lat="42.33356" lon="2.5259">
        <ele>1545.507</ele>
        <time>2014-02-15T11:43:31Z</time>
      </trkpt>
      <trkpt lat="42.33356" lon="2.52588">
        <ele>1543.577</ele>
        <time>2014-02-15T11:43:32Z</time>
      </trkpt>
      <trkpt lat="42.33356" lon="2.52586">
        <ele>1542.162</ele>
        <time>2014-02-15T11:43:36Z</time>
      </trkpt>
      <trkpt lat="42.33354" lon="2.52579">
        <ele>1539.285</ele>
        <time>2014-02-15T11:43:40Z</time>
      </trkpt>
      <trkpt lat="42.33354" lon="2.52578">
        <ele>1539.23</ele>
        <time>2014-02-15T11:43:41Z</time>
      </trkpt>
      <trkpt lat="42.33353" lon="2.52571">
        <ele>1535.819</ele>
        <time>2014-02-15T11:43:45Z</time>
      </trkpt>
      <trkpt lat="42.33361" lon="2.52536">
        <ele>1533.466</ele>
        <time>2014-02-15T11:43:58Z</time>
      </trkpt>
      <trkpt lat="42.33365" lon="2.52524">
        <ele>1532.578</ele>
        <time>2014-02-15T11:44:03Z</time>
      </trkpt>
      <trkpt lat="42.33365" lon="2.52517">
        <ele>1531.048</ele>
        <time>2014-02-15T11:44:07Z</time>
      </trkpt>
      <trkpt lat="42.3337" lon="2.52495">
        <ele>1530.161</ele>
        <time>2014-02-15T11:44:17Z</time>
      </trkpt>
      <trkpt lat="42.33369" lon="2.52491">
        <ele>1531.017</ele>
        <time>2014-02-15T11:44:19Z</time>
      </trkpt>
      <trkpt lat="42.33364" lon="2.52474">
        <ele>1531.507</ele>
        <time>2014-02-15T11:44:28Z</time>
      </trkpt>
      <trkpt lat="42.33364" lon="2.52464">
        <ele>1528.68</ele>
        <time>2014-02-15T11:44:31Z</time>
      </trkpt>
      <trkpt lat="42.33367" lon="2.52453">
        <ele>1526.715</ele>
        <time>2014-02-15T11:44:35Z</time>
      </trkpt>
      <trkpt lat="42.33368" lon="2.5245">
        <ele>1526.298</ele>
        <time>2014-02-15T11:44:36Z</time>
      </trkpt>
      <trkpt lat="42.33369" lon="2.52441">
        <ele>1521.943</ele>
        <time>2014-02-15T11:44:39Z</time>
      </trkpt>
      <trkpt lat="42.33372" lon="2.52427">
        <ele>1519.062</ele>
        <time>2014-02-15T11:44:45Z</time>
      </trkpt>
      <trkpt lat="42.33374" lon="2.52421">
        <ele>1517.139</ele>
        <time>2014-02-15T11:44:47Z</time>
      </trkpt>
      <trkpt lat="42.33384" lon="2.52392">
        <ele>1514.291</ele>
        <time>2014-02-15T11:44:58Z</time>
      </trkpt>
      <trkpt lat="42.33387" lon="2.52388">
        <ele>1513.389</ele>
        <time>2014-02-15T11:45:00Z</time>
      </trkpt>
      <trkpt lat="42.33398" lon="2.52368">
        <ele>1510.406</ele>
        <time>2014-02-15T11:45:08Z</time>
      </trkpt>
      <trkpt lat="42.33405" lon="2.52353">
        <ele>1506.526</ele>
        <time>2014-02-15T11:45:14Z</time>
      </trkpt>
      <trkpt lat="42.33407" lon="2.5235">
        <ele>1506.507</ele>
        <time>2014-02-15T11:45:15Z</time>
      </trkpt>
      <trkpt lat="42.33415" lon="2.52335">
        <ele>1504.644</ele>
        <time>2014-02-15T11:45:20Z</time>
      </trkpt>
      <trkpt lat="42.33421" lon="2.52313">
        <ele>1504.189</ele>
        <time>2014-02-15T11:45:31Z</time>
      </trkpt>
      <trkpt lat="42.33421" lon="2.52314">
        <ele>1503.242</ele>
        <time>2014-02-15T11:45:47Z</time>
      </trkpt>
      <trkpt lat="42.3342" lon="2.52309">
        <ele>1502.797</ele>
        <time>2014-02-15T11:45:50Z</time>
      </trkpt>
      <trkpt lat="42.33422" lon="2.52302">
        <ele>1500.886</ele>
        <time>2014-02-15T11:45:53Z</time>
      </trkpt>
      <trkpt lat="42.33425" lon="2.52297">
        <ele>1499.823</ele>
        <time>2014-02-15T11:45:55Z</time>
      </trkpt>
      <trkpt lat="42.33436" lon="2.5228">
        <ele>1496.455</ele>
        <time>2014-02-15T11:46:03Z</time>
      </trkpt>
      <trkpt lat="42.33441" lon="2.52262">
        <ele>1494.546</ele>
        <time>2014-02-15T11:46:10Z</time>
      </trkpt>
      <trkpt lat="42.33441" lon="2.52256">
        <ele>1493.188</ele>
        <time>2014-02-15T11:46:12Z</time>
      </trkpt>
      <trkpt lat="42.33447" lon="2.52247">
        <ele>1487.816</ele>
        <time>2014-02-15T11:46:16Z</time>
      </trkpt>
      <trkpt lat="42.33449" lon="2.52238">
        <ele>1484.407</ele>
        <time>2014-02-15T11:46:19Z</time>
      </trkpt>
      <trkpt lat="42.33449" lon="2.52235">
        <ele>1483.52</ele>
        <time>2014-02-15T11:46:20Z</time>
      </trkpt>
      <trkpt lat="42.33451" lon="2.52224">
        <ele>1479.115</ele>
        <time>2014-02-15T11:46:24Z</time>
      </trkpt>
      <trkpt lat="42.33454" lon="2.52212">
        <ele>1476.748</ele>
        <time>2014-02-15T11:46:28Z</time>
      </trkpt>
      <trkpt lat="42.33456" lon="2.52195">
        <ele>1473.493</ele>
        <time>2014-02-15T11:46:33Z</time>
      </trkpt>
      <trkpt lat="42.3346" lon="2.52176">
        <ele>1470.022</ele>
        <time>2014-02-15T11:46:39Z</time>
      </trkpt>
      <trkpt lat="42.33461" lon="2.52173">
        <ele>1468.659</ele>
        <time>2014-02-15T11:46:40Z</time>
      </trkpt>
      <trkpt lat="42.33465" lon="2.52165">
        <ele>1465.711</ele>
        <time>2014-02-15T11:46:44Z</time>
      </trkpt>
      <trkpt lat="42.33465" lon="2.52158">
        <ele>1464.726</ele>
        <time>2014-02-15T11:46:47Z</time>
      </trkpt>
      <trkpt lat="42.33466" lon="2.52152">
        <ele>1464.747</ele>
        <time>2014-02-15T11:46:49Z</time>
      </trkpt>
      <trkpt lat="42.33473" lon="2.52132">
        <ele>1461.311</ele>
        <time>2014-02-15T11:46:56Z</time>
      </trkpt>
      <trkpt lat="42.33476" lon="2.52125">
        <ele>1459.907</ele>
        <time>2014-02-15T11:46:59Z</time>
      </trkpt>
      <trkpt lat="42.3348" lon="2.52117">
        <ele>1457.548</ele>
        <time>2014-02-15T11:47:03Z</time>
      </trkpt>
      <trkpt lat="42.33483" lon="2.52113">
        <ele>1455.123</ele>
        <time>2014-02-15T11:47:06Z</time>
      </trkpt>
      <trkpt lat="42.3349" lon="2.52101">
        <ele>1450.896</ele>
        <time>2014-02-15T11:47:11Z</time>
      </trkpt>
      <trkpt lat="42.33494" lon="2.52097">
        <ele>1449.861</ele>
        <time>2014-02-15T11:47:13Z</time>
      </trkpt>
      <trkpt lat="42.33495" lon="2.52095">
        <ele>1449.35</ele>
        <time>2014-02-15T11:47:14Z</time>
      </trkpt>
      <trkpt lat="42.33504" lon="2.5208">
        <ele>1447.447</ele>
        <time>2014-02-15T11:47:19Z</time>
      </trkpt>
      <trkpt lat="42.3351" lon="2.52071">
        <ele>1444.549</ele>
        <time>2014-02-15T11:47:23Z</time>
      </trkpt>
      <trkpt lat="42.33517" lon="2.52064">
        <ele>1443.134</ele>
        <time>2014-02-15T11:47:27Z</time>
      </trkpt>
      <trkpt lat="42.33518" lon="2.52063">
        <ele>1442.155</ele>
        <time>2014-02-15T11:47:29Z</time>
      </trkpt>
      <trkpt lat="42.33521" lon="2.52057">
        <ele>1440.21</ele>
        <time>2014-02-15T11:47:42Z</time>
      </trkpt>
      <trkpt lat="42.33523" lon="2.52055">
        <ele>1440.207</ele>
        <time>2014-02-15T11:48:01Z</time>
      </trkpt>
      <trkpt lat="42.33521" lon="2.52051">
        <ele>1440.779</ele>
        <time>2014-02-15T11:48:23Z</time>
      </trkpt>
      <trkpt lat="42.3353" lon="2.52038">
        <ele>1436.844</ele>
        <time>2014-02-15T11:48:35Z</time>
      </trkpt>
      <trkpt lat="42.33539" lon="2.52031">
        <ele>1433.977</ele>
        <time>2014-02-15T11:48:40Z</time>
      </trkpt>
      <trkpt lat="42.33548" lon="2.52024">
        <ele>1430.152</ele>
        <time>2014-02-15T11:48:45Z</time>
      </trkpt>
      <trkpt lat="42.33555" lon="2.5201">
        <ele>1426.751</ele>
        <time>2014-02-15T11:48:51Z</time>
      </trkpt>
      <trkpt lat="42.33559" lon="2.51997">
        <ele>1424.848</ele>
        <time>2014-02-15T11:48:56Z</time>
      </trkpt>
      <trkpt lat="42.33559" lon="2.5199">
        <ele>1422.98</ele>
        <time>2014-02-15T11:48:59Z</time>
      </trkpt>
      <trkpt lat="42.3356" lon="2.51977">
        <ele>1420.096</ele>
        <time>2014-02-15T11:49:03Z</time>
      </trkpt>
      <trkpt lat="42.33562" lon="2.51971">
        <ele>1419.531</ele>
        <time>2014-02-15T11:49:05Z</time>
      </trkpt>
      <trkpt lat="42.33563" lon="2.51968">
        <ele>1418.624</ele>
        <time>2014-02-15T11:49:06Z</time>
      </trkpt>
      <trkpt lat="42.33565" lon="2.51946">
        <ele>1415.207</ele>
        <time>2014-02-15T11:49:13Z</time>
      </trkpt>
      <trkpt lat="42.33566" lon="2.51942">
        <ele>1415.245</ele>
        <time>2014-02-15T11:49:14Z</time>
      </trkpt>
      <trkpt lat="42.33568" lon="2.51912">
        <ele>1410.92</ele>
        <time>2014-02-15T11:49:23Z</time>
      </trkpt>
      <trkpt lat="42.33568" lon="2.51909">
        <ele>1410.913</ele>
        <time>2014-02-15T11:49:24Z</time>
      </trkpt>
      <trkpt lat="42.3357" lon="2.51899">
        <ele>1409.078</ele>
        <time>2014-02-15T11:49:27Z</time>
      </trkpt>
      <trkpt lat="42.33572" lon="2.51885">
        <ele>1405.697</ele>
        <time>2014-02-15T11:49:31Z</time>
      </trkpt>
      <trkpt lat="42.33575" lon="2.51862">
        <ele>1401.764</ele>
        <time>2014-02-15T11:49:38Z</time>
      </trkpt>
      <trkpt lat="42.33576" lon="2.51859">
        <ele>1401.766</ele>
        <time>2014-02-15T11:49:39Z</time>
      </trkpt>
      <trkpt lat="42.33578" lon="2.51848">
        <ele>1400.322</ele>
        <time>2014-02-15T11:49:42Z</time>
      </trkpt>
      <trkpt lat="42.33578" lon="2.51838">
        <ele>1398.962</ele>
        <time>2014-02-15T11:49:45Z</time>
      </trkpt>
      <trkpt lat="42.33578" lon="2.51825">
        <ele>1397.908</ele>
        <time>2014-02-15T11:49:49Z</time>
      </trkpt>
      <trkpt lat="42.33581" lon="2.51805">
        <ele>1395.007</ele>
        <time>2014-02-15T11:49:55Z</time>
      </trkpt>
      <trkpt lat="42.33586" lon="2.51785">
        <ele>1393.178</ele>
        <time>2014-02-15T11:50:01Z</time>
      </trkpt>
      <trkpt lat="42.33588" lon="2.51772">
        <ele>1389.773</ele>
        <time>2014-02-15T11:50:05Z</time>
      </trkpt>
      <trkpt lat="42.3359" lon="2.51752">
        <ele>1387.386</ele>
        <time>2014-02-15T11:50:11Z</time>
      </trkpt>
      <trkpt lat="42.33592" lon="2.51745">
        <ele>1387.391</ele>
        <time>2014-02-15T11:50:13Z</time>
      </trkpt>
      <trkpt lat="42.33591" lon="2.51731">
        <ele>1384.95</ele>
        <time>2014-02-15T11:50:18Z</time>
      </trkpt>
      <trkpt lat="42.33592" lon="2.51719">
        <ele>1384.017</ele>
        <time>2014-02-15T11:50:22Z</time>
      </trkpt>
      <trkpt lat="42.33592" lon="2.51709">
        <ele>1382.099</ele>
        <time>2014-02-15T11:50:25Z</time>
      </trkpt>
      <trkpt lat="42.33592" lon="2.51692">
        <ele>1380.155</ele>
        <time>2014-02-15T11:50:30Z</time>
      </trkpt>
      <trkpt lat="42.33593" lon="2.51685">
        <ele>1379.207</ele>
        <time>2014-02-15T11:50:32Z</time>
      </trkpt>
      <trkpt lat="42.33597" lon="2.51669">
        <ele>1376.817</ele>
        <time>2014-02-15T11:50:38Z</time>
      </trkpt>
      <trkpt lat="42.336" lon="2.51653">
        <ele>1373.907</ele>
        <time>2014-02-15T11:50:44Z</time>
      </trkpt>
      <trkpt lat="42.336" lon="2.5165">
        <ele>1374.331</ele>
        <time>2014-02-15T11:50:45Z</time>
      </trkpt>
      <trkpt lat="42.33602" lon="2.51637">
        <ele>1371.096</ele>
        <time>2014-02-15T11:50:51Z</time>
      </trkpt>
      <trkpt lat="42.33603" lon="2.51632">
        <ele>1369.579</ele>
        <time>2014-02-15T11:50:53Z</time>
      </trkpt>
      <trkpt lat="42.33604" lon="2.51627">
        <ele>1368.114</ele>
        <time>2014-02-15T11:50:55Z</time>
      </trkpt>
      <trkpt lat="42.33604" lon="2.51616">
        <ele>1365.713</ele>
        <time>2014-02-15T11:51:00Z</time>
      </trkpt>
      <trkpt lat="42.33606" lon="2.51606">
        <ele>1362.86</ele>
        <time>2014-02-15T11:51:04Z</time>
      </trkpt>
      <trkpt lat="42.33611" lon="2.51605">
        <ele>1360.462</ele>
        <time>2014-02-15T11:51:09Z</time>
      </trkpt>
      <trkpt lat="42.33613" lon="2.51604">
        <ele>1359.029</ele>
        <time>2014-02-15T11:51:11Z</time>
      </trkpt>
      <trkpt lat="42.33615" lon="2.51603">
        <ele>1357.5</ele>
        <time>2014-02-15T11:51:13Z</time>
      </trkpt>
      <trkpt lat="42.33615" lon="2.516">
        <ele>1358.02</ele>
        <time>2014-02-15T11:51:15Z</time>
      </trkpt>
      <trkpt lat="42.33616" lon="2.51597">
        <ele>1357.007</ele>
        <time>2014-02-15T11:51:17Z</time>
      </trkpt>
      <trkpt lat="42.33615" lon="2.51591">
        <ele>1355.628</ele>
        <time>2014-02-15T11:51:21Z</time>
      </trkpt>
      <trkpt lat="42.33615" lon="2.5159">
        <ele>1354.633</ele>
        <time>2014-02-15T11:51:22Z</time>
      </trkpt>
      <trkpt lat="42.33613" lon="2.51583">
        <ele>1353.296</ele>
        <time>2014-02-15T11:51:27Z</time>
      </trkpt>
      <trkpt lat="42.33613" lon="2.5157">
        <ele>1350.841</ele>
        <time>2014-02-15T11:51:34Z</time>
      </trkpt>
      <trkpt lat="42.33614" lon="2.51564">
        <ele>1349.84</ele>
        <time>2014-02-15T11:51:36Z</time>
      </trkpt>
      <trkpt lat="42.33616" lon="2.5155">
        <ele>1347.917</ele>
        <time>2014-02-15T11:51:42Z</time>
      </trkpt>
      <trkpt lat="42.33618" lon="2.5154">
        <ele>1345.089</ele>
        <time>2014-02-15T11:51:47Z</time>
      </trkpt>
      <trkpt lat="42.33628" lon="2.51528">
        <ele>1342.664</ele>
        <time>2014-02-15T11:51:55Z</time>
      </trkpt>
      <trkpt lat="42.3364" lon="2.51519">
        <ele>1339.306</ele>
        <time>2014-02-15T11:52:04Z</time>
      </trkpt>
      <trkpt lat="42.33658" lon="2.5149">
        <ele>1336.416</ele>
        <time>2014-02-15T11:52:21Z</time>
      </trkpt>
      <trkpt lat="42.33668" lon="2.51474">
        <ele>1334.007</ele>
        <time>2014-02-15T11:52:30Z</time>
      </trkpt>
      <trkpt lat="42.33671" lon="2.51473">
        <ele>1332.552</ele>
        <time>2014-02-15T11:52:33Z</time>
      </trkpt>
      <trkpt lat="42.33672" lon="2.51474">
        <ele>1332.087</ele>
        <time>2014-02-15T11:52:35Z</time>
      </trkpt>
      <trkpt lat="42.33684" lon="2.51456">
        <ele>1329.65</ele>
        <time>2014-02-15T11:52:49Z</time>
      </trkpt>
      <trkpt lat="42.33686" lon="2.51455">
        <ele>1329.245</ele>
        <time>2014-02-15T11:52:51Z</time>
      </trkpt>
      <trkpt lat="42.33689" lon="2.51451">
        <ele>1329.244</ele>
        <time>2014-02-15T11:52:55Z</time>
      </trkpt>
      <trkpt lat="42.33696" lon="2.51437">
        <ele>1327.251</ele>
        <time>2014-02-15T11:53:09Z</time>
      </trkpt>
      <trkpt lat="42.33699" lon="2.51422">
        <ele>1329.243</ele>
        <time>2014-02-15T11:53:21Z</time>
      </trkpt>
      <trkpt lat="42.33701" lon="2.51412">
        <ele>1332.067</ele>
        <time>2014-02-15T11:53:35Z</time>
      </trkpt>
      <trkpt lat="42.33704" lon="2.51399">
        <ele>1332.081</ele>
        <time>2014-02-15T11:53:49Z</time>
      </trkpt>
      <trkpt lat="42.33708" lon="2.51382">
        <ele>1332.519</ele>
        <time>2014-02-15T11:54:02Z</time>
      </trkpt>
      <trkpt lat="42.33716" lon="2.51363">
        <ele>1332.507</ele>
        <time>2014-02-15T11:54:17Z</time>
      </trkpt>
      <trkpt lat="42.33721" lon="2.51351">
        <ele>1333.592</ele>
        <time>2014-02-15T11:54:28Z</time>
      </trkpt>
      <trkpt lat="42.33721" lon="2.51335">
        <ele>1333.587</ele>
        <time>2014-02-15T11:54:43Z</time>
      </trkpt>
      <trkpt lat="42.33723" lon="2.51326">
        <ele>1334.07</ele>
        <time>2014-02-15T11:54:47Z</time>
      </trkpt>
      <trkpt lat="42.33723" lon="2.513">
        <ele>1334.585</ele>
        <time>2014-02-15T11:55:00Z</time>
      </trkpt>
      <trkpt lat="42.33726" lon="2.51263">
        <ele>1334.984</ele>
        <time>2014-02-15T11:55:15Z</time>
      </trkpt>
      <trkpt lat="42.33734" lon="2.51235">
        <ele>1336.471</ele>
        <time>2014-02-15T11:55:29Z</time>
      </trkpt>
      <trkpt lat="42.33738" lon="2.51223">
        <ele>1337.873</ele>
        <time>2014-02-15T11:55:36Z</time>
      </trkpt>
      <trkpt lat="42.33741" lon="2.51215">
        <ele>1337.364</ele>
        <time>2014-02-15T11:55:41Z</time>
      </trkpt>
      <trkpt lat="42.3375" lon="2.51207">
        <ele>1336.906</ele>
        <time>2014-02-15T11:55:48Z</time>
      </trkpt>
      <trkpt lat="42.33764" lon="2.51185">
        <ele>1338.316</ele>
        <time>2014-02-15T11:56:04Z</time>
      </trkpt>
      <trkpt lat="42.33779" lon="2.51158">
        <ele>1339.707</ele>
        <time>2014-02-15T11:56:22Z</time>
      </trkpt>
      <trkpt lat="42.33794" lon="2.51135">
        <ele>1339.732</ele>
        <time>2014-02-15T11:56:35Z</time>
      </trkpt>
      <trkpt lat="42.33806" lon="2.51131">
        <ele>1340.767</ele>
        <time>2014-02-15T11:56:46Z</time>
      </trkpt>
      <trkpt lat="42.33827" lon="2.51123">
        <ele>1344.18</ele>
        <time>2014-02-15T11:57:01Z</time>
      </trkpt>
      <trkpt lat="42.33834" lon="2.51119">
        <ele>1344.545</ele>
        <time>2014-02-15T11:57:08Z</time>
      </trkpt>
      <trkpt lat="42.33837" lon="2.51118">
        <ele>1344.114</ele>
        <time>2014-02-15T11:57:10Z</time>
      </trkpt>
      <trkpt lat="42.33852" lon="2.51106">
        <ele>1342.641</ele>
        <time>2014-02-15T11:57:26Z</time>
      </trkpt>
      <trkpt lat="42.33858" lon="2.51092">
        <ele>1343.173</ele>
        <time>2014-02-15T11:57:39Z</time>
      </trkpt>
      <trkpt lat="42.3386" lon="2.51086">
        <ele>1343.629</ele>
        <time>2014-02-15T11:57:43Z</time>
      </trkpt>
      <trkpt lat="42.33881" lon="2.51067">
        <ele>1345.5</ele>
        <time>2014-02-15T11:57:57Z</time>
      </trkpt>
      <trkpt lat="42.3389" lon="2.5106">
        <ele>1346.52</ele>
        <time>2014-02-15T11:58:10Z</time>
      </trkpt>
      <trkpt lat="42.33892" lon="2.51061">
        <ele>1346.907</ele>
        <time>2014-02-15T11:58:16Z</time>
      </trkpt>
      <trkpt lat="42.33903" lon="2.51055">
        <ele>1348.468</ele>
        <time>2014-02-15T11:58:27Z</time>
      </trkpt>
      <trkpt lat="42.33913" lon="2.51053">
        <ele>1351.333</ele>
        <time>2014-02-15T11:58:40Z</time>
      </trkpt>
      <trkpt lat="42.33915" lon="2.51052">
        <ele>1351.376</ele>
        <time>2014-02-15T11:58:42Z</time>
      </trkpt>
      <trkpt lat="42.3392" lon="2.51042">
        <ele>1353.791</ele>
        <time>2014-02-15T11:58:50Z</time>
      </trkpt>
      <trkpt lat="42.3393" lon="2.51025">
        <ele>1354.65</ele>
        <time>2014-02-15T11:59:03Z</time>
      </trkpt>
      <trkpt lat="42.33931" lon="2.51023">
        <ele>1354.677</ele>
        <time>2014-02-15T11:59:04Z</time>
      </trkpt>
      <trkpt lat="42.33951" lon="2.50997">
        <ele>1353.259</ele>
        <time>2014-02-15T11:59:16Z</time>
      </trkpt>
      <trkpt lat="42.33963" lon="2.50967">
        <ele>1354.259</ele>
        <time>2014-02-15T11:59:28Z</time>
      </trkpt>
      <trkpt lat="42.33978" lon="2.50934">
        <ele>1353.703</ele>
        <time>2014-02-15T11:59:42Z</time>
      </trkpt>
      <trkpt lat="42.3399" lon="2.50906">
        <ele>1353.223</ele>
        <time>2014-02-15T11:59:53Z</time>
      </trkpt>
      <trkpt lat="42.33998" lon="2.50886">
        <ele>1349.807</ele>
        <time>2014-02-15T12:00:00Z</time>
      </trkpt>
      <trkpt lat="42.34004" lon="2.50876">
        <ele>1350.881</ele>
        <time>2014-02-15T12:00:05Z</time>
      </trkpt>
      <trkpt lat="42.34008" lon="2.50869">
        <ele>1349.486</ele>
        <time>2014-02-15T12:00:09Z</time>
      </trkpt>
      <trkpt lat="42.3402" lon="2.50845">
        <ele>1348.479</ele>
        <time>2014-02-15T12:00:22Z</time>
      </trkpt>
      <trkpt lat="42.34021" lon="2.50844">
        <ele>1347.944</ele>
        <time>2014-02-15T12:00:23Z</time>
      </trkpt>
      <trkpt lat="42.34024" lon="2.50838">
        <ele>1348.433</ele>
        <time>2014-02-15T12:00:27Z</time>
      </trkpt>
      <trkpt lat="42.34029" lon="2.50829">
        <ele>1348.48</ele>
        <time>2014-02-15T12:00:32Z</time>
      </trkpt>
      <trkpt lat="42.34036" lon="2.50808">
        <ele>1349.432</ele>
        <time>2014-02-15T12:00:44Z</time>
      </trkpt>
      <trkpt lat="42.34044" lon="2.50794">
        <ele>1350.835</ele>
        <time>2014-02-15T12:00:54Z</time>
      </trkpt>
      <trkpt lat="42.34045" lon="2.50793">
        <ele>1351.386</ele>
        <time>2014-02-15T12:00:56Z</time>
      </trkpt>
      <trkpt lat="42.34049" lon="2.50784">
        <ele>1353.214</ele>
        <time>2014-02-15T12:01:05Z</time>
      </trkpt>
      <trkpt lat="42.34053" lon="2.50772">
        <ele>1354.207</ele>
        <time>2014-02-15T12:01:14Z</time>
      </trkpt>
      <trkpt lat="42.34056" lon="2.50767">
        <ele>1355.629</ele>
        <time>2014-02-15T12:01:18Z</time>
      </trkpt>
      <trkpt lat="42.34064" lon="2.50748">
        <ele>1357.064</ele>
        <time>2014-02-15T12:01:31Z</time>
      </trkpt>
      <trkpt lat="42.34068" lon="2.50742">
        <ele>1357.037</ele>
        <time>2014-02-15T12:01:36Z</time>
      </trkpt>
      <trkpt lat="42.34078" lon="2.50726">
        <ele>1358.532</ele>
        <time>2014-02-15T12:01:50Z</time>
      </trkpt>
      <trkpt lat="42.34079" lon="2.50724">
        <ele>1359.061</ele>
        <time>2014-02-15T12:01:52Z</time>
      </trkpt>
      <trkpt lat="42.34083" lon="2.50717">
        <ele>1360.958</ele>
        <time>2014-02-15T12:01:58Z</time>
      </trkpt>
      <trkpt lat="42.34089" lon="2.50705">
        <ele>1363.38</ele>
        <time>2014-02-15T12:02:12Z</time>
      </trkpt>
      <trkpt lat="42.3409" lon="2.50702">
        <ele>1364.757</ele>
        <time>2014-02-15T12:02:15Z</time>
      </trkpt>
      <trkpt lat="42.34093" lon="2.50698">
        <ele>1365.7</ele>
        <time>2014-02-15T12:02:21Z</time>
      </trkpt>
      <trkpt lat="42.34095" lon="2.50691">
        <ele>1369.12</ele>
        <time>2014-02-15T12:02:31Z</time>
      </trkpt>
      <trkpt lat="42.34096" lon="2.50685">
        <ele>1371.507</ele>
        <time>2014-02-15T12:02:40Z</time>
      </trkpt>
      <trkpt lat="42.34101" lon="2.50674">
        <ele>1374.311</ele>
        <time>2014-02-15T12:02:52Z</time>
      </trkpt>
      <trkpt lat="42.34107" lon="2.50666">
        <ele>1377.256</ele>
        <time>2014-02-15T12:03:05Z</time>
      </trkpt>
      <trkpt lat="42.34111" lon="2.50663">
        <ele>1380.619</ele>
        <time>2014-02-15T12:03:12Z</time>
      </trkpt>
      <trkpt lat="42.34111" lon="2.50662">
        <ele>1380.694</ele>
        <time>2014-02-15T12:03:13Z</time>
      </trkpt>
      <trkpt lat="42.34117" lon="2.50653">
        <ele>1382.083</ele>
        <time>2014-02-15T12:03:23Z</time>
      </trkpt>
      <trkpt lat="42.34121" lon="2.50643">
        <ele>1384.97</ele>
        <time>2014-02-15T12:03:35Z</time>
      </trkpt>
      <trkpt lat="42.34123" lon="2.50637">
        <ele>1387.882</ele>
        <time>2014-02-15T12:03:44Z</time>
      </trkpt>
      <trkpt lat="42.34124" lon="2.50636">
        <ele>1388.361</ele>
        <time>2014-02-15T12:03:45Z</time>
      </trkpt>
      <trkpt lat="42.3413" lon="2.50625">
        <ele>1391.221</ele>
        <time>2014-02-15T12:03:57Z</time>
      </trkpt>
      <trkpt lat="42.34138" lon="2.5061">
        <ele>1394.513</ele>
        <time>2014-02-15T12:04:11Z</time>
      </trkpt>
      <trkpt lat="42.34142" lon="2.50598">
        <ele>1396.507</ele>
        <time>2014-02-15T12:04:25Z</time>
      </trkpt>
      <trkpt lat="42.34144" lon="2.50599">
        <ele>1396.582</ele>
        <time>2014-02-15T12:04:39Z</time>
      </trkpt>
      <trkpt lat="42.34144" lon="2.506">
        <ele>1395.597</ele>
        <time>2014-02-15T12:05:00Z</time>
      </trkpt>
      <trkpt lat="42.3414" lon="2.50594">
        <ele>1396.59</ele>
        <time>2014-02-15T12:05:25Z</time>
      </trkpt>
      <trkpt lat="42.34137" lon="2.50589">
        <ele>1396.535</ele>
        <time>2014-02-15T12:05:50Z</time>
      </trkpt>
      <trkpt lat="42.34139" lon="2.5059">
        <ele>1396.594</ele>
        <time>2014-02-15T12:06:13Z</time>
      </trkpt>
      <trkpt lat="42.34141" lon="2.50592">
        <ele>1395.531</ele>
        <time>2014-02-15T12:06:37Z</time>
      </trkpt>
      <trkpt lat="42.34143" lon="2.50593">
        <ele>1396.063</ele>
        <time>2014-02-15T12:06:50Z</time>
      </trkpt>
      <trkpt lat="42.34147" lon="2.50586">
        <ele>1396.585</ele>
        <time>2014-02-15T12:07:00Z</time>
      </trkpt>
      <trkpt lat="42.34154" lon="2.50575">
        <ele>1396.089</ele>
        <time>2014-02-15T12:07:09Z</time>
      </trkpt>
      <trkpt lat="42.34159" lon="2.50567">
        <ele>1399.317</ele>
        <time>2014-02-15T12:07:20Z</time>
      </trkpt>
      <trkpt lat="42.34162" lon="2.50555">
        <ele>1398.907</ele>
        <time>2014-02-15T12:07:34Z</time>
      </trkpt>
      <trkpt lat="42.34161" lon="2.50536">
        <ele>1396.914</ele>
        <time>2014-02-15T12:07:44Z</time>
      </trkpt>
      <trkpt lat="42.3416" lon="2.50533">
        <ele>1396.039</ele>
        <time>2014-02-15T12:07:46Z</time>
      </trkpt>
      <trkpt lat="42.34158" lon="2.50525">
        <ele>1394.592</ele>
        <time>2014-02-15T12:07:51Z</time>
      </trkpt>
      <trkpt lat="42.34158" lon="2.50517">
        <ele>1392.677</ele>
        <time>2014-02-15T12:07:57Z</time>
      </trkpt>
      <trkpt lat="42.34159" lon="2.50497">
        <ele>1390.226</ele>
        <time>2014-02-15T12:08:09Z</time>
      </trkpt>
      <trkpt lat="42.3416" lon="2.50482">
        <ele>1386.863</ele>
        <time>2014-02-15T12:08:21Z</time>
      </trkpt>
      <trkpt lat="42.3416" lon="2.5048">
        <ele>1385.975</ele>
        <time>2014-02-15T12:08:23Z</time>
      </trkpt>
      <trkpt lat="42.34159" lon="2.50471">
        <ele>1382.543</ele>
        <time>2014-02-15T12:08:32Z</time>
      </trkpt>
      <trkpt lat="42.34159" lon="2.5047">
        <ele>1382.564</ele>
        <time>2014-02-15T12:08:33Z</time>
      </trkpt>
      <trkpt lat="42.3416" lon="2.50465">
        <ele>1381.11</ele>
        <time>2014-02-15T12:08:36Z</time>
      </trkpt>
      <trkpt lat="42.34157" lon="2.50451">
        <ele>1378.207</ele>
        <time>2014-02-15T12:08:46Z</time>
      </trkpt>
      <trkpt lat="42.34158" lon="2.50435">
        <ele>1377.78</ele>
        <time>2014-02-15T12:08:57Z</time>
      </trkpt>
      <trkpt lat="42.3416" lon="2.50405">
        <ele>1378.715</ele>
        <time>2014-02-15T12:09:12Z</time>
      </trkpt>
      <trkpt lat="42.34161" lon="2.50394">
        <ele>1378.268</ele>
        <time>2014-02-15T12:09:20Z</time>
      </trkpt>
      <trkpt lat="42.3416" lon="2.5039">
        <ele>1377.713</ele>
        <time>2014-02-15T12:09:23Z</time>
      </trkpt>
      <trkpt lat="42.34159" lon="2.50373">
        <ele>1377.782</ele>
        <time>2014-02-15T12:09:36Z</time>
      </trkpt>
      <trkpt lat="42.34163" lon="2.50358">
        <ele>1377.289</ele>
        <time>2014-02-15T12:09:47Z</time>
      </trkpt>
      <trkpt lat="42.34163" lon="2.50356">
        <ele>1376.391</ele>
        <time>2014-02-15T12:09:50Z</time>
      </trkpt>
      <trkpt lat="42.34164" lon="2.50351">
        <ele>1375.323</ele>
        <time>2014-02-15T12:09:55Z</time>
      </trkpt>
      <trkpt lat="42.34168" lon="2.50337">
        <ele>1375.883</ele>
        <time>2014-02-15T12:10:04Z</time>
      </trkpt>
      <trkpt lat="42.34172" lon="2.50327">
        <ele>1376.311</ele>
        <time>2014-02-15T12:10:13Z</time>
      </trkpt>
      <trkpt lat="42.34174" lon="2.50309">
        <ele>1377.207</ele>
        <time>2014-02-15T12:10:26Z</time>
      </trkpt>
      <trkpt lat="42.34174" lon="2.50305">
        <ele>1377.748</ele>
        <time>2014-02-15T12:10:28Z</time>
      </trkpt>
      <trkpt lat="42.34181" lon="2.50285">
        <ele>1373.973</ele>
        <time>2014-02-15T12:10:41Z</time>
      </trkpt>
      <trkpt lat="42.34182" lon="2.50283">
        <ele>1373.916</ele>
        <time>2014-02-15T12:10:42Z</time>
      </trkpt>
      <trkpt lat="42.34183" lon="2.50282">
        <ele>1372.911</ele>
        <time>2014-02-15T12:10:43Z</time>
      </trkpt>
      <trkpt lat="42.34188" lon="2.50278">
        <ele>1371.51</ele>
        <time>2014-02-15T12:10:48Z</time>
      </trkpt>
      <trkpt lat="42.34194" lon="2.50267">
        <ele>1368.187</ele>
        <time>2014-02-15T12:10:58Z</time>
      </trkpt>
      <trkpt lat="42.34195" lon="2.50263">
        <ele>1368.649</ele>
        <time>2014-02-15T12:11:00Z</time>
      </trkpt>
      <trkpt lat="42.34196" lon="2.50261">
        <ele>1367.695</ele>
        <time>2014-02-15T12:11:02Z</time>
      </trkpt>
      <trkpt lat="42.342" lon="2.50258">
        <ele>1366.749</ele>
        <time>2014-02-15T12:11:06Z</time>
      </trkpt>
      <trkpt lat="42.34203" lon="2.50251">
        <ele>1365.723</ele>
        <time>2014-02-15T12:11:10Z</time>
      </trkpt>
      <trkpt lat="42.34212" lon="2.50231">
        <ele>1363.307</ele>
        <time>2014-02-15T12:11:22Z</time>
      </trkpt>
      <trkpt lat="42.34218" lon="2.5022">
        <ele>1361.865</ele>
        <time>2014-02-15T12:11:27Z</time>
      </trkpt>
      <trkpt lat="42.34224" lon="2.50204">
        <ele>1363.35</ele>
        <time>2014-02-15T12:11:36Z</time>
      </trkpt>
      <trkpt lat="42.34228" lon="2.50196">
        <ele>1363.333</ele>
        <time>2014-02-15T12:11:41Z</time>
      </trkpt>
      <trkpt lat="42.34243" lon="2.50168">
        <ele>1366.788</ele>
        <time>2014-02-15T12:11:59Z</time>
      </trkpt>
      <trkpt lat="42.34246" lon="2.50156">
        <ele>1368.197</ele>
        <time>2014-02-15T12:12:10Z</time>
      </trkpt>
      <trkpt lat="42.34248" lon="2.50146">
        <ele>1370.594</ele>
        <time>2014-02-15T12:12:19Z</time>
      </trkpt>
      <trkpt lat="42.34251" lon="2.5014">
        <ele>1370.556</ele>
        <time>2014-02-15T12:12:24Z</time>
      </trkpt>
      <trkpt lat="42.34258" lon="2.50124">
        <ele>1374.343</ele>
        <time>2014-02-15T12:12:40Z</time>
      </trkpt>
      <trkpt lat="42.34261" lon="2.50117">
        <ele>1375.364</ele>
        <time>2014-02-15T12:12:46Z</time>
      </trkpt>
      <trkpt lat="42.34266" lon="2.50108">
        <ele>1378.71</ele>
        <time>2014-02-15T12:12:55Z</time>
      </trkpt>
      <trkpt lat="42.3427" lon="2.501">
        <ele>1379.207</ele>
        <time>2014-02-15T12:13:02Z</time>
      </trkpt>
      <trkpt lat="42.34276" lon="2.50091">
        <ele>1375.32</ele>
        <time>2014-02-15T12:13:10Z</time>
      </trkpt>
      <trkpt lat="42.34276" lon="2.5009">
        <ele>1375.365</ele>
        <time>2014-02-15T12:13:11Z</time>
      </trkpt>
      <trkpt lat="42.34286" lon="2.50083">
        <ele>1371.548</ele>
        <time>2014-02-15T12:13:18Z</time>
      </trkpt>
      <trkpt lat="42.34294" lon="2.50077">
        <ele>1371.953</ele>
        <time>2014-02-15T12:13:25Z</time>
      </trkpt>
      <trkpt lat="42.34299" lon="2.50068">
        <ele>1375.882</ele>
        <time>2014-02-15T12:13:35Z</time>
      </trkpt>
      <trkpt lat="42.34302" lon="2.50062">
        <ele>1377.789</ele>
        <time>2014-02-15T12:13:41Z</time>
      </trkpt>
      <trkpt lat="42.34303" lon="2.50057">
        <ele>1377.211</ele>
        <time>2014-02-15T12:13:47Z</time>
      </trkpt>
      <trkpt lat="42.34306" lon="2.50053">
        <ele>1378.233</ele>
        <time>2014-02-15T12:13:52Z</time>
      </trkpt>
      <trkpt lat="42.34308" lon="2.50047">
        <ele>1379.223</ele>
        <time>2014-02-15T12:13:56Z</time>
      </trkpt>
      <trkpt lat="42.34309" lon="2.50043">
        <ele>1380.615</ele>
        <time>2014-02-15T12:14:02Z</time>
      </trkpt>
      <trkpt lat="42.34313" lon="2.50032">
        <ele>1381.107</ele>
        <time>2014-02-15T12:14:13Z</time>
      </trkpt>
      <trkpt lat="42.34315" lon="2.50031">
        <ele>1380.649</ele>
        <time>2014-02-15T12:14:17Z</time>
      </trkpt>
      <trkpt lat="42.34321" lon="2.50029">
        <ele>1382.584</ele>
        <time>2014-02-15T12:14:26Z</time>
      </trkpt>
      <trkpt lat="42.34325" lon="2.50013">
        <ele>1383.057</ele>
        <time>2014-02-15T12:14:39Z</time>
      </trkpt>
      <trkpt lat="42.34323" lon="2.49995">
        <ele>1379.682</ele>
        <time>2014-02-15T12:14:51Z</time>
      </trkpt>
      <trkpt lat="42.34323" lon="2.49993">
        <ele>1379.291</ele>
        <time>2014-02-15T12:14:52Z</time>
      </trkpt>
      <trkpt lat="42.34326" lon="2.49988">
        <ele>1378.268</ele>
        <time>2014-02-15T12:14:56Z</time>
      </trkpt>
      <trkpt lat="42.34326" lon="2.49984">
        <ele>1377.71</ele>
        <time>2014-02-15T12:14:59Z</time>
      </trkpt>
      <trkpt lat="42.34325" lon="2.49981">
        <ele>1376.871</ele>
        <time>2014-02-15T12:15:01Z</time>
      </trkpt>
      <trkpt lat="42.34322" lon="2.49957">
        <ele>1375.341</ele>
        <time>2014-02-15T12:15:15Z</time>
      </trkpt>
      <trkpt lat="42.34321" lon="2.49953">
        <ele>1375.815</ele>
        <time>2014-02-15T12:15:18Z</time>
      </trkpt>
      <trkpt lat="42.34321" lon="2.49937">
        <ele>1377.207</ele>
        <time>2014-02-15T12:15:28Z</time>
      </trkpt>
      <trkpt lat="42.34319" lon="2.49924">
        <ele>1377.783</ele>
        <time>2014-02-15T12:15:35Z</time>
      </trkpt>
      <trkpt lat="42.34317" lon="2.49911">
        <ele>1378.778</ele>
        <time>2014-02-15T12:15:42Z</time>
      </trkpt>
      <trkpt lat="42.34316" lon="2.49908">
        <ele>1377.271</ele>
        <time>2014-02-15T12:15:44Z</time>
      </trkpt>
      <trkpt lat="42.34314" lon="2.49898">
        <ele>1375.816</ele>
        <time>2014-02-15T12:15:49Z</time>
      </trkpt>
      <trkpt lat="42.34303" lon="2.49869">
        <ele>1372.445</ele>
        <time>2014-02-15T12:16:05Z</time>
      </trkpt>
      <trkpt lat="42.34297" lon="2.49838">
        <ele>1371.072</ele>
        <time>2014-02-15T12:16:20Z</time>
      </trkpt>
      <trkpt lat="42.34298" lon="2.49833">
        <ele>1370.054</ele>
        <time>2014-02-15T12:16:24Z</time>
      </trkpt>
      <trkpt lat="42.34298" lon="2.4983">
        <ele>1368.616</ele>
        <time>2014-02-15T12:16:26Z</time>
      </trkpt>
      <trkpt lat="42.34299" lon="2.49822">
        <ele>1366.276</ele>
        <time>2014-02-15T12:16:31Z</time>
      </trkpt>
      <trkpt lat="42.343" lon="2.49813">
        <ele>1363.313</ele>
        <time>2014-02-15T12:16:41Z</time>
      </trkpt>
      <trkpt lat="42.343" lon="2.49804">
        <ele>1360.407</ele>
        <time>2014-02-15T12:16:49Z</time>
      </trkpt>
      <trkpt lat="42.34299" lon="2.49797">
        <ele>1357.017</ele>
        <time>2014-02-15T12:16:57Z</time>
      </trkpt>
      <trkpt lat="42.34298" lon="2.49788">
        <ele>1354.662</ele>
        <time>2014-02-15T12:17:06Z</time>
      </trkpt>
      <trkpt lat="42.34297" lon="2.49784">
        <ele>1353.725</ele>
        <time>2014-02-15T12:17:09Z</time>
      </trkpt>
      <trkpt lat="42.34297" lon="2.4978">
        <ele>1353.24</ele>
        <time>2014-02-15T12:17:12Z</time>
      </trkpt>
      <trkpt lat="42.34294" lon="2.49769">
        <ele>1349.869</ele>
        <time>2014-02-15T12:17:19Z</time>
      </trkpt>
      <trkpt lat="42.34294" lon="2.4976">
        <ele>1347.416</ele>
        <time>2014-02-15T12:17:31Z</time>
      </trkpt>
      <trkpt lat="42.34291" lon="2.49753">
        <ele>1346.998</ele>
        <time>2014-02-15T12:17:44Z</time>
      </trkpt>
      <trkpt lat="42.34288" lon="2.49751">
        <ele>1345.017</ele>
        <time>2014-02-15T12:17:50Z</time>
      </trkpt>
      <trkpt lat="42.34285" lon="2.49747">
        <ele>1342.687</ele>
        <time>2014-02-15T12:17:54Z</time>
      </trkpt>
      <trkpt lat="42.3428" lon="2.49732">
        <ele>1340.215</ele>
        <time>2014-02-15T12:18:07Z</time>
      </trkpt>
      <trkpt lat="42.3428" lon="2.49729">
        <ele>1339.707</ele>
        <time>2014-02-15T12:18:09Z</time>
      </trkpt>
      <trkpt lat="42.34279" lon="2.49726">
        <ele>1339.317</ele>
        <time>2014-02-15T12:18:11Z</time>
      </trkpt>
      <trkpt lat="42.34278" lon="2.49722">
        <ele>1338.852</ele>
        <time>2014-02-15T12:18:15Z</time>
      </trkpt>
      <trkpt lat="42.34275" lon="2.49718">
        <ele>1338.365</ele>
        <time>2014-02-15T12:18:35Z</time>
      </trkpt>
      <trkpt lat="42.34275" lon="2.49717">
        <ele>1338.84</ele>
        <time>2014-02-15T12:18:56Z</time>
      </trkpt>
      <trkpt lat="42.34276" lon="2.49712">
        <ele>1337.839</ele>
        <time>2014-02-15T12:19:08Z</time>
      </trkpt>
      <trkpt lat="42.34277" lon="2.49705">
        <ele>1336.946</ele>
        <time>2014-02-15T12:19:14Z</time>
      </trkpt>
      <trkpt lat="42.34279" lon="2.49702">
        <ele>1336.928</ele>
        <time>2014-02-15T12:19:17Z</time>
      </trkpt>
      <trkpt lat="42.34279" lon="2.49699">
        <ele>1337.345</ele>
        <time>2014-02-15T12:19:20Z</time>
      </trkpt>
      <trkpt lat="42.34281" lon="2.49693">
        <ele>1336.947</ele>
        <time>2014-02-15T12:19:25Z</time>
      </trkpt>
      <trkpt lat="42.34285" lon="2.49685">
        <ele>1339.311</ele>
        <time>2014-02-15T12:19:36Z</time>
      </trkpt>
      <trkpt lat="42.34284" lon="2.49677">
        <ele>1341.207</ele>
        <time>2014-02-15T12:19:45Z</time>
      </trkpt>
      <trkpt lat="42.34282" lon="2.49666">
        <ele>1340.24</ele>
        <time>2014-02-15T12:19:54Z</time>
      </trkpt>
      <trkpt lat="42.3428" lon="2.49659">
        <ele>1340.255</ele>
        <time>2014-02-15T12:20:00Z</time>
      </trkpt>
      <trkpt lat="42.34279" lon="2.49644">
        <ele>1338.878</ele>
        <time>2014-02-15T12:20:11Z</time>
      </trkpt>
      <trkpt lat="42.3428" lon="2.49636">
        <ele>1337.353</ele>
        <time>2014-02-15T12:20:25Z</time>
      </trkpt>
      <trkpt lat="42.34279" lon="2.49633">
        <ele>1335.932</ele>
        <time>2014-02-15T12:20:30Z</time>
      </trkpt>
      <trkpt lat="42.34281" lon="2.49625">
        <ele>1332.589</ele>
        <time>2014-02-15T12:20:38Z</time>
      </trkpt>
      <trkpt lat="42.34284" lon="2.49619">
        <ele>1330.661</ele>
        <time>2014-02-15T12:20:47Z</time>
      </trkpt>
      <trkpt lat="42.34284" lon="2.49618">
        <ele>1330.118</ele>
        <time>2014-02-15T12:20:48Z</time>
      </trkpt>
      <trkpt lat="42.34285" lon="2.49607">
        <ele>1327.798</ele>
        <time>2014-02-15T12:20:56Z</time>
      </trkpt>
      <trkpt lat="42.3428" lon="2.49591">
        <ele>1326.817</ele>
        <time>2014-02-15T12:21:06Z</time>
      </trkpt>
      <trkpt lat="42.34278" lon="2.49582">
        <ele>1326.307</ele>
        <time>2014-02-15T12:21:11Z</time>
      </trkpt>
      <trkpt lat="42.34278" lon="2.49576">
        <ele>1325.357</ele>
        <time>2014-02-15T12:21:14Z</time>
      </trkpt>
      <trkpt lat="42.34278" lon="2.49569">
        <ele>1324.812</ele>
        <time>2014-02-15T12:21:18Z</time>
      </trkpt>
      <trkpt lat="42.34279" lon="2.49543">
        <ele>1323.975</ele>
        <time>2014-02-15T12:21:33Z</time>
      </trkpt>
      <trkpt lat="42.34277" lon="2.49523">
        <ele>1323.91</ele>
        <time>2014-02-15T12:21:47Z</time>
      </trkpt>
      <trkpt lat="42.34274" lon="2.49506">
        <ele>1322.969</ele>
        <time>2014-02-15T12:21:58Z</time>
      </trkpt>
      <trkpt lat="42.34272" lon="2.49486">
        <ele>1322.436</ele>
        <time>2014-02-15T12:22:12Z</time>
      </trkpt>
      <trkpt lat="42.3427" lon="2.49471">
        <ele>1321.578</ele>
        <time>2014-02-15T12:22:26Z</time>
      </trkpt>
      <trkpt lat="42.34262" lon="2.49454">
        <ele>1320.517</ele>
        <time>2014-02-15T12:22:42Z</time>
      </trkpt>
      <trkpt lat="42.34254" lon="2.49439">
        <ele>1320.587</ele>
        <time>2014-02-15T12:22:54Z</time>
      </trkpt>
      <trkpt lat="42.34252" lon="2.49437">
        <ele>1321.515</ele>
        <time>2014-02-15T12:22:56Z</time>
      </trkpt>
      <trkpt lat="42.34246" lon="2.49416">
        <ele>1321.507</ele>
        <time>2014-02-15T12:23:09Z</time>
      </trkpt>
      <trkpt lat="42.3424" lon="2.49387">
        <ele>1320.567</ele>
        <time>2014-02-15T12:23:24Z</time>
      </trkpt>
      <trkpt lat="42.34236" lon="2.49368">
        <ele>1319.652</ele>
        <time>2014-02-15T12:23:35Z</time>
      </trkpt>
      <trkpt lat="42.3423" lon="2.49345">
        <ele>1317.625</ele>
        <time>2014-02-15T12:23:48Z</time>
      </trkpt>
      <trkpt lat="42.3422" lon="2.49328">
        <ele>1319.13</ele>
        <time>2014-02-15T12:24:00Z</time>
      </trkpt>
      <trkpt lat="42.34218" lon="2.49321">
        <ele>1318.659</ele>
        <time>2014-02-15T12:24:04Z</time>
      </trkpt>
      <trkpt lat="42.34207" lon="2.49303">
        <ele>1317.686</ele>
        <time>2014-02-15T12:24:17Z</time>
      </trkpt>
      <trkpt lat="42.34195" lon="2.49293">
        <ele>1314.328</ele>
        <time>2014-02-15T12:24:26Z</time>
      </trkpt>
      <trkpt lat="42.34193" lon="2.4929">
        <ele>1313.348</ele>
        <time>2014-02-15T12:24:28Z</time>
      </trkpt>
      <trkpt lat="42.34188" lon="2.49279">
        <ele>1313.361</ele>
        <time>2014-02-15T12:24:34Z</time>
      </trkpt>
      <trkpt lat="42.34185" lon="2.49274">
        <ele>1313.817</ele>
        <time>2014-02-15T12:24:38Z</time>
      </trkpt>
      <trkpt lat="42.34182" lon="2.49267">
        <ele>1313.807</ele>
        <time>2014-02-15T12:24:42Z</time>
      </trkpt>
      <trkpt lat="42.34179" lon="2.49264">
        <ele>1312.88</ele>
        <time>2014-02-15T12:24:46Z</time>
      </trkpt>
      <trkpt lat="42.34181" lon="2.4926">
        <ele>1311.495</ele>
        <time>2014-02-15T12:24:56Z</time>
      </trkpt>
      <trkpt lat="42.34182" lon="2.49262">
        <ele>1309.948</ele>
        <time>2014-02-15T12:24:58Z</time>
      </trkpt>
      <trkpt lat="42.34184" lon="2.49263">
        <ele>1311.953</ele>
        <time>2014-02-15T12:25:00Z</time>
      </trkpt>
      <trkpt lat="42.34185" lon="2.49264">
        <ele>1312.382</ele>
        <time>2014-02-15T12:25:02Z</time>
      </trkpt>
      <trkpt lat="42.34186" lon="2.49266">
        <ele>1313.319</ele>
        <time>2014-02-15T12:25:04Z</time>
      </trkpt>
      <trkpt lat="42.34183" lon="2.49282">
        <ele>1310.411</ele>
        <time>2014-02-15T12:25:18Z</time>
      </trkpt>
      <trkpt lat="42.34181" lon="2.49287">
        <ele>1307.123</ele>
        <time>2014-02-15T12:25:24Z</time>
      </trkpt>
      <trkpt lat="42.34176" lon="2.4929">
        <ele>1303.783</ele>
        <time>2014-02-15T12:25:31Z</time>
      </trkpt>
      <trkpt lat="42.3417" lon="2.49291">
        <ele>1300.811</ele>
        <time>2014-02-15T12:25:38Z</time>
      </trkpt>
      <trkpt lat="42.34168" lon="2.49291">
        <ele>1298.407</ele>
        <time>2014-02-15T12:25:41Z</time>
      </trkpt>
      <trkpt lat="42.34164" lon="2.49296">
        <ele>1295.558</ele>
        <time>2014-02-15T12:25:50Z</time>
      </trkpt>
      <trkpt lat="42.34157" lon="2.49304">
        <ele>1291.763</ele>
        <time>2014-02-15T12:25:59Z</time>
      </trkpt>
      <trkpt lat="42.34153" lon="2.4931">
        <ele>1288.396</ele>
        <time>2014-02-15T12:26:05Z</time>
      </trkpt>
      <trkpt lat="42.34149" lon="2.49316">
        <ele>1286.441</ele>
        <time>2014-02-15T12:26:10Z</time>
      </trkpt>
      <trkpt lat="42.34146" lon="2.49295">
        <ele>1284.09</ele>
        <time>2014-02-15T12:26:23Z</time>
      </trkpt>
      <trkpt lat="42.34146" lon="2.49295">
        <ele>1284.027</ele>
        <time>2014-02-15T12:26:24Z</time>
      </trkpt>
      <trkpt lat="42.34144" lon="2.49292">
        <ele>1282.589</ele>
        <time>2014-02-15T12:26:26Z</time>
      </trkpt>
      <trkpt lat="42.34144" lon="2.4928">
        <ele>1280.611</ele>
        <time>2014-02-15T12:26:36Z</time>
      </trkpt>
      <trkpt lat="42.3414" lon="2.49267">
        <ele>1277.721</ele>
        <time>2014-02-15T12:26:49Z</time>
      </trkpt>
      <trkpt lat="42.34135" lon="2.49251">
        <ele>1275.303</ele>
        <time>2014-02-15T12:26:59Z</time>
      </trkpt>
      <trkpt lat="42.34136" lon="2.49236">
        <ele>1273.407</ele>
        <time>2014-02-15T12:27:10Z</time>
      </trkpt>
      <trkpt lat="42.34135" lon="2.49225">
        <ele>1271.587</ele>
        <time>2014-02-15T12:27:17Z</time>
      </trkpt>
      <trkpt lat="42.3414" lon="2.49201">
        <ele>1270.582</ele>
        <time>2014-02-15T12:27:31Z</time>
      </trkpt>
      <trkpt lat="42.34145" lon="2.49191">
        <ele>1267.615</ele>
        <time>2014-02-15T12:27:38Z</time>
      </trkpt>
      <trkpt lat="42.34155" lon="2.49183">
        <ele>1264.82</ele>
        <time>2014-02-15T12:27:49Z</time>
      </trkpt>
      <trkpt lat="42.3416" lon="2.49181">
        <ele>1261.979</ele>
        <time>2014-02-15T12:27:55Z</time>
      </trkpt>
      <trkpt lat="42.34168" lon="2.4918">
        <ele>1258.586</ele>
        <time>2014-02-15T12:28:05Z</time>
      </trkpt>
      <trkpt lat="42.34176" lon="2.49178">
        <ele>1255.628</ele>
        <time>2014-02-15T12:28:12Z</time>
      </trkpt>
      <trkpt lat="42.34184" lon="2.49173">
        <ele>1253.288</ele>
        <time>2014-02-15T12:28:21Z</time>
      </trkpt>
      <trkpt lat="42.34195" lon="2.4917">
        <ele>1251.824</ele>
        <time>2014-02-15T12:28:31Z</time>
      </trkpt>
      <trkpt lat="42.34201" lon="2.49167">
        <ele>1247.926</ele>
        <time>2014-02-15T12:28:38Z</time>
      </trkpt>
      <trkpt lat="42.34208" lon="2.49163">
        <ele>1245.507</ele>
        <time>2014-02-15T12:28:47Z</time>
      </trkpt>
      <trkpt lat="42.34218" lon="2.49154">
        <ele>1242.244</ele>
        <time>2014-02-15T12:28:56Z</time>
      </trkpt>
      <trkpt lat="42.34221" lon="2.49153">
        <ele>1244.649</ele>
        <time>2014-02-15T12:28:59Z</time>
      </trkpt>
      <trkpt lat="42.34224" lon="2.49153">
        <ele>1245.512</ele>
        <time>2014-02-15T12:29:03Z</time>
      </trkpt>
      <trkpt lat="42.34232" lon="2.49147">
        <ele>1247.587</ele>
        <time>2014-02-15T12:29:18Z</time>
      </trkpt>
      <trkpt lat="42.34236" lon="2.49146">
        <ele>1248.486</ele>
        <time>2014-02-15T12:29:29Z</time>
      </trkpt>
      <trkpt lat="42.34236" lon="2.49146">
        <ele>1247.953</ele>
        <time>2014-02-15T12:29:30Z</time>
      </trkpt>
      <trkpt lat="42.34241" lon="2.49135">
        <ele>1249.995</ele>
        <time>2014-02-15T12:29:48Z</time>
      </trkpt>
      <trkpt lat="42.34246" lon="2.49125">
        <ele>1247.567</ele>
        <time>2014-02-15T12:29:59Z</time>
      </trkpt>
      <trkpt lat="42.34247" lon="2.49114">
        <ele>1244.681</ele>
        <time>2014-02-15T12:30:07Z</time>
      </trkpt>
      <trkpt lat="42.3424" lon="2.49092">
        <ele>1243.119</ele>
        <time>2014-02-15T12:30:22Z</time>
      </trkpt>
      <trkpt lat="42.34235" lon="2.49073">
        <ele>1242.607</ele>
        <time>2014-02-15T12:30:33Z</time>
      </trkpt>
      <trkpt lat="42.34229" lon="2.49047">
        <ele>1242.252</ele>
        <time>2014-02-15T12:30:47Z</time>
      </trkpt>
      <trkpt lat="42.34221" lon="2.49027">
        <ele>1240.247</ele>
        <time>2014-02-15T12:31:02Z</time>
      </trkpt>
      <trkpt lat="42.34217" lon="2.49014">
        <ele>1240.75</ele>
        <time>2014-02-15T12:31:18Z</time>
      </trkpt>
      <trkpt lat="42.34213" lon="2.49001">
        <ele>1239.835</ele>
        <time>2014-02-15T12:31:36Z</time>
      </trkpt>
      <trkpt lat="42.34204" lon="2.48991">
        <ele>1237.874</ele>
        <time>2014-02-15T12:31:47Z</time>
      </trkpt>
      <trkpt lat="42.34197" lon="2.48982">
        <ele>1235.081</ele>
        <time>2014-02-15T12:31:57Z</time>
      </trkpt>
      <trkpt lat="42.34195" lon="2.4898">
        <ele>1234.523</ele>
        <time>2014-02-15T12:31:58Z</time>
      </trkpt>
      <trkpt lat="42.34179" lon="2.48967">
        <ele>1232.615</ele>
        <time>2014-02-15T12:32:10Z</time>
      </trkpt>
      <trkpt lat="42.34171" lon="2.48961">
        <ele>1232.665</ele>
        <time>2014-02-15T12:32:15Z</time>
      </trkpt>
      <trkpt lat="42.34163" lon="2.48956">
        <ele>1232.111</ele>
        <time>2014-02-15T12:32:21Z</time>
      </trkpt>
      <trkpt lat="42.34155" lon="2.4894">
        <ele>1230.107</ele>
        <time>2014-02-15T12:32:29Z</time>
      </trkpt>
      <trkpt lat="42.34142" lon="2.4891">
        <ele>1228.787</ele>
        <time>2014-02-15T12:32:44Z</time>
      </trkpt>
      <trkpt lat="42.34143" lon="2.48907">
        <ele>1228.242</ele>
        <time>2014-02-15T12:32:46Z</time>
      </trkpt>
      <trkpt lat="42.34136" lon="2.48885">
        <ele>1224.945</ele>
        <time>2014-02-15T12:33:01Z</time>
      </trkpt>
      <trkpt lat="42.34132" lon="2.48868">
        <ele>1222.92</ele>
        <time>2014-02-15T12:33:10Z</time>
      </trkpt>
      <trkpt lat="42.34118" lon="2.4885">
        <ele>1221.089</ele>
        <time>2014-02-15T12:33:24Z</time>
      </trkpt>
      <trkpt lat="42.34111" lon="2.48824">
        <ele>1220.566</ele>
        <time>2014-02-15T12:33:37Z</time>
      </trkpt>
      <trkpt lat="42.34113" lon="2.4881">
        <ele>1219.128</ele>
        <time>2014-02-15T12:33:43Z</time>
      </trkpt>
      <trkpt lat="42.34112" lon="2.48789">
        <ele>1216.241</ele>
        <time>2014-02-15T12:33:56Z</time>
      </trkpt>
      <trkpt lat="42.3411" lon="2.48767">
        <ele>1214.881</ele>
        <time>2014-02-15T12:34:09Z</time>
      </trkpt>
      <trkpt lat="42.34108" lon="2.4875">
        <ele>1213.809</ele>
        <time>2014-02-15T12:34:19Z</time>
      </trkpt>
      <trkpt lat="42.34108" lon="2.48744">
        <ele>1213.807</ele>
        <time>2014-02-15T12:34:22Z</time>
      </trkpt>
      <trkpt lat="42.34109" lon="2.48718">
        <ele>1210.96</ele>
        <time>2014-02-15T12:34:36Z</time>
      </trkpt>
      <trkpt lat="42.34109" lon="2.48716">
        <ele>1210.915</ele>
        <time>2014-02-15T12:34:37Z</time>
      </trkpt>
      <trkpt lat="42.34103" lon="2.48695">
        <ele>1209.528</ele>
        <time>2014-02-15T12:34:52Z</time>
      </trkpt>
      <trkpt lat="42.34099" lon="2.48675">
        <ele>1208.053</ele>
        <time>2014-02-15T12:35:05Z</time>
      </trkpt>
      <trkpt lat="42.34099" lon="2.48665">
        <ele>1206.192</ele>
        <time>2014-02-15T12:35:12Z</time>
      </trkpt>
      <trkpt lat="42.34097" lon="2.48651">
        <ele>1202.869</ele>
        <time>2014-02-15T12:35:22Z</time>
      </trkpt>
      <trkpt lat="42.34097" lon="2.48649">
        <ele>1202.331</ele>
        <time>2014-02-15T12:35:23Z</time>
      </trkpt>
      <trkpt lat="42.34096" lon="2.48642">
        <ele>1200.368</ele>
        <time>2014-02-15T12:35:28Z</time>
      </trkpt>
      <trkpt lat="42.34096" lon="2.48627">
        <ele>1198.442</ele>
        <time>2014-02-15T12:35:37Z</time>
      </trkpt>
      <trkpt lat="42.34095" lon="2.48621">
        <ele>1195.126</ele>
        <time>2014-02-15T12:35:41Z</time>
      </trkpt>
      <trkpt lat="42.34094" lon="2.48619">
        <ele>1195.107</ele>
        <time>2014-02-15T12:35:42Z</time>
      </trkpt>
      <trkpt lat="42.34093" lon="2.4859">
        <ele>1191.712</ele>
        <time>2014-02-15T12:35:54Z</time>
      </trkpt>
      <trkpt lat="42.34099" lon="2.48575">
        <ele>1193.697</ele>
        <time>2014-02-15T12:36:03Z</time>
      </trkpt>
      <trkpt lat="42.34102" lon="2.48572">
        <ele>1193.63</ele>
        <time>2014-02-15T12:36:07Z</time>
      </trkpt>
      <trkpt lat="42.34115" lon="2.48563">
        <ele>1191.225</ele>
        <time>2014-02-15T12:36:21Z</time>
      </trkpt>
      <trkpt lat="42.34118" lon="2.48556">
        <ele>1189.394</ele>
        <time>2014-02-15T12:36:27Z</time>
      </trkpt>
      <trkpt lat="42.3412" lon="2.48554">
        <ele>1188.311</ele>
        <time>2014-02-15T12:36:42Z</time>
      </trkpt>
      <trkpt lat="42.34121" lon="2.48548">
        <ele>1185.473</ele>
        <time>2014-02-15T12:36:59Z</time>
      </trkpt>
      <trkpt lat="42.34121" lon="2.48543">
        <ele>1185.413</ele>
        <time>2014-02-15T12:37:02Z</time>
      </trkpt>
      <trkpt lat="42.34121" lon="2.4853">
        <ele>1181.643</ele>
        <time>2014-02-15T12:37:09Z</time>
      </trkpt>
      <trkpt lat="42.34118" lon="2.48518">
        <ele>1179.707</ele>
        <time>2014-02-15T12:37:15Z</time>
      </trkpt>
      <trkpt lat="42.34117" lon="2.48508">
        <ele>1177.307</ele>
        <time>2014-02-15T12:37:21Z</time>
      </trkpt>
      <trkpt lat="42.34117" lon="2.48503">
        <ele>1175.427</ele>
        <time>2014-02-15T12:37:24Z</time>
      </trkpt>
      <trkpt lat="42.34118" lon="2.48492">
        <ele>1172.572</ele>
        <time>2014-02-15T12:37:31Z</time>
      </trkpt>
      <trkpt lat="42.34116" lon="2.48487">
        <ele>1171.545</ele>
        <time>2014-02-15T12:37:35Z</time>
      </trkpt>
      <trkpt lat="42.34113" lon="2.48457">
        <ele>1170.13</ele>
        <time>2014-02-15T12:37:49Z</time>
      </trkpt>
      <trkpt lat="42.34115" lon="2.48429">
        <ele>1170.189</ele>
        <time>2014-02-15T12:37:58Z</time>
      </trkpt>
      <trkpt lat="42.34113" lon="2.48421">
        <ele>1170.526</ele>
        <time>2014-02-15T12:38:02Z</time>
      </trkpt>
      <trkpt lat="42.34112" lon="2.48414">
        <ele>1169.628</ele>
        <time>2014-02-15T12:38:07Z</time>
      </trkpt>
      <trkpt lat="42.34107" lon="2.48395">
        <ele>1165.341</ele>
        <time>2014-02-15T12:38:23Z</time>
      </trkpt>
      <trkpt lat="42.34102" lon="2.48382">
        <ele>1164.381</ele>
        <time>2014-02-15T12:38:34Z</time>
      </trkpt>
      <trkpt lat="42.34095" lon="2.48359">
        <ele>1161.909</ele>
        <time>2014-02-15T12:38:46Z</time>
      </trkpt>
      <trkpt lat="42.34094" lon="2.48359">
        <ele>1161.907</ele>
        <time>2014-02-15T12:38:47Z</time>
      </trkpt>
      <trkpt lat="42.34086" lon="2.48339">
        <ele>1160.06</ele>
        <time>2014-02-15T12:38:57Z</time>
      </trkpt>
      <trkpt lat="42.34083" lon="2.48326">
        <ele>1156.675</ele>
        <time>2014-02-15T12:39:05Z</time>
      </trkpt>
      <trkpt lat="42.34084" lon="2.48308">
        <ele>1153.248</ele>
        <time>2014-02-15T12:39:12Z</time>
      </trkpt>
      <trkpt lat="42.34084" lon="2.483">
        <ele>1152.823</ele>
        <time>2014-02-15T12:39:16Z</time>
      </trkpt>
      <trkpt lat="42.34083" lon="2.48293">
        <ele>1150.822</ele>
        <time>2014-02-15T12:39:21Z</time>
      </trkpt>
      <trkpt lat="42.34083" lon="2.48288">
        <ele>1149.979</ele>
        <time>2014-02-15T12:39:23Z</time>
      </trkpt>
      <trkpt lat="42.34083" lon="2.4828">
        <ele>1148.911</ele>
        <time>2014-02-15T12:39:26Z</time>
      </trkpt>
      <trkpt lat="42.34083" lon="2.48277">
        <ele>1148.948</ele>
        <time>2014-02-15T12:39:28Z</time>
      </trkpt>
      <trkpt lat="42.34086" lon="2.48255">
        <ele>1146.561</ele>
        <time>2014-02-15T12:39:41Z</time>
      </trkpt>
      <trkpt lat="42.34083" lon="2.48235">
        <ele>1144.617</ele>
        <time>2014-02-15T12:39:54Z</time>
      </trkpt>
      <trkpt lat="42.34081" lon="2.48206">
        <ele>1143.107</ele>
        <time>2014-02-15T12:40:08Z</time>
      </trkpt>
      <trkpt lat="42.34083" lon="2.48178">
        <ele>1141.77</ele>
        <time>2014-02-15T12:40:18Z</time>
      </trkpt>
      <trkpt lat="42.34084" lon="2.48169">
        <ele>1141.215</ele>
        <time>2014-02-15T12:40:21Z</time>
      </trkpt>
      <trkpt lat="42.34089" lon="2.48138">
        <ele>1139.328</ele>
        <time>2014-02-15T12:40:34Z</time>
      </trkpt>
      <trkpt lat="42.34097" lon="2.48116">
        <ele>1139.363</ele>
        <time>2014-02-15T12:40:47Z</time>
      </trkpt>
      <trkpt lat="42.34099" lon="2.48113">
        <ele>1139.382</ele>
        <time>2014-02-15T12:40:49Z</time>
      </trkpt>
      <trkpt lat="42.34102" lon="2.48103">
        <ele>1141.279</ele>
        <time>2014-02-15T12:41:04Z</time>
      </trkpt>
      <trkpt lat="42.34107" lon="2.481">
        <ele>1139.861</ele>
        <time>2014-02-15T12:41:23Z</time>
      </trkpt>
      <trkpt lat="42.34108" lon="2.481">
        <ele>1141.289</ele>
        <time>2014-02-15T12:41:34Z</time>
      </trkpt>
      <trkpt lat="42.34111" lon="2.48106">
        <ele>1139.806</ele>
        <time>2014-02-15T12:41:55Z</time>
      </trkpt>
      <trkpt lat="42.34112" lon="2.48104">
        <ele>1140.326</ele>
        <time>2014-02-15T12:42:00Z</time>
      </trkpt>
      <trkpt lat="42.34117" lon="2.48095">
        <ele>1140.707</ele>
        <time>2014-02-15T12:42:13Z</time>
      </trkpt>
      <trkpt lat="42.34118" lon="2.48094">
        <ele>1139.834</ele>
        <time>2014-02-15T12:42:30Z</time>
      </trkpt>
      <trkpt lat="42.34119" lon="2.48093">
        <ele>1141.259</ele>
        <time>2014-02-15T12:42:34Z</time>
      </trkpt>
      <trkpt lat="42.34122" lon="2.48089">
        <ele>1140.732</ele>
        <time>2014-02-15T12:42:48Z</time>
      </trkpt>
      <trkpt lat="42.34138" lon="2.48078">
        <ele>1141.237</ele>
        <time>2014-02-15T12:43:02Z</time>
      </trkpt>
      <trkpt lat="42.34141" lon="2.48077">
        <ele>1141.796</ele>
        <time>2014-02-15T12:43:05Z</time>
      </trkpt>
      <trkpt lat="42.34156" lon="2.48073">
        <ele>1143.633</ele>
        <time>2014-02-15T12:43:19Z</time>
      </trkpt>
      <trkpt lat="42.34173" lon="2.48078">
        <ele>1145.675</ele>
        <time>2014-02-15T12:43:34Z</time>
      </trkpt>
      <trkpt lat="42.34191" lon="2.48081">
        <ele>1147.553</ele>
        <time>2014-02-15T12:43:49Z</time>
      </trkpt>
      <trkpt lat="42.34193" lon="2.48081">
        <ele>1148.004</ele>
        <time>2014-02-15T12:43:50Z</time>
      </trkpt>
      <trkpt lat="42.34196" lon="2.48081">
        <ele>1148.014</ele>
        <time>2014-02-15T12:43:54Z</time>
      </trkpt>
      <trkpt lat="42.3421" lon="2.4808">
        <ele>1148.407</ele>
        <time>2014-02-15T12:44:07Z</time>
      </trkpt>
      <trkpt lat="42.34228" lon="2.48066">
        <ele>1149.911</ele>
        <time>2014-02-15T12:44:23Z</time>
      </trkpt>
      <trkpt lat="42.34237" lon="2.48045">
        <ele>1148.476</ele>
        <time>2014-02-15T12:44:36Z</time>
      </trkpt>
      <trkpt lat="42.34247" lon="2.48018">
        <ele>1146.559</ele>
        <time>2014-02-15T12:44:48Z</time>
      </trkpt>
      <trkpt lat="42.34257" lon="2.48003">
        <ele>1147.574</ele>
        <time>2014-02-15T12:44:58Z</time>
      </trkpt>
      <trkpt lat="42.34262" lon="2.47998">
        <ele>1147.553</ele>
        <time>2014-02-15T12:45:03Z</time>
      </trkpt>
      <trkpt lat="42.34274" lon="2.47995">
        <ele>1148.46</ele>
        <time>2014-02-15T12:45:12Z</time>
      </trkpt>
      <trkpt lat="42.34282" lon="2.47996">
        <ele>1149.982</ele>
        <time>2014-02-15T12:45:18Z</time>
      </trkpt>
      <trkpt lat="42.34285" lon="2.47995">
        <ele>1149.961</ele>
        <time>2014-02-15T12:45:21Z</time>
      </trkpt>
      <trkpt lat="42.34294" lon="2.47997">
        <ele>1150.821</ele>
        <time>2014-02-15T12:45:28Z</time>
      </trkpt>
      <trkpt lat="42.34296" lon="2.47998">
        <ele>1151.313</ele>
        <time>2014-02-15T12:45:30Z</time>
      </trkpt>
      <trkpt lat="42.34301" lon="2.47997">
        <ele>1152.307</ele>
        <time>2014-02-15T12:45:35Z</time>
      </trkpt>
      <trkpt lat="42.34305" lon="2.47999">
        <ele>1152.362</ele>
        <time>2014-02-15T12:45:38Z</time>
      </trkpt>
      <trkpt lat="42.34309" lon="2.48003">
        <ele>1152.377</ele>
        <time>2014-02-15T12:45:42Z</time>
      </trkpt>
      <trkpt lat="42.34321" lon="2.48008">
        <ele>1152.86</ele>
        <time>2014-02-15T12:45:52Z</time>
      </trkpt>
      <trkpt lat="42.34326" lon="2.48008">
        <ele>1153.745</ele>
        <time>2014-02-15T12:45:56Z</time>
      </trkpt>
      <trkpt lat="42.34329" lon="2.48008">
        <ele>1152.864</ele>
        <time>2014-02-15T12:45:58Z</time>
      </trkpt>
      <trkpt lat="42.34331" lon="2.48009">
        <ele>1153.211</ele>
        <time>2014-02-15T12:46:00Z</time>
      </trkpt>
      <trkpt lat="42.34342" lon="2.48012">
        <ele>1154.753</ele>
        <time>2014-02-15T12:46:07Z</time>
      </trkpt>
      <trkpt lat="42.34349" lon="2.48008">
        <ele>1154.799</ele>
        <time>2014-02-15T12:46:12Z</time>
      </trkpt>
      <trkpt lat="42.34351" lon="2.4801">
        <ele>1153.207</ele>
        <time>2014-02-15T12:46:15Z</time>
      </trkpt>
      <trkpt lat="42.3436" lon="2.48021">
        <ele>1153.227</ele>
        <time>2014-02-15T12:46:27Z</time>
      </trkpt>
      <trkpt lat="42.34368" lon="2.4803">
        <ele>1153.207</ele>
        <time>2014-02-15T12:46:40Z</time>
      </trkpt>
      <trkpt lat="42.34374" lon="2.48037">
        <ele>1152.885</ele>
        <time>2014-02-15T12:46:47Z</time>
      </trkpt>
      <trkpt lat="42.34374" lon="2.48037">
        <ele>1153.71</ele>
        <time>2014-02-15T12:46:48Z</time>
      </trkpt>
      <trkpt lat="42.34382" lon="2.48041">
        <ele>1153.763</ele>
        <time>2014-02-15T12:46:55Z</time>
      </trkpt>
      <trkpt lat="42.34386" lon="2.48047">
        <ele>1154.248</ele>
        <time>2014-02-15T12:46:59Z</time>
      </trkpt>
      <trkpt lat="42.34401" lon="2.48054">
        <ele>1154.277</ele>
        <time>2014-02-15T12:47:12Z</time>
      </trkpt>
      <trkpt lat="42.344" lon="2.48061">
        <ele>1154.744</ele>
        <time>2014-02-15T12:47:17Z</time>
      </trkpt>
      <trkpt lat="42.344" lon="2.48066">
        <ele>1154.746</ele>
        <time>2014-02-15T12:47:19Z</time>
      </trkpt>
      <trkpt lat="42.344" lon="2.48072">
        <ele>1154.793</ele>
        <time>2014-02-15T12:47:22Z</time>
      </trkpt>
      <trkpt lat="42.34401" lon="2.48077">
        <ele>1154.765</ele>
        <time>2014-02-15T12:47:26Z</time>
      </trkpt>
      <trkpt lat="42.34404" lon="2.48095">
        <ele>1156.121</ele>
        <time>2014-02-15T12:47:36Z</time>
      </trkpt>
      <trkpt lat="42.34406" lon="2.48102">
        <ele>1155.607</ele>
        <time>2014-02-15T12:47:39Z</time>
      </trkpt>
      <trkpt lat="42.34408" lon="2.4811">
        <ele>1157.125</ele>
        <time>2014-02-15T12:47:43Z</time>
      </trkpt>
      <trkpt lat="42.34412" lon="2.48115">
        <ele>1156.65</ele>
        <time>2014-02-15T12:47:47Z</time>
      </trkpt>
      <trkpt lat="42.34414" lon="2.48117">
        <ele>1156.663</ele>
        <time>2014-02-15T12:47:49Z</time>
      </trkpt>
      <trkpt lat="42.34415" lon="2.4812">
        <ele>1156.198</ele>
        <time>2014-02-15T12:47:50Z</time>
      </trkpt>
      <trkpt lat="42.3443" lon="2.48139">
        <ele>1157.127</ele>
        <time>2014-02-15T12:48:03Z</time>
      </trkpt>
      <trkpt lat="42.34433" lon="2.48146">
        <ele>1157.644</ele>
        <time>2014-02-15T12:48:07Z</time>
      </trkpt>
      <trkpt lat="42.34445" lon="2.48166">
        <ele>1159.556</ele>
        <time>2014-02-15T12:48:22Z</time>
      </trkpt>
      <trkpt lat="42.3445" lon="2.48177">
        <ele>1161.413</ele>
        <time>2014-02-15T12:48:29Z</time>
      </trkpt>
      <trkpt lat="42.3445" lon="2.48179">
        <ele>1161.443</ele>
        <time>2014-02-15T12:48:30Z</time>
      </trkpt>
      <trkpt lat="42.34456" lon="2.48192">
        <ele>1161.907</ele>
        <time>2014-02-15T12:48:40Z</time>
      </trkpt>
      <trkpt lat="42.34461" lon="2.48193">
        <ele>1162.907</ele>
        <time>2014-02-15T12:48:44Z</time>
      </trkpt>
      <trkpt lat="42.34472" lon="2.48213">
        <ele>1161.957</ele>
        <time>2014-02-15T12:48:58Z</time>
      </trkpt>
      <trkpt lat="42.34475" lon="2.48221">
        <ele>1163.812</ele>
        <time>2014-02-15T12:49:02Z</time>
      </trkpt>
      <trkpt lat="42.34485" lon="2.48232">
        <ele>1164.315</ele>
        <time>2014-02-15T12:49:12Z</time>
      </trkpt>
      <trkpt lat="42.34491" lon="2.48243">
        <ele>1166.24</ele>
        <time>2014-02-15T12:49:19Z</time>
      </trkpt>
      <trkpt lat="42.345" lon="2.48253">
        <ele>1167.239</ele>
        <time>2014-02-15T12:49:31Z</time>
      </trkpt>
      <trkpt lat="42.3451" lon="2.48259">
        <ele>1168.126</ele>
        <time>2014-02-15T12:49:42Z</time>
      </trkpt>
      <trkpt lat="42.34512" lon="2.48259">
        <ele>1168.198</ele>
        <time>2014-02-15T12:49:44Z</time>
      </trkpt>
      <trkpt lat="42.34524" lon="2.48263">
        <ele>1168.622</ele>
        <time>2014-02-15T12:49:53Z</time>
      </trkpt>
      <trkpt lat="42.34526" lon="2.48265">
        <ele>1169.162</ele>
        <time>2014-02-15T12:49:55Z</time>
      </trkpt>
      <trkpt lat="42.34527" lon="2.48266">
        <ele>1169.108</ele>
        <time>2014-02-15T12:49:56Z</time>
      </trkpt>
      <trkpt lat="42.34529" lon="2.48266">
        <ele>1169.607</ele>
        <time>2014-02-15T12:49:58Z</time>
      </trkpt>
      <trkpt lat="42.3453" lon="2.48265">
        <ele>1169.158</ele>
        <time>2014-02-15T12:49:59Z</time>
      </trkpt>
      <trkpt lat="42.34534" lon="2.48266">
        <ele>1169.133</ele>
        <time>2014-02-15T12:50:03Z</time>
      </trkpt>
      <trkpt lat="42.34535" lon="2.48268">
        <ele>1168.676</ele>
        <time>2014-02-15T12:50:04Z</time>
      </trkpt>
      <trkpt lat="42.3454" lon="2.48273">
        <ele>1168.111</ele>
        <time>2014-02-15T12:50:09Z</time>
      </trkpt>
      <trkpt lat="42.34544" lon="2.48273">
        <ele>1168.64</ele>
        <time>2014-02-15T12:50:11Z</time>
      </trkpt>
      <trkpt lat="42.34552" lon="2.48276">
        <ele>1168.197</ele>
        <time>2014-02-15T12:50:17Z</time>
      </trkpt>
      <trkpt lat="42.34562" lon="2.48278">
        <ele>1167.799</ele>
        <time>2014-02-15T12:50:24Z</time>
      </trkpt>
      <trkpt lat="42.34568" lon="2.48278">
        <ele>1165.326</ele>
        <time>2014-02-15T12:50:28Z</time>
      </trkpt>
      <trkpt lat="42.34577" lon="2.48284">
        <ele>1166.747</ele>
        <time>2014-02-15T12:50:40Z</time>
      </trkpt>
      <trkpt lat="42.34591" lon="2.48288">
        <ele>1167.711</ele>
        <time>2014-02-15T12:50:53Z</time>
      </trkpt>
      <trkpt lat="42.34596" lon="2.48291">
        <ele>1168.607</ele>
        <time>2014-02-15T12:51:02Z</time>
      </trkpt>
      <trkpt lat="42.34599" lon="2.48292">
        <ele>1166.778</ele>
        <time>2014-02-15T12:51:06Z</time>
      </trkpt>
      <trkpt lat="42.34605" lon="2.48295">
        <ele>1166.293</ele>
        <time>2014-02-15T12:51:17Z</time>
      </trkpt>
      <trkpt lat="42.34609" lon="2.48302">
        <ele>1167.256</ele>
        <time>2014-02-15T12:51:23Z</time>
      </trkpt>
      <trkpt lat="42.34611" lon="2.48302">
        <ele>1167.291</ele>
        <time>2014-02-15T12:51:25Z</time>
      </trkpt>
      <trkpt lat="42.34616" lon="2.48309">
        <ele>1167.78</ele>
        <time>2014-02-15T12:51:35Z</time>
      </trkpt>
      <trkpt lat="42.34616" lon="2.48311">
        <ele>1167.757</ele>
        <time>2014-02-15T12:51:36Z</time>
      </trkpt>
      <trkpt lat="42.34624" lon="2.48335">
        <ele>1166.269</ele>
        <time>2014-02-15T12:51:49Z</time>
      </trkpt>
      <trkpt lat="42.34628" lon="2.48355">
        <ele>1164.367</ele>
        <time>2014-02-15T12:51:57Z</time>
      </trkpt>
      <trkpt lat="42.34632" lon="2.4836">
        <ele>1164.881</ele>
        <time>2014-02-15T12:52:01Z</time>
      </trkpt>
      <trkpt lat="42.34644" lon="2.4839">
        <ele>1164.819</ele>
        <time>2014-02-15T12:52:12Z</time>
      </trkpt>
      <trkpt lat="42.34643" lon="2.48392">
        <ele>1164.307</ele>
        <time>2014-02-15T12:52:13Z</time>
      </trkpt>
      <trkpt lat="42.34644" lon="2.48398">
        <ele>1165.342</ele>
        <time>2014-02-15T12:52:17Z</time>
      </trkpt>
      <trkpt lat="42.34653" lon="2.48421">
        <ele>1165.717</ele>
        <time>2014-02-15T12:52:30Z</time>
      </trkpt>
      <trkpt lat="42.34655" lon="2.48423">
        <ele>1165.76</ele>
        <time>2014-02-15T12:52:32Z</time>
      </trkpt>
      <trkpt lat="42.34664" lon="2.48441">
        <ele>1167.235</ele>
        <time>2014-02-15T12:52:43Z</time>
      </trkpt>
      <trkpt lat="42.3468" lon="2.4846">
        <ele>1169.634</ele>
        <time>2014-02-15T12:52:59Z</time>
      </trkpt>
      <trkpt lat="42.34681" lon="2.48462">
        <ele>1169.171</ele>
        <time>2014-02-15T12:53:00Z</time>
      </trkpt>
      <trkpt lat="42.3469" lon="2.48468">
        <ele>1170.183</ele>
        <time>2014-02-15T12:53:07Z</time>
      </trkpt>
      <trkpt lat="42.34693" lon="2.4847">
        <ele>1169.616</ele>
        <time>2014-02-15T12:53:10Z</time>
      </trkpt>
      <trkpt lat="42.34695" lon="2.48473">
        <ele>1170.176</ele>
        <time>2014-02-15T12:53:12Z</time>
      </trkpt>
      <trkpt lat="42.34701" lon="2.48479">
        <ele>1169.613</ele>
        <time>2014-02-15T12:53:17Z</time>
      </trkpt>
      <trkpt lat="42.34702" lon="2.48479">
        <ele>1169.107</ele>
        <time>2014-02-15T12:53:18Z</time>
      </trkpt>
      <trkpt lat="42.34705" lon="2.4848">
        <ele>1169.637</ele>
        <time>2014-02-15T12:53:20Z</time>
      </trkpt>
      <trkpt lat="42.34708" lon="2.48482">
        <ele>1168.682</ele>
        <time>2014-02-15T12:53:23Z</time>
      </trkpt>
      <trkpt lat="42.34713" lon="2.48482">
        <ele>1169.655</ele>
        <time>2014-02-15T12:53:26Z</time>
      </trkpt>
      <trkpt lat="42.34716" lon="2.48483">
        <ele>1169.64</ele>
        <time>2014-02-15T12:53:29Z</time>
      </trkpt>
      <trkpt lat="42.34727" lon="2.48488">
        <ele>1170.149</ele>
        <time>2014-02-15T12:53:37Z</time>
      </trkpt>
      <trkpt lat="42.34749" lon="2.48489">
        <ele>1169.616</ele>
        <time>2014-02-15T12:53:51Z</time>
      </trkpt>
      <trkpt lat="42.34766" lon="2.48489">
        <ele>1167.748</ele>
        <time>2014-02-15T12:54:02Z</time>
      </trkpt>
      <trkpt lat="42.34776" lon="2.48489">
        <ele>1166.296</ele>
        <time>2014-02-15T12:54:08Z</time>
      </trkpt>
      <trkpt lat="42.34783" lon="2.48488">
        <ele>1166.731</ele>
        <time>2014-02-15T12:54:13Z</time>
      </trkpt>
      <trkpt lat="42.34794" lon="2.48483">
        <ele>1167.724</ele>
        <time>2014-02-15T12:54:22Z</time>
      </trkpt>
      <trkpt lat="42.348" lon="2.48485">
        <ele>1166.707</ele>
        <time>2014-02-15T12:54:27Z</time>
      </trkpt>
      <trkpt lat="42.34803" lon="2.4849">
        <ele>1167.285</ele>
        <time>2014-02-15T12:54:30Z</time>
      </trkpt>
      <trkpt lat="42.34809" lon="2.48493">
        <ele>1167.79</ele>
        <time>2014-02-15T12:54:36Z</time>
      </trkpt>
      <trkpt lat="42.34817" lon="2.48501">
        <ele>1166.273</ele>
        <time>2014-02-15T12:54:43Z</time>
      </trkpt>
      <trkpt lat="42.34821" lon="2.48503">
        <ele>1165.778</ele>
        <time>2014-02-15T12:54:46Z</time>
      </trkpt>
      <trkpt lat="42.34828" lon="2.48519">
        <ele>1165.757</ele>
        <time>2014-02-15T12:54:55Z</time>
      </trkpt>
      <trkpt lat="42.34832" lon="2.48532">
        <ele>1163.834</ele>
        <time>2014-02-15T12:55:02Z</time>
      </trkpt>
      <trkpt lat="42.34844" lon="2.48555">
        <ele>1164.356</ele>
        <time>2014-02-15T12:55:16Z</time>
      </trkpt>
      <trkpt lat="42.34853" lon="2.48568">
        <ele>1166.717</ele>
        <time>2014-02-15T12:55:29Z</time>
      </trkpt>
      <trkpt lat="42.34853" lon="2.4857">
        <ele>1166.787</ele>
        <time>2014-02-15T12:55:31Z</time>
      </trkpt>
      <trkpt lat="42.34855" lon="2.48573">
        <ele>1166.215</ele>
        <time>2014-02-15T12:55:33Z</time>
      </trkpt>
      <trkpt lat="42.34859" lon="2.48582">
        <ele>1167.207</ele>
        <time>2014-02-15T12:55:43Z</time>
      </trkpt>
      <trkpt lat="42.34873" lon="2.48597">
        <ele>1168.127</ele>
        <time>2014-02-15T12:55:57Z</time>
      </trkpt>
      <trkpt lat="42.34873" lon="2.48598">
        <ele>1168.632</ele>
        <time>2014-02-15T12:55:58Z</time>
      </trkpt>
      <trkpt lat="42.34877" lon="2.48603">
        <ele>1169.195</ele>
        <time>2014-02-15T12:56:02Z</time>
      </trkpt>
      <trkpt lat="42.34889" lon="2.48621">
        <ele>1167.75</ele>
        <time>2014-02-15T12:56:17Z</time>
      </trkpt>
      <trkpt lat="42.3489" lon="2.48622">
        <ele>1168.199</ele>
        <time>2014-02-15T12:56:18Z</time>
      </trkpt>
      <trkpt lat="42.349" lon="2.48636">
        <ele>1168.626</ele>
        <time>2014-02-15T12:56:30Z</time>
      </trkpt>
      <trkpt lat="42.34905" lon="2.48644">
        <ele>1167.238</ele>
        <time>2014-02-15T12:56:42Z</time>
      </trkpt>
      <trkpt lat="42.34905" lon="2.48647">
        <ele>1170.518</ele>
        <time>2014-02-15T12:56:54Z</time>
      </trkpt>
      <trkpt lat="42.34894" lon="2.48645">
        <ele>1169.198</ele>
        <time>2014-02-15T12:57:05Z</time>
      </trkpt>
      <trkpt lat="42.34893" lon="2.48641">
        <ele>1169.117</ele>
        <time>2014-02-15T12:57:07Z</time>
      </trkpt>
      <trkpt lat="42.34891" lon="2.48636">
        <ele>1170.107</ele>
        <time>2014-02-15T12:57:10Z</time>
      </trkpt>
      <trkpt lat="42.34886" lon="2.48637">
        <ele>1165.327</ele>
        <time>2014-02-15T12:57:14Z</time>
      </trkpt>
      <trkpt lat="42.34883" lon="2.48637">
        <ele>1164.832</ele>
        <time>2014-02-15T12:57:17Z</time>
      </trkpt>
      <trkpt lat="42.34881" lon="2.4864">
        <ele>1163.365</ele>
        <time>2014-02-15T12:57:19Z</time>
      </trkpt>
      <trkpt lat="42.34876" lon="2.4866">
        <ele>1160.95</ele>
        <time>2014-02-15T12:57:31Z</time>
      </trkpt>
      <trkpt lat="42.34877" lon="2.48673">
        <ele>1160.579</ele>
        <time>2014-02-15T12:57:38Z</time>
      </trkpt>
      <trkpt lat="42.34881" lon="2.4868">
        <ele>1159.586</ele>
        <time>2014-02-15T12:57:43Z</time>
      </trkpt>
      <trkpt lat="42.34887" lon="2.48683">
        <ele>1157.638</ele>
        <time>2014-02-15T12:57:48Z</time>
      </trkpt>
      <trkpt lat="42.34891" lon="2.48686">
        <ele>1157.124</ele>
        <time>2014-02-15T12:57:54Z</time>
      </trkpt>
      <trkpt lat="42.34899" lon="2.48682">
        <ele>1156.604</ele>
        <time>2014-02-15T12:58:04Z</time>
      </trkpt>
      <trkpt lat="42.3491" lon="2.4868">
        <ele>1156.114</ele>
        <time>2014-02-15T12:58:15Z</time>
      </trkpt>
      <trkpt lat="42.34918" lon="2.48679">
        <ele>1154.707</ele>
        <time>2014-02-15T12:58:19Z</time>
      </trkpt>
      <trkpt lat="42.34933" lon="2.48671">
        <ele>1152.868</ele>
        <time>2014-02-15T12:58:32Z</time>
      </trkpt>
      <trkpt lat="42.34935" lon="2.48672">
        <ele>1152.853</ele>
        <time>2014-02-15T12:58:34Z</time>
      </trkpt>
      <trkpt lat="42.34944" lon="2.48667">
        <ele>1151.336</ele>
        <time>2014-02-15T12:58:41Z</time>
      </trkpt>
      <trkpt lat="42.34958" lon="2.48661">
        <ele>1149.931</ele>
        <time>2014-02-15T12:58:55Z</time>
      </trkpt>
      <trkpt lat="42.3497" lon="2.48653">
        <ele>1147.57</ele>
        <time>2014-02-15T12:59:09Z</time>
      </trkpt>
      <trkpt lat="42.34978" lon="2.48655">
        <ele>1146.577</ele>
        <time>2014-02-15T12:59:20Z</time>
      </trkpt>
      <trkpt lat="42.34991" lon="2.4866">
        <ele>1147.549</ele>
        <time>2014-02-15T12:59:31Z</time>
      </trkpt>
      <trkpt lat="42.34996" lon="2.48661">
        <ele>1147.022</ele>
        <time>2014-02-15T12:59:35Z</time>
      </trkpt>
      <trkpt lat="42.35" lon="2.4866">
        <ele>1147.062</ele>
        <time>2014-02-15T12:59:38Z</time>
      </trkpt>
      <trkpt lat="42.35004" lon="2.4866">
        <ele>1148.008</ele>
        <time>2014-02-15T12:59:41Z</time>
      </trkpt>
      <trkpt lat="42.35017" lon="2.48654">
        <ele>1147.507</ele>
        <time>2014-02-15T12:59:53Z</time>
      </trkpt>
      <trkpt lat="42.35026" lon="2.48665">
        <ele>1148.018</ele>
        <time>2014-02-15T13:00:05Z</time>
      </trkpt>
      <trkpt lat="42.3503" lon="2.48676">
        <ele>1148.063</ele>
        <time>2014-02-15T13:00:09Z</time>
      </trkpt>
      <trkpt lat="42.35036" lon="2.4868">
        <ele>1148.036</ele>
        <time>2014-02-15T13:00:14Z</time>
      </trkpt>
      <trkpt lat="42.35042" lon="2.48686">
        <ele>1148.041</ele>
        <time>2014-02-15T13:00:19Z</time>
      </trkpt>
      <trkpt lat="42.35047" lon="2.48695">
        <ele>1147.59</ele>
        <time>2014-02-15T13:00:25Z</time>
      </trkpt>
      <trkpt lat="42.35054" lon="2.48708">
        <ele>1146.527</ele>
        <time>2014-02-15T13:00:37Z</time>
      </trkpt>
      <trkpt lat="42.35057" lon="2.48725">
        <ele>1145.689</ele>
        <time>2014-02-15T13:00:52Z</time>
      </trkpt>
      <trkpt lat="42.35055" lon="2.48735">
        <ele>1145.639</ele>
        <time>2014-02-15T13:00:57Z</time>
      </trkpt>
      <trkpt lat="42.35052" lon="2.48756">
        <ele>1145.101</ele>
        <time>2014-02-15T13:01:04Z</time>
      </trkpt>
      <trkpt lat="42.35053" lon="2.48766">
        <ele>1144.121</ele>
        <time>2014-02-15T13:01:09Z</time>
      </trkpt>
      <trkpt lat="42.35055" lon="2.48775">
        <ele>1143.607</ele>
        <time>2014-02-15T13:01:14Z</time>
      </trkpt>
      <trkpt lat="42.35058" lon="2.48782">
        <ele>1141.789</ele>
        <time>2014-02-15T13:01:18Z</time>
      </trkpt>
      <trkpt lat="42.35062" lon="2.48797">
        <ele>1140.764</ele>
        <time>2014-02-15T13:01:29Z</time>
      </trkpt>
      <trkpt lat="42.35068" lon="2.4881">
        <ele>1138.347</ele>
        <time>2014-02-15T13:01:38Z</time>
      </trkpt>
      <trkpt lat="42.35068" lon="2.48827">
        <ele>1138.892</ele>
        <time>2014-02-15T13:01:52Z</time>
      </trkpt>
      <trkpt lat="42.35071" lon="2.48829">
        <ele>1139.361</ele>
        <time>2014-02-15T13:02:00Z</time>
      </trkpt>
      <trkpt lat="42.3508" lon="2.48837">
        <ele>1140.748</ele>
        <time>2014-02-15T13:02:12Z</time>
      </trkpt>
      <trkpt lat="42.35081" lon="2.48837">
        <ele>1141.23</ele>
        <time>2014-02-15T13:02:13Z</time>
      </trkpt>
      <trkpt lat="42.35095" lon="2.48843">
        <ele>1143.143</ele>
        <time>2014-02-15T13:02:27Z</time>
      </trkpt>
      <trkpt lat="42.35101" lon="2.48851">
        <ele>1142.264</ele>
        <time>2014-02-15T13:02:38Z</time>
      </trkpt>
      <trkpt lat="42.35109" lon="2.48856">
        <ele>1143.61</ele>
        <time>2014-02-15T13:02:50Z</time>
      </trkpt>
      <trkpt lat="42.35115" lon="2.4886">
        <ele>1145.607</ele>
        <time>2014-02-15T13:03:00Z</time>
      </trkpt>
      <trkpt lat="42.35117" lon="2.48858">
        <ele>1146.04</ele>
        <time>2014-02-15T13:03:02Z</time>
      </trkpt>
      <trkpt lat="42.35122" lon="2.48871">
        <ele>1147.075</ele>
        <time>2014-02-15T13:03:14Z</time>
      </trkpt>
      <trkpt lat="42.3513" lon="2.48882">
        <ele>1150.428</ele>
        <time>2014-02-15T13:03:27Z</time>
      </trkpt>
      <trkpt lat="42.35137" lon="2.48891">
        <ele>1150.823</ele>
        <time>2014-02-15T13:03:37Z</time>
      </trkpt>
      <trkpt lat="42.3515" lon="2.48906">
        <ele>1152.862</ele>
        <time>2014-02-15T13:03:50Z</time>
      </trkpt>
      <trkpt lat="42.35152" lon="2.4891">
        <ele>1152.349</ele>
        <time>2014-02-15T13:03:53Z</time>
      </trkpt>
      <trkpt lat="42.35163" lon="2.48918">
        <ele>1154.771</ele>
        <time>2014-02-15T13:04:05Z</time>
      </trkpt>
      <trkpt lat="42.35166" lon="2.48925">
        <ele>1154.223</ele>
        <time>2014-02-15T13:04:29Z</time>
      </trkpt>
      <trkpt lat="42.35167" lon="2.48925">
        <ele>1154.283</ele>
        <time>2014-02-15T13:04:50Z</time>
      </trkpt>
      <trkpt lat="42.35177" lon="2.48925">
        <ele>1155.211</ele>
        <time>2014-02-15T13:05:00Z</time>
      </trkpt>
      <trkpt lat="42.35184" lon="2.48928">
        <ele>1156.107</ele>
        <time>2014-02-15T13:05:06Z</time>
      </trkpt>
      <trkpt lat="42.35195" lon="2.48928">
        <ele>1157.148</ele>
        <time>2014-02-15T13:05:16Z</time>
      </trkpt>
      <trkpt lat="42.3521" lon="2.48927">
        <ele>1159.593</ele>
        <time>2014-02-15T13:05:28Z</time>
      </trkpt>
      <trkpt lat="42.35213" lon="2.48927">
        <ele>1159.576</ele>
        <time>2014-02-15T13:05:31Z</time>
      </trkpt>
      <trkpt lat="42.35228" lon="2.48927">
        <ele>1160.061</ele>
        <time>2014-02-15T13:05:43Z</time>
      </trkpt>
      <trkpt lat="42.35233" lon="2.48929">
        <ele>1160.53</ele>
        <time>2014-02-15T13:05:46Z</time>
      </trkpt>
      <trkpt lat="42.35239" lon="2.48928">
        <ele>1160.087</ele>
        <time>2014-02-15T13:05:50Z</time>
      </trkpt>
      <trkpt lat="42.35244" lon="2.48927">
        <ele>1160.589</ele>
        <time>2014-02-15T13:05:53Z</time>
      </trkpt>
      <trkpt lat="42.35255" lon="2.48934">
        <ele>1161.965</ele>
        <time>2014-02-15T13:06:04Z</time>
      </trkpt>
      <trkpt lat="42.3526" lon="2.48935">
        <ele>1161.968</ele>
        <time>2014-02-15T13:06:08Z</time>
      </trkpt>
      <trkpt lat="42.35271" lon="2.48943">
        <ele>1164.314</ele>
        <time>2014-02-15T13:06:22Z</time>
      </trkpt>
      <trkpt lat="42.35276" lon="2.48953">
        <ele>1165.307</ele>
        <time>2014-02-15T13:06:35Z</time>
      </trkpt>
      <trkpt lat="42.3528" lon="2.48974">
        <ele>1164.332</ele>
        <time>2014-02-15T13:06:45Z</time>
      </trkpt>
      <trkpt lat="42.35278" lon="2.48995">
        <ele>1162.947</ele>
        <time>2014-02-15T13:07:00Z</time>
      </trkpt>
      <trkpt lat="42.35278" lon="2.48999">
        <ele>1162.45</ele>
        <time>2014-02-15T13:07:02Z</time>
      </trkpt>
      <trkpt lat="42.35283" lon="2.4902">
        <ele>1162.925</ele>
        <time>2014-02-15T13:07:17Z</time>
      </trkpt>
      <trkpt lat="42.35285" lon="2.49041">
        <ele>1165.394</ele>
        <time>2014-02-15T13:07:30Z</time>
      </trkpt>
      <trkpt lat="42.3529" lon="2.49062">
        <ele>1167.241</ele>
        <time>2014-02-15T13:07:45Z</time>
      </trkpt>
      <trkpt lat="42.35292" lon="2.49066">
        <ele>1168.613</ele>
        <time>2014-02-15T13:07:49Z</time>
      </trkpt>
      <trkpt lat="42.35297" lon="2.49077">
        <ele>1171.029</ele>
        <time>2014-02-15T13:08:01Z</time>
      </trkpt>
      <trkpt lat="42.35298" lon="2.4909">
        <ele>1172</ele>
        <time>2014-02-15T13:08:14Z</time>
      </trkpt>
      <trkpt lat="42.35298" lon="2.49109">
        <ele>1173.02</ele>
        <time>2014-02-15T13:08:28Z</time>
      </trkpt>
      <trkpt lat="42.35299" lon="2.49117">
        <ele>1173.907</ele>
        <time>2014-02-15T13:08:34Z</time>
      </trkpt>
      <trkpt lat="42.35306" lon="2.49135">
        <ele>1176.398</ele>
        <time>2014-02-15T13:08:49Z</time>
      </trkpt>
      <trkpt lat="42.35309" lon="2.49141">
        <ele>1175.453</ele>
        <time>2014-02-15T13:08:54Z</time>
      </trkpt>
      <trkpt lat="42.35318" lon="2.49174">
        <ele>1177.396</ele>
        <time>2014-02-15T13:09:08Z</time>
      </trkpt>
      <trkpt lat="42.35318" lon="2.49179">
        <ele>1177.311</ele>
        <time>2014-02-15T13:09:11Z</time>
      </trkpt>
      <trkpt lat="42.3532" lon="2.49195">
        <ele>1177.89</ele>
        <time>2014-02-15T13:09:19Z</time>
      </trkpt>
      <trkpt lat="42.35322" lon="2.49216">
        <ele>1180.237</ele>
        <time>2014-02-15T13:09:32Z</time>
      </trkpt>
      <trkpt lat="42.35327" lon="2.49228">
        <ele>1182.639</ele>
        <time>2014-02-15T13:09:46Z</time>
      </trkpt>
      <trkpt lat="42.35332" lon="2.49239">
        <ele>1185.967</ele>
        <time>2014-02-15T13:09:57Z</time>
      </trkpt>
      <trkpt lat="42.35342" lon="2.49255">
        <ele>1186.481</ele>
        <time>2014-02-15T13:10:11Z</time>
      </trkpt>
      <trkpt lat="42.35342" lon="2.49256">
        <ele>1186.419</ele>
        <time>2014-02-15T13:10:12Z</time>
      </trkpt>
      <trkpt lat="42.35353" lon="2.49271">
        <ele>1190.307</ele>
        <time>2014-02-15T13:10:26Z</time>
      </trkpt>
      <trkpt lat="42.35359" lon="2.4928">
        <ele>1191.242</ele>
        <time>2014-02-15T13:10:36Z</time>
      </trkpt>
      <trkpt lat="42.35364" lon="2.49282">
        <ele>1192.777</ele>
        <time>2014-02-15T13:10:43Z</time>
      </trkpt>
      <trkpt lat="42.35368" lon="2.49284">
        <ele>1193.14</ele>
        <time>2014-02-15T13:10:46Z</time>
      </trkpt>
      <trkpt lat="42.35381" lon="2.49279">
        <ele>1191.765</ele>
        <time>2014-02-15T13:10:57Z</time>
      </trkpt>
      <trkpt lat="42.35398" lon="2.49273">
        <ele>1190.344</ele>
        <time>2014-02-15T13:11:13Z</time>
      </trkpt>
      <trkpt lat="42.35409" lon="2.49263">
        <ele>1190.711</ele>
        <time>2014-02-15T13:11:22Z</time>
      </trkpt>
      <trkpt lat="42.35417" lon="2.49253">
        <ele>1188.853</ele>
        <time>2014-02-15T13:11:29Z</time>
      </trkpt>
      <trkpt lat="42.35437" lon="2.49239">
        <ele>1185.912</ele>
        <time>2014-02-15T13:11:42Z</time>
      </trkpt>
      <trkpt lat="42.35448" lon="2.49236">
        <ele>1185.432</ele>
        <time>2014-02-15T13:11:51Z</time>
      </trkpt>
      <trkpt lat="42.35452" lon="2.49231">
        <ele>1185.005</ele>
        <time>2014-02-15T13:11:56Z</time>
      </trkpt>
      <trkpt lat="42.35464" lon="2.49228">
        <ele>1186.907</ele>
        <time>2014-02-15T13:12:10Z</time>
      </trkpt>
      <trkpt lat="42.35469" lon="2.49225">
        <ele>1186.477</ele>
        <time>2014-02-15T13:12:20Z</time>
      </trkpt>
      <trkpt lat="42.35484" lon="2.49209">
        <ele>1185.442</ele>
        <time>2014-02-15T13:12:34Z</time>
      </trkpt>
      <trkpt lat="42.35493" lon="2.49201">
        <ele>1184.535</ele>
        <time>2014-02-15T13:12:42Z</time>
      </trkpt>
      <trkpt lat="42.35499" lon="2.49198">
        <ele>1183.05</ele>
        <time>2014-02-15T13:12:49Z</time>
      </trkpt>
      <trkpt lat="42.35503" lon="2.49196">
        <ele>1183.589</ele>
        <time>2014-02-15T13:12:52Z</time>
      </trkpt>
      <trkpt lat="42.35507" lon="2.49183">
        <ele>1184.526</ele>
        <time>2014-02-15T13:13:04Z</time>
      </trkpt>
      <trkpt lat="42.35508" lon="2.49178">
        <ele>1185.938</ele>
        <time>2014-02-15T13:13:10Z</time>
      </trkpt>
      <trkpt lat="42.35511" lon="2.49166">
        <ele>1185.985</ele>
        <time>2014-02-15T13:13:25Z</time>
      </trkpt>
      <trkpt lat="42.35513" lon="2.49164">
        <ele>1185.989</ele>
        <time>2014-02-15T13:13:45Z</time>
      </trkpt>
      <trkpt lat="42.35515" lon="2.49165">
        <ele>1185.417</ele>
        <time>2014-02-15T13:13:59Z</time>
      </trkpt>
      <trkpt lat="42.35515" lon="2.49169">
        <ele>1185.407</ele>
        <time>2014-02-15T13:14:12Z</time>
      </trkpt>
      <trkpt lat="42.35515" lon="2.49169">
        <ele>1185.934</ele>
        <time>2014-02-15T13:14:23Z</time>
      </trkpt>
      <trkpt lat="42.35516" lon="2.49162">
        <ele>1185.089</ele>
        <time>2014-02-15T13:14:30Z</time>
      </trkpt>
      <trkpt lat="42.35522" lon="2.49146">
        <ele>1185.012</ele>
        <time>2014-02-15T13:14:45Z</time>
      </trkpt>
      <trkpt lat="42.35529" lon="2.49136">
        <ele>1183.547</ele>
        <time>2014-02-15T13:14:56Z</time>
      </trkpt>
      <trkpt lat="42.35535" lon="2.49131">
        <ele>1182.196</ele>
        <time>2014-02-15T13:15:00Z</time>
      </trkpt>
      <trkpt lat="42.35539" lon="2.4913">
        <ele>1181.663</ele>
        <time>2014-02-15T13:15:04Z</time>
      </trkpt>
      <trkpt lat="42.35541" lon="2.49127">
        <ele>1181.155</ele>
        <time>2014-02-15T13:15:08Z</time>
      </trkpt>
      <trkpt lat="42.35548" lon="2.49128">
        <ele>1181.177</ele>
        <time>2014-02-15T13:15:15Z</time>
      </trkpt>
      <trkpt lat="42.35562" lon="2.49138">
        <ele>1182.661</ele>
        <time>2014-02-15T13:15:28Z</time>
      </trkpt>
      <trkpt lat="42.35576" lon="2.49144">
        <ele>1181.627</ele>
        <time>2014-02-15T13:15:43Z</time>
      </trkpt>
      <trkpt lat="42.35579" lon="2.49139">
        <ele>1179.707</ele>
        <time>2014-02-15T13:15:49Z</time>
      </trkpt>
      <trkpt lat="42.35587" lon="2.49122">
        <ele>1176.363</ele>
        <time>2014-02-15T13:16:02Z</time>
      </trkpt>
      <trkpt lat="42.35595" lon="2.49103">
        <ele>1174.468</ele>
        <time>2014-02-15T13:16:14Z</time>
      </trkpt>
      <trkpt lat="42.35597" lon="2.49093">
        <ele>1172.071</ele>
        <time>2014-02-15T13:16:21Z</time>
      </trkpt>
      <trkpt lat="42.35597" lon="2.49087">
        <ele>1171.016</ele>
        <time>2014-02-15T13:16:25Z</time>
      </trkpt>
      <trkpt lat="42.35603" lon="2.49067">
        <ele>1169.115</ele>
        <time>2014-02-15T13:16:37Z</time>
      </trkpt>
      <trkpt lat="42.35613" lon="2.49055">
        <ele>1166.282</ele>
        <time>2014-02-15T13:16:49Z</time>
      </trkpt>
      <trkpt lat="42.35619" lon="2.49039">
        <ele>1164.814</ele>
        <time>2014-02-15T13:17:00Z</time>
      </trkpt>
      <trkpt lat="42.35617" lon="2.49019">
        <ele>1161.459</ele>
        <time>2014-02-15T13:17:12Z</time>
      </trkpt>
      <trkpt lat="42.35615" lon="2.4901">
        <ele>1158.503</ele>
        <time>2014-02-15T13:17:19Z</time>
      </trkpt>
      <trkpt lat="42.3562" lon="2.48998">
        <ele>1155.623</ele>
        <time>2014-02-15T13:17:29Z</time>
      </trkpt>
      <trkpt lat="42.35621" lon="2.48995">
        <ele>1154.707</ele>
        <time>2014-02-15T13:17:31Z</time>
      </trkpt>
      <trkpt lat="42.35622" lon="2.4899">
        <ele>1154.791</ele>
        <time>2014-02-15T13:17:34Z</time>
      </trkpt>
      <trkpt lat="42.35625" lon="2.48981">
        <ele>1152.876</ele>
        <time>2014-02-15T13:17:40Z</time>
      </trkpt>
      <trkpt lat="42.35627" lon="2.48963">
        <ele>1149.469</ele>
        <time>2014-02-15T13:17:52Z</time>
      </trkpt>
      <trkpt lat="42.35631" lon="2.4895">
        <ele>1146.034</ele>
        <time>2014-02-15T13:18:03Z</time>
      </trkpt>
      <trkpt lat="42.35638" lon="2.48944">
        <ele>1143.133</ele>
        <time>2014-02-15T13:18:10Z</time>
      </trkpt>
      <trkpt lat="42.35642" lon="2.48932">
        <ele>1140.74</ele>
        <time>2014-02-15T13:18:21Z</time>
      </trkpt>
      <trkpt lat="42.35642" lon="2.48923">
        <ele>1137.432</ele>
        <time>2014-02-15T13:18:29Z</time>
      </trkpt>
      <trkpt lat="42.35643" lon="2.48922">
        <ele>1137.462</ele>
        <time>2014-02-15T13:18:30Z</time>
      </trkpt>
      <trkpt lat="42.35646" lon="2.48912">
        <ele>1134.583</ele>
        <time>2014-02-15T13:18:38Z</time>
      </trkpt>
      <trkpt lat="42.35655" lon="2.48904">
        <ele>1131.611</ele>
        <time>2014-02-15T13:18:50Z</time>
      </trkpt>
      <trkpt lat="42.35662" lon="2.48899">
        <ele>1128.207</ele>
        <time>2014-02-15T13:19:00Z</time>
      </trkpt>
      <trkpt lat="42.35673" lon="2.48892">
        <ele>1126.392</ele>
        <time>2014-02-15T13:19:13Z</time>
      </trkpt>
      <trkpt lat="42.3568" lon="2.4889">
        <ele>1124.467</ele>
        <time>2014-02-15T13:19:21Z</time>
      </trkpt>
      <trkpt lat="42.35694" lon="2.48888">
        <ele>1121.01</ele>
        <time>2014-02-15T13:19:35Z</time>
      </trkpt>
      <trkpt lat="42.35705" lon="2.48889">
        <ele>1117.795</ele>
        <time>2014-02-15T13:19:47Z</time>
      </trkpt>
      <trkpt lat="42.35711" lon="2.48885">
        <ele>1114.874</ele>
        <time>2014-02-15T13:19:59Z</time>
      </trkpt>
      <trkpt lat="42.357" lon="2.48876">
        <ele>1113.821</ele>
        <time>2014-02-15T13:20:13Z</time>
      </trkpt>
      <trkpt lat="42.35699" lon="2.48875">
        <ele>1113.863</ele>
        <time>2014-02-15T13:20:14Z</time>
      </trkpt>
      <trkpt lat="42.35685" lon="2.48869">
        <ele>1115.341</ele>
        <time>2014-02-15T13:20:30Z</time>
      </trkpt>
      <trkpt lat="42.35679" lon="2.48865">
        <ele>1115.881</ele>
        <time>2014-02-15T13:20:34Z</time>
      </trkpt>
      <trkpt lat="42.35675" lon="2.4886">
        <ele>1117.209</ele>
        <time>2014-02-15T13:20:37Z</time>
      </trkpt>
      <trkpt lat="42.35663" lon="2.48839">
        <ele>1118.207</ele>
        <time>2014-02-15T13:20:49Z</time>
      </trkpt>
      <trkpt lat="42.35662" lon="2.48837">
        <ele>1118.27</ele>
        <time>2014-02-15T13:20:50Z</time>
      </trkpt>
      <trkpt lat="42.35663" lon="2.48811">
        <ele>1119.675</ele>
        <time>2014-02-15T13:21:05Z</time>
      </trkpt>
      <trkpt lat="42.35668" lon="2.48785">
        <ele>1120.688</ele>
        <time>2014-02-15T13:21:19Z</time>
      </trkpt>
      <trkpt lat="42.35668" lon="2.48782">
        <ele>1120.643</ele>
        <time>2014-02-15T13:21:20Z</time>
      </trkpt>
      <trkpt lat="42.35671" lon="2.48751">
        <ele>1120.132</ele>
        <time>2014-02-15T13:21:36Z</time>
      </trkpt>
      <trkpt lat="42.35676" lon="2.48723">
        <ele>1119.649</ele>
        <time>2014-02-15T13:21:48Z</time>
      </trkpt>
      <trkpt lat="42.35678" lon="2.48687">
        <ele>1119.151</ele>
        <time>2014-02-15T13:22:00Z</time>
      </trkpt>
      <trkpt lat="42.35672" lon="2.48674">
        <ele>1119.168</ele>
        <time>2014-02-15T13:22:08Z</time>
      </trkpt>
      <trkpt lat="42.35659" lon="2.4866">
        <ele>1119.142</ele>
        <time>2014-02-15T13:22:22Z</time>
      </trkpt>
      <trkpt lat="42.35657" lon="2.48659">
        <ele>1119.126</ele>
        <time>2014-02-15T13:22:24Z</time>
      </trkpt>
      <trkpt lat="42.35653" lon="2.48654">
        <ele>1119.607</ele>
        <time>2014-02-15T13:22:28Z</time>
      </trkpt>
      <trkpt lat="42.35651" lon="2.48648">
        <ele>1120.172</ele>
        <time>2014-02-15T13:22:31Z</time>
      </trkpt>
      <trkpt lat="42.35642" lon="2.48634">
        <ele>1119.647</ele>
        <time>2014-02-15T13:22:36Z</time>
      </trkpt>
      <trkpt lat="42.35648" lon="2.48615">
        <ele>1118.64</ele>
        <time>2014-02-15T13:22:48Z</time>
      </trkpt>
      <trkpt lat="42.35679" lon="2.48594">
        <ele>1115.395</ele>
        <time>2014-02-15T13:23:04Z</time>
      </trkpt>
      <trkpt lat="42.35696" lon="2.48589">
        <ele>1113.894</ele>
        <time>2014-02-15T13:23:15Z</time>
      </trkpt>
      <trkpt lat="42.35715" lon="2.4857">
        <ele>1112.911</ele>
        <time>2014-02-15T13:23:29Z</time>
      </trkpt>
      <trkpt lat="42.35727" lon="2.4855">
        <ele>1112.433</ele>
        <time>2014-02-15T13:23:38Z</time>
      </trkpt>
      <trkpt lat="42.35731" lon="2.4854">
        <ele>1112.462</ele>
        <time>2014-02-15T13:23:46Z</time>
      </trkpt>
      <trkpt lat="42.35742" lon="2.48523">
        <ele>1112.483</ele>
        <time>2014-02-15T13:23:59Z</time>
      </trkpt>
      <trkpt lat="42.35747" lon="2.48515">
        <ele>1112.911</ele>
        <time>2014-02-15T13:24:03Z</time>
      </trkpt>
      <trkpt lat="42.35758" lon="2.48486">
        <ele>1111.907</ele>
        <time>2014-02-15T13:24:18Z</time>
      </trkpt>
      <trkpt lat="42.35758" lon="2.48479">
        <ele>1111.972</ele>
        <time>2014-02-15T13:24:23Z</time>
      </trkpt>
      <trkpt lat="42.35756" lon="2.48452">
        <ele>1109.527</ele>
        <time>2014-02-15T13:24:37Z</time>
      </trkpt>
      <trkpt lat="42.35753" lon="2.48426">
        <ele>1108.51</ele>
        <time>2014-02-15T13:24:51Z</time>
      </trkpt>
      <trkpt lat="42.35754" lon="2.48395">
        <ele>1107.645</ele>
        <time>2014-02-15T13:25:06Z</time>
      </trkpt>
      <trkpt lat="42.35756" lon="2.48388">
        <ele>1107.614</ele>
        <time>2014-02-15T13:25:08Z</time>
      </trkpt>
      <trkpt lat="42.35757" lon="2.48384">
        <ele>1107.611</ele>
        <time>2014-02-15T13:25:11Z</time>
      </trkpt>
      <trkpt lat="42.3576" lon="2.48361">
        <ele>1108.153</ele>
        <time>2014-02-15T13:25:21Z</time>
      </trkpt>
      <trkpt lat="42.35756" lon="2.48346">
        <ele>1107.693</ele>
        <time>2014-02-15T13:25:28Z</time>
      </trkpt>
      <trkpt lat="42.35756" lon="2.48337">
        <ele>1107.165</ele>
        <time>2014-02-15T13:25:32Z</time>
      </trkpt>
      <trkpt lat="42.3575" lon="2.48302">
        <ele>1106.621</ele>
        <time>2014-02-15T13:25:46Z</time>
      </trkpt>
      <trkpt lat="42.35739" lon="2.48275">
        <ele>1105.707</ele>
        <time>2014-02-15T13:26:00Z</time>
      </trkpt>
      <trkpt lat="42.35738" lon="2.4827">
        <ele>1105.785</ele>
        <time>2014-02-15T13:26:03Z</time>
      </trkpt>
      <trkpt lat="42.35733" lon="2.48232">
        <ele>1104.76</ele>
        <time>2014-02-15T13:26:19Z</time>
      </trkpt>
      <trkpt lat="42.35729" lon="2.48204">
        <ele>1103.313</ele>
        <time>2014-02-15T13:26:34Z</time>
      </trkpt>
      <trkpt lat="42.3573" lon="2.48204">
        <ele>1103.388</ele>
        <time>2014-02-15T13:26:35Z</time>
      </trkpt>
      <trkpt lat="42.35737" lon="2.48202">
        <ele>1103.327</ele>
        <time>2014-02-15T13:26:41Z</time>
      </trkpt>
      <trkpt lat="42.35749" lon="2.48214">
        <ele>1103.744</ele>
        <time>2014-02-15T13:26:53Z</time>
      </trkpt>
      <trkpt lat="42.35764" lon="2.48221">
        <ele>1104.736</ele>
        <time>2014-02-15T13:27:05Z</time>
      </trkpt>
      <trkpt lat="42.35765" lon="2.48224">
        <ele>1105.749</ele>
        <time>2014-02-15T13:27:07Z</time>
      </trkpt>
      <trkpt lat="42.35769" lon="2.4823">
        <ele>1105.702</ele>
        <time>2014-02-15T13:27:11Z</time>
      </trkpt>
      <trkpt lat="42.35782" lon="2.4825">
        <ele>1106.122</ele>
        <time>2014-02-15T13:27:25Z</time>
      </trkpt>
      <trkpt lat="42.35796" lon="2.48278">
        <ele>1107.607</ele>
        <time>2014-02-15T13:27:41Z</time>
      </trkpt>
      <trkpt lat="42.35814" lon="2.48303">
        <ele>1108.16</ele>
        <time>2014-02-15T13:27:55Z</time>
      </trkpt>
      <trkpt lat="42.35835" lon="2.48318">
        <ele>1110.055</ele>
        <time>2014-02-15T13:28:09Z</time>
      </trkpt>
      <trkpt lat="42.35855" lon="2.48339">
        <ele>1110.978</ele>
        <time>2014-02-15T13:28:24Z</time>
      </trkpt>
      <trkpt lat="42.35869" lon="2.48365">
        <ele>1112.993</ele>
        <time>2014-02-15T13:28:38Z</time>
      </trkpt>
      <trkpt lat="42.35876" lon="2.48394">
        <ele>1112.972</ele>
        <time>2014-02-15T13:28:51Z</time>
      </trkpt>
      <trkpt lat="42.35884" lon="2.48425">
        <ele>1114.399</ele>
        <time>2014-02-15T13:29:06Z</time>
      </trkpt>
      <trkpt lat="42.35887" lon="2.48435">
        <ele>1114.861</ele>
        <time>2014-02-15T13:29:12Z</time>
      </trkpt>
      <trkpt lat="42.35893" lon="2.48467">
        <ele>1116.751</ele>
        <time>2014-02-15T13:29:28Z</time>
      </trkpt>
      <trkpt lat="42.35905" lon="2.48503">
        <ele>1118.201</ele>
        <time>2014-02-15T13:29:46Z</time>
      </trkpt>
      <trkpt lat="42.35919" lon="2.48536">
        <ele>1120.111</ele>
        <time>2014-02-15T13:30:04Z</time>
      </trkpt>
      <trkpt lat="42.35937" lon="2.48567">
        <ele>1120.607</ele>
        <time>2014-02-15T13:30:23Z</time>
      </trkpt>
      <trkpt lat="42.35955" lon="2.48592">
        <ele>1122.041</ele>
        <time>2014-02-15T13:30:39Z</time>
      </trkpt>
      <trkpt lat="42.3597" lon="2.48612">
        <ele>1123.066</ele>
        <time>2014-02-15T13:30:52Z</time>
      </trkpt>
      <trkpt lat="42.35972" lon="2.48618">
        <ele>1123.039</ele>
        <time>2014-02-15T13:30:55Z</time>
      </trkpt>
      <trkpt lat="42.3598" lon="2.48625">
        <ele>1123.474</ele>
        <time>2014-02-15T13:31:01Z</time>
      </trkpt>
      <trkpt lat="42.36003" lon="2.48636">
        <ele>1126.363</ele>
        <time>2014-02-15T13:31:16Z</time>
      </trkpt>
      <trkpt lat="42.36018" lon="2.48647">
        <ele>1127.35</ele>
        <time>2014-02-15T13:31:28Z</time>
      </trkpt>
      <trkpt lat="42.36045" lon="2.48655">
        <ele>1129.782</ele>
        <time>2014-02-15T13:31:45Z</time>
      </trkpt>
      <trkpt lat="42.36068" lon="2.48671">
        <ele>1131.167</ele>
        <time>2014-02-15T13:32:03Z</time>
      </trkpt>
      <trkpt lat="42.36088" lon="2.48687">
        <ele>1132.181</ele>
        <time>2014-02-15T13:32:18Z</time>
      </trkpt>
      <trkpt lat="42.36117" lon="2.48698">
        <ele>1134.519</ele>
        <time>2014-02-15T13:32:37Z</time>
      </trkpt>
      <trkpt lat="42.36133" lon="2.48699">
        <ele>1135.007</ele>
        <time>2014-02-15T13:32:50Z</time>
      </trkpt>
      <trkpt lat="42.36152" lon="2.48704">
        <ele>1135.522</ele>
        <time>2014-02-15T13:33:05Z</time>
      </trkpt>
      <trkpt lat="42.36165" lon="2.48728">
        <ele>1131.627</ele>
        <time>2014-02-15T13:33:16Z</time>
      </trkpt>
      <trkpt lat="42.36176" lon="2.48753">
        <ele>1129.79</ele>
        <time>2014-02-15T13:33:30Z</time>
      </trkpt>
      <trkpt lat="42.36184" lon="2.4878">
        <ele>1127.325</ele>
        <time>2014-02-15T13:33:44Z</time>
      </trkpt>
      <trkpt lat="42.36196" lon="2.48814">
        <ele>1124.494</ele>
        <time>2014-02-15T13:34:00Z</time>
      </trkpt>
      <trkpt lat="42.36201" lon="2.48842">
        <ele>1122.531</ele>
        <time>2014-02-15T13:34:13Z</time>
      </trkpt>
      <trkpt lat="42.36215" lon="2.48867">
        <ele>1121.083</ele>
        <time>2014-02-15T13:34:29Z</time>
      </trkpt>
      <trkpt lat="42.36218" lon="2.48869">
        <ele>1120.646</ele>
        <time>2014-02-15T13:34:31Z</time>
      </trkpt>
      <trkpt lat="42.36238" lon="2.48878">
        <ele>1120.688</ele>
        <time>2014-02-15T13:34:46Z</time>
      </trkpt>
      <trkpt lat="42.36259" lon="2.48897">
        <ele>1120.616</ele>
        <time>2014-02-15T13:35:02Z</time>
      </trkpt>
      <trkpt lat="42.36275" lon="2.48907">
        <ele>1119.607</ele>
        <time>2014-02-15T13:35:15Z</time>
      </trkpt>
      <trkpt lat="42.36295" lon="2.48916">
        <ele>1121.05</ele>
        <time>2014-02-15T13:35:28Z</time>
      </trkpt>
      <trkpt lat="42.36309" lon="2.48945">
        <ele>1122.535</ele>
        <time>2014-02-15T13:35:44Z</time>
      </trkpt>
      <trkpt lat="42.36312" lon="2.48952">
        <ele>1123.438</ele>
        <time>2014-02-15T13:35:48Z</time>
      </trkpt>
      <trkpt lat="42.36319" lon="2.48957">
        <ele>1123.063</ele>
        <time>2014-02-15T13:35:53Z</time>
      </trkpt>
      <trkpt lat="42.36327" lon="2.48959">
        <ele>1120.642</ele>
        <time>2014-02-15T13:35:58Z</time>
      </trkpt>
      <trkpt lat="42.36336" lon="2.48963">
        <ele>1119.139</ele>
        <time>2014-02-15T13:36:05Z</time>
      </trkpt>
      <trkpt lat="42.36351" lon="2.48967">
        <ele>1117.221</ele>
        <time>2014-02-15T13:36:16Z</time>
      </trkpt>
      <trkpt lat="42.36367" lon="2.48961">
        <ele>1114.824</ele>
        <time>2014-02-15T13:36:25Z</time>
      </trkpt>
      <trkpt lat="42.3637" lon="2.48958">
        <ele>1114.304</ele>
        <time>2014-02-15T13:36:27Z</time>
      </trkpt>
      <trkpt lat="42.36387" lon="2.48941">
        <ele>1112.414</ele>
        <time>2014-02-15T13:36:39Z</time>
      </trkpt>
      <trkpt lat="42.364" lon="2.48922">
        <ele>1111.407</ele>
        <time>2014-02-15T13:36:52Z</time>
      </trkpt>
      <trkpt lat="42.36409" lon="2.48913">
        <ele>1110.968</ele>
        <time>2014-02-15T13:37:05Z</time>
      </trkpt>
      <trkpt lat="42.36426" lon="2.48896">
        <ele>1111.943</ele>
        <time>2014-02-15T13:37:18Z</time>
      </trkpt>
      <trkpt lat="42.36428" lon="2.48893">
        <ele>1111.966</ele>
        <time>2014-02-15T13:37:20Z</time>
      </trkpt>
      <trkpt lat="42.36434" lon="2.48888">
        <ele>1111.981</ele>
        <time>2014-02-15T13:37:24Z</time>
      </trkpt>
      <trkpt lat="42.36457" lon="2.48882">
        <ele>1111.91</ele>
        <time>2014-02-15T13:37:40Z</time>
      </trkpt>
      <trkpt lat="42.3647" lon="2.48884">
        <ele>1112.937</ele>
        <time>2014-02-15T13:37:51Z</time>
      </trkpt>
      <trkpt lat="42.3648" lon="2.48885">
        <ele>1111.999</ele>
        <time>2014-02-15T13:37:58Z</time>
      </trkpt>
      <trkpt lat="42.365" lon="2.48898">
        <ele>1112.428</ele>
        <time>2014-02-15T13:38:13Z</time>
      </trkpt>
      <trkpt lat="42.3652" lon="2.48907">
        <ele>1112.989</ele>
        <time>2014-02-15T13:38:26Z</time>
      </trkpt>
      <trkpt lat="42.36526" lon="2.48911">
        <ele>1112.417</ele>
        <time>2014-02-15T13:38:30Z</time>
      </trkpt>
      <trkpt lat="42.36551" lon="2.48915">
        <ele>1110.507</ele>
        <time>2014-02-15T13:38:44Z</time>
      </trkpt>
      <trkpt lat="42.36558" lon="2.48914">
        <ele>1109.528</ele>
        <time>2014-02-15T13:38:48Z</time>
      </trkpt>
      <trkpt lat="42.36564" lon="2.48915">
        <ele>1109.023</ele>
        <time>2014-02-15T13:38:52Z</time>
      </trkpt>
      <trkpt lat="42.36569" lon="2.48914">
        <ele>1108.156</ele>
        <time>2014-02-15T13:38:55Z</time>
      </trkpt>
      <trkpt lat="42.36576" lon="2.48914">
        <ele>1107.141</ele>
        <time>2014-02-15T13:38:59Z</time>
      </trkpt>
      <trkpt lat="42.36589" lon="2.48914">
        <ele>1105.77</ele>
        <time>2014-02-15T13:39:08Z</time>
      </trkpt>
      <trkpt lat="42.36605" lon="2.48923">
        <ele>1103.337</ele>
        <time>2014-02-15T13:39:18Z</time>
      </trkpt>
      <trkpt lat="42.36622" lon="2.48924">
        <ele>1099.469</ele>
        <time>2014-02-15T13:39:30Z</time>
      </trkpt>
      <trkpt lat="42.36624" lon="2.48925">
        <ele>1099.413</ele>
        <time>2014-02-15T13:39:31Z</time>
      </trkpt>
      <trkpt lat="42.36631" lon="2.48932">
        <ele>1098.043</ele>
        <time>2014-02-15T13:39:37Z</time>
      </trkpt>
      <trkpt lat="42.36634" lon="2.48936">
        <ele>1097.007</ele>
        <time>2014-02-15T13:39:40Z</time>
      </trkpt>
      <trkpt lat="42.36642" lon="2.48952">
        <ele>1095.607</ele>
        <time>2014-02-15T13:39:55Z</time>
      </trkpt>
      <trkpt lat="42.36654" lon="2.48969">
        <ele>1095.187</ele>
        <time>2014-02-15T13:40:24Z</time>
      </trkpt>
      <trkpt lat="42.36658" lon="2.48976">
        <ele>1097.552</ele>
        <time>2014-02-15T13:40:37Z</time>
      </trkpt>
      <trkpt lat="42.3666" lon="2.48975">
        <ele>1096.065</ele>
        <time>2014-02-15T13:40:57Z</time>
      </trkpt>
      <trkpt lat="42.36664" lon="2.4898">
        <ele>1096.09</ele>
        <time>2014-02-15T13:41:20Z</time>
      </trkpt>
      <trkpt lat="42.36662" lon="2.4898">
        <ele>1097.569</ele>
        <time>2014-02-15T13:41:50Z</time>
      </trkpt>
      <trkpt lat="42.36669" lon="2.48984">
        <ele>1096.596</ele>
        <time>2014-02-15T13:42:20Z</time>
      </trkpt>
      <trkpt lat="42.36669" lon="2.48983">
        <ele>1098.458</ele>
        <time>2014-02-15T13:42:48Z</time>
      </trkpt>
      <trkpt lat="42.3667" lon="2.48978">
        <ele>1098.492</ele>
        <time>2014-02-15T13:43:18Z</time>
      </trkpt>
      <trkpt lat="42.36668" lon="2.48981">
        <ele>1098.473</ele>
        <time>2014-02-15T13:43:44Z</time>
      </trkpt>
      <trkpt lat="42.36666" lon="2.48983">
        <ele>1098.92</ele>
        <time>2014-02-15T13:44:19Z</time>
      </trkpt>
      <trkpt lat="42.36664" lon="2.48984">
        <ele>1098.407</ele>
        <time>2014-02-15T13:44:49Z</time>
      </trkpt>
      <trkpt lat="42.36666" lon="2.48983">
        <ele>1098.085</ele>
        <time>2014-02-15T13:45:16Z</time>
      </trkpt>
      <trkpt lat="42.36667" lon="2.4898">
        <ele>1098.47</ele>
        <time>2014-02-15T13:45:46Z</time>
      </trkpt>
      <trkpt lat="42.36666" lon="2.48979">
        <ele>1099.413</ele>
        <time>2014-02-15T13:46:12Z</time>
      </trkpt>
      <trkpt lat="42.36669" lon="2.48978">
        <ele>1099.478</ele>
        <time>2014-02-15T13:46:39Z</time>
      </trkpt>
      <trkpt lat="42.36666" lon="2.48981">
        <ele>1099.977</ele>
        <time>2014-02-15T13:47:13Z</time>
      </trkpt>
      <trkpt lat="42.36666" lon="2.48978">
        <ele>1099.444</ele>
        <time>2014-02-15T13:47:42Z</time>
      </trkpt>
      <trkpt lat="42.36669" lon="2.4898">
        <ele>1098.946</ele>
        <time>2014-02-15T13:48:11Z</time>
      </trkpt>
      <trkpt lat="42.36667" lon="2.48978">
        <ele>1099.432</ele>
        <time>2014-02-15T13:48:44Z</time>
      </trkpt>
      <trkpt lat="42.36668" lon="2.48975">
        <ele>1098.992</ele>
        <time>2014-02-15T13:49:09Z</time>
      </trkpt>
      <trkpt lat="42.36669" lon="2.48976">
        <ele>1098.911</ele>
        <time>2014-02-15T13:49:34Z</time>
      </trkpt>
      <trkpt lat="42.36669" lon="2.48979">
        <ele>1098.907</ele>
        <time>2014-02-15T13:49:56Z</time>
      </trkpt>
      <trkpt lat="42.36666" lon="2.48978">
        <ele>1098.449</ele>
        <time>2014-02-15T13:50:12Z</time>
      </trkpt>
      <trkpt lat="42.36662" lon="2.48977">
        <ele>1098.934</ele>
        <time>2014-02-15T13:50:40Z</time>
      </trkpt>
      <trkpt lat="42.36663" lon="2.48976">
        <ele>1098.977</ele>
        <time>2014-02-15T13:51:05Z</time>
      </trkpt>
      <trkpt lat="42.36662" lon="2.48977">
        <ele>1098.452</ele>
        <time>2014-02-15T13:51:26Z</time>
      </trkpt>
      <trkpt lat="42.36664" lon="2.48976">
        <ele>1098.931</ele>
        <time>2014-02-15T13:51:51Z</time>
      </trkpt>
      <trkpt lat="42.36665" lon="2.48979">
        <ele>1099.918</ele>
        <time>2014-02-15T13:52:16Z</time>
      </trkpt>
      <trkpt lat="42.36665" lon="2.48979">
        <ele>1099.42</ele>
        <time>2014-02-15T13:52:46Z</time>
      </trkpt>
      <trkpt lat="42.36665" lon="2.48976">
        <ele>1101.896</ele>
        <time>2014-02-15T13:53:14Z</time>
      </trkpt>
      <trkpt lat="42.36665" lon="2.48979">
        <ele>1100.931</ele>
        <time>2014-02-15T13:53:44Z</time>
      </trkpt>
      <trkpt lat="42.36664" lon="2.48979">
        <ele>1100.424</ele>
        <time>2014-02-15T13:54:20Z</time>
      </trkpt>
      <trkpt lat="42.36663" lon="2.48981">
        <ele>1100.407</ele>
        <time>2014-02-15T13:54:48Z</time>
      </trkpt>
      <trkpt lat="42.36664" lon="2.48983">
        <ele>1100.445</ele>
        <time>2014-02-15T13:55:14Z</time>
      </trkpt>
      <trkpt lat="42.36664" lon="2.48981">
        <ele>1100.47</ele>
        <time>2014-02-15T13:55:48Z</time>
      </trkpt>
      <trkpt lat="42.36664" lon="2.4898">
        <ele>1100.993</ele>
        <time>2014-02-15T13:56:15Z</time>
      </trkpt>
      <trkpt lat="42.36665" lon="2.48983">
        <ele>1101.348</ele>
        <time>2014-02-15T13:56:42Z</time>
      </trkpt>
      <trkpt lat="42.36663" lon="2.48981">
        <ele>1101.317</ele>
        <time>2014-02-15T13:57:09Z</time>
      </trkpt>
      <trkpt lat="42.36663" lon="2.48976">
        <ele>1101.384</ele>
        <time>2014-02-15T13:57:37Z</time>
      </trkpt>
      <trkpt lat="42.36662" lon="2.48972">
        <ele>1101.366</ele>
        <time>2014-02-15T13:58:05Z</time>
      </trkpt>
      <trkpt lat="42.3666" lon="2.48972">
        <ele>1101.374</ele>
        <time>2014-02-15T13:58:36Z</time>
      </trkpt>
      <trkpt lat="42.36657" lon="2.48971">
        <ele>1098.056</ele>
        <time>2014-02-15T13:58:56Z</time>
      </trkpt>
      <trkpt lat="42.36657" lon="2.48971">
        <ele>1098.021</ele>
        <time>2014-02-15T13:58:58Z</time>
      </trkpt>
      <trkpt lat="42.36658" lon="2.48972">
        <ele>1103.307</ele>
        <time>2014-02-15T13:59:00Z</time>
      </trkpt>
      <trkpt lat="42.36658" lon="2.48972">
        <ele>1100.463</ele>
        <time>2014-02-15T13:59:01Z</time>
      </trkpt>
      <trkpt lat="42.36662" lon="2.48976">
        <ele>1100.968</ele>
        <time>2014-02-15T13:59:22Z</time>
      </trkpt>
      <trkpt lat="42.36662" lon="2.48978">
        <ele>1101.351</ele>
        <time>2014-02-15T13:59:46Z</time>
      </trkpt>
      <trkpt lat="42.36662" lon="2.48979">
        <ele>1101.856</ele>
        <time>2014-02-15T14:00:14Z</time>
      </trkpt>
      <trkpt lat="42.36662" lon="2.48978">
        <ele>1101.395</ele>
        <time>2014-02-15T14:00:40Z</time>
      </trkpt>
      <trkpt lat="42.36661" lon="2.4898">
        <ele>1100.472</ele>
        <time>2014-02-15T14:01:11Z</time>
      </trkpt>
      <trkpt lat="42.36661" lon="2.48984">
        <ele>1101.324</ele>
        <time>2014-02-15T14:01:43Z</time>
      </trkpt>
      <trkpt lat="42.36661" lon="2.48979">
        <ele>1100.927</ele>
        <time>2014-02-15T14:02:08Z</time>
      </trkpt>
      <trkpt lat="42.36663" lon="2.48977">
        <ele>1101.868</ele>
        <time>2014-02-15T14:02:33Z</time>
      </trkpt>
      <trkpt lat="42.36664" lon="2.48978">
        <ele>1101.814</ele>
        <time>2014-02-15T14:03:05Z</time>
      </trkpt>
      <trkpt lat="42.3666" lon="2.48979">
        <ele>1100.907</ele>
        <time>2014-02-15T14:03:31Z</time>
      </trkpt>
      <trkpt lat="42.36658" lon="2.48979">
        <ele>1098.948</ele>
        <time>2014-02-15T14:04:06Z</time>
      </trkpt>
      <trkpt lat="42.3666" lon="2.48977">
        <ele>1101.373</ele>
        <time>2014-02-15T14:04:31Z</time>
      </trkpt>
      <trkpt lat="42.36663" lon="2.48979">
        <ele>1101.376</ele>
        <time>2014-02-15T14:04:54Z</time>
      </trkpt>
      <trkpt lat="42.36662" lon="2.48986">
        <ele>1101.321</ele>
        <time>2014-02-15T14:05:12Z</time>
      </trkpt>
      <trkpt lat="42.36662" lon="2.48985">
        <ele>1100.91</ele>
        <time>2014-02-15T14:05:25Z</time>
      </trkpt>
      <trkpt lat="42.36668" lon="2.4898">
        <ele>1101.327</ele>
        <time>2014-02-15T14:05:39Z</time>
      </trkpt>
      <trkpt lat="42.36674" lon="2.48983">
        <ele>1100.949</ele>
        <time>2014-02-15T14:05:52Z</time>
      </trkpt>
      <trkpt lat="42.36682" lon="2.48996">
        <ele>1101.386</ele>
        <time>2014-02-15T14:06:09Z</time>
      </trkpt>
      <trkpt lat="42.3668" lon="2.48999">
        <ele>1101.86</ele>
        <time>2014-02-15T14:06:30Z</time>
      </trkpt>
      <trkpt lat="42.36682" lon="2.48995">
        <ele>1101.326</ele>
        <time>2014-02-15T14:06:43Z</time>
      </trkpt>
      <trkpt lat="42.36687" lon="2.49003">
        <ele>1102.807</ele>
        <time>2014-02-15T14:06:58Z</time>
      </trkpt>
      <trkpt lat="42.36691" lon="2.49005">
        <ele>1102.854</ele>
        <time>2014-02-15T14:07:04Z</time>
      </trkpt>
      <trkpt lat="42.36696" lon="2.49006">
        <ele>1100.949</ele>
        <time>2014-02-15T14:07:12Z</time>
      </trkpt>
      <trkpt lat="42.36701" lon="2.49013">
        <ele>1100.452</ele>
        <time>2014-02-15T14:07:32Z</time>
      </trkpt>
      <trkpt lat="42.36708" lon="2.49017">
        <ele>1100.987</ele>
        <time>2014-02-15T14:08:08Z</time>
      </trkpt>
      <trkpt lat="42.36705" lon="2.49019">
        <ele>1099.916</ele>
        <time>2014-02-15T14:08:29Z</time>
      </trkpt>
      <trkpt lat="42.36706" lon="2.49018">
        <ele>1099.473</ele>
        <time>2014-02-15T14:08:31Z</time>
      </trkpt>
      <trkpt lat="42.36712" lon="2.49017">
        <ele>1098.495</ele>
        <time>2014-02-15T14:08:36Z</time>
      </trkpt>
      <trkpt lat="42.36716" lon="2.49017">
        <ele>1097.529</ele>
        <time>2014-02-15T14:08:39Z</time>
      </trkpt>
      <trkpt lat="42.36732" lon="2.49019">
        <ele>1096</ele>
        <time>2014-02-15T14:08:52Z</time>
      </trkpt>
      <trkpt lat="42.36749" lon="2.49025">
        <ele>1094.62</ele>
        <time>2014-02-15T14:09:03Z</time>
      </trkpt>
      <trkpt lat="42.36754" lon="2.49026">
        <ele>1093.607</ele>
        <time>2014-02-15T14:09:07Z</time>
      </trkpt>
      <trkpt lat="42.36775" lon="2.49031">
        <ele>1090.388</ele>
        <time>2014-02-15T14:09:20Z</time>
      </trkpt>
      <trkpt lat="42.36785" lon="2.49035">
        <ele>1087.983</ele>
        <time>2014-02-15T14:09:27Z</time>
      </trkpt>
      <trkpt lat="42.36803" lon="2.49045">
        <ele>1084.056</ele>
        <time>2014-02-15T14:09:37Z</time>
      </trkpt>
      <trkpt lat="42.36804" lon="2.49046">
        <ele>1083.571</ele>
        <time>2014-02-15T14:09:38Z</time>
      </trkpt>
      <trkpt lat="42.36808" lon="2.49048">
        <ele>1083.14</ele>
        <time>2014-02-15T14:09:40Z</time>
      </trkpt>
      <trkpt lat="42.36814" lon="2.49052">
        <ele>1081.167</ele>
        <time>2014-02-15T14:09:44Z</time>
      </trkpt>
      <trkpt lat="42.36821" lon="2.49061">
        <ele>1079.749</ele>
        <time>2014-02-15T14:09:49Z</time>
      </trkpt>
      <trkpt lat="42.36825" lon="2.49067">
        <ele>1078.725</ele>
        <time>2014-02-15T14:09:53Z</time>
      </trkpt>
      <trkpt lat="42.36825" lon="2.4909">
        <ele>1075.426</ele>
        <time>2014-02-15T14:10:03Z</time>
      </trkpt>
      <trkpt lat="42.36824" lon="2.49096">
        <ele>1074.908</ele>
        <time>2014-02-15T14:10:06Z</time>
      </trkpt>
      <trkpt lat="42.36827" lon="2.49106">
        <ele>1073.007</ele>
        <time>2014-02-15T14:10:09Z</time>
      </trkpt>
      <trkpt lat="42.36828" lon="2.49117">
        <ele>1072.098</ele>
        <time>2014-02-15T14:10:12Z</time>
      </trkpt>
      <trkpt lat="42.36825" lon="2.49123">
        <ele>1071.143</ele>
        <time>2014-02-15T14:10:16Z</time>
      </trkpt>
      <trkpt lat="42.36818" lon="2.4913">
        <ele>1068.686</ele>
        <time>2014-02-15T14:10:21Z</time>
      </trkpt>
      <trkpt lat="42.36813" lon="2.49137">
        <ele>1067.271</ele>
        <time>2014-02-15T14:10:26Z</time>
      </trkpt>
      <trkpt lat="42.36801" lon="2.49152">
        <ele>1066.29</ele>
        <time>2014-02-15T14:10:34Z</time>
      </trkpt>
      <trkpt lat="42.36794" lon="2.49156">
        <ele>1064.887</ele>
        <time>2014-02-15T14:10:38Z</time>
      </trkpt>
      <trkpt lat="42.36786" lon="2.49159">
        <ele>1064.389</ele>
        <time>2014-02-15T14:10:42Z</time>
      </trkpt>
      <trkpt lat="42.3678" lon="2.49163">
        <ele>1063.438</ele>
        <time>2014-02-15T14:10:46Z</time>
      </trkpt>
      <trkpt lat="42.36778" lon="2.49167">
        <ele>1062.97</ele>
        <time>2014-02-15T14:10:49Z</time>
      </trkpt>
      <trkpt lat="42.36796" lon="2.49173">
        <ele>1059.517</ele>
        <time>2014-02-15T14:11:01Z</time>
      </trkpt>
      <trkpt lat="42.36801" lon="2.49175">
        <ele>1059.007</ele>
        <time>2014-02-15T14:11:03Z</time>
      </trkpt>
      <trkpt lat="42.36812" lon="2.49171">
        <ele>1055.279</ele>
        <time>2014-02-15T14:11:11Z</time>
      </trkpt>
      <trkpt lat="42.36832" lon="2.49168">
        <ele>1052.844</ele>
        <time>2014-02-15T14:11:20Z</time>
      </trkpt>
      <trkpt lat="42.36853" lon="2.49168">
        <ele>1049.427</ele>
        <time>2014-02-15T14:11:29Z</time>
      </trkpt>
      <trkpt lat="42.36874" lon="2.49161">
        <ele>1046.142</ele>
        <time>2014-02-15T14:11:41Z</time>
      </trkpt>
      <trkpt lat="42.36877" lon="2.49159">
        <ele>1046.181</ele>
        <time>2014-02-15T14:11:47Z</time>
      </trkpt>
      <trkpt lat="42.36877" lon="2.49162">
        <ele>1044.668</ele>
        <time>2014-02-15T14:11:50Z</time>
      </trkpt>
      <trkpt lat="42.36875" lon="2.4917">
        <ele>1042.29</ele>
        <time>2014-02-15T14:11:56Z</time>
      </trkpt>
      <trkpt lat="42.36874" lon="2.49173">
        <ele>1040.873</ele>
        <time>2014-02-15T14:11:58Z</time>
      </trkpt>
      <trkpt lat="42.36872" lon="2.49181">
        <ele>1039.385</ele>
        <time>2014-02-15T14:12:02Z</time>
      </trkpt>
      <trkpt lat="42.36869" lon="2.49187">
        <ele>1037.413</ele>
        <time>2014-02-15T14:12:06Z</time>
      </trkpt>
      <trkpt lat="42.36864" lon="2.49191">
        <ele>1036.407</ele>
        <time>2014-02-15T14:12:09Z</time>
      </trkpt>
      <trkpt lat="42.3686" lon="2.49197">
        <ele>1035.013</ele>
        <time>2014-02-15T14:12:12Z</time>
      </trkpt>
      <trkpt lat="42.36858" lon="2.49199">
        <ele>1034.538</ele>
        <time>2014-02-15T14:12:13Z</time>
      </trkpt>
      <trkpt lat="42.36851" lon="2.49213">
        <ele>1030.731</ele>
        <time>2014-02-15T14:12:21Z</time>
      </trkpt>
      <trkpt lat="42.3685" lon="2.49218">
        <ele>1030.256</ele>
        <time>2014-02-15T14:12:23Z</time>
      </trkpt>
      <trkpt lat="42.36844" lon="2.49228">
        <ele>1027.365</ele>
        <time>2014-02-15T14:12:28Z</time>
      </trkpt>
      <trkpt lat="42.36842" lon="2.49231">
        <ele>1026.332</ele>
        <time>2014-02-15T14:12:30Z</time>
      </trkpt>
      <trkpt lat="42.36833" lon="2.49241">
        <ele>1023.984</ele>
        <time>2014-02-15T14:12:37Z</time>
      </trkpt>
      <trkpt lat="42.3683" lon="2.49244">
        <ele>1023.533</ele>
        <time>2014-02-15T14:12:40Z</time>
      </trkpt>
      <trkpt lat="42.36827" lon="2.49246">
        <ele>1022.523</ele>
        <time>2014-02-15T14:12:42Z</time>
      </trkpt>
      <trkpt lat="42.36823" lon="2.49248">
        <ele>1021.115</ele>
        <time>2014-02-15T14:12:45Z</time>
      </trkpt>
      <trkpt lat="42.36819" lon="2.4925">
        <ele>1020.607</ele>
        <time>2014-02-15T14:12:47Z</time>
      </trkpt>
      <trkpt lat="42.36817" lon="2.49252">
        <ele>1019.669</ele>
        <time>2014-02-15T14:12:48Z</time>
      </trkpt>
      <trkpt lat="42.36804" lon="2.49258">
        <ele>1018.254</ele>
        <time>2014-02-15T14:12:57Z</time>
      </trkpt>
      <trkpt lat="42.36797" lon="2.49262">
        <ele>1018.727</ele>
        <time>2014-02-15T14:13:01Z</time>
      </trkpt>
      <trkpt lat="42.36777" lon="2.49277">
        <ele>1017.242</ele>
        <time>2014-02-15T14:13:13Z</time>
      </trkpt>
      <trkpt lat="42.36772" lon="2.49279">
        <ele>1017.211</ele>
        <time>2014-02-15T14:13:15Z</time>
      </trkpt>
      <trkpt lat="42.36757" lon="2.49268">
        <ele>1015.848</ele>
        <time>2014-02-15T14:13:26Z</time>
      </trkpt>
      <trkpt lat="42.36732" lon="2.49263">
        <ele>1012.98</ele>
        <time>2014-02-15T14:13:35Z</time>
      </trkpt>
      <trkpt lat="42.36729" lon="2.49263">
        <ele>1012.436</ele>
        <time>2014-02-15T14:13:36Z</time>
      </trkpt>
      <trkpt lat="42.3671" lon="2.49259">
        <ele>1010.017</ele>
        <time>2014-02-15T14:13:47Z</time>
      </trkpt>
      <trkpt lat="42.367" lon="2.49255">
        <ele>1009.018</ele>
        <time>2014-02-15T14:14:02Z</time>
      </trkpt>
      <trkpt lat="42.36677" lon="2.49252">
        <ele>1006.207</ele>
        <time>2014-02-15T14:14:17Z</time>
      </trkpt>
      <trkpt lat="42.3666" lon="2.49248">
        <ele>1005.279</ele>
        <time>2014-02-15T14:14:31Z</time>
      </trkpt>
      <trkpt lat="42.36641" lon="2.49247">
        <ele>1004.774</ele>
        <time>2014-02-15T14:14:43Z</time>
      </trkpt>
      <trkpt lat="42.36639" lon="2.49245">
        <ele>1004.767</ele>
        <time>2014-02-15T14:14:45Z</time>
      </trkpt>
      <trkpt lat="42.36634" lon="2.49245">
        <ele>1004.792</ele>
        <time>2014-02-15T14:14:48Z</time>
      </trkpt>
      <trkpt lat="42.36619" lon="2.49232">
        <ele>1003.341</ele>
        <time>2014-02-15T14:14:59Z</time>
      </trkpt>
      <trkpt lat="42.36612" lon="2.49228">
        <ele>1002.388</ele>
        <time>2014-02-15T14:15:03Z</time>
      </trkpt>
      <trkpt lat="42.366" lon="2.49221">
        <ele>999.48</ele>
        <time>2014-02-15T14:15:09Z</time>
      </trkpt>
      <trkpt lat="42.36597" lon="2.49218">
        <ele>999.494</ele>
        <time>2014-02-15T14:15:11Z</time>
      </trkpt>
      <trkpt lat="42.36578" lon="2.49203">
        <ele>997.057</ele>
        <time>2014-02-15T14:15:23Z</time>
      </trkpt>
      <trkpt lat="42.36565" lon="2.49193">
        <ele>994.122</ele>
        <time>2014-02-15T14:15:34Z</time>
      </trkpt>
      <trkpt lat="42.36561" lon="2.49198">
        <ele>991.707</ele>
        <time>2014-02-15T14:15:42Z</time>
      </trkpt>
      <trkpt lat="42.36558" lon="2.492">
        <ele>989.395</ele>
        <time>2014-02-15T14:15:48Z</time>
      </trkpt>
      <trkpt lat="42.36558" lon="2.49199">
        <ele>989.37</ele>
        <time>2014-02-15T14:15:52Z</time>
      </trkpt>
      <trkpt lat="42.36555" lon="2.49202">
        <ele>986.923</ele>
        <time>2014-02-15T14:15:56Z</time>
      </trkpt>
      <trkpt lat="42.36549" lon="2.49205">
        <ele>985.028</ele>
        <time>2014-02-15T14:16:01Z</time>
      </trkpt>
      <trkpt lat="42.36522" lon="2.49214">
        <ele>981.657</ele>
        <time>2014-02-15T14:16:12Z</time>
      </trkpt>
      <trkpt lat="42.36512" lon="2.49215">
        <ele>979.274</ele>
        <time>2014-02-15T14:16:18Z</time>
      </trkpt>
      <trkpt lat="42.36503" lon="2.49218">
        <ele>975.996</ele>
        <time>2014-02-15T14:16:28Z</time>
      </trkpt>
      <trkpt lat="42.36498" lon="2.49224">
        <ele>973.043</ele>
        <time>2014-02-15T14:16:38Z</time>
      </trkpt>
      <trkpt lat="42.36496" lon="2.49225">
        <ele>969.664</ele>
        <time>2014-02-15T14:16:47Z</time>
      </trkpt>
      <trkpt lat="42.36492" lon="2.49225">
        <ele>968.71</ele>
        <time>2014-02-15T14:16:51Z</time>
      </trkpt>
      <trkpt lat="42.36485" lon="2.49224">
        <ele>966.307</ele>
        <time>2014-02-15T14:16:59Z</time>
      </trkpt>
      <trkpt lat="42.36482" lon="2.49229">
        <ele>965.86</ele>
        <time>2014-02-15T14:17:10Z</time>
      </trkpt>
      <trkpt lat="42.3648" lon="2.49231">
        <ele>965.385</ele>
        <time>2014-02-15T14:17:20Z</time>
      </trkpt>
      <trkpt lat="42.36479" lon="2.49235">
        <ele>967.268</ele>
        <time>2014-02-15T14:17:32Z</time>
      </trkpt>
      <trkpt lat="42.36482" lon="2.49236">
        <ele>968.723</ele>
        <time>2014-02-15T14:17:36Z</time>
      </trkpt>
      <trkpt lat="42.36483" lon="2.49237">
        <ele>968.792</ele>
        <time>2014-02-15T14:17:38Z</time>
      </trkpt>
      <trkpt lat="42.36496" lon="2.49241">
        <ele>969.239</ele>
        <time>2014-02-15T14:17:50Z</time>
      </trkpt>
      <trkpt lat="42.36503" lon="2.49242">
        <ele>969.261</ele>
        <time>2014-02-15T14:18:03Z</time>
      </trkpt>
      <trkpt lat="42.36505" lon="2.49243">
        <ele>968.212</ele>
        <time>2014-02-15T14:18:09Z</time>
      </trkpt>
      <trkpt lat="42.36506" lon="2.49248">
        <ele>967.732</ele>
        <time>2014-02-15T14:18:15Z</time>
      </trkpt>
      <trkpt lat="42.36518" lon="2.49273">
        <ele>966.305</ele>
        <time>2014-02-15T14:18:27Z</time>
      </trkpt>
      <trkpt lat="42.36526" lon="2.49295">
        <ele>968.207</ele>
        <time>2014-02-15T14:18:39Z</time>
      </trkpt>
      <trkpt lat="42.36535" lon="2.49315">
        <ele>971.187</ele>
        <time>2014-02-15T14:18:52Z</time>
      </trkpt>
      <trkpt lat="42.36536" lon="2.49317">
        <ele>972.032</ele>
        <time>2014-02-15T14:18:54Z</time>
      </trkpt>
      <trkpt lat="42.36543" lon="2.49334">
        <ele>974.975</ele>
        <time>2014-02-15T14:19:06Z</time>
      </trkpt>
      <trkpt lat="42.36542" lon="2.49347">
        <ele>977.86</ele>
        <time>2014-02-15T14:19:17Z</time>
      </trkpt>
      <trkpt lat="42.36539" lon="2.49358">
        <ele>980.729</ele>
        <time>2014-02-15T14:19:29Z</time>
      </trkpt>
      <trkpt lat="42.36555" lon="2.49391">
        <ele>983.666</ele>
        <time>2014-02-15T14:19:41Z</time>
      </trkpt>
      <trkpt lat="42.36552" lon="2.494">
        <ele>983.648</ele>
        <time>2014-02-15T14:19:47Z</time>
      </trkpt>
      <trkpt lat="42.36551" lon="2.49412">
        <ele>985.535</ele>
        <time>2014-02-15T14:19:59Z</time>
      </trkpt>
      <trkpt lat="42.36552" lon="2.49432">
        <ele>985.586</ele>
        <time>2014-02-15T14:20:12Z</time>
      </trkpt>
      <trkpt lat="42.36553" lon="2.4944">
        <ele>985.514</ele>
        <time>2014-02-15T14:20:17Z</time>
      </trkpt>
      <trkpt lat="42.36552" lon="2.49443">
        <ele>985.507</ele>
        <time>2014-02-15T14:20:19Z</time>
      </trkpt>
      <trkpt lat="42.36547" lon="2.49466">
        <ele>985.049</ele>
        <time>2014-02-15T14:20:30Z</time>
      </trkpt>
      <trkpt lat="42.36547" lon="2.4947">
        <ele>984.164</ele>
        <time>2014-02-15T14:20:32Z</time>
      </trkpt>
      <trkpt lat="42.36541" lon="2.49489">
        <ele>983.647</ele>
        <time>2014-02-15T14:20:41Z</time>
      </trkpt>
      <trkpt lat="42.36537" lon="2.49498">
        <ele>984.122</ele>
        <time>2014-02-15T14:20:45Z</time>
      </trkpt>
      <trkpt lat="42.36528" lon="2.49517">
        <ele>986.031</ele>
        <time>2014-02-15T14:20:57Z</time>
      </trkpt>
      <trkpt lat="42.36528" lon="2.49527">
        <ele>986.948</ele>
        <time>2014-02-15T14:21:05Z</time>
      </trkpt>
      <trkpt lat="42.36528" lon="2.49535">
        <ele>986.53</ele>
        <time>2014-02-15T14:21:10Z</time>
      </trkpt>
      <trkpt lat="42.36525" lon="2.49552">
        <ele>987.938</ele>
        <time>2014-02-15T14:21:20Z</time>
      </trkpt>
      <trkpt lat="42.36525" lon="2.4956">
        <ele>987.97</ele>
        <time>2014-02-15T14:21:24Z</time>
      </trkpt>
      <trkpt lat="42.36514" lon="2.49579">
        <ele>988.417</ele>
        <time>2014-02-15T14:21:32Z</time>
      </trkpt>
      <trkpt lat="42.36513" lon="2.49585">
        <ele>989.307</ele>
        <time>2014-02-15T14:21:35Z</time>
      </trkpt>
      <trkpt lat="42.36513" lon="2.49596">
        <ele>988.999</ele>
        <time>2014-02-15T14:21:42Z</time>
      </trkpt>
      <trkpt lat="42.36512" lon="2.49605">
        <ele>987.924</ele>
        <time>2014-02-15T14:21:46Z</time>
      </trkpt>
      <trkpt lat="42.36507" lon="2.4963">
        <ele>986.537</ele>
        <time>2014-02-15T14:21:55Z</time>
      </trkpt>
      <trkpt lat="42.36504" lon="2.49641">
        <ele>985.022</ele>
        <time>2014-02-15T14:21:59Z</time>
      </trkpt>
      <trkpt lat="42.365" lon="2.49659">
        <ele>983.681</ele>
        <time>2014-02-15T14:22:05Z</time>
      </trkpt>
      <trkpt lat="42.36496" lon="2.49673">
        <ele>982.158</ele>
        <time>2014-02-15T14:22:10Z</time>
      </trkpt>
      <trkpt lat="42.36492" lon="2.4971">
        <ele>980.24</ele>
        <time>2014-02-15T14:22:23Z</time>
      </trkpt>
      <trkpt lat="42.36495" lon="2.49721">
        <ele>980.769</ele>
        <time>2014-02-15T14:22:27Z</time>
      </trkpt>
      <trkpt lat="42.36495" lon="2.49725">
        <ele>980.704</ele>
        <time>2014-02-15T14:22:29Z</time>
      </trkpt>
      <trkpt lat="42.36491" lon="2.4976">
        <ele>981.624</ele>
        <time>2014-02-15T14:22:43Z</time>
      </trkpt>
      <trkpt lat="42.36503" lon="2.49789">
        <ele>982.607</ele>
        <time>2014-02-15T14:22:51Z</time>
      </trkpt>
      <trkpt lat="42.36499" lon="2.49805">
        <ele>984.532</ele>
        <time>2014-02-15T14:23:00Z</time>
      </trkpt>
      <trkpt lat="42.36497" lon="2.49816">
        <ele>984.147</ele>
        <time>2014-02-15T14:23:06Z</time>
      </trkpt>
      <trkpt lat="42.36489" lon="2.49839">
        <ele>984.54</ele>
        <time>2014-02-15T14:23:15Z</time>
      </trkpt>
      <trkpt lat="42.36485" lon="2.49847">
        <ele>984.535</ele>
        <time>2014-02-15T14:23:20Z</time>
      </trkpt>
      <trkpt lat="42.36485" lon="2.4985">
        <ele>985.054</ele>
        <time>2014-02-15T14:23:22Z</time>
      </trkpt>
      <trkpt lat="42.36477" lon="2.49874">
        <ele>986.011</ele>
        <time>2014-02-15T14:23:35Z</time>
      </trkpt>
      <trkpt lat="42.36459" lon="2.49895">
        <ele>986.583</ele>
        <time>2014-02-15T14:23:49Z</time>
      </trkpt>
      <trkpt lat="42.36456" lon="2.49899">
        <ele>986.926</ele>
        <time>2014-02-15T14:23:51Z</time>
      </trkpt>
      <trkpt lat="42.3645" lon="2.4991">
        <ele>986.047</ele>
        <time>2014-02-15T14:23:58Z</time>
      </trkpt>
      <trkpt lat="42.36448" lon="2.49916">
        <ele>986.511</ele>
        <time>2014-02-15T14:24:02Z</time>
      </trkpt>
      <trkpt lat="42.36448" lon="2.49922">
        <ele>986.007</ele>
        <time>2014-02-15T14:24:06Z</time>
      </trkpt>
      <trkpt lat="42.36444" lon="2.49932">
        <ele>984.158</ele>
        <time>2014-02-15T14:24:11Z</time>
      </trkpt>
      <trkpt lat="42.36437" lon="2.49946">
        <ele>981.683</ele>
        <time>2014-02-15T14:24:17Z</time>
      </trkpt>
      <trkpt lat="42.36445" lon="2.49956">
        <ele>981.616</ele>
        <time>2014-02-15T14:24:28Z</time>
      </trkpt>
      <trkpt lat="42.36448" lon="2.49962">
        <ele>984.521</ele>
        <time>2014-02-15T14:24:40Z</time>
      </trkpt>
      <trkpt lat="42.36445" lon="2.49974">
        <ele>984.56</ele>
        <time>2014-02-15T14:24:51Z</time>
      </trkpt>
      <trkpt lat="42.36445" lon="2.49975">
        <ele>984.137</ele>
        <time>2014-02-15T14:24:52Z</time>
      </trkpt>
      <trkpt lat="42.36444" lon="2.49988">
        <ele>983.639</ele>
        <time>2014-02-15T14:24:57Z</time>
      </trkpt>
      <trkpt lat="42.36438" lon="2.50008">
        <ele>981.637</ele>
        <time>2014-02-15T14:25:06Z</time>
      </trkpt>
      <trkpt lat="42.36446" lon="2.50037">
        <ele>981.649</ele>
        <time>2014-02-15T14:25:19Z</time>
      </trkpt>
      <trkpt lat="42.36454" lon="2.5005">
        <ele>982.113</ele>
        <time>2014-02-15T14:25:28Z</time>
      </trkpt>
      <trkpt lat="42.36462" lon="2.50055">
        <ele>981.207</ele>
        <time>2014-02-15T14:25:32Z</time>
      </trkpt>
      <trkpt lat="42.36471" lon="2.50061">
        <ele>981.289</ele>
        <time>2014-02-15T14:25:36Z</time>
      </trkpt>
      <trkpt lat="42.36482" lon="2.50069">
        <ele>980.724</ele>
        <time>2014-02-15T14:25:41Z</time>
      </trkpt>
      <trkpt lat="42.36497" lon="2.50087">
        <ele>978.827</ele>
        <time>2014-02-15T14:25:50Z</time>
      </trkpt>
      <trkpt lat="42.36501" lon="2.50112">
        <ele>975.972</ele>
        <time>2014-02-15T14:25:58Z</time>
      </trkpt>
      <trkpt lat="42.365" lon="2.5013">
        <ele>973.561</ele>
        <time>2014-02-15T14:26:03Z</time>
      </trkpt>
      <trkpt lat="42.36499" lon="2.50132">
        <ele>973.058</ele>
        <time>2014-02-15T14:26:04Z</time>
      </trkpt>
      <trkpt lat="42.36496" lon="2.50147">
        <ele>969.64</ele>
        <time>2014-02-15T14:26:09Z</time>
      </trkpt>
      <trkpt lat="42.3649" lon="2.50165">
        <ele>967.245</ele>
        <time>2014-02-15T14:26:15Z</time>
      </trkpt>
      <trkpt lat="42.36491" lon="2.50176">
        <ele>965.847</ele>
        <time>2014-02-15T14:26:18Z</time>
      </trkpt>
      <trkpt lat="42.36489" lon="2.5018">
        <ele>964.811</ele>
        <time>2014-02-15T14:26:20Z</time>
      </trkpt>
      <trkpt lat="42.36484" lon="2.50188">
        <ele>963.407</ele>
        <time>2014-02-15T14:26:24Z</time>
      </trkpt>
      <trkpt lat="42.36476" lon="2.50196">
        <ele>961.53</ele>
        <time>2014-02-15T14:26:28Z</time>
      </trkpt>
      <trkpt lat="42.36464" lon="2.50209">
        <ele>959.195</ele>
        <time>2014-02-15T14:26:34Z</time>
      </trkpt>
      <trkpt lat="42.36459" lon="2.50217">
        <ele>958.638</ele>
        <time>2014-02-15T14:26:37Z</time>
      </trkpt>
      <trkpt lat="42.36454" lon="2.50249">
        <ele>955.263</ele>
        <time>2014-02-15T14:26:49Z</time>
      </trkpt>
      <trkpt lat="42.36454" lon="2.50252">
        <ele>954.752</ele>
        <time>2014-02-15T14:26:50Z</time>
      </trkpt>
      <trkpt lat="42.36447" lon="2.50279">
        <ele>951.429</ele>
        <time>2014-02-15T14:27:01Z</time>
      </trkpt>
      <trkpt lat="42.36441" lon="2.50296">
        <ele>950.411</ele>
        <time>2014-02-15T14:27:06Z</time>
      </trkpt>
      <trkpt lat="42.36442" lon="2.50312">
        <ele>949.911</ele>
        <time>2014-02-15T14:27:10Z</time>
      </trkpt>
      <trkpt lat="42.3643" lon="2.50347">
        <ele>949.421</ele>
        <time>2014-02-15T14:27:22Z</time>
      </trkpt>
      <trkpt lat="42.3642" lon="2.50363">
        <ele>949.003</ele>
        <time>2014-02-15T14:27:28Z</time>
      </trkpt>
      <trkpt lat="42.36413" lon="2.50377">
        <ele>948.007</ele>
        <time>2014-02-15T14:27:34Z</time>
      </trkpt>
      <trkpt lat="42.3641" lon="2.50387">
        <ele>947.037</ele>
        <time>2014-02-15T14:27:37Z</time>
      </trkpt>
      <trkpt lat="42.36406" lon="2.50415">
        <ele>945.182</ele>
        <time>2014-02-15T14:27:45Z</time>
      </trkpt>
      <trkpt lat="42.36401" lon="2.50459">
        <ele>941.855</ele>
        <time>2014-02-15T14:27:59Z</time>
      </trkpt>
      <trkpt lat="42.364" lon="2.50464">
        <ele>940.34</ele>
        <time>2014-02-15T14:28:01Z</time>
      </trkpt>
      <trkpt lat="42.36399" lon="2.50474">
        <ele>938.459</ele>
        <time>2014-02-15T14:28:04Z</time>
      </trkpt>
      <trkpt lat="42.36399" lon="2.50482">
        <ele>936.956</ele>
        <time>2014-02-15T14:28:07Z</time>
      </trkpt>
      <trkpt lat="42.36398" lon="2.50484">
        <ele>936.988</ele>
        <time>2014-02-15T14:28:08Z</time>
      </trkpt>
      <trkpt lat="42.364" lon="2.50492">
        <ele>936.511</ele>
        <time>2014-02-15T14:28:10Z</time>
      </trkpt>
      <trkpt lat="42.364" lon="2.50502">
        <ele>936.021</ele>
        <time>2014-02-15T14:28:14Z</time>
      </trkpt>
      <trkpt lat="42.36399" lon="2.50506">
        <ele>937.403</ele>
        <time>2014-02-15T14:28:16Z</time>
      </trkpt>
      <trkpt lat="42.36391" lon="2.50526">
        <ele>935.007</ele>
        <time>2014-02-15T14:28:28Z</time>
      </trkpt>
      <trkpt lat="42.36392" lon="2.50528">
        <ele>934.517</ele>
        <time>2014-02-15T14:28:30Z</time>
      </trkpt>
      <trkpt lat="42.36396" lon="2.5054">
        <ele>932.122</ele>
        <time>2014-02-15T14:28:36Z</time>
      </trkpt>
      <trkpt lat="42.36397" lon="2.50551">
        <ele>930.775</ele>
        <time>2014-02-15T14:28:41Z</time>
      </trkpt>
      <trkpt lat="42.36408" lon="2.50577">
        <ele>928.89</ele>
        <time>2014-02-15T14:28:56Z</time>
      </trkpt>
      <trkpt lat="42.36405" lon="2.50577">
        <ele>927.359</ele>
        <time>2014-02-15T14:28:58Z</time>
      </trkpt>
      <trkpt lat="42.36405" lon="2.50575">
        <ele>925.486</ele>
        <time>2014-02-15T14:29:01Z</time>
      </trkpt>
      <trkpt lat="42.36411" lon="2.50575">
        <ele>923.068</ele>
        <time>2014-02-15T14:29:06Z</time>
      </trkpt>
      <trkpt lat="42.36418" lon="2.50575">
        <ele>923.091</ele>
        <time>2014-02-15T14:29:10Z</time>
      </trkpt>
      <trkpt lat="42.36421" lon="2.50572">
        <ele>921.181</ele>
        <time>2014-02-15T14:29:15Z</time>
      </trkpt>
      <trkpt lat="42.36448" lon="2.50596">
        <ele>917.719</ele>
        <time>2014-02-15T14:29:26Z</time>
      </trkpt>
      <trkpt lat="42.36452" lon="2.50599">
        <ele>917.707</ele>
        <time>2014-02-15T14:29:28Z</time>
      </trkpt>
      <trkpt lat="42.36486" lon="2.50638">
        <ele>915.855</ele>
        <time>2014-02-15T14:29:39Z</time>
      </trkpt>
      <trkpt lat="42.36508" lon="2.50666">
        <ele>914.81</ele>
        <time>2014-02-15T14:29:47Z</time>
      </trkpt>
      <trkpt lat="42.36518" lon="2.50682">
        <ele>913.963</ele>
        <time>2014-02-15T14:29:52Z</time>
      </trkpt>
      <trkpt lat="42.36526" lon="2.50696">
        <ele>912.948</ele>
        <time>2014-02-15T14:29:59Z</time>
      </trkpt>
      <trkpt lat="42.36533" lon="2.50707">
        <ele>911.077</ele>
        <time>2014-02-15T14:30:03Z</time>
      </trkpt>
      <trkpt lat="42.36538" lon="2.50713">
        <ele>909.544</ele>
        <time>2014-02-15T14:30:06Z</time>
      </trkpt>
      <trkpt lat="42.36543" lon="2.50718">
        <ele>908.146</ele>
        <time>2014-02-15T14:30:09Z</time>
      </trkpt>
      <trkpt lat="42.36544" lon="2.50719">
        <ele>907.133</ele>
        <time>2014-02-15T14:30:10Z</time>
      </trkpt>
      <trkpt lat="42.36549" lon="2.50727">
        <ele>905.723</ele>
        <time>2014-02-15T14:30:15Z</time>
      </trkpt>
      <trkpt lat="42.36553" lon="2.50736">
        <ele>904.715</ele>
        <time>2014-02-15T14:30:19Z</time>
      </trkpt>
      <trkpt lat="42.36566" lon="2.50768">
        <ele>901.907</ele>
        <time>2014-02-15T14:30:30Z</time>
      </trkpt>
      <trkpt lat="42.36568" lon="2.50773">
        <ele>901.969</ele>
        <time>2014-02-15T14:30:32Z</time>
      </trkpt>
      <trkpt lat="42.36573" lon="2.50797">
        <ele>899.534</ele>
        <time>2014-02-15T14:30:41Z</time>
      </trkpt>
      <trkpt lat="42.36577" lon="2.50808">
        <ele>898.037</ele>
        <time>2014-02-15T14:30:45Z</time>
      </trkpt>
      <trkpt lat="42.36579" lon="2.50811">
        <ele>897.172</ele>
        <time>2014-02-15T14:30:46Z</time>
      </trkpt>
      <trkpt lat="42.36581" lon="2.50826">
        <ele>895.681</ele>
        <time>2014-02-15T14:30:51Z</time>
      </trkpt>
      <trkpt lat="42.36589" lon="2.50847">
        <ele>891.868</ele>
        <time>2014-02-15T14:31:01Z</time>
      </trkpt>
      <trkpt lat="42.36601" lon="2.50879">
        <ele>890.36</ele>
        <time>2014-02-15T14:31:13Z</time>
      </trkpt>
      <trkpt lat="42.3661" lon="2.50905">
        <ele>890.872</ele>
        <time>2014-02-15T14:31:23Z</time>
      </trkpt>
      <trkpt lat="42.36628" lon="2.50936">
        <ele>892.713</ele>
        <time>2014-02-15T14:31:35Z</time>
      </trkpt>
      <trkpt lat="42.36628" lon="2.50938">
        <ele>892.714</ele>
        <time>2014-02-15T14:31:36Z</time>
      </trkpt>
      <trkpt lat="42.36643" lon="2.50964">
        <ele>893.207</ele>
        <time>2014-02-15T14:31:54Z</time>
      </trkpt>
      <trkpt lat="42.36664" lon="2.50987">
        <ele>893.723</ele>
        <time>2014-02-15T14:32:08Z</time>
      </trkpt>
      <trkpt lat="42.36668" lon="2.50991">
        <ele>894.288</ele>
        <time>2014-02-15T14:32:10Z</time>
      </trkpt>
      <trkpt lat="42.36682" lon="2.51015">
        <ele>894.221</ele>
        <time>2014-02-15T14:32:23Z</time>
      </trkpt>
      <trkpt lat="42.36696" lon="2.51035">
        <ele>890.896</ele>
        <time>2014-02-15T14:32:32Z</time>
      </trkpt>
      <trkpt lat="42.36706" lon="2.51076">
        <ele>889.855</ele>
        <time>2014-02-15T14:32:45Z</time>
      </trkpt>
      <trkpt lat="42.36715" lon="2.51111">
        <ele>891.362</ele>
        <time>2014-02-15T14:33:01Z</time>
      </trkpt>
      <trkpt lat="42.36729" lon="2.51138">
        <ele>890.394</ele>
        <time>2014-02-15T14:33:15Z</time>
      </trkpt>
      <trkpt lat="42.36757" lon="2.51203">
        <ele>890.849</ele>
        <time>2014-02-15T14:33:30Z</time>
      </trkpt>
      <trkpt lat="42.36759" lon="2.5122">
        <ele>890.802</ele>
        <time>2014-02-15T14:33:41Z</time>
      </trkpt>
      <trkpt lat="42.36757" lon="2.51228">
        <ele>890.822</ele>
        <time>2014-02-15T14:33:46Z</time>
      </trkpt>
      <trkpt lat="42.36757" lon="2.51248">
        <ele>890.807</ele>
        <time>2014-02-15T14:33:58Z</time>
      </trkpt>
      <trkpt lat="42.36755" lon="2.51267">
        <ele>889.83</ele>
        <time>2014-02-15T14:34:10Z</time>
      </trkpt>
      <trkpt lat="42.3675" lon="2.51287">
        <ele>886.565</ele>
        <time>2014-02-15T14:34:20Z</time>
      </trkpt>
      <trkpt lat="42.36748" lon="2.5129">
        <ele>886.588</ele>
        <time>2014-02-15T14:34:22Z</time>
      </trkpt>
      <trkpt lat="42.36742" lon="2.51298">
        <ele>884.113</ele>
        <time>2014-02-15T14:34:29Z</time>
      </trkpt>
      <trkpt lat="42.3673" lon="2.51311">
        <ele>879.772</ele>
        <time>2014-02-15T14:34:40Z</time>
      </trkpt>
      <trkpt lat="42.36726" lon="2.51313">
        <ele>880.299</ele>
        <time>2014-02-15T14:34:42Z</time>
      </trkpt>
      <trkpt lat="42.36721" lon="2.51315">
        <ele>879.371</ele>
        <time>2014-02-15T14:34:46Z</time>
      </trkpt>
      <trkpt lat="42.36716" lon="2.51318">
        <ele>877.863</ele>
        <time>2014-02-15T14:34:52Z</time>
      </trkpt>
      <trkpt lat="42.36712" lon="2.51322">
        <ele>876.444</ele>
        <time>2014-02-15T14:34:56Z</time>
      </trkpt>
      <trkpt lat="42.36712" lon="2.51323">
        <ele>876.918</ele>
        <time>2014-02-15T14:34:57Z</time>
      </trkpt>
      <trkpt lat="42.36708" lon="2.51329">
        <ele>875.907</ele>
        <time>2014-02-15T14:35:00Z</time>
      </trkpt>
      <trkpt lat="42.36706" lon="2.51331">
        <ele>875.492</ele>
        <time>2014-02-15T14:35:01Z</time>
      </trkpt>
      <trkpt lat="42.36702" lon="2.5134">
        <ele>874.937</ele>
        <time>2014-02-15T14:35:05Z</time>
      </trkpt>
      <trkpt lat="42.3669" lon="2.51355">
        <ele>873.58</ele>
        <time>2014-02-15T14:35:11Z</time>
      </trkpt>
      <trkpt lat="42.36687" lon="2.5136">
        <ele>873.085</ele>
        <time>2014-02-15T14:35:13Z</time>
      </trkpt>
      <trkpt lat="42.36686" lon="2.51362">
        <ele>873.524</ele>
        <time>2014-02-15T14:35:14Z</time>
      </trkpt>
      <trkpt lat="42.36669" lon="2.51383">
        <ele>871.191</ele>
        <time>2014-02-15T14:35:24Z</time>
      </trkpt>
      <trkpt lat="42.36667" lon="2.51385">
        <ele>871.123</ele>
        <time>2014-02-15T14:35:25Z</time>
      </trkpt>
      <trkpt lat="42.36648" lon="2.51388">
        <ele>870.188</ele>
        <time>2014-02-15T14:35:37Z</time>
      </trkpt>
      <trkpt lat="42.36625" lon="2.51378">
        <ele>870.124</ele>
        <time>2014-02-15T14:35:50Z</time>
      </trkpt>
      <trkpt lat="42.36607" lon="2.51375">
        <ele>868.726</ele>
        <time>2014-02-15T14:36:01Z</time>
      </trkpt>
      <trkpt lat="42.36607" lon="2.51376">
        <ele>868.207</ele>
        <time>2014-02-15T14:36:03Z</time>
      </trkpt>
      <trkpt lat="42.36602" lon="2.51381">
        <ele>867.324</ele>
        <time>2014-02-15T14:36:08Z</time>
      </trkpt>
      <trkpt lat="42.36601" lon="2.51387">
        <ele>865.379</ele>
        <time>2014-02-15T14:36:12Z</time>
      </trkpt>
      <trkpt lat="42.366" lon="2.51392">
        <ele>864.812</ele>
        <time>2014-02-15T14:36:14Z</time>
      </trkpt>
      <trkpt lat="42.36597" lon="2.51404">
        <ele>862.027</ele>
        <time>2014-02-15T14:36:19Z</time>
      </trkpt>
      <trkpt lat="42.36595" lon="2.51411">
        <ele>860.096</ele>
        <time>2014-02-15T14:36:23Z</time>
      </trkpt>
      <trkpt lat="42.3659" lon="2.5143">
        <ele>856.233</ele>
        <time>2014-02-15T14:36:31Z</time>
      </trkpt>
      <trkpt lat="42.36586" lon="2.51445">
        <ele>853.855</ele>
        <time>2014-02-15T14:36:36Z</time>
      </trkpt>
      <trkpt lat="42.36578" lon="2.51472">
        <ele>849.913</ele>
        <time>2014-02-15T14:36:46Z</time>
      </trkpt>
      <trkpt lat="42.36577" lon="2.51475">
        <ele>849.943</ele>
        <time>2014-02-15T14:36:47Z</time>
      </trkpt>
      <trkpt lat="42.36572" lon="2.51486">
        <ele>848.507</ele>
        <time>2014-02-15T14:36:52Z</time>
      </trkpt>
      <trkpt lat="42.36569" lon="2.5149">
        <ele>847.507</ele>
        <time>2014-02-15T14:36:54Z</time>
      </trkpt>
      <trkpt lat="42.36558" lon="2.51512">
        <ele>844.237</ele>
        <time>2014-02-15T14:37:04Z</time>
      </trkpt>
      <trkpt lat="42.36551" lon="2.51524">
        <ele>842.722</ele>
        <time>2014-02-15T14:37:11Z</time>
      </trkpt>
      <trkpt lat="42.36551" lon="2.51526">
        <ele>842.375</ele>
        <time>2014-02-15T14:37:12Z</time>
      </trkpt>
      <trkpt lat="42.36551" lon="2.51528">
        <ele>842.33</ele>
        <time>2014-02-15T14:37:13Z</time>
      </trkpt>
      <trkpt lat="42.3655" lon="2.51532">
        <ele>840.329</ele>
        <time>2014-02-15T14:37:15Z</time>
      </trkpt>
      <trkpt lat="42.3655" lon="2.51536">
        <ele>839.446</ele>
        <time>2014-02-15T14:37:17Z</time>
      </trkpt>
      <trkpt lat="42.36549" lon="2.51539">
        <ele>838.938</ele>
        <time>2014-02-15T14:37:18Z</time>
      </trkpt>
      <trkpt lat="42.36546" lon="2.51541">
        <ele>838.487</ele>
        <time>2014-02-15T14:37:20Z</time>
      </trkpt>
      <trkpt lat="42.36542" lon="2.51547">
        <ele>836.542</ele>
        <time>2014-02-15T14:37:25Z</time>
      </trkpt>
      <trkpt lat="42.36534" lon="2.51548">
        <ele>833.626</ele>
        <time>2014-02-15T14:37:33Z</time>
      </trkpt>
      <trkpt lat="42.3653" lon="2.51545">
        <ele>830.207</ele>
        <time>2014-02-15T14:37:41Z</time>
      </trkpt>
      <trkpt lat="42.3653" lon="2.51553">
        <ele>827.814</ele>
        <time>2014-02-15T14:37:50Z</time>
      </trkpt>
      <trkpt lat="42.36531" lon="2.51557">
        <ele>825.999</ele>
        <time>2014-02-15T14:37:53Z</time>
      </trkpt>
      <trkpt lat="42.36534" lon="2.51569">
        <ele>823.072</ele>
        <time>2014-02-15T14:38:01Z</time>
      </trkpt>
      <trkpt lat="42.36535" lon="2.51571">
        <ele>822.657</ele>
        <time>2014-02-15T14:38:02Z</time>
      </trkpt>
      <trkpt lat="42.36539" lon="2.51576">
        <ele>822.166</ele>
        <time>2014-02-15T14:38:06Z</time>
      </trkpt>
      <trkpt lat="42.36549" lon="2.51584">
        <ele>820.683</ele>
        <time>2014-02-15T14:38:19Z</time>
      </trkpt>
      <trkpt lat="42.36472" lon="2.51613">
        <ele>819.285</ele>
        <time>2014-02-15T14:38:32Z</time>
      </trkpt>
      <trkpt lat="42.36472" lon="2.51613">
        <ele>819.233</ele>
        <time>2014-02-15T14:38:34Z</time>
      </trkpt>
      <trkpt lat="42.36468" lon="2.51613">
        <ele>818.723</ele>
        <time>2014-02-15T14:38:37Z</time>
      </trkpt>
      <trkpt lat="42.36455" lon="2.51608">
        <ele>815.815</ele>
        <time>2014-02-15T14:38:49Z</time>
      </trkpt>
      <trkpt lat="42.36439" lon="2.51609">
        <ele>813.407</ele>
        <time>2014-02-15T14:39:03Z</time>
      </trkpt>
      <trkpt lat="42.36428" lon="2.51616">
        <ele>812.099</ele>
        <time>2014-02-15T14:39:14Z</time>
      </trkpt>
      <trkpt lat="42.36419" lon="2.51627">
        <ele>810.124</ele>
        <time>2014-02-15T14:39:21Z</time>
      </trkpt>
      <trkpt lat="42.36413" lon="2.51633">
        <ele>808.637</ele>
        <time>2014-02-15T14:39:25Z</time>
      </trkpt>
      <trkpt lat="42.36409" lon="2.51637">
        <ele>808.122</ele>
        <time>2014-02-15T14:39:27Z</time>
      </trkpt>
      <trkpt lat="42.36398" lon="2.51654">
        <ele>804.881</ele>
        <time>2014-02-15T14:39:36Z</time>
      </trkpt>
      <trkpt lat="42.36395" lon="2.51657">
        <ele>804.378</ele>
        <time>2014-02-15T14:39:39Z</time>
      </trkpt>
      <trkpt lat="42.36389" lon="2.51668">
        <ele>801.45</ele>
        <time>2014-02-15T14:39:46Z</time>
      </trkpt>
      <trkpt lat="42.3638" lon="2.51675">
        <ele>800.972</ele>
        <time>2014-02-15T14:39:58Z</time>
      </trkpt>
      <trkpt lat="42.36351" lon="2.51683">
        <ele>800.013</ele>
        <time>2014-02-15T14:40:12Z</time>
      </trkpt>
      <trkpt lat="42.36349" lon="2.51689">
        <ele>799.014</ele>
        <time>2014-02-15T14:40:22Z</time>
      </trkpt>
      <trkpt lat="42.36345" lon="2.51694">
        <ele>798.007</ele>
        <time>2014-02-15T14:40:39Z</time>
      </trkpt>
      <trkpt lat="42.36342" lon="2.517">
        <ele>797.143</ele>
        <time>2014-02-15T14:41:01Z</time>
      </trkpt>
      <trkpt lat="42.36338" lon="2.51706">
        <ele>796.188</ele>
        <time>2014-02-15T14:41:09Z</time>
      </trkpt>
      <trkpt lat="42.36332" lon="2.51717">
        <ele>793.771</ele>
        <time>2014-02-15T14:41:23Z</time>
      </trkpt>
      <trkpt lat="42.36331" lon="2.51718">
        <ele>793.766</ele>
        <time>2014-02-15T14:41:25Z</time>
      </trkpt>
      <trkpt lat="42.36333" lon="2.51719">
        <ele>793.225</ele>
        <time>2014-02-15T14:41:27Z</time>
      </trkpt>
      <trkpt lat="42.36345" lon="2.51722">
        <ele>790.832</ele>
        <time>2014-02-15T14:41:37Z</time>
      </trkpt>
      <trkpt lat="42.36347" lon="2.51733">
        <ele>788.974</ele>
        <time>2014-02-15T14:41:44Z</time>
      </trkpt>
      <trkpt lat="42.36345" lon="2.51735">
        <ele>788.924</ele>
        <time>2014-02-15T14:41:46Z</time>
      </trkpt>
      <trkpt lat="42.36339" lon="2.51758">
        <ele>786.004</ele>
        <time>2014-02-15T14:42:01Z</time>
      </trkpt>
      <trkpt lat="42.36337" lon="2.51752">
        <ele>784.614</ele>
        <time>2014-02-15T14:42:10Z</time>
      </trkpt>
      <trkpt lat="42.36337" lon="2.51747">
        <ele>784.107</ele>
        <time>2014-02-15T14:42:13Z</time>
      </trkpt>
      <trkpt lat="42.36334" lon="2.51745">
        <ele>783.628</ele>
        <time>2014-02-15T14:42:15Z</time>
      </trkpt>
      <trkpt lat="42.36325" lon="2.51751">
        <ele>782.773</ele>
        <time>2014-02-15T14:42:25Z</time>
      </trkpt>
      <trkpt lat="42.36321" lon="2.51756">
        <ele>782.766</ele>
        <time>2014-02-15T14:42:30Z</time>
      </trkpt>
      <trkpt lat="42.3632" lon="2.51758">
        <ele>783.161</ele>
        <time>2014-02-15T14:42:31Z</time>
      </trkpt>
      <trkpt lat="42.36309" lon="2.51769">
        <ele>784.19</ele>
        <time>2014-02-15T14:42:40Z</time>
      </trkpt>
      <trkpt lat="42.36291" lon="2.51776">
        <ele>785.587</ele>
        <time>2014-02-15T14:42:56Z</time>
      </trkpt>
      <trkpt lat="42.36274" lon="2.51787">
        <ele>783.159</ele>
        <time>2014-02-15T14:43:07Z</time>
      </trkpt>
      <trkpt lat="42.36264" lon="2.51795">
        <ele>779.377</ele>
        <time>2014-02-15T14:43:16Z</time>
      </trkpt>
      <trkpt lat="42.36252" lon="2.51806">
        <ele>777.461</ele>
        <time>2014-02-15T14:43:29Z</time>
      </trkpt>
      <trkpt lat="42.36232" lon="2.51822">
        <ele>776.427</ele>
        <time>2014-02-15T14:43:42Z</time>
      </trkpt>
      <trkpt lat="42.36214" lon="2.51833">
        <ele>777.407</ele>
        <time>2014-02-15T14:43:56Z</time>
      </trkpt>
      <trkpt lat="42.36203" lon="2.51837">
        <ele>777.893</ele>
        <time>2014-02-15T14:44:06Z</time>
      </trkpt>
      <trkpt lat="42.36186" lon="2.51841">
        <ele>779.318</ele>
        <time>2014-02-15T14:44:22Z</time>
      </trkpt>
      <trkpt lat="42.3617" lon="2.51855">
        <ele>779.881</ele>
        <time>2014-02-15T14:44:38Z</time>
      </trkpt>
      <trkpt lat="42.36167" lon="2.51858">
        <ele>780.796</ele>
        <time>2014-02-15T14:44:54Z</time>
      </trkpt>
      <trkpt lat="42.36163" lon="2.5186">
        <ele>780.375</ele>
        <time>2014-02-15T14:45:08Z</time>
      </trkpt>
      <trkpt lat="42.36161" lon="2.51861">
        <ele>772.132</ele>
        <time>2014-02-15T14:45:14Z</time>
      </trkpt>
      <trkpt lat="42.3616" lon="2.51861">
        <ele>771.154</ele>
        <time>2014-02-15T14:45:15Z</time>
      </trkpt>
      <trkpt lat="42.3616" lon="2.51861">
        <ele>781.764</ele>
        <time>2014-02-15T14:45:16Z</time>
      </trkpt>
      <trkpt lat="42.3616" lon="2.51861">
        <ele>778.306</ele>
        <time>2014-02-15T14:45:17Z</time>
      </trkpt>
      <trkpt lat="42.3616" lon="2.51861">
        <ele>782.716</ele>
        <time>2014-02-15T14:45:18Z</time>
      </trkpt>
      <trkpt lat="42.36159" lon="2.51861">
        <ele>788.907</ele>
        <time>2014-02-15T14:45:21Z</time>
      </trkpt>
      <trkpt lat="42.36159" lon="2.5186">
        <ele>788.942</ele>
        <time>2014-02-15T14:45:22Z</time>
      </trkpt>
      <trkpt lat="42.36159" lon="2.5186">
        <ele>784.127</ele>
        <time>2014-02-15T14:45:23Z</time>
      </trkpt>
      <trkpt lat="42.36159" lon="2.5186">
        <ele>781.76</ele>
        <time>2014-02-15T14:45:24Z</time>
      </trkpt>
      <trkpt lat="42.36158" lon="2.51857">
        <ele>780.315</ele>
        <time>2014-02-15T14:45:37Z</time>
      </trkpt>
      <trkpt lat="42.36159" lon="2.51858">
        <ele>779.844</ele>
        <time>2014-02-15T14:45:52Z</time>
      </trkpt>
      <trkpt lat="42.36159" lon="2.51864">
        <ele>778.891</ele>
        <time>2014-02-15T14:45:56Z</time>
      </trkpt>
      <trkpt lat="42.3616" lon="2.51868">
        <ele>778.373</ele>
        <time>2014-02-15T14:45:58Z</time>
      </trkpt>
      <trkpt lat="42.36156" lon="2.51883">
        <ele>780.373</ele>
        <time>2014-02-15T14:46:14Z</time>
      </trkpt>
      <trkpt lat="42.36143" lon="2.51893">
        <ele>783.185</ele>
        <time>2014-02-15T14:46:29Z</time>
      </trkpt>
      <trkpt lat="42.36136" lon="2.51897">
        <ele>786.513</ele>
        <time>2014-02-15T14:46:43Z</time>
      </trkpt>
      <trkpt lat="42.36128" lon="2.51901">
        <ele>789.407</ele>
        <time>2014-02-15T14:46:57Z</time>
      </trkpt>
      <trkpt lat="42.36125" lon="2.51903">
        <ele>789.983</ele>
        <time>2014-02-15T14:47:00Z</time>
      </trkpt>
      <trkpt lat="42.36108" lon="2.51909">
        <ele>792.358</ele>
        <time>2014-02-15T14:47:14Z</time>
      </trkpt>
      <trkpt lat="42.36092" lon="2.51921">
        <ele>793.721</ele>
        <time>2014-02-15T14:47:30Z</time>
      </trkpt>
      <trkpt lat="42.36083" lon="2.51926">
        <ele>797.686</ele>
        <time>2014-02-15T14:47:41Z</time>
      </trkpt>
      <trkpt lat="42.36082" lon="2.51928">
        <ele>799.585</ele>
        <time>2014-02-15T14:47:53Z</time>
      </trkpt>
      <trkpt lat="42.36083" lon="2.51938">
        <ele>800.912</ele>
        <time>2014-02-15T14:48:08Z</time>
      </trkpt>
      <trkpt lat="42.36093" lon="2.51944">
        <ele>801.984</ele>
        <time>2014-02-15T14:48:24Z</time>
      </trkpt>
      <trkpt lat="42.36093" lon="2.51948">
        <ele>801.911</ele>
        <time>2014-02-15T14:48:37Z</time>
      </trkpt>
      <trkpt lat="42.36089" lon="2.51948">
        <ele>801.421</ele>
        <time>2014-02-15T14:49:03Z</time>
      </trkpt>
      <trkpt lat="42.36092" lon="2.51951">
        <ele>801.403</ele>
        <time>2014-02-15T14:49:25Z</time>
      </trkpt>
      <trkpt lat="42.3609" lon="2.51946">
        <ele>800.907</ele>
        <time>2014-02-15T14:49:45Z</time>
      </trkpt>
      <trkpt lat="42.36088" lon="2.51942">
        <ele>800.447</ele>
        <time>2014-02-15T14:50:06Z</time>
      </trkpt>
      <trkpt lat="42.36094" lon="2.51951">
        <ele>800.992</ele>
        <time>2014-02-15T14:50:29Z</time>
      </trkpt>
      <trkpt lat="42.36097" lon="2.51957">
        <ele>800.955</ele>
        <time>2014-02-15T14:50:52Z</time>
      </trkpt>
      <trkpt lat="42.36097" lon="2.5196">
        <ele>800.96</ele>
        <time>2014-02-15T14:51:13Z</time>
      </trkpt>
      <trkpt lat="42.36097" lon="2.51961">
        <ele>799.539</ele>
        <time>2014-02-15T14:51:28Z</time>
      </trkpt>
      <trkpt lat="42.36096" lon="2.51965">
        <ele>800.056</ele>
        <time>2014-02-15T14:51:46Z</time>
      </trkpt>
      <trkpt lat="42.36094" lon="2.51967">
        <ele>799.578</ele>
        <time>2014-02-15T14:52:01Z</time>
      </trkpt>
      <trkpt lat="42.36094" lon="2.51966">
        <ele>799.544</ele>
        <time>2014-02-15T14:52:16Z</time>
      </trkpt>
      <trkpt lat="42.36089" lon="2.51961">
        <ele>799.505</ele>
        <time>2014-02-15T14:52:40Z</time>
      </trkpt>
      <trkpt lat="42.36089" lon="2.51968">
        <ele>799.515</ele>
        <time>2014-02-15T14:53:03Z</time>
      </trkpt>
      <trkpt lat="42.36076" lon="2.51944">
        <ele>799.007</ele>
        <time>2014-02-15T14:53:24Z</time>
      </trkpt>
      <trkpt lat="42.3608" lon="2.51938">
        <ele>799.56</ele>
        <time>2014-02-15T14:53:49Z</time>
      </trkpt>
      <trkpt lat="42.36083" lon="2.51935">
        <ele>799.045</ele>
        <time>2014-02-15T14:53:53Z</time>
      </trkpt>
      <trkpt lat="42.36092" lon="2.51938">
        <ele>799.088</ele>
        <time>2014-02-15T14:54:18Z</time>
      </trkpt>
      <trkpt lat="42.36093" lon="2.51953">
        <ele>798.523</ele>
        <time>2014-02-15T14:54:29Z</time>
      </trkpt>
      <trkpt lat="42.36085" lon="2.51946">
        <ele>797.622</ele>
        <time>2014-02-15T14:54:42Z</time>
      </trkpt>
      <trkpt lat="42.36083" lon="2.51947">
        <ele>798.049</ele>
        <time>2014-02-15T14:54:45Z</time>
      </trkpt>
      <trkpt lat="42.36078" lon="2.51953">
        <ele>797.661</ele>
        <time>2014-02-15T14:54:56Z</time>
      </trkpt>
      <trkpt lat="42.36061" lon="2.51955">
        <ele>795.633</ele>
        <time>2014-02-15T14:55:13Z</time>
      </trkpt>
      <trkpt lat="42.36042" lon="2.51958">
        <ele>794.223</ele>
        <time>2014-02-15T14:55:28Z</time>
      </trkpt>
      <trkpt lat="42.36038" lon="2.51958">
        <ele>794.215</ele>
        <time>2014-02-15T14:55:30Z</time>
      </trkpt>
      <trkpt lat="42.36035" lon="2.51961">
        <ele>794.707</ele>
        <time>2014-02-15T14:55:33Z</time>
      </trkpt>
      <trkpt lat="42.36019" lon="2.51967">
        <ele>795.259</ele>
        <time>2014-02-15T14:55:49Z</time>
      </trkpt>
      <trkpt lat="42.36011" lon="2.51971">
        <ele>797.114</ele>
        <time>2014-02-15T14:56:02Z</time>
      </trkpt>
      <trkpt lat="42.36016" lon="2.51988">
        <ele>800.017</ele>
        <time>2014-02-15T14:56:13Z</time>
      </trkpt>
      <trkpt lat="42.3602" lon="2.51993">
        <ele>800.982</ele>
        <time>2014-02-15T14:56:19Z</time>
      </trkpt>
      <trkpt lat="42.36025" lon="2.52013">
        <ele>803.811</ele>
        <time>2014-02-15T14:56:33Z</time>
      </trkpt>
      <trkpt lat="42.36024" lon="2.52016">
        <ele>804.858</ele>
        <time>2014-02-15T14:56:36Z</time>
      </trkpt>
      <trkpt lat="42.36017" lon="2.52024">
        <ele>806.77</ele>
        <time>2014-02-15T14:56:42Z</time>
      </trkpt>
      <trkpt lat="42.36009" lon="2.52043">
        <ele>808.171</ele>
        <time>2014-02-15T14:56:56Z</time>
      </trkpt>
      <trkpt lat="42.36009" lon="2.52044">
        <ele>808.141</ele>
        <time>2014-02-15T14:56:57Z</time>
      </trkpt>
      <trkpt lat="42.36001" lon="2.52052">
        <ele>809.115</ele>
        <time>2014-02-15T14:57:06Z</time>
      </trkpt>
      <trkpt lat="42.35992" lon="2.52062">
        <ele>809.607</ele>
        <time>2014-02-15T14:57:16Z</time>
      </trkpt>
      <trkpt lat="42.35983" lon="2.52072">
        <ele>811.023</ele>
        <time>2014-02-15T14:57:27Z</time>
      </trkpt>
      <trkpt lat="42.35983" lon="2.5208">
        <ele>811.528</ele>
        <time>2014-02-15T14:57:31Z</time>
      </trkpt>
      <trkpt lat="42.35981" lon="2.52089">
        <ele>812.051</ele>
        <time>2014-02-15T14:57:36Z</time>
      </trkpt>
      <trkpt lat="42.35972" lon="2.52102">
        <ele>812.076</ele>
        <time>2014-02-15T14:57:49Z</time>
      </trkpt>
      <trkpt lat="42.35971" lon="2.52106">
        <ele>812.595</ele>
        <time>2014-02-15T14:58:13Z</time>
      </trkpt>
      <trkpt lat="42.35974" lon="2.52114">
        <ele>813.462</ele>
        <time>2014-02-15T14:58:43Z</time>
      </trkpt>
      <trkpt lat="42.35975" lon="2.52116">
        <ele>816.324</ele>
        <time>2014-02-15T14:58:57Z</time>
      </trkpt>
      <trkpt lat="42.35979" lon="2.52125">
        <ele>819.264</ele>
        <time>2014-02-15T14:59:10Z</time>
      </trkpt>
      <trkpt lat="42.35979" lon="2.52137">
        <ele>822.606</ele>
        <time>2014-02-15T14:59:23Z</time>
      </trkpt>
      <trkpt lat="42.35978" lon="2.52149">
        <ele>824.516</ele>
        <time>2014-02-15T14:59:36Z</time>
      </trkpt>
      <trkpt lat="42.35978" lon="2.52152">
        <ele>825.907</ele>
        <time>2014-02-15T14:59:39Z</time>
      </trkpt>
      <trkpt lat="42.35973" lon="2.52162">
        <ele>827.852</ele>
        <time>2014-02-15T14:59:53Z</time>
      </trkpt>
      <trkpt lat="42.35978" lon="2.52183">
        <ele>831.267</ele>
        <time>2014-02-15T15:00:06Z</time>
      </trkpt>
      <trkpt lat="42.35978" lon="2.52191">
        <ele>831.75</ele>
        <time>2014-02-15T15:00:11Z</time>
      </trkpt>
      <trkpt lat="42.35972" lon="2.52216">
        <ele>834.615</ele>
        <time>2014-02-15T15:00:27Z</time>
      </trkpt>
      <trkpt lat="42.3597" lon="2.52231">
        <ele>837.064</ele>
        <time>2014-02-15T15:00:40Z</time>
      </trkpt>
      <trkpt lat="42.35968" lon="2.52244">
        <ele>840.341</ele>
        <time>2014-02-15T15:00:53Z</time>
      </trkpt>
      <trkpt lat="42.3596" lon="2.52264">
        <ele>842.373</ele>
        <time>2014-02-15T15:01:09Z</time>
      </trkpt>
      <trkpt lat="42.35959" lon="2.52265">
        <ele>842.732</ele>
        <time>2014-02-15T15:01:10Z</time>
      </trkpt>
      <trkpt lat="42.35952" lon="2.52282">
        <ele>843.792</ele>
        <time>2014-02-15T15:01:22Z</time>
      </trkpt>
      <trkpt lat="42.35943" lon="2.52303">
        <ele>845.611</ele>
        <time>2014-02-15T15:01:38Z</time>
      </trkpt>
      <trkpt lat="42.35928" lon="2.52312">
        <ele>845.607</ele>
        <time>2014-02-15T15:01:51Z</time>
      </trkpt>
      <trkpt lat="42.35917" lon="2.52331">
        <ele>848.519</ele>
        <time>2014-02-15T15:02:07Z</time>
      </trkpt>
      <trkpt lat="42.35906" lon="2.52351">
        <ele>849.934</ele>
        <time>2014-02-15T15:02:21Z</time>
      </trkpt>
      <trkpt lat="42.35902" lon="2.52364">
        <ele>851.437</ele>
        <time>2014-02-15T15:02:30Z</time>
      </trkpt>
      <trkpt lat="42.35897" lon="2.52382">
        <ele>851.972</ele>
        <time>2014-02-15T15:02:43Z</time>
      </trkpt>
      <trkpt lat="42.35898" lon="2.5239">
        <ele>851.921</ele>
        <time>2014-02-15T15:02:47Z</time>
      </trkpt>
      <trkpt lat="42.35896" lon="2.52401">
        <ele>851.918</ele>
        <time>2014-02-15T15:02:55Z</time>
      </trkpt>
      <trkpt lat="42.35895" lon="2.52408">
        <ele>851.99</ele>
        <time>2014-02-15T15:02:59Z</time>
      </trkpt>
      <trkpt lat="42.35888" lon="2.52423">
        <ele>849.923</ele>
        <time>2014-02-15T15:03:11Z</time>
      </trkpt>
      <trkpt lat="42.35888" lon="2.52424">
        <ele>849.583</ele>
        <time>2014-02-15T15:03:12Z</time>
      </trkpt>
      <trkpt lat="42.35885" lon="2.52432">
        <ele>849.511</ele>
        <time>2014-02-15T15:03:16Z</time>
      </trkpt>
      <trkpt lat="42.35878" lon="2.52441">
        <ele>847.107</ele>
        <time>2014-02-15T15:03:23Z</time>
      </trkpt>
      <trkpt lat="42.35857" lon="2.52461">
        <ele>847.568</ele>
        <time>2014-02-15T15:03:36Z</time>
      </trkpt>
      <trkpt lat="42.35854" lon="2.52471">
        <ele>850.483</ele>
        <time>2014-02-15T15:03:48Z</time>
      </trkpt>
      <trkpt lat="42.35854" lon="2.52486">
        <ele>853.316</ele>
        <time>2014-02-15T15:04:03Z</time>
      </trkpt>
      <trkpt lat="42.35855" lon="2.52491">
        <ele>854.841</ele>
        <time>2014-02-15T15:04:07Z</time>
      </trkpt>
      <trkpt lat="42.35857" lon="2.52497">
        <ele>856.75</ele>
        <time>2014-02-15T15:04:13Z</time>
      </trkpt>
      <trkpt lat="42.35859" lon="2.52497">
        <ele>856.717</ele>
        <time>2014-02-15T15:04:17Z</time>
      </trkpt>
      <trkpt lat="42.35865" lon="2.52489">
        <ele>859.169</ele>
        <time>2014-02-15T15:04:32Z</time>
      </trkpt>
      <trkpt lat="42.35869" lon="2.52493">
        <ele>861.542</ele>
        <time>2014-02-15T15:04:44Z</time>
      </trkpt>
      <trkpt lat="42.35873" lon="2.52491">
        <ele>862.422</ele>
        <time>2014-02-15T15:04:56Z</time>
      </trkpt>
      <trkpt lat="42.35883" lon="2.52483">
        <ele>862.914</ele>
        <time>2014-02-15T15:05:10Z</time>
      </trkpt>
      <trkpt lat="42.35891" lon="2.52472">
        <ele>866.307</ele>
        <time>2014-02-15T15:05:24Z</time>
      </trkpt>
      <trkpt lat="42.35897" lon="2.52469">
        <ele>868.72</ele>
        <time>2014-02-15T15:05:33Z</time>
      </trkpt>
      <trkpt lat="42.35903" lon="2.52462">
        <ele>872.165</ele>
        <time>2014-02-15T15:05:47Z</time>
      </trkpt>
      <trkpt lat="42.35905" lon="2.52463">
        <ele>872.558</ele>
        <time>2014-02-15T15:05:48Z</time>
      </trkpt>
      <trkpt lat="42.35906" lon="2.52467">
        <ele>873.063</ele>
        <time>2014-02-15T15:06:03Z</time>
      </trkpt>
      <trkpt lat="42.35908" lon="2.52475">
        <ele>875.972</ele>
        <time>2014-02-15T15:06:18Z</time>
      </trkpt>
      <trkpt lat="42.35907" lon="2.52484">
        <ele>878.329</ele>
        <time>2014-02-15T15:06:31Z</time>
      </trkpt>
      <trkpt lat="42.35907" lon="2.52493">
        <ele>881.281</ele>
        <time>2014-02-15T15:06:44Z</time>
      </trkpt>
      <trkpt lat="42.35908" lon="2.52503">
        <ele>883.678</ele>
        <time>2014-02-15T15:06:57Z</time>
      </trkpt>
      <trkpt lat="42.35907" lon="2.52509">
        <ele>887.033</ele>
        <time>2014-02-15T15:07:09Z</time>
      </trkpt>
      <trkpt lat="42.35907" lon="2.52522">
        <ele>889.426</ele>
        <time>2014-02-15T15:07:21Z</time>
      </trkpt>
      <trkpt lat="42.35907" lon="2.52536">
        <ele>891.307</ele>
        <time>2014-02-15T15:07:35Z</time>
      </trkpt>
      <trkpt lat="42.35904" lon="2.52539">
        <ele>894.693</ele>
        <time>2014-02-15T15:07:46Z</time>
      </trkpt>
      <trkpt lat="42.3591" lon="2.52553">
        <ele>896.198</ele>
        <time>2014-02-15T15:07:57Z</time>
      </trkpt>
      <trkpt lat="42.35915" lon="2.52566">
        <ele>899.521</ele>
        <time>2014-02-15T15:08:10Z</time>
      </trkpt>
      <trkpt lat="42.35918" lon="2.52585">
        <ele>901.416</ele>
        <time>2014-02-15T15:08:23Z</time>
      </trkpt>
      <trkpt lat="42.35916" lon="2.52603">
        <ele>903.825</ele>
        <time>2014-02-15T15:08:37Z</time>
      </trkpt>
      <trkpt lat="42.35915" lon="2.52617">
        <ele>906.772</ele>
        <time>2014-02-15T15:08:49Z</time>
      </trkpt>
      <trkpt lat="42.35916" lon="2.5263">
        <ele>907.164</ele>
        <time>2014-02-15T15:09:02Z</time>
      </trkpt>
      <trkpt lat="42.35919" lon="2.52638">
        <ele>909.528</ele>
        <time>2014-02-15T15:09:15Z</time>
      </trkpt>
      <trkpt lat="42.35921" lon="2.52659">
        <ele>907.189</ele>
        <time>2014-02-15T15:09:29Z</time>
      </trkpt>
      <trkpt lat="42.3592" lon="2.5267">
        <ele>910.517</ele>
        <time>2014-02-15T15:09:43Z</time>
      </trkpt>
      <trkpt lat="42.35913" lon="2.52683">
        <ele>913.907</ele>
        <time>2014-02-15T15:09:56Z</time>
      </trkpt>
      <trkpt lat="42.35914" lon="2.52694">
        <ele>916.868</ele>
        <time>2014-02-15T15:10:08Z</time>
      </trkpt>
      <trkpt lat="42.35912" lon="2.52704">
        <ele>918.213</ele>
        <time>2014-02-15T15:10:19Z</time>
      </trkpt>
      <trkpt lat="42.35908" lon="2.52708">
        <ele>921.696</ele>
        <time>2014-02-15T15:10:31Z</time>
      </trkpt>
      <trkpt lat="42.35906" lon="2.52717">
        <ele>921.671</ele>
        <time>2014-02-15T15:10:43Z</time>
      </trkpt>
      <trkpt lat="42.35907" lon="2.52718">
        <ele>921.63</ele>
        <time>2014-02-15T15:10:44Z</time>
      </trkpt>
      <trkpt lat="42.35907" lon="2.52742">
        <ele>923.037</ele>
        <time>2014-02-15T15:11:00Z</time>
      </trkpt>
      <trkpt lat="42.35906" lon="2.52776">
        <ele>923.069</ele>
        <time>2014-02-15T15:11:16Z</time>
      </trkpt>
      <trkpt lat="42.35901" lon="2.52802">
        <ele>921.665</ele>
        <time>2014-02-15T15:11:30Z</time>
      </trkpt>
      <trkpt lat="42.35893" lon="2.52834">
        <ele>920.668</ele>
        <time>2014-02-15T15:11:48Z</time>
      </trkpt>
      <trkpt lat="42.35889" lon="2.52867">
        <ele>919.614</ele>
        <time>2014-02-15T15:12:04Z</time>
      </trkpt>
      <trkpt lat="42.35885" lon="2.52899">
        <ele>918.707</ele>
        <time>2014-02-15T15:12:20Z</time>
      </trkpt>
      <trkpt lat="42.35882" lon="2.52931">
        <ele>918.752</ele>
        <time>2014-02-15T15:12:37Z</time>
      </trkpt>
      <trkpt lat="42.35884" lon="2.52939">
        <ele>919.267</ele>
        <time>2014-02-15T15:12:42Z</time>
      </trkpt>
      <trkpt lat="42.35885" lon="2.52945">
        <ele>918.78</ele>
        <time>2014-02-15T15:12:46Z</time>
      </trkpt>
      <trkpt lat="42.35894" lon="2.52971">
        <ele>920.125</ele>
        <time>2014-02-15T15:13:02Z</time>
      </trkpt>
      <trkpt lat="42.35902" lon="2.52994">
        <ele>919.244</ele>
        <time>2014-02-15T15:13:15Z</time>
      </trkpt>
      <trkpt lat="42.35911" lon="2.53022">
        <ele>919.631</ele>
        <time>2014-02-15T15:13:29Z</time>
      </trkpt>
      <trkpt lat="42.35921" lon="2.53056">
        <ele>918.293</ele>
        <time>2014-02-15T15:13:44Z</time>
      </trkpt>
      <trkpt lat="42.35932" lon="2.53074">
        <ele>917.763</ele>
        <time>2014-02-15T15:13:59Z</time>
      </trkpt>
      <trkpt lat="42.3594" lon="2.53076">
        <ele>917.744</ele>
        <time>2014-02-15T15:14:07Z</time>
      </trkpt>
      <trkpt lat="42.35943" lon="2.53077">
        <ele>917.718</ele>
        <time>2014-02-15T15:14:10Z</time>
      </trkpt>
      <trkpt lat="42.35962" lon="2.53083">
        <ele>917.207</ele>
        <time>2014-02-15T15:14:25Z</time>
      </trkpt>
      <trkpt lat="42.35982" lon="2.53107">
        <ele>916.362</ele>
        <time>2014-02-15T15:14:40Z</time>
      </trkpt>
      <trkpt lat="42.35995" lon="2.53125">
        <ele>915.347</ele>
        <time>2014-02-15T15:14:50Z</time>
      </trkpt>
      <trkpt lat="42.35999" lon="2.53139">
        <ele>915.38</ele>
        <time>2014-02-15T15:14:56Z</time>
      </trkpt>
      <trkpt lat="42.36001" lon="2.53148">
        <ele>914.495</ele>
        <time>2014-02-15T15:15:00Z</time>
      </trkpt>
      <trkpt lat="42.36003" lon="2.53152">
        <ele>914.854</ele>
        <time>2014-02-15T15:15:02Z</time>
      </trkpt>
      <trkpt lat="42.36003" lon="2.53178">
        <ele>913.971</ele>
        <time>2014-02-15T15:15:15Z</time>
      </trkpt>
      <trkpt lat="42.35998" lon="2.53201">
        <ele>912.483</ele>
        <time>2014-02-15T15:15:29Z</time>
      </trkpt>
      <trkpt lat="42.35996" lon="2.53203">
        <ele>912.469</ele>
        <time>2014-02-15T15:15:31Z</time>
      </trkpt>
      <trkpt lat="42.35993" lon="2.53207">
        <ele>912.904</ele>
        <time>2014-02-15T15:15:33Z</time>
      </trkpt>
      <trkpt lat="42.35992" lon="2.53213">
        <ele>912.424</ele>
        <time>2014-02-15T15:15:37Z</time>
      </trkpt>
      <trkpt lat="42.35992" lon="2.53217">
        <ele>912.407</ele>
        <time>2014-02-15T15:15:40Z</time>
      </trkpt>
      <trkpt lat="42.35975" lon="2.53235">
        <ele>912.022</ele>
        <time>2014-02-15T15:15:51Z</time>
      </trkpt>
      <trkpt lat="42.35967" lon="2.53243">
        <ele>911.027</ele>
        <time>2014-02-15T15:15:55Z</time>
      </trkpt>
      <trkpt lat="42.35958" lon="2.53265">
        <ele>911.54</ele>
        <time>2014-02-15T15:16:07Z</time>
      </trkpt>
      <trkpt lat="42.35956" lon="2.53272">
        <ele>911.045</ele>
        <time>2014-02-15T15:16:11Z</time>
      </trkpt>
      <trkpt lat="42.35956" lon="2.53288">
        <ele>910.534</ele>
        <time>2014-02-15T15:16:26Z</time>
      </trkpt>
      <trkpt lat="42.35943" lon="2.53293">
        <ele>912.411</ele>
        <time>2014-02-15T15:16:36Z</time>
      </trkpt>
      <trkpt lat="42.35944" lon="2.53288">
        <ele>914.473</ele>
        <time>2014-02-15T15:16:48Z</time>
      </trkpt>
      <trkpt lat="42.35944" lon="2.53286">
        <ele>915.338</ele>
        <time>2014-02-15T15:16:51Z</time>
      </trkpt>
      <trkpt lat="42.35952" lon="2.53265">
        <ele>917.27</ele>
        <time>2014-02-15T15:17:06Z</time>
      </trkpt>
      <trkpt lat="42.35953" lon="2.53262">
        <ele>916.817</ele>
        <time>2014-02-15T15:17:08Z</time>
      </trkpt>
      <trkpt lat="42.35961" lon="2.53255">
        <ele>918.707</ele>
        <time>2014-02-15T15:17:20Z</time>
      </trkpt>
      <trkpt lat="42.35966" lon="2.53251">
        <ele>920.159</ele>
        <time>2014-02-15T15:17:25Z</time>
      </trkpt>
      <trkpt lat="42.35974" lon="2.53245">
        <ele>923.054</ele>
        <time>2014-02-15T15:17:36Z</time>
      </trkpt>
      <trkpt lat="42.35983" lon="2.53238">
        <ele>924.917</ele>
        <time>2014-02-15T15:17:49Z</time>
      </trkpt>
      <trkpt lat="42.35991" lon="2.53229">
        <ele>926.942</ele>
        <time>2014-02-15T15:18:01Z</time>
      </trkpt>
      <trkpt lat="42.36004" lon="2.53217">
        <ele>929.751</ele>
        <time>2014-02-15T15:18:14Z</time>
      </trkpt>
      <trkpt lat="42.36015" lon="2.53211">
        <ele>932.158</ele>
        <time>2014-02-15T15:18:28Z</time>
      </trkpt>
      <trkpt lat="42.36022" lon="2.53203">
        <ele>934.12</ele>
        <time>2014-02-15T15:18:40Z</time>
      </trkpt>
      <trkpt lat="42.3603" lon="2.53195">
        <ele>936.959</ele>
        <time>2014-02-15T15:18:53Z</time>
      </trkpt>
      <trkpt lat="42.36042" lon="2.53191">
        <ele>940.303</ele>
        <time>2014-02-15T15:19:05Z</time>
      </trkpt>
      <trkpt lat="42.36049" lon="2.5319">
        <ele>941.823</ele>
        <time>2014-02-15T15:19:16Z</time>
      </trkpt>
      <trkpt lat="42.36056" lon="2.53184">
        <ele>944.207</ele>
        <time>2014-02-15T15:19:28Z</time>
      </trkpt>
      <trkpt lat="42.36058" lon="2.53181">
        <ele>945.691</ele>
        <time>2014-02-15T15:19:31Z</time>
      </trkpt>
      <trkpt lat="42.36065" lon="2.53164">
        <ele>945.646</ele>
        <time>2014-02-15T15:19:42Z</time>
      </trkpt>
      <trkpt lat="42.3607" lon="2.53157">
        <ele>948.559</ele>
        <time>2014-02-15T15:19:53Z</time>
      </trkpt>
      <trkpt lat="42.36074" lon="2.53157">
        <ele>952.324</ele>
        <time>2014-02-15T15:20:05Z</time>
      </trkpt>
      <trkpt lat="42.36075" lon="2.53157">
        <ele>952.373</ele>
        <time>2014-02-15T15:20:06Z</time>
      </trkpt>
      <trkpt lat="42.36079" lon="2.53152">
        <ele>953.38</ele>
        <time>2014-02-15T15:20:17Z</time>
      </trkpt>
      <trkpt lat="42.36086" lon="2.53144">
        <ele>956.742</ele>
        <time>2014-02-15T15:20:28Z</time>
      </trkpt>
      <trkpt lat="42.36091" lon="2.53141">
        <ele>959.529</ele>
        <time>2014-02-15T15:20:42Z</time>
      </trkpt>
      <trkpt lat="42.36105" lon="2.53138">
        <ele>961</ele>
        <time>2014-02-15T15:20:55Z</time>
      </trkpt>
      <trkpt lat="42.3611" lon="2.53133">
        <ele>961.02</ele>
        <time>2014-02-15T15:21:06Z</time>
      </trkpt>
      <trkpt lat="42.36108" lon="2.53121">
        <ele>963.407</ele>
        <time>2014-02-15T15:21:19Z</time>
      </trkpt>
      <trkpt lat="42.36106" lon="2.53114">
        <ele>965.868</ele>
        <time>2014-02-15T15:21:31Z</time>
      </trkpt>
      <trkpt lat="42.36105" lon="2.53098">
        <ele>969.663</ele>
        <time>2014-02-15T15:21:44Z</time>
      </trkpt>
      <trkpt lat="42.36112" lon="2.53094">
        <ele>971.616</ele>
        <time>2014-02-15T15:21:56Z</time>
      </trkpt>
      <trkpt lat="42.36121" lon="2.53082">
        <ele>974.041</ele>
        <time>2014-02-15T15:22:11Z</time>
      </trkpt>
      <trkpt lat="42.36128" lon="2.53072">
        <ele>976.82</ele>
        <time>2014-02-15T15:22:23Z</time>
      </trkpt>
      <trkpt lat="42.36131" lon="2.53062">
        <ele>980.217</ele>
        <time>2014-02-15T15:22:37Z</time>
      </trkpt>
      <trkpt lat="42.36131" lon="2.53056">
        <ele>983.169</ele>
        <time>2014-02-15T15:22:48Z</time>
      </trkpt>
      <trkpt lat="42.36128" lon="2.53051">
        <ele>985.525</ele>
        <time>2014-02-15T15:22:57Z</time>
      </trkpt>
      <trkpt lat="42.36128" lon="2.53042">
        <ele>989.326</ele>
        <time>2014-02-15T15:23:10Z</time>
      </trkpt>
      <trkpt lat="42.36131" lon="2.53038">
        <ele>989.308</ele>
        <time>2014-02-15T15:23:14Z</time>
      </trkpt>
      <trkpt lat="42.36137" lon="2.53028">
        <ele>990.807</ele>
        <time>2014-02-15T15:23:24Z</time>
      </trkpt>
      <trkpt lat="42.36141" lon="2.53023">
        <ele>991.398</ele>
        <time>2014-02-15T15:23:29Z</time>
      </trkpt>
      <trkpt lat="42.36155" lon="2.53009">
        <ele>993.213</ele>
        <time>2014-02-15T15:23:43Z</time>
      </trkpt>
      <trkpt lat="42.36172" lon="2.52991">
        <ele>996.136</ele>
        <time>2014-02-15T15:23:58Z</time>
      </trkpt>
      <trkpt lat="42.36185" lon="2.52986">
        <ele>998.051</ele>
        <time>2014-02-15T15:24:12Z</time>
      </trkpt>
      <trkpt lat="42.3619" lon="2.52985">
        <ele>999.03</ele>
        <time>2014-02-15T15:24:24Z</time>
      </trkpt>
      <trkpt lat="42.36192" lon="2.52984">
        <ele>999.917</ele>
        <time>2014-02-15T15:24:26Z</time>
      </trkpt>
      <trkpt lat="42.36204" lon="2.5298">
        <ele>1001.499</ele>
        <time>2014-02-15T15:24:37Z</time>
      </trkpt>
      <trkpt lat="42.36222" lon="2.52976">
        <ele>1003.355</ele>
        <time>2014-02-15T15:24:53Z</time>
      </trkpt>
      <trkpt lat="42.36239" lon="2.52976">
        <ele>1005.207</ele>
        <time>2014-02-15T15:25:09Z</time>
      </trkpt>
      <trkpt lat="42.36249" lon="2.52982">
        <ele>1007.117</ele>
        <time>2014-02-15T15:25:19Z</time>
      </trkpt>
      <trkpt lat="42.3626" lon="2.52997">
        <ele>1009.507</ele>
        <time>2014-02-15T15:25:36Z</time>
      </trkpt>
      <trkpt lat="42.36272" lon="2.53011">
        <ele>1011.921</ele>
        <time>2014-02-15T15:25:51Z</time>
      </trkpt>
      <trkpt lat="42.36279" lon="2.53016">
        <ele>1012.916</ele>
        <time>2014-02-15T15:26:09Z</time>
      </trkpt>
      <trkpt lat="42.36289" lon="2.53023">
        <ele>1014.399</ele>
        <time>2014-02-15T15:26:24Z</time>
      </trkpt>
      <trkpt lat="42.36299" lon="2.53029">
        <ele>1016.314</ele>
        <time>2014-02-15T15:26:37Z</time>
      </trkpt>
      <trkpt lat="42.36304" lon="2.53032">
        <ele>1016.753</ele>
        <time>2014-02-15T15:26:48Z</time>
      </trkpt>
      <trkpt lat="42.36315" lon="2.5305">
        <ele>1016.76</ele>
        <time>2014-02-15T15:27:03Z</time>
      </trkpt>
      <trkpt lat="42.36319" lon="2.53049">
        <ele>1019.112</ele>
        <time>2014-02-15T15:27:14Z</time>
      </trkpt>
      <trkpt lat="42.36317" lon="2.53041">
        <ele>1022.046</ele>
        <time>2014-02-15T15:27:30Z</time>
      </trkpt>
      <trkpt lat="42.36314" lon="2.53027">
        <ele>1024.988</ele>
        <time>2014-02-15T15:27:45Z</time>
      </trkpt>
      <trkpt lat="42.36313" lon="2.5302">
        <ele>1025.916</ele>
        <time>2014-02-15T15:27:50Z</time>
      </trkpt>
      <trkpt lat="42.36313" lon="2.53007">
        <ele>1028.807</ele>
        <time>2014-02-15T15:28:03Z</time>
      </trkpt>
      <trkpt lat="42.36317" lon="2.53006">
        <ele>1028.85</ele>
        <time>2014-02-15T15:28:07Z</time>
      </trkpt>
      <trkpt lat="42.3633" lon="2.53013">
        <ele>1030.775</ele>
        <time>2014-02-15T15:28:24Z</time>
      </trkpt>
      <trkpt lat="42.36335" lon="2.53016">
        <ele>1031.248</ele>
        <time>2014-02-15T15:28:29Z</time>
      </trkpt>
      <trkpt lat="42.3634" lon="2.53021">
        <ele>1031.673</ele>
        <time>2014-02-15T15:28:35Z</time>
      </trkpt>
      <trkpt lat="42.36353" lon="2.5304">
        <ele>1033.122</ele>
        <time>2014-02-15T15:28:52Z</time>
      </trkpt>
      <trkpt lat="42.36361" lon="2.53064">
        <ele>1034.559</ele>
        <time>2014-02-15T15:29:07Z</time>
      </trkpt>
      <trkpt lat="42.36367" lon="2.53089">
        <ele>1035.531</ele>
        <time>2014-02-15T15:29:22Z</time>
      </trkpt>
      <trkpt lat="42.36375" lon="2.53114">
        <ele>1036.924</ele>
        <time>2014-02-15T15:29:39Z</time>
      </trkpt>
      <trkpt lat="42.36384" lon="2.53134">
        <ele>1039.304</ele>
        <time>2014-02-15T15:29:54Z</time>
      </trkpt>
      <trkpt lat="42.36389" lon="2.53159">
        <ele>1041.314</ele>
        <time>2014-02-15T15:30:10Z</time>
      </trkpt>
      <trkpt lat="42.3639" lon="2.53188">
        <ele>1043.207</ele>
        <time>2014-02-15T15:30:27Z</time>
      </trkpt>
      <trkpt lat="42.36388" lon="2.53219">
        <ele>1045.648</ele>
        <time>2014-02-15T15:30:46Z</time>
      </trkpt>
      <trkpt lat="42.36385" lon="2.53245">
        <ele>1047.543</ele>
        <time>2014-02-15T15:31:02Z</time>
      </trkpt>
      <trkpt lat="42.36385" lon="2.53262">
        <ele>1048.536</ele>
        <time>2014-02-15T15:31:12Z</time>
      </trkpt>
      <trkpt lat="42.36392" lon="2.53291">
        <ele>1049.971</ele>
        <time>2014-02-15T15:31:31Z</time>
      </trkpt>
      <trkpt lat="42.36402" lon="2.53314">
        <ele>1051.89</ele>
        <time>2014-02-15T15:31:48Z</time>
      </trkpt>
      <trkpt lat="42.36414" lon="2.5333">
        <ele>1054.277</ele>
        <time>2014-02-15T15:32:02Z</time>
      </trkpt>
      <trkpt lat="42.3643" lon="2.53342">
        <ele>1056.639</ele>
        <time>2014-02-15T15:32:20Z</time>
      </trkpt>
      <trkpt lat="42.36443" lon="2.53356">
        <ele>1059.029</ele>
        <time>2014-02-15T15:32:34Z</time>
      </trkpt>
      <trkpt lat="42.3646" lon="2.53369">
        <ele>1060.5</ele>
        <time>2014-02-15T15:32:49Z</time>
      </trkpt>
      <trkpt lat="42.36479" lon="2.53384">
        <ele>1062.42</ele>
        <time>2014-02-15T15:33:07Z</time>
      </trkpt>
      <trkpt lat="42.36498" lon="2.53393">
        <ele>1064.807</ele>
        <time>2014-02-15T15:33:23Z</time>
      </trkpt>
      <trkpt lat="42.36515" lon="2.53403">
        <ele>1067.718</ele>
        <time>2014-02-15T15:33:39Z</time>
      </trkpt>
      <trkpt lat="42.36531" lon="2.53412">
        <ele>1068.683</ele>
        <time>2014-02-15T15:33:55Z</time>
      </trkpt>
      <trkpt lat="42.36535" lon="2.53414">
        <ele>1069.176</ele>
        <time>2014-02-15T15:33:58Z</time>
      </trkpt>
      <trkpt lat="42.36553" lon="2.53422">
        <ele>1070.621</ele>
        <time>2014-02-15T15:34:13Z</time>
      </trkpt>
      <trkpt lat="42.36564" lon="2.53426">
        <ele>1072.06</ele>
        <time>2014-02-15T15:34:21Z</time>
      </trkpt>
      <trkpt lat="42.36574" lon="2.53423">
        <ele>1072.547</ele>
        <time>2014-02-15T15:34:31Z</time>
      </trkpt>
      <trkpt lat="42.36589" lon="2.53415">
        <ele>1073.939</ele>
        <time>2014-02-15T15:34:47Z</time>
      </trkpt>
      <trkpt lat="42.36591" lon="2.53414">
        <ele>1073.981</ele>
        <time>2014-02-15T15:34:49Z</time>
      </trkpt>
      <trkpt lat="42.36597" lon="2.53414">
        <ele>1073.961</ele>
        <time>2014-02-15T15:34:54Z</time>
      </trkpt>
      <trkpt lat="42.36599" lon="2.53418">
        <ele>1074.417</ele>
        <time>2014-02-15T15:35:00Z</time>
      </trkpt>
      <trkpt lat="42.36599" lon="2.53434">
        <ele>1074.407</ele>
        <time>2014-02-15T15:35:13Z</time>
      </trkpt>
      <trkpt lat="42.36602" lon="2.53447">
        <ele>1075.934</ele>
        <time>2014-02-15T15:35:20Z</time>
      </trkpt>
      <trkpt lat="42.36613" lon="2.53462">
        <ele>1077.399</ele>
        <time>2014-02-15T15:35:35Z</time>
      </trkpt>
      <trkpt lat="42.36621" lon="2.5348">
        <ele>1079.242</ele>
        <time>2014-02-15T15:35:49Z</time>
      </trkpt>
      <trkpt lat="42.36634" lon="2.53502">
        <ele>1081.197</ele>
        <time>2014-02-15T15:36:04Z</time>
      </trkpt>
      <trkpt lat="42.36639" lon="2.5352">
        <ele>1083.566</ele>
        <time>2014-02-15T15:36:17Z</time>
      </trkpt>
      <trkpt lat="42.36652" lon="2.53537">
        <ele>1085.063</ele>
        <time>2014-02-15T15:36:31Z</time>
      </trkpt>
      <trkpt lat="42.36664" lon="2.53557">
        <ele>1087.455</ele>
        <time>2014-02-15T15:36:46Z</time>
      </trkpt>
      <trkpt lat="42.36674" lon="2.53572">
        <ele>1089.399</ele>
        <time>2014-02-15T15:36:59Z</time>
      </trkpt>
      <trkpt lat="42.36682" lon="2.5358">
        <ele>1090.807</ele>
        <time>2014-02-15T15:37:12Z</time>
      </trkpt>
      <trkpt lat="42.36683" lon="2.53581">
        <ele>1090.827</ele>
        <time>2014-02-15T15:37:14Z</time>
      </trkpt>
      <trkpt lat="42.36696" lon="2.53591">
        <ele>1092.707</ele>
        <time>2014-02-15T15:37:28Z</time>
      </trkpt>
      <trkpt lat="42.36701" lon="2.53599">
        <ele>1094.145</ele>
        <time>2014-02-15T15:37:41Z</time>
      </trkpt>
      <trkpt lat="42.36704" lon="2.53621">
        <ele>1096.04</ele>
        <time>2014-02-15T15:37:57Z</time>
      </trkpt>
      <trkpt lat="42.36706" lon="2.53635">
        <ele>1097.523</ele>
        <time>2014-02-15T15:38:12Z</time>
      </trkpt>
      <trkpt lat="42.36708" lon="2.53641">
        <ele>1100.918</ele>
        <time>2014-02-15T15:38:25Z</time>
      </trkpt>
      <trkpt lat="42.36708" lon="2.5365">
        <ele>1103.747</ele>
        <time>2014-02-15T15:38:38Z</time>
      </trkpt>
      <trkpt lat="42.36712" lon="2.53663">
        <ele>1106.674</ele>
        <time>2014-02-15T15:38:51Z</time>
      </trkpt>
      <trkpt lat="42.36716" lon="2.53671">
        <ele>1110.096</ele>
        <time>2014-02-15T15:39:04Z</time>
      </trkpt>
      <trkpt lat="42.36722" lon="2.53684">
        <ele>1112.954</ele>
        <time>2014-02-15T15:39:20Z</time>
      </trkpt>
      <trkpt lat="42.36734" lon="2.537">
        <ele>1116.256</ele>
        <time>2014-02-15T15:39:37Z</time>
      </trkpt>
      <trkpt lat="42.36738" lon="2.53706">
        <ele>1119.111</ele>
        <time>2014-02-15T15:39:48Z</time>
      </trkpt>
      <trkpt lat="42.36745" lon="2.53714">
        <ele>1122.007</ele>
        <time>2014-02-15T15:40:05Z</time>
      </trkpt>
      <trkpt lat="42.36748" lon="2.53717">
        <ele>1125.831</ele>
        <time>2014-02-15T15:40:20Z</time>
      </trkpt>
      <trkpt lat="42.3675" lon="2.53732">
        <ele>1128.716</ele>
        <time>2014-02-15T15:40:35Z</time>
      </trkpt>
      <trkpt lat="42.36753" lon="2.53733">
        <ele>1130.789</ele>
        <time>2014-02-15T15:40:42Z</time>
      </trkpt>
      <trkpt lat="42.36763" lon="2.53738">
        <ele>1132.694</ele>
        <time>2014-02-15T15:40:59Z</time>
      </trkpt>
      <trkpt lat="42.36766" lon="2.53742">
        <ele>1136.423</ele>
        <time>2014-02-15T15:41:11Z</time>
      </trkpt>
      <trkpt lat="42.36769" lon="2.53749">
        <ele>1137.93</ele>
        <time>2014-02-15T15:41:27Z</time>
      </trkpt>
      <trkpt lat="42.36779" lon="2.53749">
        <ele>1141.282</ele>
        <time>2014-02-15T15:41:42Z</time>
      </trkpt>
      <trkpt lat="42.36789" lon="2.53734">
        <ele>1143.133</ele>
        <time>2014-02-15T15:41:59Z</time>
      </trkpt>
      <trkpt lat="42.36791" lon="2.53717">
        <ele>1142.223</ele>
        <time>2014-02-15T15:42:14Z</time>
      </trkpt>
      <trkpt lat="42.36788" lon="2.53687">
        <ele>1142.215</ele>
        <time>2014-02-15T15:42:33Z</time>
      </trkpt>
      <trkpt lat="42.36789" lon="2.53657">
        <ele>1142.207</ele>
        <time>2014-02-15T15:42:47Z</time>
      </trkpt>
      <trkpt lat="42.36793" lon="2.53631">
        <ele>1141.259</ele>
        <time>2014-02-15T15:43:02Z</time>
      </trkpt>
      <trkpt lat="42.36798" lon="2.53608">
        <ele>1141.794</ele>
        <time>2014-02-15T15:43:17Z</time>
      </trkpt>
      <trkpt lat="42.36805" lon="2.53591">
        <ele>1142.287</ele>
        <time>2014-02-15T15:43:32Z</time>
      </trkpt>
      <trkpt lat="42.36814" lon="2.53571">
        <ele>1143.682</ele>
        <time>2014-02-15T15:43:47Z</time>
      </trkpt>
      <trkpt lat="42.36824" lon="2.53569">
        <ele>1145.141</ele>
        <time>2014-02-15T15:44:01Z</time>
      </trkpt>
      <trkpt lat="42.36824" lon="2.5357">
        <ele>1144.628</ele>
        <time>2014-02-15T15:44:03Z</time>
      </trkpt>
      <trkpt lat="42.36831" lon="2.53568">
        <ele>1145.62</ele>
        <time>2014-02-15T15:44:09Z</time>
      </trkpt>
      <trkpt lat="42.36845" lon="2.53554">
        <ele>1147.524</ele>
        <time>2014-02-15T15:44:27Z</time>
      </trkpt>
      <trkpt lat="42.36856" lon="2.53558">
        <ele>1148.904</ele>
        <time>2014-02-15T15:44:41Z</time>
      </trkpt>
      <trkpt lat="42.36859" lon="2.53564">
        <ele>1150.814</ele>
        <time>2014-02-15T15:44:49Z</time>
      </trkpt>
      <trkpt lat="42.36861" lon="2.53571">
        <ele>1152.307</ele>
        <time>2014-02-15T15:45:01Z</time>
      </trkpt>
      <trkpt lat="42.36863" lon="2.53576">
        <ele>1154.768</ele>
        <time>2014-02-15T15:45:12Z</time>
      </trkpt>
      <trkpt lat="42.36866" lon="2.53584">
        <ele>1157.653</ele>
        <time>2014-02-15T15:45:24Z</time>
      </trkpt>
      <trkpt lat="42.36868" lon="2.53589">
        <ele>1158.166</ele>
        <time>2014-02-15T15:45:28Z</time>
      </trkpt>
      <trkpt lat="42.36873" lon="2.53603">
        <ele>1159.541</ele>
        <time>2014-02-15T15:45:39Z</time>
      </trkpt>
      <trkpt lat="42.36876" lon="2.5361">
        <ele>1160.58</ele>
        <time>2014-02-15T15:45:44Z</time>
      </trkpt>
      <trkpt lat="42.36888" lon="2.53635">
        <ele>1163.337</ele>
        <time>2014-02-15T15:46:00Z</time>
      </trkpt>
      <trkpt lat="42.36893" lon="2.53657">
        <ele>1165.769</ele>
        <time>2014-02-15T15:46:12Z</time>
      </trkpt>
      <trkpt lat="42.36894" lon="2.53662">
        <ele>1165.721</ele>
        <time>2014-02-15T15:46:14Z</time>
      </trkpt>
      <trkpt lat="42.36885" lon="2.53688">
        <ele>1167.241</ele>
        <time>2014-02-15T15:46:29Z</time>
      </trkpt>
      <trkpt lat="42.36876" lon="2.53689">
        <ele>1168.105</ele>
        <time>2014-02-15T15:46:38Z</time>
      </trkpt>
      <trkpt lat="42.36873" lon="2.53692">
        <ele>1168.607</ele>
        <time>2014-02-15T15:46:42Z</time>
      </trkpt>
      <trkpt lat="42.36872" lon="2.53701">
        <ele>1171.098</ele>
        <time>2014-02-15T15:46:57Z</time>
      </trkpt>
      <trkpt lat="42.36874" lon="2.53699">
        <ele>1172.533</ele>
        <time>2014-02-15T15:47:04Z</time>
      </trkpt>
      <trkpt lat="42.36885" lon="2.537">
        <ele>1174.956</ele>
        <time>2014-02-15T15:47:19Z</time>
      </trkpt>
      <trkpt lat="42.36892" lon="2.53702">
        <ele>1176.861</ele>
        <time>2014-02-15T15:47:31Z</time>
      </trkpt>
      <trkpt lat="42.36907" lon="2.53721">
        <ele>1180.28</ele>
        <time>2014-02-15T15:47:48Z</time>
      </trkpt>
      <trkpt lat="42.36915" lon="2.53735">
        <ele>1182.647</ele>
        <time>2014-02-15T15:48:03Z</time>
      </trkpt>
      <trkpt lat="42.36916" lon="2.53737">
        <ele>1182.689</ele>
        <time>2014-02-15T15:48:05Z</time>
      </trkpt>
      <trkpt lat="42.36924" lon="2.53756">
        <ele>1185.043</ele>
        <time>2014-02-15T15:48:19Z</time>
      </trkpt>
      <trkpt lat="42.36932" lon="2.53766">
        <ele>1187.464</ele>
        <time>2014-02-15T15:48:31Z</time>
      </trkpt>
      <trkpt lat="42.36941" lon="2.53779">
        <ele>1190.31</ele>
        <time>2014-02-15T15:48:45Z</time>
      </trkpt>
      <trkpt lat="42.36949" lon="2.53787">
        <ele>1193.107</ele>
        <time>2014-02-15T15:48:57Z</time>
      </trkpt>
      <trkpt lat="42.36955" lon="2.538">
        <ele>1195.12</ele>
        <time>2014-02-15T15:49:09Z</time>
      </trkpt>
      <trkpt lat="42.3696" lon="2.53804">
        <ele>1197.985</ele>
        <time>2014-02-15T15:49:21Z</time>
      </trkpt>
      <trkpt lat="42.36962" lon="2.53839">
        <ele>1199.928</ele>
        <time>2014-02-15T15:49:33Z</time>
      </trkpt>
      <trkpt lat="42.36957" lon="2.53855">
        <ele>1202.353</ele>
        <time>2014-02-15T15:49:44Z</time>
      </trkpt>
      <trkpt lat="42.36946" lon="2.5387">
        <ele>1204.292</ele>
        <time>2014-02-15T15:50:01Z</time>
      </trkpt>
      <trkpt lat="42.36937" lon="2.53881">
        <ele>1207.699</ele>
        <time>2014-02-15T15:50:14Z</time>
      </trkpt>
      <trkpt lat="42.36931" lon="2.53896">
        <ele>1210.491</ele>
        <time>2014-02-15T15:50:30Z</time>
      </trkpt>
      <trkpt lat="42.36923" lon="2.53913">
        <ele>1213.389</ele>
        <time>2014-02-15T15:50:44Z</time>
      </trkpt>
      <trkpt lat="42.36917" lon="2.53933">
        <ele>1214.306</ele>
        <time>2014-02-15T15:50:59Z</time>
      </trkpt>
      <trkpt lat="42.36914" lon="2.53941">
        <ele>1216.726</ele>
        <time>2014-02-15T15:51:11Z</time>
      </trkpt>
      <trkpt lat="42.36914" lon="2.53956">
        <ele>1219.107</ele>
        <time>2014-02-15T15:51:26Z</time>
      </trkpt>
      <trkpt lat="42.36919" lon="2.53973">
        <ele>1222.014</ele>
        <time>2014-02-15T15:51:44Z</time>
      </trkpt>
      <trkpt lat="42.36923" lon="2.53992">
        <ele>1223.979</ele>
        <time>2014-02-15T15:51:57Z</time>
      </trkpt>
      <trkpt lat="42.36927" lon="2.54015">
        <ele>1225.332</ele>
        <time>2014-02-15T15:52:09Z</time>
      </trkpt>
      <trkpt lat="42.36927" lon="2.54034">
        <ele>1226.397</ele>
        <time>2014-02-15T15:52:19Z</time>
      </trkpt>
      <trkpt lat="42.36925" lon="2.54053">
        <ele>1228.736</ele>
        <time>2014-02-15T15:52:29Z</time>
      </trkpt>
      <trkpt lat="42.36922" lon="2.54061">
        <ele>1229.773</ele>
        <time>2014-02-15T15:52:34Z</time>
      </trkpt>
      <trkpt lat="42.3692" lon="2.5408">
        <ele>1230.695</ele>
        <time>2014-02-15T15:52:44Z</time>
      </trkpt>
      <trkpt lat="42.36915" lon="2.54101">
        <ele>1232.119</ele>
        <time>2014-02-15T15:52:58Z</time>
      </trkpt>
      <trkpt lat="42.36914" lon="2.54103">
        <ele>1231.609</ele>
        <time>2014-02-15T15:53:00Z</time>
      </trkpt>
      <trkpt lat="42.36914" lon="2.54111">
        <ele>1232.619</ele>
        <time>2014-02-15T15:53:05Z</time>
      </trkpt>
      <trkpt lat="42.3691" lon="2.54127">
        <ele>1234.507</ele>
        <time>2014-02-15T15:53:19Z</time>
      </trkpt>
      <trkpt lat="42.36904" lon="2.54146">
        <ele>1237.497</ele>
        <time>2014-02-15T15:53:33Z</time>
      </trkpt>
      <trkpt lat="42.36899" lon="2.54165">
        <ele>1240.232</ele>
        <time>2014-02-15T15:53:48Z</time>
      </trkpt>
      <trkpt lat="42.36896" lon="2.54182">
        <ele>1242.635</ele>
        <time>2014-02-15T15:54:03Z</time>
      </trkpt>
      <trkpt lat="42.36895" lon="2.54196">
        <ele>1244.64</ele>
        <time>2014-02-15T15:54:17Z</time>
      </trkpt>
      <trkpt lat="42.36891" lon="2.54211">
        <ele>1247.069</ele>
        <time>2014-02-15T15:54:30Z</time>
      </trkpt>
      <trkpt lat="42.36887" lon="2.54227">
        <ele>1248.946</ele>
        <time>2014-02-15T15:54:41Z</time>
      </trkpt>
      <trkpt lat="42.36881" lon="2.54244">
        <ele>1250.328</ele>
        <time>2014-02-15T15:54:54Z</time>
      </trkpt>
      <trkpt lat="42.36867" lon="2.54259">
        <ele>1252.739</ele>
        <time>2014-02-15T15:55:11Z</time>
      </trkpt>
      <trkpt lat="42.36856" lon="2.54262">
        <ele>1255.101</ele>
        <time>2014-02-15T15:55:24Z</time>
      </trkpt>
      <trkpt lat="42.36854" lon="2.54263">
        <ele>1255.121</ele>
        <time>2014-02-15T15:55:26Z</time>
      </trkpt>
      <trkpt lat="42.36838" lon="2.54266">
        <ele>1258.007</ele>
        <time>2014-02-15T15:55:42Z</time>
      </trkpt>
      <trkpt lat="42.36836" lon="2.54267">
        <ele>1258.029</ele>
        <time>2014-02-15T15:55:44Z</time>
      </trkpt>
      <trkpt lat="42.3682" lon="2.54272">
        <ele>1259.974</ele>
        <time>2014-02-15T15:55:59Z</time>
      </trkpt>
      <trkpt lat="42.36808" lon="2.54274">
        <ele>1261.487</ele>
        <time>2014-02-15T15:56:11Z</time>
      </trkpt>
      <trkpt lat="42.36797" lon="2.5427">
        <ele>1263.892</ele>
        <time>2014-02-15T15:56:22Z</time>
      </trkpt>
      <trkpt lat="42.36791" lon="2.54266">
        <ele>1264.861</ele>
        <time>2014-02-15T15:56:27Z</time>
      </trkpt>
      <trkpt lat="42.36783" lon="2.54257">
        <ele>1267.618</ele>
        <time>2014-02-15T15:56:39Z</time>
      </trkpt>
      <trkpt lat="42.36776" lon="2.54243">
        <ele>1270.04</ele>
        <time>2014-02-15T15:56:53Z</time>
      </trkpt>
      <trkpt lat="42.36771" lon="2.54237">
        <ele>1273.482</ele>
        <time>2014-02-15T15:57:07Z</time>
      </trkpt>
      <trkpt lat="42.36764" lon="2.54224">
        <ele>1276.343</ele>
        <time>2014-02-15T15:57:23Z</time>
      </trkpt>
      <trkpt lat="42.36757" lon="2.54214">
        <ele>1279.717</ele>
        <time>2014-02-15T15:57:38Z</time>
      </trkpt>
      <trkpt lat="42.36749" lon="2.54206">
        <ele>1281.107</ele>
        <time>2014-02-15T15:57:54Z</time>
      </trkpt>
      <trkpt lat="42.36741" lon="2.54201">
        <ele>1284.584</ele>
        <time>2014-02-15T15:58:08Z</time>
      </trkpt>
      <trkpt lat="42.36739" lon="2.54201">
        <ele>1284.929</ele>
        <time>2014-02-15T15:58:11Z</time>
      </trkpt>
      <trkpt lat="42.36731" lon="2.54199">
        <ele>1288.332</ele>
        <time>2014-02-15T15:58:24Z</time>
      </trkpt>
      <trkpt lat="42.36731" lon="2.54198">
        <ele>1288.367</ele>
        <time>2014-02-15T15:58:25Z</time>
      </trkpt>
      <trkpt lat="42.36722" lon="2.54191">
        <ele>1291.726</ele>
        <time>2014-02-15T15:58:40Z</time>
      </trkpt>
      <trkpt lat="42.36714" lon="2.54177">
        <ele>1294.613</ele>
        <time>2014-02-15T15:58:54Z</time>
      </trkpt>
      <trkpt lat="42.36709" lon="2.54169">
        <ele>1296.045</ele>
        <time>2014-02-15T15:59:06Z</time>
      </trkpt>
      <trkpt lat="42.36706" lon="2.5416">
        <ele>1297.964</ele>
        <time>2014-02-15T15:59:19Z</time>
      </trkpt>
      <trkpt lat="42.36708" lon="2.54157">
        <ele>1298.906</ele>
        <time>2014-02-15T15:59:38Z</time>
      </trkpt>
      <trkpt lat="42.36707" lon="2.54154">
        <ele>1297.416</ele>
        <time>2014-02-15T16:00:07Z</time>
      </trkpt>
      <trkpt lat="42.36704" lon="2.5415">
        <ele>1297.407</ele>
        <time>2014-02-15T16:00:35Z</time>
      </trkpt>
      <trkpt lat="42.36707" lon="2.54154">
        <ele>1321.032</ele>
        <time>2014-02-15T16:02:10Z</time>
      </trkpt>
      <trkpt lat="42.36715" lon="2.54155">
        <ele>1321.027</ele>
        <time>2014-02-15T16:02:11Z</time>
      </trkpt>
      <trkpt lat="42.36714" lon="2.54154">
        <ele>1317.65</ele>
        <time>2014-02-15T16:02:18Z</time>
      </trkpt>
      <trkpt lat="42.36715" lon="2.54153">
        <ele>1318.195</ele>
        <time>2014-02-15T16:02:19Z</time>
      </trkpt>
      <trkpt lat="42.36716" lon="2.54153">
        <ele>1315.714</ele>
        <time>2014-02-15T16:02:21Z</time>
      </trkpt>
      <trkpt lat="42.36716" lon="2.54152">
        <ele>1311.931</ele>
        <time>2014-02-15T16:02:24Z</time>
      </trkpt>
      <trkpt lat="42.36716" lon="2.54149">
        <ele>1309.033</ele>
        <time>2014-02-15T16:02:28Z</time>
      </trkpt>
      <trkpt lat="42.36714" lon="2.54148">
        <ele>1305.663</ele>
        <time>2014-02-15T16:02:32Z</time>
      </trkpt>
      <trkpt lat="42.36712" lon="2.54147">
        <ele>1300.344</ele>
        <time>2014-02-15T16:02:37Z</time>
      </trkpt>
      <trkpt lat="42.36711" lon="2.54147">
        <ele>1301.818</ele>
        <time>2014-02-15T16:02:38Z</time>
      </trkpt>
      <trkpt lat="42.36712" lon="2.54145">
        <ele>1294.107</ele>
        <time>2014-02-15T16:02:44Z</time>
      </trkpt>
      <trkpt lat="42.36712" lon="2.54145">
        <ele>1298.442</ele>
        <time>2014-02-15T16:02:45Z</time>
      </trkpt>
      <trkpt lat="42.36712" lon="2.54144">
        <ele>1295.077</ele>
        <time>2014-02-15T16:02:53Z</time>
      </trkpt>
      <trkpt lat="42.36712" lon="2.54144">
        <ele>1295.02</ele>
        <time>2014-02-15T16:02:54Z</time>
      </trkpt>
      <trkpt lat="42.36716" lon="2.54147">
        <ele>1292.245</ele>
        <time>2014-02-15T16:03:11Z</time>
      </trkpt>
      <trkpt lat="42.36715" lon="2.54148">
        <ele>1292.274</ele>
        <time>2014-02-15T16:03:37Z</time>
      </trkpt>
      <trkpt lat="42.36714" lon="2.54148">
        <ele>1292.261</ele>
        <time>2014-02-15T16:03:55Z</time>
      </trkpt>
      <trkpt lat="42.36716" lon="2.54146">
        <ele>1291.253</ele>
        <time>2014-02-15T16:04:26Z</time>
      </trkpt>
      <trkpt lat="42.36716" lon="2.54145">
        <ele>1291.738</ele>
        <time>2014-02-15T16:04:57Z</time>
      </trkpt>
      <trkpt lat="42.36722" lon="2.54147">
        <ele>1291.27</ele>
        <time>2014-02-15T16:05:35Z</time>
      </trkpt>
      <trkpt lat="42.36716" lon="2.54143">
        <ele>1291.217</ele>
        <time>2014-02-15T16:06:01Z</time>
      </trkpt>
      <trkpt lat="42.36717" lon="2.54142">
        <ele>1292.207</ele>
        <time>2014-02-15T16:06:20Z</time>
      </trkpt>
      <trkpt lat="42.36715" lon="2.54145">
        <ele>1291.799</ele>
        <time>2014-02-15T16:06:45Z</time>
      </trkpt>
      <trkpt lat="42.36709" lon="2.54141">
        <ele>1293.194</ele>
        <time>2014-02-15T16:06:57Z</time>
      </trkpt>
      <trkpt lat="42.36704" lon="2.54129">
        <ele>1296.067</ele>
        <time>2014-02-15T16:07:12Z</time>
      </trkpt>
      <trkpt lat="42.367" lon="2.54125">
        <ele>1297.012</ele>
        <time>2014-02-15T16:07:18Z</time>
      </trkpt>
      <trkpt lat="42.36681" lon="2.54131">
        <ele>1296.531</ele>
        <time>2014-02-15T16:07:34Z</time>
      </trkpt>
      <trkpt lat="42.36676" lon="2.54133">
        <ele>1295.518</ele>
        <time>2014-02-15T16:07:51Z</time>
      </trkpt>
      <trkpt lat="42.36666" lon="2.54131">
        <ele>1295.03</ele>
        <time>2014-02-15T16:08:05Z</time>
      </trkpt>
      <trkpt lat="42.36651" lon="2.54128">
        <ele>1296.073</ele>
        <time>2014-02-15T16:08:18Z</time>
      </trkpt>
      <trkpt lat="42.36635" lon="2.54122">
        <ele>1298.485</ele>
        <time>2014-02-15T16:08:30Z</time>
      </trkpt>
      <trkpt lat="42.36624" lon="2.54118">
        <ele>1298.913</ele>
        <time>2014-02-15T16:08:40Z</time>
      </trkpt>
      <trkpt lat="42.36618" lon="2.54115">
        <ele>1298.907</ele>
        <time>2014-02-15T16:08:45Z</time>
      </trkpt>
      <trkpt lat="42.36609" lon="2.54115">
        <ele>1296.543</ele>
        <time>2014-02-15T16:08:54Z</time>
      </trkpt>
      <trkpt lat="42.36606" lon="2.54115">
        <ele>1295.018</ele>
        <time>2014-02-15T16:08:59Z</time>
      </trkpt>
      <trkpt lat="42.36597" lon="2.54118">
        <ele>1294.171</ele>
        <time>2014-02-15T16:09:10Z</time>
      </trkpt>
      <trkpt lat="42.36583" lon="2.54123">
        <ele>1295.566</ele>
        <time>2014-02-15T16:09:26Z</time>
      </trkpt>
      <trkpt lat="42.36575" lon="2.54121">
        <ele>1297.495</ele>
        <time>2014-02-15T16:09:37Z</time>
      </trkpt>
      <trkpt lat="42.36564" lon="2.54119">
        <ele>1299.832</ele>
        <time>2014-02-15T16:09:49Z</time>
      </trkpt>
      <trkpt lat="42.36554" lon="2.54126">
        <ele>1300.364</ele>
        <time>2014-02-15T16:10:00Z</time>
      </trkpt>
      <trkpt lat="42.36546" lon="2.54132">
        <ele>1299.432</ele>
        <time>2014-02-15T16:10:14Z</time>
      </trkpt>
      <trkpt lat="42.36546" lon="2.54132">
        <ele>1299.892</ele>
        <time>2014-02-15T16:10:30Z</time>
      </trkpt>
      <trkpt lat="42.36542" lon="2.54132">
        <ele>1299.411</ele>
        <time>2014-02-15T16:10:43Z</time>
      </trkpt>
      <trkpt lat="42.3654" lon="2.54132">
        <ele>1299.407</ele>
        <time>2014-02-15T16:11:03Z</time>
      </trkpt>
      <trkpt lat="42.36534" lon="2.54146">
        <ele>1297.489</ele>
        <time>2014-02-15T16:11:15Z</time>
      </trkpt>
      <trkpt lat="42.3652" lon="2.54161">
        <ele>1297.914</ele>
        <time>2014-02-15T16:11:30Z</time>
      </trkpt>
      <trkpt lat="42.36506" lon="2.54167">
        <ele>1298.417</ele>
        <time>2014-02-15T16:11:44Z</time>
      </trkpt>
      <trkpt lat="42.3649" lon="2.54164">
        <ele>1297.912</ele>
        <time>2014-02-15T16:11:59Z</time>
      </trkpt>
      <trkpt lat="42.36479" lon="2.54164">
        <ele>1297.941</ele>
        <time>2014-02-15T16:12:11Z</time>
      </trkpt>
      <trkpt lat="42.36465" lon="2.54169">
        <ele>1301.398</ele>
        <time>2014-02-15T16:12:24Z</time>
      </trkpt>
      <trkpt lat="42.3645" lon="2.54171">
        <ele>1303.28</ele>
        <time>2014-02-15T16:12:39Z</time>
      </trkpt>
      <trkpt lat="42.3644" lon="2.54177">
        <ele>1305.659</ele>
        <time>2014-02-15T16:12:52Z</time>
      </trkpt>
      <trkpt lat="42.36436" lon="2.54183">
        <ele>1309.503</ele>
        <time>2014-02-15T16:13:02Z</time>
      </trkpt>
      <trkpt lat="42.36428" lon="2.54193">
        <ele>1312.323</ele>
        <time>2014-02-15T16:13:16Z</time>
      </trkpt>
      <trkpt lat="42.36421" lon="2.54196">
        <ele>1315.207</ele>
        <time>2014-02-15T16:13:28Z</time>
      </trkpt>
      <trkpt lat="42.36416" lon="2.54207">
        <ele>1318.181</ele>
        <time>2014-02-15T16:13:41Z</time>
      </trkpt>
      <trkpt lat="42.36413" lon="2.54211">
        <ele>1318.626</ele>
        <time>2014-02-15T16:13:45Z</time>
      </trkpt>
      <trkpt lat="42.36406" lon="2.54222">
        <ele>1320.019</ele>
        <time>2014-02-15T16:14:00Z</time>
      </trkpt>
      <trkpt lat="42.36401" lon="2.54227">
        <ele>1319.664</ele>
        <time>2014-02-15T16:14:18Z</time>
      </trkpt>
      <trkpt lat="42.364" lon="2.5423">
        <ele>1320.593</ele>
        <time>2014-02-15T16:14:30Z</time>
      </trkpt>
      <trkpt lat="42.36399" lon="2.54232">
        <ele>1319.68</ele>
        <time>2014-02-15T16:14:33Z</time>
      </trkpt>
      <trkpt lat="42.36397" lon="2.54235">
        <ele>1318.112</ele>
        <time>2014-02-15T16:14:37Z</time>
      </trkpt>
      <trkpt lat="42.36394" lon="2.54238">
        <ele>1317.675</ele>
        <time>2014-02-15T16:14:40Z</time>
      </trkpt>
      <trkpt lat="42.3639" lon="2.54253">
        <ele>1316.728</ele>
        <time>2014-02-15T16:14:52Z</time>
      </trkpt>
      <trkpt lat="42.36387" lon="2.54259">
        <ele>1313.32</ele>
        <time>2014-02-15T16:15:06Z</time>
      </trkpt>
      <trkpt lat="42.3639" lon="2.5426">
        <ele>1310.407</ele>
        <time>2014-02-15T16:15:21Z</time>
      </trkpt>
      <trkpt lat="42.3639" lon="2.54261">
        <ele>1308.543</ele>
        <time>2014-02-15T16:15:25Z</time>
      </trkpt>
      <trkpt lat="42.36391" lon="2.54267">
        <ele>1304.728</ele>
        <time>2014-02-15T16:15:35Z</time>
      </trkpt>
      <trkpt lat="42.3639" lon="2.54271">
        <ele>1302.761</ele>
        <time>2014-02-15T16:15:41Z</time>
      </trkpt>
      <trkpt lat="42.36388" lon="2.54275">
        <ele>1299.836</ele>
        <time>2014-02-15T16:15:47Z</time>
      </trkpt>
      <trkpt lat="42.36388" lon="2.54281">
        <ele>1296.595</ele>
        <time>2014-02-15T16:15:56Z</time>
      </trkpt>
      <trkpt lat="42.36387" lon="2.54283">
        <ele>1295.082</ele>
        <time>2014-02-15T16:15:58Z</time>
      </trkpt>
      <trkpt lat="42.3639" lon="2.54287">
        <ele>1291.764</ele>
        <time>2014-02-15T16:16:08Z</time>
      </trkpt>
      <trkpt lat="42.36391" lon="2.54291">
        <ele>1289.872</ele>
        <time>2014-02-15T16:16:14Z</time>
      </trkpt>
      <trkpt lat="42.36388" lon="2.54299">
        <ele>1286.413</ele>
        <time>2014-02-15T16:16:28Z</time>
      </trkpt>
      <trkpt lat="42.36389" lon="2.54304">
        <ele>1283.514</ele>
        <time>2014-02-15T16:16:37Z</time>
      </trkpt>
      <trkpt lat="42.36394" lon="2.54308">
        <ele>1280.607</ele>
        <time>2014-02-15T16:16:47Z</time>
      </trkpt>
      <trkpt lat="42.36397" lon="2.54309">
        <ele>1279.273</ele>
        <time>2014-02-15T16:16:51Z</time>
      </trkpt>
      <trkpt lat="42.36403" lon="2.54314">
        <ele>1276.878</ele>
        <time>2014-02-15T16:17:04Z</time>
      </trkpt>
      <trkpt lat="42.36404" lon="2.54319">
        <ele>1273.981</ele>
        <time>2014-02-15T16:17:17Z</time>
      </trkpt>
      <trkpt lat="42.36406" lon="2.54323">
        <ele>1270.556</ele>
        <time>2014-02-15T16:17:30Z</time>
      </trkpt>
      <trkpt lat="42.36406" lon="2.54328">
        <ele>1268.165</ele>
        <time>2014-02-15T16:17:43Z</time>
      </trkpt>
      <trkpt lat="42.36403" lon="2.54335">
        <ele>1264.852</ele>
        <time>2014-02-15T16:17:55Z</time>
      </trkpt>
      <trkpt lat="42.36403" lon="2.54335">
        <ele>1264.854</ele>
        <time>2014-02-15T16:17:56Z</time>
      </trkpt>
      <trkpt lat="42.36401" lon="2.54342">
        <ele>1261.419</ele>
        <time>2014-02-15T16:18:07Z</time>
      </trkpt>
      <trkpt lat="42.36396" lon="2.54344">
        <ele>1261.909</ele>
        <time>2014-02-15T16:18:18Z</time>
      </trkpt>
      <trkpt lat="42.36394" lon="2.54345">
        <ele>1263.319</ele>
        <time>2014-02-15T16:18:21Z</time>
      </trkpt>
      <trkpt lat="42.36387" lon="2.54344">
        <ele>1262.807</ele>
        <time>2014-02-15T16:18:34Z</time>
      </trkpt>
      <trkpt lat="42.36375" lon="2.54347">
        <ele>1264.337</ele>
        <time>2014-02-15T16:18:51Z</time>
      </trkpt>
      <trkpt lat="42.36365" lon="2.54348">
        <ele>1264.882</ele>
        <time>2014-02-15T16:19:04Z</time>
      </trkpt>
      <trkpt lat="42.36354" lon="2.54352">
        <ele>1260.925</ele>
        <time>2014-02-15T16:19:16Z</time>
      </trkpt>
      <trkpt lat="42.36352" lon="2.54354">
        <ele>1259.93</ele>
        <time>2014-02-15T16:19:18Z</time>
      </trkpt>
      <trkpt lat="42.36346" lon="2.54357">
        <ele>1257.119</ele>
        <time>2014-02-15T16:19:24Z</time>
      </trkpt>
      <trkpt lat="42.36336" lon="2.54367">
        <ele>1253.286</ele>
        <time>2014-02-15T16:19:34Z</time>
      </trkpt>
      <trkpt lat="42.36332" lon="2.54371">
        <ele>1250.848</ele>
        <time>2014-02-15T16:19:40Z</time>
      </trkpt>
      <trkpt lat="42.3633" lon="2.54373">
        <ele>1249.986</ele>
        <time>2014-02-15T16:19:43Z</time>
      </trkpt>
      <trkpt lat="42.36321" lon="2.5438">
        <ele>1246.56</ele>
        <time>2014-02-15T16:19:55Z</time>
      </trkpt>
      <trkpt lat="42.3632" lon="2.54382">
        <ele>1246.526</ele>
        <time>2014-02-15T16:19:56Z</time>
      </trkpt>
      <trkpt lat="42.36313" lon="2.54388">
        <ele>1244.607</ele>
        <time>2014-02-15T16:20:07Z</time>
      </trkpt>
      <trkpt lat="42.36308" lon="2.54391">
        <ele>1241.264</ele>
        <time>2014-02-15T16:20:18Z</time>
      </trkpt>
      <trkpt lat="42.363" lon="2.54396">
        <ele>1238.899</ele>
        <time>2014-02-15T16:20:30Z</time>
      </trkpt>
      <trkpt lat="42.36291" lon="2.54401">
        <ele>1235.942</ele>
        <time>2014-02-15T16:20:42Z</time>
      </trkpt>
      <trkpt lat="42.36283" lon="2.54406">
        <ele>1233.567</ele>
        <time>2014-02-15T16:20:54Z</time>
      </trkpt>
      <trkpt lat="42.36283" lon="2.54406">
        <ele>1233.586</ele>
        <time>2014-02-15T16:20:55Z</time>
      </trkpt>
      <trkpt lat="42.36276" lon="2.5441">
        <ele>1231.183</ele>
        <time>2014-02-15T16:21:08Z</time>
      </trkpt>
      <trkpt lat="42.36267" lon="2.54415">
        <ele>1227.735</ele>
        <time>2014-02-15T16:21:20Z</time>
      </trkpt>
      <trkpt lat="42.36256" lon="2.54418">
        <ele>1228.786</ele>
        <time>2014-02-15T16:21:33Z</time>
      </trkpt>
      <trkpt lat="42.36254" lon="2.54419">
        <ele>1229.26</ele>
        <time>2014-02-15T16:21:37Z</time>
      </trkpt>
      <trkpt lat="42.36244" lon="2.54419">
        <ele>1229.726</ele>
        <time>2014-02-15T16:21:51Z</time>
      </trkpt>
      <trkpt lat="42.36242" lon="2.54419">
        <ele>1227.307</ele>
        <time>2014-02-15T16:22:05Z</time>
      </trkpt>
      <trkpt lat="42.36235" lon="2.54416">
        <ele>1223.444</ele>
        <time>2014-02-15T16:22:18Z</time>
      </trkpt>
      <trkpt lat="42.3623" lon="2.54424">
        <ele>1221.049</ele>
        <time>2014-02-15T16:22:29Z</time>
      </trkpt>
      <trkpt lat="42.36218" lon="2.54425">
        <ele>1219.132</ele>
        <time>2014-02-15T16:22:43Z</time>
      </trkpt>
      <trkpt lat="42.36207" lon="2.54424">
        <ele>1220.187</ele>
        <time>2014-02-15T16:22:54Z</time>
      </trkpt>
      <trkpt lat="42.36205" lon="2.54425">
        <ele>1220.586</ele>
        <time>2014-02-15T16:22:56Z</time>
      </trkpt>
      <trkpt lat="42.36197" lon="2.54428">
        <ele>1221.043</ele>
        <time>2014-02-15T16:23:02Z</time>
      </trkpt>
      <trkpt lat="42.36179" lon="2.54444">
        <ele>1222.555</ele>
        <time>2014-02-15T16:23:19Z</time>
      </trkpt>
      <trkpt lat="42.36164" lon="2.54458">
        <ele>1224.992</ele>
        <time>2014-02-15T16:23:35Z</time>
      </trkpt>
      <trkpt lat="42.36156" lon="2.54465">
        <ele>1224.473</ele>
        <time>2014-02-15T16:23:48Z</time>
      </trkpt>
      <trkpt lat="42.36154" lon="2.54467">
        <ele>1222.92</ele>
        <time>2014-02-15T16:24:13Z</time>
      </trkpt>
      <trkpt lat="42.36153" lon="2.54466">
        <ele>1223.407</ele>
        <time>2014-02-15T16:24:29Z</time>
      </trkpt>
      <trkpt lat="42.36152" lon="2.54467">
        <ele>1222.925</ele>
        <time>2014-02-15T16:24:39Z</time>
      </trkpt>
      <trkpt lat="42.36146" lon="2.54482">
        <ele>1222.93</ele>
        <time>2014-02-15T16:24:53Z</time>
      </trkpt>
      <trkpt lat="42.36139" lon="2.545">
        <ele>1224.923</ele>
        <time>2014-02-15T16:25:08Z</time>
      </trkpt>
      <trkpt lat="42.36134" lon="2.54519">
        <ele>1223.968</ele>
        <time>2014-02-15T16:25:21Z</time>
      </trkpt>
      <trkpt lat="42.36136" lon="2.54533">
        <ele>1222.037</ele>
        <time>2014-02-15T16:25:34Z</time>
      </trkpt>
      <trkpt lat="42.36137" lon="2.54536">
        <ele>1221.524</ele>
        <time>2014-02-15T16:25:36Z</time>
      </trkpt>
      <trkpt lat="42.36136" lon="2.54539">
        <ele>1222.026</ele>
        <time>2014-02-15T16:25:38Z</time>
      </trkpt>
      <trkpt lat="42.36131" lon="2.54552">
        <ele>1221.087</ele>
        <time>2014-02-15T16:25:48Z</time>
      </trkpt>
      <trkpt lat="42.36128" lon="2.54571">
        <ele>1219.142</ele>
        <time>2014-02-15T16:26:03Z</time>
      </trkpt>
      <trkpt lat="42.36124" lon="2.54583">
        <ele>1217.226</ele>
        <time>2014-02-15T16:26:11Z</time>
      </trkpt>
      <trkpt lat="42.36113" lon="2.54601">
        <ele>1216.707</ele>
        <time>2014-02-15T16:26:25Z</time>
      </trkpt>
      <trkpt lat="42.36101" lon="2.54612">
        <ele>1213.374</ele>
        <time>2014-02-15T16:26:38Z</time>
      </trkpt>
      <trkpt lat="42.36086" lon="2.54625">
        <ele>1211.499</ele>
        <time>2014-02-15T16:26:52Z</time>
      </trkpt>
      <trkpt lat="42.36081" lon="2.5463">
        <ele>1210.082</ele>
        <time>2014-02-15T16:26:56Z</time>
      </trkpt>
      <trkpt lat="42.36078" lon="2.54633">
        <ele>1209.587</ele>
        <time>2014-02-15T16:26:59Z</time>
      </trkpt>
      <trkpt lat="42.36069" lon="2.54646">
        <ele>1206.196</ele>
        <time>2014-02-15T16:27:08Z</time>
      </trkpt>
      <trkpt lat="42.36062" lon="2.54658">
        <ele>1202.813</ele>
        <time>2014-02-15T16:27:18Z</time>
      </trkpt>
      <trkpt lat="42.36054" lon="2.54668">
        <ele>1199.925</ele>
        <time>2014-02-15T16:27:31Z</time>
      </trkpt>
      <trkpt lat="42.36045" lon="2.54677">
        <ele>1196.554</ele>
        <time>2014-02-15T16:27:42Z</time>
      </trkpt>
      <trkpt lat="42.36036" lon="2.54683">
        <ele>1193.656</ele>
        <time>2014-02-15T16:27:54Z</time>
      </trkpt>
      <trkpt lat="42.3603" lon="2.54687">
        <ele>1191.711</ele>
        <time>2014-02-15T16:28:02Z</time>
      </trkpt>
      <trkpt lat="42.36024" lon="2.54692">
        <ele>1190.307</ele>
        <time>2014-02-15T16:28:09Z</time>
      </trkpt>
      <trkpt lat="42.3602" lon="2.54696">
        <ele>1189.371</ele>
        <time>2014-02-15T16:28:13Z</time>
      </trkpt>
      <trkpt lat="42.36014" lon="2.54711">
        <ele>1185.426</ele>
        <time>2014-02-15T16:28:26Z</time>
      </trkpt>
      <trkpt lat="42.36012" lon="2.54723">
        <ele>1182.129</ele>
        <time>2014-02-15T16:28:38Z</time>
      </trkpt>
      <trkpt lat="42.36009" lon="2.54739">
        <ele>1178.734</ele>
        <time>2014-02-15T16:28:49Z</time>
      </trkpt>
      <trkpt lat="42.35998" lon="2.54759">
        <ele>1178.233</ele>
        <time>2014-02-15T16:29:02Z</time>
      </trkpt>
      <trkpt lat="42.35989" lon="2.54766">
        <ele>1177.36</ele>
        <time>2014-02-15T16:29:09Z</time>
      </trkpt>
      <trkpt lat="42.35975" lon="2.54785">
        <ele>1177.342</ele>
        <time>2014-02-15T16:29:23Z</time>
      </trkpt>
      <trkpt lat="42.35969" lon="2.54796">
        <ele>1178.284</ele>
        <time>2014-02-15T16:29:31Z</time>
      </trkpt>
      <trkpt lat="42.35963" lon="2.54809">
        <ele>1174.407</ele>
        <time>2014-02-15T16:29:40Z</time>
      </trkpt>
      <trkpt lat="42.35958" lon="2.54818">
        <ele>1171.017</ele>
        <time>2014-02-15T16:29:49Z</time>
      </trkpt>
      <trkpt lat="42.35951" lon="2.54824">
        <ele>1168.107</ele>
        <time>2014-02-15T16:29:58Z</time>
      </trkpt>
      <trkpt lat="42.35941" lon="2.54834">
        <ele>1164.814</ele>
        <time>2014-02-15T16:30:06Z</time>
      </trkpt>
      <trkpt lat="42.35932" lon="2.54841">
        <ele>1162.499</ele>
        <time>2014-02-15T16:30:14Z</time>
      </trkpt>
      <trkpt lat="42.35925" lon="2.54867">
        <ele>1160.922</ele>
        <time>2014-02-15T16:30:31Z</time>
      </trkpt>
      <trkpt lat="42.35926" lon="2.5489">
        <ele>1159.047</ele>
        <time>2014-02-15T16:30:48Z</time>
      </trkpt>
      <trkpt lat="42.35926" lon="2.54909">
        <ele>1157.696</ele>
        <time>2014-02-15T16:31:02Z</time>
      </trkpt>
      <trkpt lat="42.35924" lon="2.54914">
        <ele>1157.653</ele>
        <time>2014-02-15T16:31:27Z</time>
      </trkpt>
      <trkpt lat="42.35919" lon="2.54924">
        <ele>1156.195</ele>
        <time>2014-02-15T16:31:40Z</time>
      </trkpt>
      <trkpt lat="42.35911" lon="2.54942">
        <ele>1154.271</ele>
        <time>2014-02-15T16:31:54Z</time>
      </trkpt>
      <trkpt lat="42.35905" lon="2.54949">
        <ele>1152.341</ele>
        <time>2014-02-15T16:32:04Z</time>
      </trkpt>
      <trkpt lat="42.35895" lon="2.54961">
        <ele>1149.415</ele>
        <time>2014-02-15T16:32:13Z</time>
      </trkpt>
      <trkpt lat="42.35885" lon="2.54973">
        <ele>1146.007</ele>
        <time>2014-02-15T16:32:26Z</time>
      </trkpt>
      <trkpt lat="42.35883" lon="2.54973">
        <ele>1146.523</ele>
        <time>2014-02-15T16:32:28Z</time>
      </trkpt>
      <trkpt lat="42.35864" lon="2.54972">
        <ele>1145.638</ele>
        <time>2014-02-15T16:32:43Z</time>
      </trkpt>
      <trkpt lat="42.35854" lon="2.54969">
        <ele>1146.051</ele>
        <time>2014-02-15T16:32:55Z</time>
      </trkpt>
      <trkpt lat="42.35851" lon="2.54966">
        <ele>1146.526</ele>
        <time>2014-02-15T16:33:01Z</time>
      </trkpt>
      <trkpt lat="42.35842" lon="2.54979">
        <ele>1147.515</ele>
        <time>2014-02-15T16:33:14Z</time>
      </trkpt>
      <trkpt lat="42.35827" lon="2.54995">
        <ele>1147.582</ele>
        <time>2014-02-15T16:33:27Z</time>
      </trkpt>
      <trkpt lat="42.35811" lon="2.55016">
        <ele>1148.414</ele>
        <time>2014-02-15T16:33:41Z</time>
      </trkpt>
      <trkpt lat="42.358" lon="2.55048">
        <ele>1148.458</ele>
        <time>2014-02-15T16:33:57Z</time>
      </trkpt>
      <trkpt lat="42.35791" lon="2.55079">
        <ele>1148.952</ele>
        <time>2014-02-15T16:34:13Z</time>
      </trkpt>
      <trkpt lat="42.3578" lon="2.55097">
        <ele>1149.917</ele>
        <time>2014-02-15T16:34:24Z</time>
      </trkpt>
      <trkpt lat="42.35778" lon="2.55102">
        <ele>1150.407</ele>
        <time>2014-02-15T16:34:28Z</time>
      </trkpt>
      <trkpt lat="42.35769" lon="2.55127">
        <ele>1151.341</ele>
        <time>2014-02-15T16:34:43Z</time>
      </trkpt>
      <trkpt lat="42.35757" lon="2.55152">
        <ele>1152.386</ele>
        <time>2014-02-15T16:34:58Z</time>
      </trkpt>
      <trkpt lat="42.35745" lon="2.55173">
        <ele>1153.259</ele>
        <time>2014-02-15T16:35:12Z</time>
      </trkpt>
      <trkpt lat="42.35729" lon="2.55195">
        <ele>1155.294</ele>
        <time>2014-02-15T16:35:28Z</time>
      </trkpt>
      <trkpt lat="42.35726" lon="2.55198">
        <ele>1155.263</ele>
        <time>2014-02-15T16:35:30Z</time>
      </trkpt>
      <trkpt lat="42.35718" lon="2.55205">
        <ele>1155.62</ele>
        <time>2014-02-15T16:35:42Z</time>
      </trkpt>
      <trkpt lat="42.35718" lon="2.55217">
        <ele>1154.762</ele>
        <time>2014-02-15T16:35:53Z</time>
      </trkpt>
      <trkpt lat="42.35721" lon="2.55241">
        <ele>1156.198</ele>
        <time>2014-02-15T16:36:08Z</time>
      </trkpt>
      <trkpt lat="42.35726" lon="2.5526">
        <ele>1155.215</ele>
        <time>2014-02-15T16:36:22Z</time>
      </trkpt>
      <trkpt lat="42.35727" lon="2.55293">
        <ele>1156.626</ele>
        <time>2014-02-15T16:36:38Z</time>
      </trkpt>
      <trkpt lat="42.35728" lon="2.55326">
        <ele>1158.507</ele>
        <time>2014-02-15T16:36:54Z</time>
      </trkpt>
      <trkpt lat="42.35729" lon="2.5535">
        <ele>1160.015</ele>
        <time>2014-02-15T16:37:08Z</time>
      </trkpt>
      <trkpt lat="42.3573" lon="2.55376">
        <ele>1161.91</ele>
        <time>2014-02-15T16:37:23Z</time>
      </trkpt>
      <trkpt lat="42.35726" lon="2.55391">
        <ele>1163.883</ele>
        <time>2014-02-15T16:37:36Z</time>
      </trkpt>
      <trkpt lat="42.35723" lon="2.5542">
        <ele>1163.888</ele>
        <time>2014-02-15T16:37:50Z</time>
      </trkpt>
      <trkpt lat="42.35723" lon="2.55442">
        <ele>1166.267</ele>
        <time>2014-02-15T16:38:05Z</time>
      </trkpt>
      <trkpt lat="42.35722" lon="2.55463">
        <ele>1166.714</ele>
        <time>2014-02-15T16:38:19Z</time>
      </trkpt>
      <trkpt lat="42.35721" lon="2.5549">
        <ele>1169.136</ele>
        <time>2014-02-15T16:38:32Z</time>
      </trkpt>
      <trkpt lat="42.35719" lon="2.55513">
        <ele>1170.591</ele>
        <time>2014-02-15T16:38:47Z</time>
      </trkpt>
      <trkpt lat="42.3572" lon="2.55535">
        <ele>1172.081</ele>
        <time>2014-02-15T16:39:01Z</time>
      </trkpt>
      <trkpt lat="42.35714" lon="2.55555">
        <ele>1174.419</ele>
        <time>2014-02-15T16:39:15Z</time>
      </trkpt>
      <trkpt lat="42.35719" lon="2.55585">
        <ele>1174.907</ele>
        <time>2014-02-15T16:39:29Z</time>
      </trkpt>
      <trkpt lat="42.35719" lon="2.55609">
        <ele>1175.815</ele>
        <time>2014-02-15T16:39:43Z</time>
      </trkpt>
      <trkpt lat="42.35718" lon="2.55631">
        <ele>1177.88</ele>
        <time>2014-02-15T16:39:58Z</time>
      </trkpt>
      <trkpt lat="42.35716" lon="2.55641">
        <ele>1179.253</ele>
        <time>2014-02-15T16:40:10Z</time>
      </trkpt>
      <trkpt lat="42.35713" lon="2.55649">
        <ele>1181.628</ele>
        <time>2014-02-15T16:40:23Z</time>
      </trkpt>
      <trkpt lat="42.35712" lon="2.55658">
        <ele>1182.617</ele>
        <time>2014-02-15T16:40:35Z</time>
      </trkpt>
      <trkpt lat="42.35716" lon="2.55673">
        <ele>1185.084</ele>
        <time>2014-02-15T16:40:48Z</time>
      </trkpt>
      <trkpt lat="42.35718" lon="2.55702">
        <ele>1187.476</ele>
        <time>2014-02-15T16:41:04Z</time>
      </trkpt>
      <trkpt lat="42.35721" lon="2.55718">
        <ele>1190.735</ele>
        <time>2014-02-15T16:41:18Z</time>
      </trkpt>
      <trkpt lat="42.35722" lon="2.55731">
        <ele>1190.386</ele>
        <time>2014-02-15T16:41:27Z</time>
      </trkpt>
      <trkpt lat="42.35724" lon="2.55753">
        <ele>1190.714</ele>
        <time>2014-02-15T16:41:39Z</time>
      </trkpt>
      <trkpt lat="42.35726" lon="2.55769">
        <ele>1190.307</ele>
        <time>2014-02-15T16:41:54Z</time>
      </trkpt>
      <trkpt lat="42.35726" lon="2.5577">
        <ele>1190.339</ele>
        <time>2014-02-15T16:42:21Z</time>
      </trkpt>
      <trkpt lat="42.35725" lon="2.55775">
        <ele>1190.324</ele>
        <time>2014-02-15T16:42:42Z</time>
      </trkpt>
      <trkpt lat="42.35726" lon="2.55788">
        <ele>1191.757</ele>
        <time>2014-02-15T16:42:53Z</time>
      </trkpt>
      <trkpt lat="42.35727" lon="2.55804">
        <ele>1194.672</ele>
        <time>2014-02-15T16:43:07Z</time>
      </trkpt>
      <trkpt lat="42.35725" lon="2.55816">
        <ele>1197.071</ele>
        <time>2014-02-15T16:43:18Z</time>
      </trkpt>
      <trkpt lat="42.35724" lon="2.55829">
        <ele>1197.028</ele>
        <time>2014-02-15T16:43:29Z</time>
      </trkpt>
      <trkpt lat="42.35725" lon="2.55832">
        <ele>1197.02</ele>
        <time>2014-02-15T16:43:32Z</time>
      </trkpt>
      <trkpt lat="42.35726" lon="2.55839">
        <ele>1197.544</ele>
        <time>2014-02-15T16:43:37Z</time>
      </trkpt>
      <trkpt lat="42.35728" lon="2.55852">
        <ele>1200.305</ele>
        <time>2014-02-15T16:43:51Z</time>
      </trkpt>
      <trkpt lat="42.35729" lon="2.55869">
        <ele>1203.715</ele>
        <time>2014-02-15T16:44:04Z</time>
      </trkpt>
      <trkpt lat="42.35726" lon="2.55875">
        <ele>1202.807</ele>
        <time>2014-02-15T16:44:15Z</time>
      </trkpt>
      <trkpt lat="42.35723" lon="2.55875">
        <ele>1202.85</ele>
        <time>2014-02-15T16:44:38Z</time>
      </trkpt>
      <trkpt lat="42.35723" lon="2.55876">
        <ele>1203.775</ele>
        <time>2014-02-15T16:44:45Z</time>
      </trkpt>
      <trkpt lat="42.35727" lon="2.55879">
        <ele>1203.298</ele>
        <time>2014-02-15T16:44:49Z</time>
      </trkpt>
      <trkpt lat="42.35731" lon="2.55898">
        <ele>1203.253</ele>
        <time>2014-02-15T16:45:02Z</time>
      </trkpt>
      <trkpt lat="42.35732" lon="2.55913">
        <ele>1206.112</ele>
        <time>2014-02-15T16:45:14Z</time>
      </trkpt>
      <trkpt lat="42.35732" lon="2.55916">
        <ele>1207.639</ele>
        <time>2014-02-15T16:45:16Z</time>
      </trkpt>
      <trkpt lat="42.3573" lon="2.55927">
        <ele>1209.551</ele>
        <time>2014-02-15T16:45:26Z</time>
      </trkpt>
      <trkpt lat="42.35728" lon="2.55941">
        <ele>1213.342</ele>
        <time>2014-02-15T16:45:39Z</time>
      </trkpt>
      <trkpt lat="42.35727" lon="2.55953">
        <ele>1216.222</ele>
        <time>2014-02-15T16:45:50Z</time>
      </trkpt>
      <trkpt lat="42.35723" lon="2.55966">
        <ele>1219.614</ele>
        <time>2014-02-15T16:46:01Z</time>
      </trkpt>
      <trkpt lat="42.35722" lon="2.55969">
        <ele>1220.107</ele>
        <time>2014-02-15T16:46:04Z</time>
      </trkpt>
      <trkpt lat="42.35719" lon="2.55984">
        <ele>1222.51</ele>
        <time>2014-02-15T16:46:18Z</time>
      </trkpt>
      <trkpt lat="42.35718" lon="2.56006">
        <ele>1222.535</ele>
        <time>2014-02-15T16:46:32Z</time>
      </trkpt>
      <trkpt lat="42.35719" lon="2.56028">
        <ele>1219.678</ele>
        <time>2014-02-15T16:46:46Z</time>
      </trkpt>
      <trkpt lat="42.35718" lon="2.56039">
        <ele>1221.533</ele>
        <time>2014-02-15T16:46:57Z</time>
      </trkpt>
      <trkpt lat="42.35719" lon="2.56045">
        <ele>1222.592</ele>
        <time>2014-02-15T16:47:02Z</time>
      </trkpt>
      <trkpt lat="42.35719" lon="2.56053">
        <ele>1224.989</ele>
        <time>2014-02-15T16:47:10Z</time>
      </trkpt>
      <trkpt lat="42.35718" lon="2.56069">
        <ele>1227.731</ele>
        <time>2014-02-15T16:47:23Z</time>
      </trkpt>
      <trkpt lat="42.35719" lon="2.5609">
        <ele>1225.314</ele>
        <time>2014-02-15T16:47:38Z</time>
      </trkpt>
      <trkpt lat="42.35722" lon="2.56102">
        <ele>1225.354</ele>
        <time>2014-02-15T16:47:46Z</time>
      </trkpt>
      <trkpt lat="42.35721" lon="2.56139">
        <ele>1226.309</ele>
        <time>2014-02-15T16:48:02Z</time>
      </trkpt>
      <trkpt lat="42.35718" lon="2.56157">
        <ele>1225.807</ele>
        <time>2014-02-15T16:48:15Z</time>
      </trkpt>
      <trkpt lat="42.3571" lon="2.56184">
        <ele>1222.967</ele>
        <time>2014-02-15T16:48:31Z</time>
      </trkpt>
      <trkpt lat="42.35708" lon="2.56211">
        <ele>1221.542</ele>
        <time>2014-02-15T16:48:45Z</time>
      </trkpt>
      <trkpt lat="42.35706" lon="2.56219">
        <ele>1220.585</ele>
        <time>2014-02-15T16:48:49Z</time>
      </trkpt>
      <trkpt lat="42.35702" lon="2.56235">
        <ele>1220.16</ele>
        <time>2014-02-15T16:48:56Z</time>
      </trkpt>
      <trkpt lat="42.35698" lon="2.5628">
        <ele>1217.729</ele>
        <time>2014-02-15T16:49:12Z</time>
      </trkpt>
      <trkpt lat="42.35694" lon="2.5629">
        <ele>1217.256</ele>
        <time>2014-02-15T16:49:18Z</time>
      </trkpt>
      <trkpt lat="42.35686" lon="2.56318">
        <ele>1214.348</ele>
        <time>2014-02-15T16:49:34Z</time>
      </trkpt>
      <trkpt lat="42.35681" lon="2.56338">
        <ele>1211.476</ele>
        <time>2014-02-15T16:49:48Z</time>
      </trkpt>
      <trkpt lat="42.35682" lon="2.56356">
        <ele>1209.59</ele>
        <time>2014-02-15T16:49:56Z</time>
      </trkpt>
      <trkpt lat="42.35678" lon="2.56381">
        <ele>1208.019</ele>
        <time>2014-02-15T16:50:09Z</time>
      </trkpt>
      <trkpt lat="42.35673" lon="2.56396">
        <ele>1205.607</ele>
        <time>2014-02-15T16:50:22Z</time>
      </trkpt>
      <trkpt lat="42.35672" lon="2.56403">
        <ele>1207.643</ele>
        <time>2014-02-15T16:50:33Z</time>
      </trkpt>
      <trkpt lat="42.3567" lon="2.56416">
        <ele>1207.648</ele>
        <time>2014-02-15T16:50:41Z</time>
      </trkpt>
      <trkpt lat="42.35667" lon="2.56432">
        <ele>1207.611</ele>
        <time>2014-02-15T16:50:48Z</time>
      </trkpt>
      <trkpt lat="42.35663" lon="2.56453">
        <ele>1206.176</ele>
        <time>2014-02-15T16:51:01Z</time>
      </trkpt>
      <trkpt lat="42.35656" lon="2.56488">
        <ele>1204.215</ele>
        <time>2014-02-15T16:51:19Z</time>
      </trkpt>
      <trkpt lat="42.35656" lon="2.56499">
        <ele>1203.742</ele>
        <time>2014-02-15T16:51:24Z</time>
      </trkpt>
      <trkpt lat="42.35651" lon="2.56515">
        <ele>1202.814</ele>
        <time>2014-02-15T16:51:36Z</time>
      </trkpt>
      <trkpt lat="42.35649" lon="2.56519">
        <ele>1203.273</ele>
        <time>2014-02-15T16:51:41Z</time>
      </trkpt>
      <trkpt lat="42.35637" lon="2.56543">
        <ele>1202.885</ele>
        <time>2014-02-15T16:51:54Z</time>
      </trkpt>
      <trkpt lat="42.35634" lon="2.56556">
        <ele>1202.813</ele>
        <time>2014-02-15T16:52:00Z</time>
      </trkpt>
      <trkpt lat="42.3563" lon="2.56578">
        <ele>1201.807</ele>
        <time>2014-02-15T16:52:14Z</time>
      </trkpt>
      <trkpt lat="42.35637" lon="2.56593">
        <ele>1200.813</ele>
        <time>2014-02-15T16:52:30Z</time>
      </trkpt>
      <trkpt lat="42.35634" lon="2.56599">
        <ele>1200.818</ele>
        <time>2014-02-15T16:52:48Z</time>
      </trkpt>
      <trkpt lat="42.35641" lon="2.56613">
        <ele>1199.481</ele>
        <time>2014-02-15T16:53:13Z</time>
      </trkpt>
      <trkpt lat="42.35642" lon="2.56629">
        <ele>1196.516</ele>
        <time>2014-02-15T16:53:24Z</time>
      </trkpt>
      <trkpt lat="42.35639" lon="2.5665">
        <ele>1197.585</ele>
        <time>2014-02-15T16:53:39Z</time>
      </trkpt>
      <trkpt lat="42.35636" lon="2.56656">
        <ele>1198.472</ele>
        <time>2014-02-15T16:53:56Z</time>
      </trkpt>
      <trkpt lat="42.35631" lon="2.56653">
        <ele>1199.914</ele>
        <time>2014-02-15T16:54:06Z</time>
      </trkpt>
      <trkpt lat="42.35627" lon="2.56653">
        <ele>1200.883</ele>
        <time>2014-02-15T16:54:10Z</time>
      </trkpt>
      <trkpt lat="42.35615" lon="2.56667">
        <ele>1202.325</ele>
        <time>2014-02-15T16:54:25Z</time>
      </trkpt>
      <trkpt lat="42.35612" lon="2.56673">
        <ele>1201.817</ele>
        <time>2014-02-15T16:54:34Z</time>
      </trkpt>
      <trkpt lat="42.3561" lon="2.56687">
        <ele>1200.307</ele>
        <time>2014-02-15T16:54:43Z</time>
      </trkpt>
      <trkpt lat="42.35607" lon="2.56703">
        <ele>1198.934</ele>
        <time>2014-02-15T16:54:58Z</time>
      </trkpt>
      <trkpt lat="42.35608" lon="2.56707">
        <ele>1198.949</ele>
        <time>2014-02-15T16:55:23Z</time>
      </trkpt>
      <trkpt lat="42.35608" lon="2.56711">
        <ele>1198.462</ele>
        <time>2014-02-15T16:55:41Z</time>
      </trkpt>
      <trkpt lat="42.35607" lon="2.56711">
        <ele>1198.927</ele>
        <time>2014-02-15T16:55:53Z</time>
      </trkpt>
      <trkpt lat="42.35607" lon="2.56712">
        <ele>1198.966</ele>
        <time>2014-02-15T16:56:07Z</time>
      </trkpt>
      <trkpt lat="42.35606" lon="2.5671">
        <ele>1198.993</ele>
        <time>2014-02-15T16:56:13Z</time>
      </trkpt>
      <trkpt lat="42.35607" lon="2.56693">
        <ele>1200.375</ele>
        <time>2014-02-15T16:56:27Z</time>
      </trkpt>
      <trkpt lat="42.35605" lon="2.56676">
        <ele>1201.842</ele>
        <time>2014-02-15T16:56:41Z</time>
      </trkpt>
      <trkpt lat="42.35603" lon="2.56671">
        <ele>1202.822</ele>
        <time>2014-02-15T16:56:47Z</time>
      </trkpt>
      <trkpt lat="42.35599" lon="2.56666">
        <ele>1203.214</ele>
        <time>2014-02-15T16:56:52Z</time>
      </trkpt>
      <trkpt lat="42.35594" lon="2.56668">
        <ele>1204.707</ele>
        <time>2014-02-15T16:57:01Z</time>
      </trkpt>
      <trkpt lat="42.35593" lon="2.56672">
        <ele>1204.77</ele>
        <time>2014-02-15T16:57:05Z</time>
      </trkpt>
      <trkpt lat="42.35591" lon="2.56679">
        <ele>1206.175</ele>
        <time>2014-02-15T16:57:11Z</time>
      </trkpt>
      <trkpt lat="42.35591" lon="2.5668">
        <ele>1206.178</ele>
        <time>2014-02-15T16:57:12Z</time>
      </trkpt>
      <trkpt lat="42.35588" lon="2.56685">
        <ele>1206.183</ele>
        <time>2014-02-15T16:57:17Z</time>
      </trkpt>
      <trkpt lat="42.35578" lon="2.56698">
        <ele>1208.082</ele>
        <time>2014-02-15T16:57:30Z</time>
      </trkpt>
      <trkpt lat="42.35558" lon="2.56714">
        <ele>1207.659</ele>
        <time>2014-02-15T16:57:47Z</time>
      </trkpt>
      <trkpt lat="42.35548" lon="2.56716">
        <ele>1208.581</ele>
        <time>2014-02-15T16:57:52Z</time>
      </trkpt>
      <trkpt lat="42.35523" lon="2.56714">
        <ele>1210.035</ele>
        <time>2014-02-15T16:58:09Z</time>
      </trkpt>
      <trkpt lat="42.35511" lon="2.56713">
        <ele>1210.086</ele>
        <time>2014-02-15T16:58:18Z</time>
      </trkpt>
      <trkpt lat="42.35488" lon="2.56705">
        <ele>1210.014</ele>
        <time>2014-02-15T16:58:32Z</time>
      </trkpt>
      <trkpt lat="42.35462" lon="2.56706">
        <ele>1210.007</ele>
        <time>2014-02-15T16:58:50Z</time>
      </trkpt>
      <trkpt lat="42.35453" lon="2.56707">
        <ele>1209.589</ele>
        <time>2014-02-15T16:58:56Z</time>
      </trkpt>
      <trkpt lat="42.35439" lon="2.56712">
        <ele>1210.084</ele>
        <time>2014-02-15T16:59:08Z</time>
      </trkpt>
      <trkpt lat="42.35435" lon="2.56715">
        <ele>1209.557</ele>
        <time>2014-02-15T16:59:13Z</time>
      </trkpt>
      <trkpt lat="42.35423" lon="2.5672">
        <ele>1210.062</ele>
        <time>2014-02-15T16:59:25Z</time>
      </trkpt>
      <trkpt lat="42.35407" lon="2.56722">
        <ele>1211.471</ele>
        <time>2014-02-15T16:59:41Z</time>
      </trkpt>
      <trkpt lat="42.35406" lon="2.56724">
        <ele>1210.958</ele>
        <time>2014-02-15T16:59:47Z</time>
      </trkpt>
      <trkpt lat="42.35402" lon="2.56735">
        <ele>1211.45</ele>
        <time>2014-02-15T17:00:01Z</time>
      </trkpt>
      <trkpt lat="42.35402" lon="2.56735">
        <ele>1211.459</ele>
        <time>2014-02-15T17:00:11Z</time>
      </trkpt>
      <trkpt lat="42.35401" lon="2.56738">
        <ele>1211.903</ele>
        <time>2014-02-15T17:00:13Z</time>
      </trkpt>
      <trkpt lat="42.354" lon="2.56743">
        <ele>1211.423</ele>
        <time>2014-02-15T17:00:16Z</time>
      </trkpt>
      <trkpt lat="42.35395" lon="2.56748">
        <ele>1212.807</ele>
        <time>2014-02-15T17:00:26Z</time>
      </trkpt>
      <trkpt lat="42.35387" lon="2.56753">
        <ele>1215.211</ele>
        <time>2014-02-15T17:00:40Z</time>
      </trkpt>
      <trkpt lat="42.35373" lon="2.56749">
        <ele>1218.126</ele>
        <time>2014-02-15T17:00:53Z</time>
      </trkpt>
      <trkpt lat="42.3537" lon="2.5675">
        <ele>1218.679</ele>
        <time>2014-02-15T17:00:56Z</time>
      </trkpt>
      <trkpt lat="42.35357" lon="2.56763">
        <ele>1220.564</ele>
        <time>2014-02-15T17:01:12Z</time>
      </trkpt>
      <trkpt lat="42.35356" lon="2.5677">
        <ele>1222.083</ele>
        <time>2014-02-15T17:01:19Z</time>
      </trkpt>
      <trkpt lat="42.35346" lon="2.56786">
        <ele>1223.93</ele>
        <time>2014-02-15T17:01:33Z</time>
      </trkpt>
      <trkpt lat="42.35332" lon="2.56806">
        <ele>1226.372</ele>
        <time>2014-02-15T17:01:48Z</time>
      </trkpt>
      <trkpt lat="42.35328" lon="2.56828">
        <ele>1229.247</ele>
        <time>2014-02-15T17:02:02Z</time>
      </trkpt>
      <trkpt lat="42.35322" lon="2.56853">
        <ele>1231.629</ele>
        <time>2014-02-15T17:02:18Z</time>
      </trkpt>
      <trkpt lat="42.35318" lon="2.56861">
        <ele>1232.621</ele>
        <time>2014-02-15T17:02:24Z</time>
      </trkpt>
      <trkpt lat="42.35311" lon="2.56868">
        <ele>1232.107</ele>
        <time>2014-02-15T17:02:32Z</time>
      </trkpt>
      <trkpt lat="42.35308" lon="2.56871">
        <ele>1231.16</ele>
        <time>2014-02-15T17:02:35Z</time>
      </trkpt>
      <trkpt lat="42.35305" lon="2.56872">
        <ele>1231.135</ele>
        <time>2014-02-15T17:02:37Z</time>
      </trkpt>
      <trkpt lat="42.35294" lon="2.5687">
        <ele>1227.348</ele>
        <time>2014-02-15T17:02:51Z</time>
      </trkpt>
      <trkpt lat="42.35293" lon="2.56871">
        <ele>1226.873</ele>
        <time>2014-02-15T17:02:52Z</time>
      </trkpt>
      <trkpt lat="42.35285" lon="2.5688">
        <ele>1225.342</ele>
        <time>2014-02-15T17:03:06Z</time>
      </trkpt>
      <trkpt lat="42.35281" lon="2.56889">
        <ele>1223.459</ele>
        <time>2014-02-15T17:03:13Z</time>
      </trkpt>
      <trkpt lat="42.35272" lon="2.56895">
        <ele>1220.581</ele>
        <time>2014-02-15T17:03:21Z</time>
      </trkpt>
      <trkpt lat="42.35266" lon="2.56896">
        <ele>1218.627</ele>
        <time>2014-02-15T17:03:25Z</time>
      </trkpt>
      <trkpt lat="42.35265" lon="2.56897">
        <ele>1218.668</ele>
        <time>2014-02-15T17:03:26Z</time>
      </trkpt>
      <trkpt lat="42.3526" lon="2.56896">
        <ele>1216.714</ele>
        <time>2014-02-15T17:03:30Z</time>
      </trkpt>
      <trkpt lat="42.35251" lon="2.569">
        <ele>1214.307</ele>
        <time>2014-02-15T17:03:42Z</time>
      </trkpt>
      <trkpt lat="42.35246" lon="2.56908">
        <ele>1211.428</ele>
        <time>2014-02-15T17:03:53Z</time>
      </trkpt>
      <trkpt lat="42.35239" lon="2.56914">
        <ele>1208.563</ele>
        <time>2014-02-15T17:04:01Z</time>
      </trkpt>
      <trkpt lat="42.35238" lon="2.56917">
        <ele>1207.166</ele>
        <time>2014-02-15T17:04:04Z</time>
      </trkpt>
      <trkpt lat="42.35238" lon="2.56927">
        <ele>1203.751</ele>
        <time>2014-02-15T17:04:12Z</time>
      </trkpt>
      <trkpt lat="42.35245" lon="2.56942">
        <ele>1200.83</ele>
        <time>2014-02-15T17:04:24Z</time>
      </trkpt>
      <trkpt lat="42.35251" lon="2.56953">
        <ele>1197.587</ele>
        <time>2014-02-15T17:04:37Z</time>
      </trkpt>
      <trkpt lat="42.35255" lon="2.56961">
        <ele>1193.689</ele>
        <time>2014-02-15T17:04:46Z</time>
      </trkpt>
      <trkpt lat="42.35262" lon="2.56972">
        <ele>1190.334</ele>
        <time>2014-02-15T17:04:55Z</time>
      </trkpt>
      <trkpt lat="42.35266" lon="2.56987">
        <ele>1186.955</ele>
        <time>2014-02-15T17:05:07Z</time>
      </trkpt>
      <trkpt lat="42.35264" lon="2.56995">
        <ele>1184.51</ele>
        <time>2014-02-15T17:05:14Z</time>
      </trkpt>
      <trkpt lat="42.35267" lon="2.57014">
        <ele>1181.107</ele>
        <time>2014-02-15T17:05:26Z</time>
      </trkpt>
      <trkpt lat="42.35269" lon="2.57027">
        <ele>1178.239</ele>
        <time>2014-02-15T17:05:37Z</time>
      </trkpt>
      <trkpt lat="42.35271" lon="2.57036">
        <ele>1175.824</ele>
        <time>2014-02-15T17:05:44Z</time>
      </trkpt>
      <trkpt lat="42.35266" lon="2.57051">
        <ele>1172.517</ele>
        <time>2014-02-15T17:05:55Z</time>
      </trkpt>
      <trkpt lat="42.35265" lon="2.57065">
        <ele>1169.182</ele>
        <time>2014-02-15T17:06:04Z</time>
      </trkpt>
      <trkpt lat="42.35265" lon="2.57068">
        <ele>1168.181</ele>
        <time>2014-02-15T17:06:06Z</time>
      </trkpt>
      <trkpt lat="42.35265" lon="2.57078">
        <ele>1164.878</ele>
        <time>2014-02-15T17:06:12Z</time>
      </trkpt>
      <trkpt lat="42.35264" lon="2.57079">
        <ele>1165.35</ele>
        <time>2014-02-15T17:06:13Z</time>
      </trkpt>
      <trkpt lat="42.35263" lon="2.57083">
        <ele>1163.819</ele>
        <time>2014-02-15T17:06:15Z</time>
      </trkpt>
      <trkpt lat="42.35261" lon="2.57099">
        <ele>1160.009</ele>
        <time>2014-02-15T17:06:27Z</time>
      </trkpt>
      <trkpt lat="42.35265" lon="2.57116">
        <ele>1157.119</ele>
        <time>2014-02-15T17:06:38Z</time>
      </trkpt>
      <trkpt lat="42.35269" lon="2.57128">
        <ele>1153.707</ele>
        <time>2014-02-15T17:06:47Z</time>
      </trkpt>
      <trkpt lat="42.35271" lon="2.57136">
        <ele>1152.337</ele>
        <time>2014-02-15T17:06:51Z</time>
      </trkpt>
      <trkpt lat="42.35271" lon="2.57151">
        <ele>1148.912</ele>
        <time>2014-02-15T17:07:02Z</time>
      </trkpt>
      <trkpt lat="42.35272" lon="2.5716">
        <ele>1146.545</ele>
        <time>2014-02-15T17:07:10Z</time>
      </trkpt>
      <trkpt lat="42.35272" lon="2.57165">
        <ele>1145.64</ele>
        <time>2014-02-15T17:07:12Z</time>
      </trkpt>
      <trkpt lat="42.3527" lon="2.57187">
        <ele>1142.279</ele>
        <time>2014-02-15T17:07:27Z</time>
      </trkpt>
      <trkpt lat="42.35266" lon="2.57192">
        <ele>1140.396</ele>
        <time>2014-02-15T17:07:32Z</time>
      </trkpt>
      <trkpt lat="42.35262" lon="2.57217">
        <ele>1136.968</ele>
        <time>2014-02-15T17:07:46Z</time>
      </trkpt>
      <trkpt lat="42.35261" lon="2.57224">
        <ele>1135.513</ele>
        <time>2014-02-15T17:07:51Z</time>
      </trkpt>
      <trkpt lat="42.35256" lon="2.57245">
        <ele>1133.543</ele>
        <time>2014-02-15T17:08:05Z</time>
      </trkpt>
      <trkpt lat="42.35254" lon="2.5727">
        <ele>1130.707</ele>
        <time>2014-02-15T17:08:18Z</time>
      </trkpt>
      <trkpt lat="42.35251" lon="2.57289">
        <ele>1128.707</ele>
        <time>2014-02-15T17:08:28Z</time>
      </trkpt>
      <trkpt lat="42.3524" lon="2.57304">
        <ele>1124.937</ele>
        <time>2014-02-15T17:08:41Z</time>
      </trkpt>
      <trkpt lat="42.35231" lon="2.57318">
        <ele>1122.532</ele>
        <time>2014-02-15T17:08:52Z</time>
      </trkpt>
      <trkpt lat="42.35224" lon="2.57328">
        <ele>1118.285</ele>
        <time>2014-02-15T17:09:00Z</time>
      </trkpt>
      <trkpt lat="42.35221" lon="2.57341">
        <ele>1114.86</ele>
        <time>2014-02-15T17:09:10Z</time>
      </trkpt>
      <trkpt lat="42.35217" lon="2.5735">
        <ele>1112.439</ele>
        <time>2014-02-15T17:09:18Z</time>
      </trkpt>
      <trkpt lat="42.35215" lon="2.57355">
        <ele>1110.956</ele>
        <time>2014-02-15T17:09:22Z</time>
      </trkpt>
      <trkpt lat="42.35213" lon="2.57365">
        <ele>1108.178</ele>
        <time>2014-02-15T17:09:29Z</time>
      </trkpt>
      <trkpt lat="42.35209" lon="2.57374">
        <ele>1106.164</ele>
        <time>2014-02-15T17:09:35Z</time>
      </trkpt>
      <trkpt lat="42.35198" lon="2.57391">
        <ele>1103.706</ele>
        <time>2014-02-15T17:09:48Z</time>
      </trkpt>
      <trkpt lat="42.35195" lon="2.57408">
        <ele>1103.716</ele>
        <time>2014-02-15T17:10:04Z</time>
      </trkpt>
      <trkpt lat="42.35188" lon="2.57424">
        <ele>1105.707</ele>
        <time>2014-02-15T17:10:21Z</time>
      </trkpt>
      <trkpt lat="42.35183" lon="2.57432">
        <ele>1106.162</ele>
        <time>2014-02-15T17:10:37Z</time>
      </trkpt>
      <trkpt lat="42.35177" lon="2.57429">
        <ele>1105.787</ele>
        <time>2014-02-15T17:10:49Z</time>
      </trkpt>
      <trkpt lat="42.35169" lon="2.57435">
        <ele>1108.13</ele>
        <time>2014-02-15T17:11:04Z</time>
      </trkpt>
      <trkpt lat="42.35166" lon="2.57443">
        <ele>1111.445</ele>
        <time>2014-02-15T17:11:17Z</time>
      </trkpt>
      <trkpt lat="42.3516" lon="2.5745">
        <ele>1114.394</ele>
        <time>2014-02-15T17:11:28Z</time>
      </trkpt>
      <trkpt lat="42.35152" lon="2.57454">
        <ele>1116.721</ele>
        <time>2014-02-15T17:11:41Z</time>
      </trkpt>
      <trkpt lat="42.35148" lon="2.57465">
        <ele>1119.693</ele>
        <time>2014-02-15T17:11:56Z</time>
      </trkpt>
      <trkpt lat="42.35146" lon="2.57472">
        <ele>1122.555</ele>
        <time>2014-02-15T17:12:05Z</time>
      </trkpt>
      <trkpt lat="42.35143" lon="2.57484">
        <ele>1125.807</ele>
        <time>2014-02-15T17:12:16Z</time>
      </trkpt>
      <trkpt lat="42.35136" lon="2.57492">
        <ele>1128.717</ele>
        <time>2014-02-15T17:12:32Z</time>
      </trkpt>
      <trkpt lat="42.35128" lon="2.57493">
        <ele>1131.607</ele>
        <time>2014-02-15T17:12:45Z</time>
      </trkpt>
      <trkpt lat="42.3512" lon="2.57494">
        <ele>1133.561</ele>
        <time>2014-02-15T17:12:57Z</time>
      </trkpt>
      <trkpt lat="42.35109" lon="2.57493">
        <ele>1135.916</ele>
        <time>2014-02-15T17:13:11Z</time>
      </trkpt>
      <trkpt lat="42.35101" lon="2.57494">
        <ele>1138.899</ele>
        <time>2014-02-15T17:13:25Z</time>
      </trkpt>
      <trkpt lat="42.35091" lon="2.57495">
        <ele>1142.294</ele>
        <time>2014-02-15T17:13:38Z</time>
      </trkpt>
      <trkpt lat="42.35084" lon="2.57501">
        <ele>1145.683</ele>
        <time>2014-02-15T17:13:52Z</time>
      </trkpt>
      <trkpt lat="42.35081" lon="2.57514">
        <ele>1147.51</ele>
        <time>2014-02-15T17:14:07Z</time>
      </trkpt>
      <trkpt lat="42.35081" lon="2.57516">
        <ele>1148.932</ele>
        <time>2014-02-15T17:14:10Z</time>
      </trkpt>
      <trkpt lat="42.35079" lon="2.57526">
        <ele>1149.933</ele>
        <time>2014-02-15T17:14:19Z</time>
      </trkpt>
      <trkpt lat="42.35073" lon="2.57546">
        <ele>1148.923</ele>
        <time>2014-02-15T17:14:33Z</time>
      </trkpt>
      <trkpt lat="42.35063" lon="2.57567">
        <ele>1146.515</ele>
        <time>2014-02-15T17:14:48Z</time>
      </trkpt>
      <trkpt lat="42.3505" lon="2.57586">
        <ele>1143.607</ele>
        <time>2014-02-15T17:15:01Z</time>
      </trkpt>
      <trkpt lat="42.35042" lon="2.57605">
        <ele>1140.359</ele>
        <time>2014-02-15T17:15:11Z</time>
      </trkpt>
      <trkpt lat="42.35035" lon="2.57629">
        <ele>1138.394</ele>
        <time>2014-02-15T17:15:26Z</time>
      </trkpt>
      <trkpt lat="42.35028" lon="2.57649">
        <ele>1137.917</ele>
        <time>2014-02-15T17:15:39Z</time>
      </trkpt>
      <trkpt lat="42.35024" lon="2.57657">
        <ele>1136.982</ele>
        <time>2014-02-15T17:15:44Z</time>
      </trkpt>
      <trkpt lat="42.35022" lon="2.57662">
        <ele>1137.451</ele>
        <time>2014-02-15T17:15:47Z</time>
      </trkpt>
      <trkpt lat="42.35018" lon="2.57673">
        <ele>1137.438</ele>
        <time>2014-02-15T17:15:53Z</time>
      </trkpt>
      <trkpt lat="42.35007" lon="2.57686">
        <ele>1139.37</ele>
        <time>2014-02-15T17:16:05Z</time>
      </trkpt>
      <trkpt lat="42.35" lon="2.57702">
        <ele>1141.722</ele>
        <time>2014-02-15T17:16:18Z</time>
      </trkpt>
      <trkpt lat="42.34999" lon="2.57735">
        <ele>1143.662</ele>
        <time>2014-02-15T17:16:32Z</time>
      </trkpt>
      <trkpt lat="42.34998" lon="2.57745">
        <ele>1144.608</ele>
        <time>2014-02-15T17:16:39Z</time>
      </trkpt>
      <trkpt lat="42.34991" lon="2.57761">
        <ele>1146.507</ele>
        <time>2014-02-15T17:16:53Z</time>
      </trkpt>
      <trkpt lat="42.34974" lon="2.5778">
        <ele>1147.588</ele>
        <time>2014-02-15T17:17:07Z</time>
      </trkpt>
      <trkpt lat="42.34952" lon="2.57802">
        <ele>1145.613</ele>
        <time>2014-02-15T17:17:22Z</time>
      </trkpt>
      <trkpt lat="42.34948" lon="2.57806">
        <ele>1145.196</ele>
        <time>2014-02-15T17:17:26Z</time>
      </trkpt>
      <trkpt lat="42.34945" lon="2.57814">
        <ele>1145.171</ele>
        <time>2014-02-15T17:17:30Z</time>
      </trkpt>
      <trkpt lat="42.34941" lon="2.57826">
        <ele>1144.17</ele>
        <time>2014-02-15T17:17:38Z</time>
      </trkpt>
      <trkpt lat="42.34929" lon="2.57835">
        <ele>1143.617</ele>
        <time>2014-02-15T17:17:45Z</time>
      </trkpt>
      <trkpt lat="42.34922" lon="2.57865">
        <ele>1139.849</ele>
        <time>2014-02-15T17:17:59Z</time>
      </trkpt>
      <trkpt lat="42.34921" lon="2.57868">
        <ele>1139.312</ele>
        <time>2014-02-15T17:18:01Z</time>
      </trkpt>
      <trkpt lat="42.34914" lon="2.57893">
        <ele>1137.432</ele>
        <time>2014-02-15T17:18:16Z</time>
      </trkpt>
      <trkpt lat="42.34913" lon="2.57898">
        <ele>1136.405</ele>
        <time>2014-02-15T17:18:19Z</time>
      </trkpt>
      <trkpt lat="42.34905" lon="2.57917">
        <ele>1136.407</ele>
        <time>2014-02-15T17:18:29Z</time>
      </trkpt>
      <trkpt lat="42.34897" lon="2.57946">
        <ele>1135.967</ele>
        <time>2014-02-15T17:18:46Z</time>
      </trkpt>
      <trkpt lat="42.3489" lon="2.57962">
        <ele>1133.532</ele>
        <time>2014-02-15T17:18:59Z</time>
      </trkpt>
      <trkpt lat="42.3488" lon="2.57973">
        <ele>1133.115</ele>
        <time>2014-02-15T17:19:05Z</time>
      </trkpt>
      <trkpt lat="42.34878" lon="2.57984">
        <ele>1132.12</ele>
        <time>2014-02-15T17:19:09Z</time>
      </trkpt>
      <trkpt lat="42.34879" lon="2.5799">
        <ele>1132.129</ele>
        <time>2014-02-15T17:19:11Z</time>
      </trkpt>
      <trkpt lat="42.34875" lon="2.57995">
        <ele>1132.666</ele>
        <time>2014-02-15T17:19:14Z</time>
      </trkpt>
      <trkpt lat="42.34869" lon="2.58018">
        <ele>1130.788</ele>
        <time>2014-02-15T17:19:28Z</time>
      </trkpt>
      <trkpt lat="42.3487" lon="2.58023">
        <ele>1130.792</ele>
        <time>2014-02-15T17:19:31Z</time>
      </trkpt>
      <trkpt lat="42.34868" lon="2.58031">
        <ele>1129.773</ele>
        <time>2014-02-15T17:19:36Z</time>
      </trkpt>
      <trkpt lat="42.34862" lon="2.58044">
        <ele>1128.72</ele>
        <time>2014-02-15T17:19:42Z</time>
      </trkpt>
      <trkpt lat="42.34856" lon="2.58071">
        <ele>1125.807</ele>
        <time>2014-02-15T17:19:58Z</time>
      </trkpt>
      <trkpt lat="42.34858" lon="2.58093">
        <ele>1125.495</ele>
        <time>2014-02-15T17:20:11Z</time>
      </trkpt>
      <trkpt lat="42.34855" lon="2.58098">
        <ele>1125.43</ele>
        <time>2014-02-15T17:20:14Z</time>
      </trkpt>
      <trkpt lat="42.34858" lon="2.58123">
        <ele>1126.313</ele>
        <time>2014-02-15T17:20:28Z</time>
      </trkpt>
      <trkpt lat="42.34851" lon="2.58146">
        <ele>1125.878</ele>
        <time>2014-02-15T17:20:37Z</time>
      </trkpt>
      <trkpt lat="42.34851" lon="2.58156">
        <ele>1126.387</ele>
        <time>2014-02-15T17:20:41Z</time>
      </trkpt>
      <trkpt lat="42.34846" lon="2.58168">
        <ele>1126.314</ele>
        <time>2014-02-15T17:20:47Z</time>
      </trkpt>
      <trkpt lat="42.34847" lon="2.58173">
        <ele>1126.356</ele>
        <time>2014-02-15T17:20:50Z</time>
      </trkpt>
      <trkpt lat="42.34843" lon="2.58184">
        <ele>1126.825</ele>
        <time>2014-02-15T17:20:55Z</time>
      </trkpt>
      <trkpt lat="42.34827" lon="2.58217">
        <ele>1126.826</ele>
        <time>2014-02-15T17:21:12Z</time>
      </trkpt>
      <trkpt lat="42.34817" lon="2.58241">
        <ele>1128.708</ele>
        <time>2014-02-15T17:21:29Z</time>
      </trkpt>
      <trkpt lat="42.34815" lon="2.58254">
        <ele>1131.107</ele>
        <time>2014-02-15T17:21:42Z</time>
      </trkpt>
      <trkpt lat="42.3481" lon="2.58267">
        <ele>1132.198</ele>
        <time>2014-02-15T17:21:53Z</time>
      </trkpt>
      <trkpt lat="42.34789" lon="2.58291">
        <ele>1132.153</ele>
        <time>2014-02-15T17:22:08Z</time>
      </trkpt>
      <trkpt lat="42.34779" lon="2.58304">
        <ele>1131.616</ele>
        <time>2014-02-15T17:22:20Z</time>
      </trkpt>
      <trkpt lat="42.34773" lon="2.58321">
        <ele>1132.191</ele>
        <time>2014-02-15T17:22:33Z</time>
      </trkpt>
      <trkpt lat="42.34756" lon="2.58346">
        <ele>1130.29</ele>
        <time>2014-02-15T17:22:45Z</time>
      </trkpt>
      <trkpt lat="42.34752" lon="2.58356">
        <ele>1129.777</ele>
        <time>2014-02-15T17:22:50Z</time>
      </trkpt>
      <trkpt lat="42.34743" lon="2.58379">
        <ele>1129.739</ele>
        <time>2014-02-15T17:23:02Z</time>
      </trkpt>
      <trkpt lat="42.34736" lon="2.58383">
        <ele>1128.758</ele>
        <time>2014-02-15T17:23:05Z</time>
      </trkpt>
      <trkpt lat="42.34727" lon="2.5839">
        <ele>1128.752</ele>
        <time>2014-02-15T17:23:17Z</time>
      </trkpt>
      <trkpt lat="42.34722" lon="2.58392">
        <ele>1130.217</ele>
        <time>2014-02-15T17:23:21Z</time>
      </trkpt>
      <trkpt lat="42.34707" lon="2.58391">
        <ele>1133.107</ele>
        <time>2014-02-15T17:23:37Z</time>
      </trkpt>
      <trkpt lat="42.34699" lon="2.58391">
        <ele>1135.981</ele>
        <time>2014-02-15T17:23:49Z</time>
      </trkpt>
      <trkpt lat="42.34688" lon="2.5839">
        <ele>1139.866</ele>
        <time>2014-02-15T17:24:03Z</time>
      </trkpt>
      <trkpt lat="42.34684" lon="2.58392">
        <ele>1142.779</ele>
        <time>2014-02-15T17:24:14Z</time>
      </trkpt>
      <trkpt lat="42.34677" lon="2.58391">
        <ele>1146.034</ele>
        <time>2014-02-15T17:24:27Z</time>
      </trkpt>
      <trkpt lat="42.34671" lon="2.58392">
        <ele>1148.953</ele>
        <time>2014-02-15T17:24:38Z</time>
      </trkpt>
      <trkpt lat="42.34666" lon="2.58394">
        <ele>1152.38</ele>
        <time>2014-02-15T17:24:50Z</time>
      </trkpt>
      <trkpt lat="42.34663" lon="2.58399">
        <ele>1154.782</ele>
        <time>2014-02-15T17:24:57Z</time>
      </trkpt>
      <trkpt lat="42.34658" lon="2.58404">
        <ele>1158.117</ele>
        <time>2014-02-15T17:25:08Z</time>
      </trkpt>
      <trkpt lat="42.3465" lon="2.58407">
        <ele>1160.587</ele>
        <time>2014-02-15T17:25:22Z</time>
      </trkpt>
      <trkpt lat="42.34643" lon="2.58408">
        <ele>1163.315</ele>
        <time>2014-02-15T17:25:34Z</time>
      </trkpt>
      <trkpt lat="42.34635" lon="2.58408">
        <ele>1166.707</ele>
        <time>2014-02-15T17:25:46Z</time>
      </trkpt>
      <trkpt lat="42.34626" lon="2.5841">
        <ele>1170.117</ele>
        <time>2014-02-15T17:25:58Z</time>
      </trkpt>
      <trkpt lat="42.34617" lon="2.58412">
        <ele>1173.032</ele>
        <time>2014-02-15T17:26:10Z</time>
      </trkpt>
      <trkpt lat="42.34611" lon="2.58414">
        <ele>1175.845</ele>
        <time>2014-02-15T17:26:18Z</time>
      </trkpt>
      <trkpt lat="42.34605" lon="2.58417">
        <ele>1178.77</ele>
        <time>2014-02-15T17:26:30Z</time>
      </trkpt>
      <trkpt lat="42.346" lon="2.5842">
        <ele>1182.189</ele>
        <time>2014-02-15T17:26:38Z</time>
      </trkpt>
      <trkpt lat="42.34593" lon="2.58424">
        <ele>1185.066</ele>
        <time>2014-02-15T17:26:51Z</time>
      </trkpt>
      <trkpt lat="42.34585" lon="2.58428">
        <ele>1188.338</ele>
        <time>2014-02-15T17:27:02Z</time>
      </trkpt>
      <trkpt lat="42.34579" lon="2.58437">
        <ele>1191.299</ele>
        <time>2014-02-15T17:27:15Z</time>
      </trkpt>
      <trkpt lat="42.34571" lon="2.58441">
        <ele>1194.607</ele>
        <time>2014-02-15T17:27:26Z</time>
      </trkpt>
      <trkpt lat="42.34568" lon="2.58441">
        <ele>1194.127</ele>
        <time>2014-02-15T17:27:39Z</time>
      </trkpt>
      <trkpt lat="42.34567" lon="2.5844">
        <ele>1193.607</ele>
        <time>2014-02-15T17:28:06Z</time>
      </trkpt>
      <trkpt lat="42.34567" lon="2.5844">
        <ele>1194.165</ele>
        <time>2014-02-15T17:28:23Z</time>
      </trkpt>
      <trkpt lat="42.34565" lon="2.58439">
        <ele>1194.12</ele>
        <time>2014-02-15T17:28:51Z</time>
      </trkpt>
      <trkpt lat="42.34565" lon="2.58439">
        <ele>1193.653</ele>
        <time>2014-02-15T17:29:03Z</time>
      </trkpt>
      <trkpt lat="42.34565" lon="2.58442">
        <ele>1193.678</ele>
        <time>2014-02-15T17:29:24Z</time>
      </trkpt>
      <trkpt lat="42.34565" lon="2.58441">
        <ele>1194.647</ele>
        <time>2014-02-15T17:29:45Z</time>
      </trkpt>
      <trkpt lat="42.34564" lon="2.5844">
        <ele>1194.124</ele>
        <time>2014-02-15T17:29:55Z</time>
      </trkpt>
      <trkpt lat="42.34549" lon="2.58437">
        <ele>1193.616</ele>
        <time>2014-02-15T17:30:07Z</time>
      </trkpt>
      <trkpt lat="42.34546" lon="2.58435">
        <ele>1193.145</ele>
        <time>2014-02-15T17:30:20Z</time>
      </trkpt>
      <trkpt lat="42.34546" lon="2.58435">
        <ele>1193.647</ele>
        <time>2014-02-15T17:30:23Z</time>
      </trkpt>
      <trkpt lat="42.34536" lon="2.58435">
        <ele>1191.211</ele>
        <time>2014-02-15T17:30:32Z</time>
      </trkpt>
      <trkpt lat="42.34528" lon="2.58432">
        <ele>1188.807</ele>
        <time>2014-02-15T17:30:37Z</time>
      </trkpt>
      <trkpt lat="42.34511" lon="2.58429">
        <ele>1185.48</ele>
        <time>2014-02-15T17:30:50Z</time>
      </trkpt>
      <trkpt lat="42.34504" lon="2.58431">
        <ele>1185.085</ele>
        <time>2014-02-15T17:30:55Z</time>
      </trkpt>
      <trkpt lat="42.34482" lon="2.58423">
        <ele>1185.488</ele>
        <time>2014-02-15T17:31:14Z</time>
      </trkpt>
      <trkpt lat="42.34459" lon="2.58422">
        <ele>1185.423</ele>
        <time>2014-02-15T17:31:31Z</time>
      </trkpt>
      <trkpt lat="42.34435" lon="2.58422">
        <ele>1183.522</ele>
        <time>2014-02-15T17:31:48Z</time>
      </trkpt>
      <trkpt lat="42.34431" lon="2.58423">
        <ele>1183.599</ele>
        <time>2014-02-15T17:31:51Z</time>
      </trkpt>
      <trkpt lat="42.34422" lon="2.58422">
        <ele>1182.681</ele>
        <time>2014-02-15T17:31:58Z</time>
      </trkpt>
      <trkpt lat="42.3441" lon="2.58425">
        <ele>1180.287</ele>
        <time>2014-02-15T17:32:07Z</time>
      </trkpt>
      <trkpt lat="42.34405" lon="2.58424">
        <ele>1179.242</ele>
        <time>2014-02-15T17:32:12Z</time>
      </trkpt>
      <trkpt lat="42.344" lon="2.58427">
        <ele>1179.226</ele>
        <time>2014-02-15T17:32:16Z</time>
      </trkpt>
      <trkpt lat="42.34386" lon="2.58438">
        <ele>1178.707</ele>
        <time>2014-02-15T17:32:28Z</time>
      </trkpt>
      <trkpt lat="42.34382" lon="2.5844">
        <ele>1176.894</ele>
        <time>2014-02-15T17:32:32Z</time>
      </trkpt>
      <trkpt lat="42.34373" lon="2.58444">
        <ele>1173.939</ele>
        <time>2014-02-15T17:32:40Z</time>
      </trkpt>
      <trkpt lat="42.34361" lon="2.58451">
        <ele>1170.522</ele>
        <time>2014-02-15T17:32:51Z</time>
      </trkpt>
      <trkpt lat="42.34343" lon="2.58462">
        <ele>1167.247</ele>
        <time>2014-02-15T17:33:06Z</time>
      </trkpt>
      <trkpt lat="42.34342" lon="2.58463">
        <ele>1167.266</ele>
        <time>2014-02-15T17:33:07Z</time>
      </trkpt>
      <trkpt lat="42.34337" lon="2.58465">
        <ele>1165.383</ele>
        <time>2014-02-15T17:33:12Z</time>
      </trkpt>
      <trkpt lat="42.34332" lon="2.58468">
        <ele>1163.835</ele>
        <time>2014-02-15T17:33:19Z</time>
      </trkpt>
      <trkpt lat="42.34319" lon="2.58472">
        <ele>1160.956</ele>
        <time>2014-02-15T17:33:29Z</time>
      </trkpt>
      <trkpt lat="42.34314" lon="2.58473">
        <ele>1159.559</ele>
        <time>2014-02-15T17:33:33Z</time>
      </trkpt>
      <trkpt lat="42.34301" lon="2.58478">
        <ele>1157.114</ele>
        <time>2014-02-15T17:33:48Z</time>
      </trkpt>
      <trkpt lat="42.34297" lon="2.5848">
        <ele>1156.607</ele>
        <time>2014-02-15T17:33:57Z</time>
      </trkpt>
      <trkpt lat="42.34291" lon="2.5848">
        <ele>1154.281</ele>
        <time>2014-02-15T17:34:02Z</time>
      </trkpt>
      <trkpt lat="42.34284" lon="2.58478">
        <ele>1151.816</ele>
        <time>2014-02-15T17:34:08Z</time>
      </trkpt>
      <trkpt lat="42.34282" lon="2.58479">
        <ele>1150.899</ele>
        <time>2014-02-15T17:34:10Z</time>
      </trkpt>
      <trkpt lat="42.34279" lon="2.5848">
        <ele>1149.924</ele>
        <time>2014-02-15T17:34:12Z</time>
      </trkpt>
      <trkpt lat="42.3427" lon="2.58481">
        <ele>1147.543</ele>
        <time>2014-02-15T17:34:18Z</time>
      </trkpt>
      <trkpt lat="42.34255" lon="2.58481">
        <ele>1144.67</ele>
        <time>2014-02-15T17:34:30Z</time>
      </trkpt>
      <trkpt lat="42.34248" lon="2.58486">
        <ele>1142.742</ele>
        <time>2014-02-15T17:34:38Z</time>
      </trkpt>
      <trkpt lat="42.34241" lon="2.58489">
        <ele>1141.213</ele>
        <time>2014-02-15T17:34:44Z</time>
      </trkpt>
      <trkpt lat="42.34239" lon="2.5849">
        <ele>1140.743</ele>
        <time>2014-02-15T17:34:46Z</time>
      </trkpt>
      <trkpt lat="42.34231" lon="2.58492">
        <ele>1139.807</ele>
        <time>2014-02-15T17:34:52Z</time>
      </trkpt>
      <trkpt lat="42.34225" lon="2.58494">
        <ele>1138.307</ele>
        <time>2014-02-15T17:34:57Z</time>
      </trkpt>
      <trkpt lat="42.34222" lon="2.58495">
        <ele>1137.447</ele>
        <time>2014-02-15T17:34:59Z</time>
      </trkpt>
      <trkpt lat="42.34216" lon="2.585">
        <ele>1136.462</ele>
        <time>2014-02-15T17:35:05Z</time>
      </trkpt>
      <trkpt lat="42.34209" lon="2.58503">
        <ele>1134.095</ele>
        <time>2014-02-15T17:35:19Z</time>
      </trkpt>
      <trkpt lat="42.34201" lon="2.58511">
        <ele>1130.73</ele>
        <time>2014-02-15T17:35:32Z</time>
      </trkpt>
      <trkpt lat="42.34196" lon="2.58518">
        <ele>1127.839</ele>
        <time>2014-02-15T17:35:42Z</time>
      </trkpt>
      <trkpt lat="42.34193" lon="2.58523">
        <ele>1124.426</ele>
        <time>2014-02-15T17:35:49Z</time>
      </trkpt>
      <trkpt lat="42.34186" lon="2.58532">
        <ele>1121.088</ele>
        <time>2014-02-15T17:36:02Z</time>
      </trkpt>
      <trkpt lat="42.3418" lon="2.58542">
        <ele>1117.728</ele>
        <time>2014-02-15T17:36:14Z</time>
      </trkpt>
      <trkpt lat="42.34179" lon="2.58544">
        <ele>1117.289</ele>
        <time>2014-02-15T17:36:16Z</time>
      </trkpt>
      <trkpt lat="42.34178" lon="2.58547">
        <ele>1115.817</ele>
        <time>2014-02-15T17:36:19Z</time>
      </trkpt>
      <trkpt lat="42.34175" lon="2.58556">
        <ele>1112.907</ele>
        <time>2014-02-15T17:36:33Z</time>
      </trkpt>
      <trkpt lat="42.34178" lon="2.58561">
        <ele>1110.538</ele>
        <time>2014-02-15T17:36:46Z</time>
      </trkpt>
      <trkpt lat="42.34179" lon="2.58564">
        <ele>1107.643</ele>
        <time>2014-02-15T17:36:55Z</time>
      </trkpt>
      <trkpt lat="42.3418" lon="2.58569">
        <ele>1104.286</ele>
        <time>2014-02-15T17:37:04Z</time>
      </trkpt>
      <trkpt lat="42.34177" lon="2.58574">
        <ele>1101.891</ele>
        <time>2014-02-15T17:37:17Z</time>
      </trkpt>
      <trkpt lat="42.34172" lon="2.58576">
        <ele>1099.42</ele>
        <time>2014-02-15T17:37:31Z</time>
      </trkpt>
      <trkpt lat="42.34171" lon="2.58578">
        <ele>1098.067</ele>
        <time>2014-02-15T17:37:45Z</time>
      </trkpt>
      <trkpt lat="42.34168" lon="2.5858">
        <ele>1095.699</ele>
        <time>2014-02-15T17:38:00Z</time>
      </trkpt>
      <trkpt lat="42.34165" lon="2.58581">
        <ele>1092.782</ele>
        <time>2014-02-15T17:38:10Z</time>
      </trkpt>
      <trkpt lat="42.34161" lon="2.58586">
        <ele>1088.843</ele>
        <time>2014-02-15T17:38:22Z</time>
      </trkpt>
      <trkpt lat="42.3416" lon="2.58587">
        <ele>1088.417</ele>
        <time>2014-02-15T17:38:24Z</time>
      </trkpt>
      <trkpt lat="42.34156" lon="2.58587">
        <ele>1085.007</ele>
        <time>2014-02-15T17:38:32Z</time>
      </trkpt>
      <trkpt lat="42.34152" lon="2.58593">
        <ele>1082.134</ele>
        <time>2014-02-15T17:38:47Z</time>
      </trkpt>
      <trkpt lat="42.34149" lon="2.58594">
        <ele>1080.279</ele>
        <time>2014-02-15T17:39:04Z</time>
      </trkpt>
      <trkpt lat="42.34149" lon="2.58597">
        <ele>1080.242</ele>
        <time>2014-02-15T17:39:18Z</time>
      </trkpt>
      <trkpt lat="42.34147" lon="2.586">
        <ele>1076.857</ele>
        <time>2014-02-15T17:39:31Z</time>
      </trkpt>
      <trkpt lat="42.34149" lon="2.58608">
        <ele>1073.586</ele>
        <time>2014-02-15T17:39:44Z</time>
      </trkpt>
      <trkpt lat="42.34147" lon="2.58612">
        <ele>1071.543</ele>
        <time>2014-02-15T17:39:52Z</time>
      </trkpt>
      <trkpt lat="42.34142" lon="2.58617">
        <ele>1068.645</ele>
        <time>2014-02-15T17:40:05Z</time>
      </trkpt>
      <trkpt lat="42.34134" lon="2.58623">
        <ele>1065.343</ele>
        <time>2014-02-15T17:40:17Z</time>
      </trkpt>
      <trkpt lat="42.34128" lon="2.58628">
        <ele>1061.964</ele>
        <time>2014-02-15T17:40:25Z</time>
      </trkpt>
      <trkpt lat="42.34122" lon="2.58641">
        <ele>1058.61</ele>
        <time>2014-02-15T17:40:35Z</time>
      </trkpt>
      <trkpt lat="42.3411" lon="2.58655">
        <ele>1055.207</ele>
        <time>2014-02-15T17:40:49Z</time>
      </trkpt>
      <trkpt lat="42.34103" lon="2.58663">
        <ele>1052.37</ele>
        <time>2014-02-15T17:40:59Z</time>
      </trkpt>
      <trkpt lat="42.34094" lon="2.58674">
        <ele>1049.445</ele>
        <time>2014-02-15T17:41:09Z</time>
      </trkpt>
      <trkpt lat="42.34086" lon="2.58683">
        <ele>1046.148</ele>
        <time>2014-02-15T17:41:21Z</time>
      </trkpt>
      <trkpt lat="42.3408" lon="2.5869">
        <ele>1043.223</ele>
        <time>2014-02-15T17:41:29Z</time>
      </trkpt>
      <trkpt lat="42.34074" lon="2.58696">
        <ele>1039.842</ele>
        <time>2014-02-15T17:41:37Z</time>
      </trkpt>
      <trkpt lat="42.34072" lon="2.58697">
        <ele>1038.819</ele>
        <time>2014-02-15T17:41:39Z</time>
      </trkpt>
      <trkpt lat="42.34068" lon="2.58702">
        <ele>1036.951</ele>
        <time>2014-02-15T17:41:47Z</time>
      </trkpt>
      <trkpt lat="42.34067" lon="2.58707">
        <ele>1035.525</ele>
        <time>2014-02-15T17:41:51Z</time>
      </trkpt>
      <trkpt lat="42.34063" lon="2.5871">
        <ele>1035.026</ele>
        <time>2014-02-15T17:41:56Z</time>
      </trkpt>
      <trkpt lat="42.34058" lon="2.58714">
        <ele>1035.508</ele>
        <time>2014-02-15T17:42:02Z</time>
      </trkpt>
      <trkpt lat="42.34054" lon="2.5872">
        <ele>1034.507</ele>
        <time>2014-02-15T17:42:08Z</time>
      </trkpt>
      <trkpt lat="42.34042" lon="2.58736">
        <ele>1032.158</ele>
        <time>2014-02-15T17:42:23Z</time>
      </trkpt>
      <trkpt lat="42.34031" lon="2.58758">
        <ele>1030.723</ele>
        <time>2014-02-15T17:42:38Z</time>
      </trkpt>
      <trkpt lat="42.34023" lon="2.58771">
        <ele>1028.396</ele>
        <time>2014-02-15T17:42:53Z</time>
      </trkpt>
      <trkpt lat="42.34014" lon="2.58788">
        <ele>1024.931</ele>
        <time>2014-02-15T17:43:09Z</time>
      </trkpt>
      <trkpt lat="42.34005" lon="2.58805">
        <ele>1021.59</ele>
        <time>2014-02-15T17:43:21Z</time>
      </trkpt>
      <trkpt lat="42.33989" lon="2.58826">
        <ele>1021.187</ele>
        <time>2014-02-15T17:43:37Z</time>
      </trkpt>
      <trkpt lat="42.33985" lon="2.58834">
        <ele>1022.559</ele>
        <time>2014-02-15T17:43:43Z</time>
      </trkpt>
      <trkpt lat="42.33983" lon="2.58837">
        <ele>1022.084</ele>
        <time>2014-02-15T17:43:45Z</time>
      </trkpt>
      <trkpt lat="42.33981" lon="2.58841">
        <ele>1022.507</ele>
        <time>2014-02-15T17:43:48Z</time>
      </trkpt>
      <trkpt lat="42.33972" lon="2.58856">
        <ele>1022.017</ele>
        <time>2014-02-15T17:44:02Z</time>
      </trkpt>
      <trkpt lat="42.33961" lon="2.58872">
        <ele>1021.107</ele>
        <time>2014-02-15T17:44:19Z</time>
      </trkpt>
      <trkpt lat="42.33947" lon="2.58879">
        <ele>1021.584</ele>
        <time>2014-02-15T17:44:36Z</time>
      </trkpt>
      <trkpt lat="42.3394" lon="2.5889">
        <ele>1022.099</ele>
        <time>2014-02-15T17:44:52Z</time>
      </trkpt>
      <trkpt lat="42.33927" lon="2.58904">
        <ele>1022.532</ele>
        <time>2014-02-15T17:45:08Z</time>
      </trkpt>
      <trkpt lat="42.33908" lon="2.58918">
        <ele>1019.657</ele>
        <time>2014-02-15T17:45:27Z</time>
      </trkpt>
      <trkpt lat="42.33891" lon="2.58935">
        <ele>1019.616</ele>
        <time>2014-02-15T17:45:45Z</time>
      </trkpt>
      <trkpt lat="42.33881" lon="2.58952">
        <ele>1017.273</ele>
        <time>2014-02-15T17:45:57Z</time>
      </trkpt>
      <trkpt lat="42.33869" lon="2.58965">
        <ele>1014.375</ele>
        <time>2014-02-15T17:46:14Z</time>
      </trkpt>
      <trkpt lat="42.33856" lon="2.58971">
        <ele>1011.029</ele>
        <time>2014-02-15T17:46:30Z</time>
      </trkpt>
      <trkpt lat="42.33832" lon="2.58976">
        <ele>1009</ele>
        <time>2014-02-15T17:46:44Z</time>
      </trkpt>
      <trkpt lat="42.33821" lon="2.58977">
        <ele>1007.12</ele>
        <time>2014-02-15T17:46:55Z</time>
      </trkpt>
      <trkpt lat="42.33799" lon="2.58977">
        <ele>1004.707</ele>
        <time>2014-02-15T17:47:09Z</time>
      </trkpt>
      <trkpt lat="42.33777" lon="2.5898">
        <ele>1003.868</ele>
        <time>2014-02-15T17:47:24Z</time>
      </trkpt>
      <trkpt lat="42.33765" lon="2.58992">
        <ele>1002.853</ele>
        <time>2014-02-15T17:47:38Z</time>
      </trkpt>
      <trkpt lat="42.33761" lon="2.59001">
        <ele>1003.866</ele>
        <time>2014-02-15T17:47:45Z</time>
      </trkpt>
      <trkpt lat="42.33748" lon="2.59004">
        <ele>1001.891</ele>
        <time>2014-02-15T17:48:00Z</time>
      </trkpt>
      <trkpt lat="42.33745" lon="2.59004">
        <ele>1001.44</ele>
        <time>2014-02-15T17:48:02Z</time>
      </trkpt>
      <trkpt lat="42.33731" lon="2.59">
        <ele>1002.837</ele>
        <time>2014-02-15T17:48:14Z</time>
      </trkpt>
      <trkpt lat="42.33724" lon="2.58999">
        <ele>1004.289</ele>
        <time>2014-02-15T17:48:22Z</time>
      </trkpt>
      <trkpt lat="42.3372" lon="2.59008">
        <ele>1005.788</ele>
        <time>2014-02-15T17:48:35Z</time>
      </trkpt>
      <trkpt lat="42.33715" lon="2.5901">
        <ele>1003.824</ele>
        <time>2014-02-15T17:48:48Z</time>
      </trkpt>
      <trkpt lat="42.33713" lon="2.59014">
        <ele>999.926</ele>
        <time>2014-02-15T17:49:00Z</time>
      </trkpt>
      <trkpt lat="42.337" lon="2.5901">
        <ele>998.007</ele>
        <time>2014-02-15T17:49:13Z</time>
      </trkpt>
      <trkpt lat="42.33691" lon="2.59005">
        <ele>995.194</ele>
        <time>2014-02-15T17:49:23Z</time>
      </trkpt>
      <trkpt lat="42.33685" lon="2.59004">
        <ele>990.889</ele>
        <time>2014-02-15T17:49:35Z</time>
      </trkpt>
      <trkpt lat="42.33684" lon="2.59005">
        <ele>990.832</ele>
        <time>2014-02-15T17:49:36Z</time>
      </trkpt>
      <trkpt lat="42.33679" lon="2.58999">
        <ele>987.437</ele>
        <time>2014-02-15T17:49:48Z</time>
      </trkpt>
      <trkpt lat="42.33672" lon="2.58994">
        <ele>984.146</ele>
        <time>2014-02-15T17:49:59Z</time>
      </trkpt>
      <trkpt lat="42.33672" lon="2.58993">
        <ele>983.623</ele>
        <time>2014-02-15T17:50:00Z</time>
      </trkpt>
      <trkpt lat="42.33668" lon="2.5898">
        <ele>980.715</ele>
        <time>2014-02-15T17:50:13Z</time>
      </trkpt>
      <trkpt lat="42.33669" lon="2.58976">
        <ele>980.233</ele>
        <time>2014-02-15T17:50:26Z</time>
      </trkpt>
      <trkpt lat="42.33666" lon="2.58976">
        <ele>978.823</ele>
        <time>2014-02-15T17:50:40Z</time>
      </trkpt>
      <trkpt lat="42.33667" lon="2.58976">
        <ele>978.815</ele>
        <time>2014-02-15T17:51:08Z</time>
      </trkpt>
      <trkpt lat="42.33668" lon="2.58976">
        <ele>979.707</ele>
        <time>2014-02-15T17:51:27Z</time>
      </trkpt>
      <trkpt lat="42.33667" lon="2.58977">
        <ele>979.749</ele>
        <time>2014-02-15T17:51:54Z</time>
      </trkpt>
      <trkpt lat="42.33668" lon="2.58975">
        <ele>979.724</ele>
        <time>2014-02-15T17:52:18Z</time>
      </trkpt>
      <trkpt lat="42.33667" lon="2.58976">
        <ele>979.757</ele>
        <time>2014-02-15T17:52:38Z</time>
      </trkpt>
      <trkpt lat="42.33665" lon="2.58978">
        <ele>979.792</ele>
        <time>2014-02-15T17:52:57Z</time>
      </trkpt>
      <trkpt lat="42.33666" lon="2.58972">
        <ele>977.371</ele>
        <time>2014-02-15T17:53:12Z</time>
      </trkpt>
      <trkpt lat="42.33665" lon="2.58966">
        <ele>974.448</ele>
        <time>2014-02-15T17:53:26Z</time>
      </trkpt>
      <trkpt lat="42.33668" lon="2.58959">
        <ele>974.01</ele>
        <time>2014-02-15T17:53:40Z</time>
      </trkpt>
      <trkpt lat="42.33666" lon="2.5896">
        <ele>974.038</ele>
        <time>2014-02-15T17:53:57Z</time>
      </trkpt>
      <trkpt lat="42.33663" lon="2.58962">
        <ele>972.07</ele>
        <time>2014-02-15T17:54:15Z</time>
      </trkpt>
      <trkpt lat="42.33661" lon="2.58963">
        <ele>972.017</ele>
        <time>2014-02-15T17:54:27Z</time>
      </trkpt>
      <trkpt lat="42.33658" lon="2.58965">
        <ele>970.107</ele>
        <time>2014-02-15T17:54:40Z</time>
      </trkpt>
      <trkpt lat="42.33654" lon="2.58967">
        <ele>967.289</ele>
        <time>2014-02-15T17:54:52Z</time>
      </trkpt>
      <trkpt lat="42.33649" lon="2.58969">
        <ele>964.354</ele>
        <time>2014-02-15T17:54:59Z</time>
      </trkpt>
      <trkpt lat="42.33643" lon="2.58973">
        <ele>961.997</ele>
        <time>2014-02-15T17:55:08Z</time>
      </trkpt>
      <trkpt lat="42.33642" lon="2.58972">
        <ele>961.582</ele>
        <time>2014-02-15T17:55:09Z</time>
      </trkpt>
      <trkpt lat="42.3364" lon="2.58964">
        <ele>958.671</ele>
        <time>2014-02-15T17:55:21Z</time>
      </trkpt>
      <trkpt lat="42.3364" lon="2.58951">
        <ele>956.248</ele>
        <time>2014-02-15T17:55:35Z</time>
      </trkpt>
      <trkpt lat="42.3364" lon="2.58947">
        <ele>953.37</ele>
        <time>2014-02-15T17:55:44Z</time>
      </trkpt>
      <trkpt lat="42.33636" lon="2.58946">
        <ele>949.979</ele>
        <time>2014-02-15T17:55:52Z</time>
      </trkpt>
      <trkpt lat="42.33635" lon="2.58947">
        <ele>949.005</ele>
        <time>2014-02-15T17:55:54Z</time>
      </trkpt>
      <trkpt lat="42.33627" lon="2.58956">
        <ele>945.625</ele>
        <time>2014-02-15T17:56:08Z</time>
      </trkpt>
      <trkpt lat="42.33622" lon="2.58959">
        <ele>942.207</ele>
        <time>2014-02-15T17:56:16Z</time>
      </trkpt>
      <trkpt lat="42.33615" lon="2.58961">
        <ele>938.953</ele>
        <time>2014-02-15T17:56:27Z</time>
      </trkpt>
      <trkpt lat="42.33603" lon="2.5896">
        <ele>936.558</ele>
        <time>2014-02-15T17:56:41Z</time>
      </trkpt>
      <trkpt lat="42.33597" lon="2.5896">
        <ele>933.671</ele>
        <time>2014-02-15T17:56:54Z</time>
      </trkpt>
      <trkpt lat="42.33594" lon="2.5896">
        <ele>932.666</ele>
        <time>2014-02-15T17:56:59Z</time>
      </trkpt>
      <trkpt lat="42.33589" lon="2.58958">
        <ele>929.785</ele>
        <time>2014-02-15T17:57:09Z</time>
      </trkpt>
      <trkpt lat="42.33581" lon="2.58949">
        <ele>926.412</ele>
        <time>2014-02-15T17:57:19Z</time>
      </trkpt>
      <trkpt lat="42.3358" lon="2.58947">
        <ele>925.494</ele>
        <time>2014-02-15T17:57:21Z</time>
      </trkpt>
      <trkpt lat="42.33572" lon="2.58945">
        <ele>924.574</ele>
        <time>2014-02-15T17:57:28Z</time>
      </trkpt>
      <trkpt lat="42.33562" lon="2.58941">
        <ele>920.656</ele>
        <time>2014-02-15T17:57:41Z</time>
      </trkpt>
      <trkpt lat="42.33562" lon="2.58941">
        <ele>920.621</ele>
        <time>2014-02-15T17:57:42Z</time>
      </trkpt>
      <trkpt lat="42.3356" lon="2.5894">
        <ele>919.207</ele>
        <time>2014-02-15T17:57:47Z</time>
      </trkpt>
      <trkpt lat="42.33553" lon="2.58938">
        <ele>917.243</ele>
        <time>2014-02-15T17:57:59Z</time>
      </trkpt>
      <trkpt lat="42.33542" lon="2.58937">
        <ele>913.928</ele>
        <time>2014-02-15T17:58:11Z</time>
      </trkpt>
      <trkpt lat="42.3354" lon="2.58939">
        <ele>913.441</ele>
        <time>2014-02-15T17:58:15Z</time>
      </trkpt>
      <trkpt lat="42.33538" lon="2.58949">
        <ele>910.026</ele>
        <time>2014-02-15T17:58:27Z</time>
      </trkpt>
      <trkpt lat="42.33536" lon="2.58952">
        <ele>909.575</ele>
        <time>2014-02-15T17:58:31Z</time>
      </trkpt>
      <trkpt lat="42.33531" lon="2.58963">
        <ele>906.282</ele>
        <time>2014-02-15T17:58:43Z</time>
      </trkpt>
      <trkpt lat="42.33524" lon="2.5897">
        <ele>904.364</ele>
        <time>2014-02-15T17:58:56Z</time>
      </trkpt>
      <trkpt lat="42.33518" lon="2.58975">
        <ele>900.941</ele>
        <time>2014-02-15T17:59:06Z</time>
      </trkpt>
      <trkpt lat="42.33517" lon="2.58976">
        <ele>900.981</ele>
        <time>2014-02-15T17:59:07Z</time>
      </trkpt>
      <trkpt lat="42.33514" lon="2.58977">
        <ele>900.909</ele>
        <time>2014-02-15T17:59:10Z</time>
      </trkpt>
      <trkpt lat="42.33499" lon="2.58983">
        <ele>898.007</ele>
        <time>2014-02-15T17:59:22Z</time>
      </trkpt>
      <trkpt lat="42.33483" lon="2.58986">
        <ele>896.64</ele>
        <time>2014-02-15T17:59:34Z</time>
      </trkpt>
      <trkpt lat="42.33474" lon="2.58987">
        <ele>896.175</ele>
        <time>2014-02-15T17:59:49Z</time>
      </trkpt>
      <trkpt lat="42.3347" lon="2.58987">
        <ele>895.688</ele>
        <time>2014-02-15T17:59:57Z</time>
      </trkpt>
      <trkpt lat="42.33463" lon="2.59003">
        <ele>894.683</ele>
        <time>2014-02-15T18:00:10Z</time>
      </trkpt>
      <trkpt lat="42.33451" lon="2.59031">
        <ele>891.362</ele>
        <time>2014-02-15T18:00:26Z</time>
      </trkpt>
      <trkpt lat="42.33443" lon="2.59054">
        <ele>889.859</ele>
        <time>2014-02-15T18:00:38Z</time>
      </trkpt>
      <trkpt lat="42.33435" lon="2.59068">
        <ele>889.431</ele>
        <time>2014-02-15T18:00:46Z</time>
      </trkpt>
      <trkpt lat="42.33419" lon="2.5909">
        <ele>887.411</ele>
        <time>2014-02-15T18:01:00Z</time>
      </trkpt>
      <trkpt lat="42.33406" lon="2.59117">
        <ele>885.521</ele>
        <time>2014-02-15T18:01:16Z</time>
      </trkpt>
      <trkpt lat="42.33396" lon="2.5913">
        <ele>884.603</ele>
        <time>2014-02-15T18:01:24Z</time>
      </trkpt>
      <trkpt lat="42.33384" lon="2.59135">
        <ele>882.607</ele>
        <time>2014-02-15T18:01:33Z</time>
      </trkpt>
      <trkpt lat="42.33361" lon="2.59144">
        <ele>879.387</ele>
        <time>2014-02-15T18:01:51Z</time>
      </trkpt>
      <trkpt lat="42.33351" lon="2.59146">
        <ele>879.382</ele>
        <time>2014-02-15T18:02:05Z</time>
      </trkpt>
      <trkpt lat="42.33347" lon="2.59147">
        <ele>878.385</ele>
        <time>2014-02-15T18:02:19Z</time>
      </trkpt>
      <trkpt lat="42.33345" lon="2.59149">
        <ele>877.86</ele>
        <time>2014-02-15T18:02:47Z</time>
      </trkpt>
      <trkpt lat="42.33343" lon="2.59149">
        <ele>877.819</ele>
        <time>2014-02-15T18:03:34Z</time>
      </trkpt>
      <trkpt lat="42.33342" lon="2.59149">
        <ele>877.356</ele>
        <time>2014-02-15T18:04:16Z</time>
      </trkpt>
      <trkpt lat="42.33341" lon="2.59145">
        <ele>877.898</ele>
        <time>2014-02-15T18:04:56Z</time>
      </trkpt>
      <trkpt lat="42.33342" lon="2.59146">
        <ele>877.392</ele>
        <time>2014-02-15T18:05:34Z</time>
      </trkpt>
      <trkpt lat="42.33341" lon="2.59149">
        <ele>877.373</ele>
        <time>2014-02-15T18:06:07Z</time>
      </trkpt>
      <trkpt lat="42.33342" lon="2.59147">
        <ele>877.32</ele>
        <time>2014-02-15T18:06:43Z</time>
      </trkpt>
      <trkpt lat="42.33341" lon="2.59146">
        <ele>877.307</ele>
        <time>2014-02-15T18:07:15Z</time>
      </trkpt>
      <trkpt lat="42.33341" lon="2.59149">
        <ele>876.945</ele>
        <time>2014-02-15T18:07:49Z</time>
      </trkpt>
      <trkpt lat="42.3334" lon="2.59149">
        <ele>877.32</ele>
        <time>2014-02-15T18:08:25Z</time>
      </trkpt>
      <trkpt lat="42.33339" lon="2.59149">
        <ele>877.323</ele>
        <time>2014-02-15T18:08:50Z</time>
      </trkpt>
      <trkpt lat="42.33339" lon="2.59148">
        <ele>876.998</ele>
        <time>2014-02-15T18:09:33Z</time>
      </trkpt>
      <trkpt lat="42.33338" lon="2.59149">
        <ele>877.877</ele>
        <time>2014-02-15T18:09:55Z</time>
      </trkpt>
      <trkpt lat="42.33338" lon="2.5915">
        <ele>877.834</ele>
        <time>2014-02-15T18:10:24Z</time>
      </trkpt>
      <trkpt lat="42.3334" lon="2.59145">
        <ele>876.926</ele>
        <time>2014-02-15T18:10:53Z</time>
      </trkpt>
      <trkpt lat="42.33345" lon="2.59136">
        <ele>876.432</ele>
        <time>2014-02-15T18:11:16Z</time>
      </trkpt>
      <trkpt lat="42.33345" lon="2.59136">
        <ele>876.492</ele>
        <time>2014-02-15T18:11:39Z</time>
      </trkpt>
      <trkpt lat="42.33347" lon="2.59134">
        <ele>876.411</ele>
        <time>2014-02-15T18:12:15Z</time>
      </trkpt>
      <trkpt lat="42.33345" lon="2.59134">
        <ele>876.407</ele>
        <time>2014-02-15T18:12:34Z</time>
      </trkpt>
      <trkpt lat="42.33348" lon="2.59136">
        <ele>876.419</ele>
        <time>2014-02-15T18:13:02Z</time>
      </trkpt>
      <trkpt lat="42.33348" lon="2.59134">
        <ele>876.474</ele>
        <time>2014-02-15T18:13:20Z</time>
      </trkpt>
      <trkpt lat="42.33346" lon="2.59134">
        <ele>876.497</ele>
        <time>2014-02-15T18:13:50Z</time>
      </trkpt>
      <trkpt lat="42.33343" lon="2.59141">
        <ele>876.482</ele>
        <time>2014-02-15T18:14:17Z</time>
      </trkpt>
      <trkpt lat="42.33337" lon="2.59143">
        <ele>874.551</ele>
        <time>2014-02-15T18:14:31Z</time>
      </trkpt>
      <trkpt lat="42.33325" lon="2.59149">
        <ele>872.148</ele>
        <time>2014-02-15T18:14:45Z</time>
      </trkpt>
      <trkpt lat="42.33315" lon="2.59156">
        <ele>869.22</ele>
        <time>2014-02-15T18:14:55Z</time>
      </trkpt>
      <trkpt lat="42.33303" lon="2.59163">
        <ele>865.838</ele>
        <time>2014-02-15T18:15:05Z</time>
      </trkpt>
      <trkpt lat="42.33296" lon="2.59166">
        <ele>864.87</ele>
        <time>2014-02-15T18:15:10Z</time>
      </trkpt>
      <trkpt lat="42.33293" lon="2.59169">
        <ele>862.917</ele>
        <time>2014-02-15T18:15:13Z</time>
      </trkpt>
      <trkpt lat="42.3328" lon="2.59175">
        <ele>860.007</ele>
        <time>2014-02-15T18:15:24Z</time>
      </trkpt>
      <trkpt lat="42.3327" lon="2.59181">
        <ele>858.649</ele>
        <time>2014-02-15T18:15:32Z</time>
      </trkpt>
      <trkpt lat="42.33253" lon="2.59183">
        <ele>857.674</ele>
        <time>2014-02-15T18:15:46Z</time>
      </trkpt>
      <trkpt lat="42.33252" lon="2.59183">
        <ele>857.617</ele>
        <time>2014-02-15T18:15:47Z</time>
      </trkpt>
      <trkpt lat="42.3324" lon="2.59186">
        <ele>856.262</ele>
        <time>2014-02-15T18:15:55Z</time>
      </trkpt>
      <trkpt lat="42.33217" lon="2.59186">
        <ele>856.271</ele>
        <time>2014-02-15T18:16:12Z</time>
      </trkpt>
      <trkpt lat="42.332" lon="2.59186">
        <ele>856.268</ele>
        <time>2014-02-15T18:16:25Z</time>
      </trkpt>
      <trkpt lat="42.33199" lon="2.59186">
        <ele>856.22</ele>
        <time>2014-02-15T18:16:26Z</time>
      </trkpt>
      <trkpt lat="42.33179" lon="2.59188">
        <ele>857.659</ele>
        <time>2014-02-15T18:16:42Z</time>
      </trkpt>
      <trkpt lat="42.33175" lon="2.59185">
        <ele>856.203</ele>
        <time>2014-02-15T18:16:45Z</time>
      </trkpt>
      <trkpt lat="42.33154" lon="2.59182">
        <ele>855.223</ele>
        <time>2014-02-15T18:17:01Z</time>
      </trkpt>
      <trkpt lat="42.3314" lon="2.59185">
        <ele>854.307</ele>
        <time>2014-02-15T18:17:12Z</time>
      </trkpt>
      <trkpt lat="42.3313" lon="2.59191">
        <ele>853.811</ele>
        <time>2014-02-15T18:17:20Z</time>
      </trkpt>
      <trkpt lat="42.33118" lon="2.592">
        <ele>852.856</ele>
        <time>2014-02-15T18:17:33Z</time>
      </trkpt>
      <trkpt lat="42.33116" lon="2.59201">
        <ele>851.949</ele>
        <time>2014-02-15T18:17:35Z</time>
      </trkpt>
      <trkpt lat="42.33111" lon="2.59206">
        <ele>850.954</ele>
        <time>2014-02-15T18:17:40Z</time>
      </trkpt>
      <trkpt lat="42.33102" lon="2.59228">
        <ele>848.523</ele>
        <time>2014-02-15T18:17:54Z</time>
      </trkpt>
      <trkpt lat="42.33102" lon="2.59233">
        <ele>848.05</ele>
        <time>2014-02-15T18:17:59Z</time>
      </trkpt>
      <trkpt lat="42.33104" lon="2.59235">
        <ele>848.532</ele>
        <time>2014-02-15T18:18:01Z</time>
      </trkpt>
      <trkpt lat="42.33105" lon="2.5924">
        <ele>849.992</ele>
        <time>2014-02-15T18:18:05Z</time>
      </trkpt>
      <trkpt lat="42.33092" lon="2.59255">
        <ele>850.473</ele>
        <time>2014-02-15T18:18:21Z</time>
      </trkpt>
      <trkpt lat="42.33078" lon="2.59267">
        <ele>850.42</ele>
        <time>2014-02-15T18:18:35Z</time>
      </trkpt>
      <trkpt lat="42.33072" lon="2.59285">
        <ele>851.407</ele>
        <time>2014-02-15T18:18:48Z</time>
      </trkpt>
      <trkpt lat="42.33065" lon="2.59312">
        <ele>852.885</ele>
        <time>2014-02-15T18:19:06Z</time>
      </trkpt>
      <trkpt lat="42.33063" lon="2.59335">
        <ele>854.36</ele>
        <time>2014-02-15T18:19:19Z</time>
      </trkpt>
      <trkpt lat="42.33055" lon="2.59359">
        <ele>856.283</ele>
        <time>2014-02-15T18:19:35Z</time>
      </trkpt>
      <trkpt lat="42.33052" lon="2.59379">
        <ele>858.148</ele>
        <time>2014-02-15T18:19:49Z</time>
      </trkpt>
      <trkpt lat="42.33045" lon="2.59401">
        <ele>856.287</ele>
        <time>2014-02-15T18:20:03Z</time>
      </trkpt>
      <trkpt lat="42.3304" lon="2.59422">
        <ele>854.354</ele>
        <time>2014-02-15T18:20:14Z</time>
      </trkpt>
      <trkpt lat="42.33034" lon="2.59445">
        <ele>853.386</ele>
        <time>2014-02-15T18:20:28Z</time>
      </trkpt>
      <trkpt lat="42.33025" lon="2.59472">
        <ele>851.442</ele>
        <time>2014-02-15T18:20:44Z</time>
      </trkpt>
      <trkpt lat="42.3302" lon="2.59498">
        <ele>851.422</ele>
        <time>2014-02-15T18:20:59Z</time>
      </trkpt>
      <trkpt lat="42.33014" lon="2.59516">
        <ele>853.814</ele>
        <time>2014-02-15T18:21:13Z</time>
      </trkpt>
      <trkpt lat="42.33006" lon="2.5954">
        <ele>852.407</ele>
        <time>2014-02-15T18:21:29Z</time>
      </trkpt>
      <trkpt lat="42.33003" lon="2.59549">
        <ele>853.86</ele>
        <time>2014-02-15T18:21:37Z</time>
      </trkpt>
      <trkpt lat="42.32996" lon="2.59561">
        <ele>857.245</ele>
        <time>2014-02-15T18:21:49Z</time>
      </trkpt>
      <trkpt lat="42.32983" lon="2.59563">
        <ele>859.688</ele>
        <time>2014-02-15T18:22:01Z</time>
      </trkpt>
      <trkpt lat="42.32971" lon="2.59566">
        <ele>859.613</ele>
        <time>2014-02-15T18:22:16Z</time>
      </trkpt>
      <trkpt lat="42.32968" lon="2.59567">
        <ele>859.152</ele>
        <time>2014-02-15T18:22:23Z</time>
      </trkpt>
      <trkpt lat="42.32963" lon="2.59573">
        <ele>859.119</ele>
        <time>2014-02-15T18:22:29Z</time>
      </trkpt>
      <trkpt lat="42.3296" lon="2.59573">
        <ele>858.621</ele>
        <time>2014-02-15T18:22:31Z</time>
      </trkpt>
      <trkpt lat="42.32956" lon="2.59577">
        <ele>858.147</ele>
        <time>2014-02-15T18:22:35Z</time>
      </trkpt>
      <trkpt lat="42.32945" lon="2.59583">
        <ele>856.229</ele>
        <time>2014-02-15T18:22:46Z</time>
      </trkpt>
      <trkpt lat="42.32937" lon="2.59588">
        <ele>854.821</ele>
        <time>2014-02-15T18:22:56Z</time>
      </trkpt>
      <trkpt lat="42.32912" lon="2.59584">
        <ele>853.307</ele>
        <time>2014-02-15T18:23:14Z</time>
      </trkpt>
      <trkpt lat="42.32907" lon="2.59579">
        <ele>854.39</ele>
        <time>2014-02-15T18:23:18Z</time>
      </trkpt>
      <trkpt lat="42.32903" lon="2.59576">
        <ele>854.845</ele>
        <time>2014-02-15T18:23:22Z</time>
      </trkpt>
      <trkpt lat="42.32897" lon="2.5957">
        <ele>855.748</ele>
        <time>2014-02-15T18:23:29Z</time>
      </trkpt>
      <trkpt lat="42.32893" lon="2.59569">
        <ele>855.723</ele>
        <time>2014-02-15T18:23:32Z</time>
      </trkpt>
      <trkpt lat="42.32881" lon="2.59552">
        <ele>856.732</ele>
        <time>2014-02-15T18:23:45Z</time>
      </trkpt>
      <trkpt lat="42.32874" lon="2.59543">
        <ele>853.329</ele>
        <time>2014-02-15T18:23:55Z</time>
      </trkpt>
      <trkpt lat="42.3287" lon="2.5954">
        <ele>853.861</ele>
        <time>2014-02-15T18:23:59Z</time>
      </trkpt>
      <trkpt lat="42.32863" lon="2.59523">
        <ele>854.816</ele>
        <time>2014-02-15T18:24:11Z</time>
      </trkpt>
      <trkpt lat="42.32862" lon="2.59516">
        <ele>855.276</ele>
        <time>2014-02-15T18:24:16Z</time>
      </trkpt>
      <trkpt lat="42.32858" lon="2.59501">
        <ele>855.713</ele>
        <time>2014-02-15T18:24:28Z</time>
      </trkpt>
      <trkpt lat="42.32853" lon="2.59489">
        <ele>854.807</ele>
        <time>2014-02-15T18:24:37Z</time>
      </trkpt>
      <trkpt lat="42.32847" lon="2.59474">
        <ele>853.837</ele>
        <time>2014-02-15T18:24:46Z</time>
      </trkpt>
      <trkpt lat="42.3284" lon="2.59461">
        <ele>852.482</ele>
        <time>2014-02-15T18:24:53Z</time>
      </trkpt>
      <trkpt lat="42.32836" lon="2.59447">
        <ele>852.455</ele>
        <time>2014-02-15T18:25:01Z</time>
      </trkpt>
      <trkpt lat="42.32831" lon="2.59439">
        <ele>850.47</ele>
        <time>2014-02-15T18:25:08Z</time>
      </trkpt>
      <trkpt lat="42.32827" lon="2.59431">
        <ele>849.589</ele>
        <time>2014-02-15T18:25:14Z</time>
      </trkpt>
      <trkpt lat="42.32824" lon="2.59422">
        <ele>849.016</ele>
        <time>2014-02-15T18:25:18Z</time>
      </trkpt>
      <trkpt lat="42.32824" lon="2.59408">
        <ele>849.988</ele>
        <time>2014-02-15T18:25:26Z</time>
      </trkpt>
      <trkpt lat="42.32825" lon="2.59366">
        <ele>851.937</ele>
        <time>2014-02-15T18:25:41Z</time>
      </trkpt>
      <trkpt lat="42.32824" lon="2.59359">
        <ele>852.449</ele>
        <time>2014-02-15T18:25:45Z</time>
      </trkpt>
      <trkpt lat="42.32825" lon="2.59342">
        <ele>853.313</ele>
        <time>2014-02-15T18:25:57Z</time>
      </trkpt>
      <trkpt lat="42.32825" lon="2.59334">
        <ele>852.807</ele>
        <time>2014-02-15T18:26:04Z</time>
      </trkpt>
      <trkpt lat="42.32818" lon="2.59307">
        <ele>851.489</ele>
        <time>2014-02-15T18:26:20Z</time>
      </trkpt>
      <trkpt lat="42.32813" lon="2.59295">
        <ele>851.474</ele>
        <time>2014-02-15T18:26:30Z</time>
      </trkpt>
      <trkpt lat="42.32803" lon="2.59273">
        <ele>851.417</ele>
        <time>2014-02-15T18:26:44Z</time>
      </trkpt>
      <trkpt lat="42.32795" lon="2.59249">
        <ele>851.942</ele>
        <time>2014-02-15T18:26:58Z</time>
      </trkpt>
      <trkpt lat="42.32784" lon="2.59232">
        <ele>852.421</ele>
        <time>2014-02-15T18:27:11Z</time>
      </trkpt>
      <trkpt lat="42.32777" lon="2.59209">
        <ele>852.438</ele>
        <time>2014-02-15T18:27:27Z</time>
      </trkpt>
      <trkpt lat="42.32777" lon="2.592">
        <ele>852.45</ele>
        <time>2014-02-15T18:27:40Z</time>
      </trkpt>
      <trkpt lat="42.3278" lon="2.592">
        <ele>851.479</ele>
        <time>2014-02-15T18:27:53Z</time>
      </trkpt>
      <trkpt lat="42.3278" lon="2.59202">
        <ele>850.405</ele>
        <time>2014-02-15T18:27:56Z</time>
      </trkpt>
      <trkpt lat="42.32771" lon="2.59219">
        <ele>847.525</ele>
        <time>2014-02-15T18:28:10Z</time>
      </trkpt>
      <trkpt lat="42.32762" lon="2.59231">
        <ele>848.507</ele>
        <time>2014-02-15T18:28:24Z</time>
      </trkpt>
      <trkpt lat="42.32758" lon="2.59254">
        <ele>846.113</ele>
        <time>2014-02-15T18:28:38Z</time>
      </trkpt>
      <trkpt lat="42.32748" lon="2.59274">
        <ele>842.798</ele>
        <time>2014-02-15T18:28:50Z</time>
      </trkpt>
      <trkpt lat="42.32742" lon="2.59299">
        <ele>839.971</ele>
        <time>2014-02-15T18:29:06Z</time>
      </trkpt>
      <trkpt lat="42.32737" lon="2.59321">
        <ele>836.536</ele>
        <time>2014-02-15T18:29:19Z</time>
      </trkpt>
      <trkpt lat="42.32736" lon="2.59322">
        <ele>836.545</ele>
        <time>2014-02-15T18:29:20Z</time>
      </trkpt>
      <trkpt lat="42.32736" lon="2.59326">
        <ele>835.592</ele>
        <time>2014-02-15T18:29:22Z</time>
      </trkpt>
      <trkpt lat="42.32734" lon="2.59329">
        <ele>835.524</ele>
        <time>2014-02-15T18:29:24Z</time>
      </trkpt>
      <trkpt lat="42.32727" lon="2.59342">
        <ele>834.177</ele>
        <time>2014-02-15T18:29:37Z</time>
      </trkpt>
      <trkpt lat="42.32717" lon="2.59359">
        <ele>831.261</ele>
        <time>2014-02-15T18:29:51Z</time>
      </trkpt>
      <trkpt lat="42.32717" lon="2.5936">
        <ele>831.227</ele>
        <time>2014-02-15T18:29:52Z</time>
      </trkpt>
      <trkpt lat="42.32705" lon="2.59371">
        <ele>827.407</ele>
        <time>2014-02-15T18:30:04Z</time>
      </trkpt>
      <trkpt lat="42.32698" lon="2.59388">
        <ele>824.093</ele>
        <time>2014-02-15T18:30:17Z</time>
      </trkpt>
      <trkpt lat="42.32696" lon="2.59393">
        <ele>824.048</ele>
        <time>2014-02-15T18:30:20Z</time>
      </trkpt>
      <trkpt lat="42.32683" lon="2.5941">
        <ele>820.651</ele>
        <time>2014-02-15T18:30:34Z</time>
      </trkpt>
      <trkpt lat="42.32679" lon="2.59417">
        <ele>819.796</ele>
        <time>2014-02-15T18:30:40Z</time>
      </trkpt>
      <trkpt lat="42.32671" lon="2.59429">
        <ele>816.815</ele>
        <time>2014-02-15T18:30:52Z</time>
      </trkpt>
      <trkpt lat="42.3266" lon="2.59447">
        <ele>814.912</ele>
        <time>2014-02-15T18:31:04Z</time>
      </trkpt>
      <trkpt lat="42.32654" lon="2.59453">
        <ele>814.464</ele>
        <time>2014-02-15T18:31:09Z</time>
      </trkpt>
      <trkpt lat="42.3265" lon="2.59458">
        <ele>813.498</ele>
        <time>2014-02-15T18:31:14Z</time>
      </trkpt>
      <trkpt lat="42.32637" lon="2.5947">
        <ele>811.015</ele>
        <time>2014-02-15T18:31:28Z</time>
      </trkpt>
      <trkpt lat="42.32628" lon="2.59477">
        <ele>809.126</ele>
        <time>2014-02-15T18:31:40Z</time>
      </trkpt>
      <trkpt lat="42.32615" lon="2.59491">
        <ele>807.607</ele>
        <time>2014-02-15T18:31:54Z</time>
      </trkpt>
      <trkpt lat="42.32614" lon="2.59494">
        <ele>807.215</ele>
        <time>2014-02-15T18:31:56Z</time>
      </trkpt>
      <trkpt lat="42.3261" lon="2.59501">
        <ele>807.29</ele>
        <time>2014-02-15T18:32:01Z</time>
      </trkpt>
      <trkpt lat="42.32597" lon="2.59521">
        <ele>806.753</ele>
        <time>2014-02-15T18:32:15Z</time>
      </trkpt>
      <trkpt lat="42.32587" lon="2.59533">
        <ele>805.778</ele>
        <time>2014-02-15T18:32:27Z</time>
      </trkpt>
      <trkpt lat="42.32566" lon="2.59554">
        <ele>802.457</ele>
        <time>2014-02-15T18:32:43Z</time>
      </trkpt>
      <trkpt lat="42.32547" lon="2.59558">
        <ele>799.554</ele>
        <time>2014-02-15T18:32:58Z</time>
      </trkpt>
      <trkpt lat="42.32528" lon="2.59576">
        <ele>798.526</ele>
        <time>2014-02-15T18:33:14Z</time>
      </trkpt>
      <trkpt lat="42.32516" lon="2.5959">
        <ele>800.088</ele>
        <time>2014-02-15T18:33:28Z</time>
      </trkpt>
      <trkpt lat="42.32503" lon="2.59609">
        <ele>799.024</ele>
        <time>2014-02-15T18:33:41Z</time>
      </trkpt>
      <trkpt lat="42.32502" lon="2.5961">
        <ele>799.026</ele>
        <time>2014-02-15T18:33:42Z</time>
      </trkpt>
      <trkpt lat="42.32484" lon="2.59613">
        <ele>799.007</ele>
        <time>2014-02-15T18:33:51Z</time>
      </trkpt>
      <trkpt lat="42.32475" lon="2.59615">
        <ele>799.564</ele>
        <time>2014-02-15T18:33:55Z</time>
      </trkpt>
      <trkpt lat="42.32454" lon="2.59612">
        <ele>800.979</ele>
        <time>2014-02-15T18:34:10Z</time>
      </trkpt>
      <trkpt lat="42.32446" lon="2.59609">
        <ele>798.022</ele>
        <time>2014-02-15T18:34:23Z</time>
      </trkpt>
      <trkpt lat="42.32446" lon="2.59613">
        <ele>795.647</ele>
        <time>2014-02-15T18:34:31Z</time>
      </trkpt>
      <trkpt lat="42.32447" lon="2.59618">
        <ele>795.266</ele>
        <time>2014-02-15T18:34:36Z</time>
      </trkpt>
      <trkpt lat="42.32446" lon="2.59622">
        <ele>794.223</ele>
        <time>2014-02-15T18:34:39Z</time>
      </trkpt>
      <trkpt lat="42.32437" lon="2.59622">
        <ele>790.345</ele>
        <time>2014-02-15T18:34:48Z</time>
      </trkpt>
      <trkpt lat="42.32432" lon="2.59628">
        <ele>787.537</ele>
        <time>2014-02-15T18:34:59Z</time>
      </trkpt>
      <trkpt lat="42.32433" lon="2.59631">
        <ele>785.149</ele>
        <time>2014-02-15T18:35:11Z</time>
      </trkpt>
      <trkpt lat="42.32427" lon="2.59635">
        <ele>782.213</ele>
        <time>2014-02-15T18:35:23Z</time>
      </trkpt>
      <trkpt lat="42.32422" lon="2.59636">
        <ele>781.707</ele>
        <time>2014-02-15T18:35:35Z</time>
      </trkpt>
      <trkpt lat="42.32413" lon="2.59645">
        <ele>779.359</ele>
        <time>2014-02-15T18:35:48Z</time>
      </trkpt>
      <trkpt lat="42.32404" lon="2.59646">
        <ele>777.884</ele>
        <time>2014-02-15T18:35:58Z</time>
      </trkpt>
      <trkpt lat="42.3239" lon="2.59653">
        <ele>776.497</ele>
        <time>2014-02-15T18:36:12Z</time>
      </trkpt>
      <trkpt lat="42.32374" lon="2.59657">
        <ele>774.552</ele>
        <time>2014-02-15T18:36:26Z</time>
      </trkpt>
      <trkpt lat="42.3237" lon="2.59658">
        <ele>775.451</ele>
        <time>2014-02-15T18:36:46Z</time>
      </trkpt>
      <trkpt lat="42.32356" lon="2.59657">
        <ele>777.898</ele>
        <time>2014-02-15T18:36:58Z</time>
      </trkpt>
      <trkpt lat="42.32341" lon="2.59653">
        <ele>779.35</ele>
        <time>2014-02-15T18:37:12Z</time>
      </trkpt>
      <trkpt lat="42.32335" lon="2.59653">
        <ele>779.857</ele>
        <time>2014-02-15T18:37:17Z</time>
      </trkpt>
      <trkpt lat="42.32319" lon="2.59644">
        <ele>781.2</ele>
        <time>2014-02-15T18:37:31Z</time>
      </trkpt>
      <trkpt lat="42.32306" lon="2.59632">
        <ele>783.12</ele>
        <time>2014-02-15T18:37:45Z</time>
      </trkpt>
      <trkpt lat="42.32304" lon="2.5963">
        <ele>783.107</ele>
        <time>2014-02-15T18:37:47Z</time>
      </trkpt>
      <trkpt lat="42.32292" lon="2.59625">
        <ele>784.111</ele>
        <time>2014-02-15T18:37:56Z</time>
      </trkpt>
      <trkpt lat="42.32279" lon="2.59615">
        <ele>787.096</ele>
        <time>2014-02-15T18:38:11Z</time>
      </trkpt>
      <trkpt lat="42.32271" lon="2.59605">
        <ele>788.459</ele>
        <time>2014-02-15T18:38:21Z</time>
      </trkpt>
      <trkpt lat="42.32268" lon="2.59592">
        <ele>789.474</ele>
        <time>2014-02-15T18:38:30Z</time>
      </trkpt>
      <trkpt lat="42.32268" lon="2.59586">
        <ele>789.463</ele>
        <time>2014-02-15T18:38:33Z</time>
      </trkpt>
      <trkpt lat="42.32267" lon="2.59575">
        <ele>788.47</ele>
        <time>2014-02-15T18:38:39Z</time>
      </trkpt>
      <trkpt lat="42.32267" lon="2.59572">
        <ele>787.962</ele>
        <time>2014-02-15T18:38:41Z</time>
      </trkpt>
      <trkpt lat="42.32267" lon="2.59565">
        <ele>787.015</ele>
        <time>2014-02-15T18:38:45Z</time>
      </trkpt>
      <trkpt lat="42.32266" lon="2.5955">
        <ele>784.165</ele>
        <time>2014-02-15T18:38:57Z</time>
      </trkpt>
      <trkpt lat="42.32263" lon="2.59538">
        <ele>782.211</ele>
        <time>2014-02-15T18:39:10Z</time>
      </trkpt>
      <trkpt lat="42.32254" lon="2.59528">
        <ele>782.207</ele>
        <time>2014-02-15T18:39:25Z</time>
      </trkpt>
      <trkpt lat="42.32249" lon="2.59529">
        <ele>780.747</ele>
        <time>2014-02-15T18:39:32Z</time>
      </trkpt>
      <trkpt lat="42.32244" lon="2.5953">
        <ele>779.812</ele>
        <time>2014-02-15T18:39:36Z</time>
      </trkpt>
      <trkpt lat="42.32239" lon="2.59526">
        <ele>778.875</ele>
        <time>2014-02-15T18:39:40Z</time>
      </trkpt>
      <trkpt lat="42.32232" lon="2.59519">
        <ele>779.85</ele>
        <time>2014-02-15T18:39:47Z</time>
      </trkpt>
      <trkpt lat="42.32232" lon="2.59515">
        <ele>780.349</ele>
        <time>2014-02-15T18:39:51Z</time>
      </trkpt>
      <trkpt lat="42.32228" lon="2.59512">
        <ele>780.746</ele>
        <time>2014-02-15T18:39:54Z</time>
      </trkpt>
      <trkpt lat="42.32226" lon="2.59511">
        <ele>780.318</ele>
        <time>2014-02-15T18:39:57Z</time>
      </trkpt>
      <trkpt lat="42.32218" lon="2.59501">
        <ele>781.275</ele>
        <time>2014-02-15T18:40:05Z</time>
      </trkpt>
      <trkpt lat="42.32206" lon="2.59489">
        <ele>779.328</ele>
        <time>2014-02-15T18:40:20Z</time>
      </trkpt>
      <trkpt lat="42.32192" lon="2.59484">
        <ele>779.32</ele>
        <time>2014-02-15T18:40:33Z</time>
      </trkpt>
      <trkpt lat="42.32177" lon="2.59481">
        <ele>779.307</ele>
        <time>2014-02-15T18:40:45Z</time>
      </trkpt>
      <trkpt lat="42.32174" lon="2.59482">
        <ele>779.863</ele>
        <time>2014-02-15T18:40:47Z</time>
      </trkpt>
      <trkpt lat="42.32158" lon="2.59494">
        <ele>781.248</ele>
        <time>2014-02-15T18:41:00Z</time>
      </trkpt>
      <trkpt lat="42.32148" lon="2.59507">
        <ele>783.661</ele>
        <time>2014-02-15T18:41:14Z</time>
      </trkpt>
      <trkpt lat="42.32135" lon="2.5951">
        <ele>786.026</ele>
        <time>2014-02-15T18:41:27Z</time>
      </trkpt>
      <trkpt lat="42.32125" lon="2.5951">
        <ele>788.925</ele>
        <time>2014-02-15T18:41:36Z</time>
      </trkpt>
      <trkpt lat="42.3212" lon="2.59499">
        <ele>791.832</ele>
        <time>2014-02-15T18:41:47Z</time>
      </trkpt>
      <trkpt lat="42.32115" lon="2.59491">
        <ele>793.244</ele>
        <time>2014-02-15T18:41:56Z</time>
      </trkpt>
      <trkpt lat="42.32109" lon="2.59482">
        <ele>792.743</ele>
        <time>2014-02-15T18:42:11Z</time>
      </trkpt>
      <trkpt lat="42.32105" lon="2.59469">
        <ele>791.864</ele>
        <time>2014-02-15T18:42:23Z</time>
      </trkpt>
      <trkpt lat="42.32105" lon="2.59467">
        <ele>791.31</ele>
        <time>2014-02-15T18:42:24Z</time>
      </trkpt>
      <trkpt lat="42.3211" lon="2.59451">
        <ele>789.907</ele>
        <time>2014-02-15T18:42:37Z</time>
      </trkpt>
      <trkpt lat="42.32111" lon="2.59448">
        <ele>789.49</ele>
        <time>2014-02-15T18:42:39Z</time>
      </trkpt>
      <trkpt lat="42.32115" lon="2.59435">
        <ele>786.035</ele>
        <time>2014-02-15T18:42:50Z</time>
      </trkpt>
      <trkpt lat="42.3212" lon="2.59427">
        <ele>784.698</ele>
        <time>2014-02-15T18:43:00Z</time>
      </trkpt>
      <trkpt lat="42.32122" lon="2.59423">
        <ele>783.193</ele>
        <time>2014-02-15T18:43:03Z</time>
      </trkpt>
      <trkpt lat="42.32125" lon="2.59415">
        <ele>781.252</ele>
        <time>2014-02-15T18:43:09Z</time>
      </trkpt>
      <trkpt lat="42.32133" lon="2.59401">
        <ele>778.379</ele>
        <time>2014-02-15T18:43:19Z</time>
      </trkpt>
      <trkpt lat="42.32139" lon="2.59395">
        <ele>777.431</ele>
        <time>2014-02-15T18:43:32Z</time>
      </trkpt>
      <trkpt lat="42.32135" lon="2.59396">
        <ele>776.483</ele>
        <time>2014-02-15T18:43:47Z</time>
      </trkpt>
      <trkpt lat="42.32132" lon="2.59395">
        <ele>775.425</ele>
        <time>2014-02-15T18:43:56Z</time>
      </trkpt>
      <trkpt lat="42.32137" lon="2.59374">
        <ele>772.117</ele>
        <time>2014-02-15T18:44:10Z</time>
      </trkpt>
      <trkpt lat="42.32137" lon="2.59365">
        <ele>770.207</ele>
        <time>2014-02-15T18:44:21Z</time>
      </trkpt>
      <trkpt lat="42.32135" lon="2.59361">
        <ele>768.274</ele>
        <time>2014-02-15T18:44:34Z</time>
      </trkpt>
      <trkpt lat="42.32127" lon="2.59354">
        <ele>766.859</ele>
        <time>2014-02-15T18:44:50Z</time>
      </trkpt>
      <trkpt lat="42.32119" lon="2.59351">
        <ele>763.992</ele>
        <time>2014-02-15T18:45:05Z</time>
      </trkpt>
      <trkpt lat="42.32117" lon="2.59352">
        <ele>761.087</ele>
        <time>2014-02-15T18:45:17Z</time>
      </trkpt>
      <trkpt lat="42.32118" lon="2.59359">
        <ele>757.716</ele>
        <time>2014-02-15T18:45:33Z</time>
      </trkpt>
      <trkpt lat="42.32115" lon="2.59368">
        <ele>754.353</ele>
        <time>2014-02-15T18:45:47Z</time>
      </trkpt>
      <trkpt lat="42.32112" lon="2.59372">
        <ele>751.425</ele>
        <time>2014-02-15T18:46:01Z</time>
      </trkpt>
      <trkpt lat="42.32107" lon="2.59377">
        <ele>748.038</ele>
        <time>2014-02-15T18:46:11Z</time>
      </trkpt>
      <trkpt lat="42.32107" lon="2.59372">
        <ele>745.67</ele>
        <time>2014-02-15T18:46:25Z</time>
      </trkpt>
      <trkpt lat="42.32107" lon="2.59373">
        <ele>742.817</ele>
        <time>2014-02-15T18:46:39Z</time>
      </trkpt>
      <trkpt lat="42.32103" lon="2.59377">
        <ele>739.407</ele>
        <time>2014-02-15T18:46:51Z</time>
      </trkpt>
      <trkpt lat="42.32102" lon="2.5938">
        <ele>737.099</ele>
        <time>2014-02-15T18:47:05Z</time>
      </trkpt>
      <trkpt lat="42.321" lon="2.59383">
        <ele>735.624</ele>
        <time>2014-02-15T18:47:21Z</time>
      </trkpt>
      <trkpt lat="42.32097" lon="2.59382">
        <ele>732.787</ele>
        <time>2014-02-15T18:47:35Z</time>
      </trkpt>
      <trkpt lat="42.3209" lon="2.59385">
        <ele>729.352</ele>
        <time>2014-02-15T18:47:50Z</time>
      </trkpt>
      <trkpt lat="42.3209" lon="2.59386">
        <ele>728.811</ele>
        <time>2014-02-15T18:47:54Z</time>
      </trkpt>
      <trkpt lat="42.32084" lon="2.59387">
        <ele>725.978</ele>
        <time>2014-02-15T18:48:06Z</time>
      </trkpt>
      <trkpt lat="42.32077" lon="2.59389">
        <ele>723.15</ele>
        <time>2014-02-15T18:48:17Z</time>
      </trkpt>
      <trkpt lat="42.32077" lon="2.59398">
        <ele>721.173</ele>
        <time>2014-02-15T18:48:30Z</time>
      </trkpt>
      <trkpt lat="42.32073" lon="2.59405">
        <ele>718.285</ele>
        <time>2014-02-15T18:48:42Z</time>
      </trkpt>
      <trkpt lat="42.32067" lon="2.59406">
        <ele>716.313</ele>
        <time>2014-02-15T18:48:57Z</time>
      </trkpt>
      <trkpt lat="42.32063" lon="2.59406">
        <ele>713.007</ele>
        <time>2014-02-15T18:49:09Z</time>
      </trkpt>
      <trkpt lat="42.32062" lon="2.59407">
        <ele>713.043</ele>
        <time>2014-02-15T18:49:10Z</time>
      </trkpt>
      <trkpt lat="42.32059" lon="2.59408">
        <ele>712.068</ele>
        <time>2014-02-15T18:49:16Z</time>
      </trkpt>
      <trkpt lat="42.32053" lon="2.59403">
        <ele>709.671</ele>
        <time>2014-02-15T18:49:30Z</time>
      </trkpt>
      <trkpt lat="42.32039" lon="2.59396">
        <ele>706.296</ele>
        <time>2014-02-15T18:49:46Z</time>
      </trkpt>
      <trkpt lat="42.32031" lon="2.59394">
        <ele>703.315</ele>
        <time>2014-02-15T18:49:59Z</time>
      </trkpt>
      <trkpt lat="42.32032" lon="2.59392">
        <ele>700.992</ele>
        <time>2014-02-15T18:50:16Z</time>
      </trkpt>
      <trkpt lat="42.32033" lon="2.59397">
        <ele>697.674</ele>
        <time>2014-02-15T18:50:33Z</time>
      </trkpt>
      <trkpt lat="42.32035" lon="2.59396">
        <ele>694.729</ele>
        <time>2014-02-15T18:50:43Z</time>
      </trkpt>
      <trkpt lat="42.32037" lon="2.59407">
        <ele>693.3</ele>
        <time>2014-02-15T18:50:57Z</time>
      </trkpt>
      <trkpt lat="42.32035" lon="2.59424">
        <ele>690.82</ele>
        <time>2014-02-15T18:51:11Z</time>
      </trkpt>
      <trkpt lat="42.32029" lon="2.59441">
        <ele>689.407</ele>
        <time>2014-02-15T18:51:26Z</time>
      </trkpt>
      <trkpt lat="42.32029" lon="2.59443">
        <ele>688.988</ele>
        <time>2014-02-15T18:51:47Z</time>
      </trkpt>
      <trkpt lat="42.32027" lon="2.59456">
        <ele>686.543</ele>
        <time>2014-02-15T18:52:01Z</time>
      </trkpt>
      <trkpt lat="42.32029" lon="2.59439">
        <ele>684.136</ele>
        <time>2014-02-15T18:52:14Z</time>
      </trkpt>
      <trkpt lat="42.32029" lon="2.59437">
        <ele>683.671</ele>
        <time>2014-02-15T18:52:15Z</time>
      </trkpt>
      <trkpt lat="42.3203" lon="2.59429">
        <ele>681.23</ele>
        <time>2014-02-15T18:52:29Z</time>
      </trkpt>
      <trkpt lat="42.32026" lon="2.5943">
        <ele>677.487</ele>
        <time>2014-02-15T18:52:40Z</time>
      </trkpt>
      <trkpt lat="42.32025" lon="2.59429">
        <ele>677.499</ele>
        <time>2014-02-15T18:52:41Z</time>
      </trkpt>
      <trkpt lat="42.32018" lon="2.59431">
        <ele>674.591</ele>
        <time>2014-02-15T18:52:54Z</time>
      </trkpt>
      <trkpt lat="42.32022" lon="2.59425">
        <ele>671.681</ele>
        <time>2014-02-15T18:53:04Z</time>
      </trkpt>
      <trkpt lat="42.32023" lon="2.59423">
        <ele>670.219</ele>
        <time>2014-02-15T18:53:08Z</time>
      </trkpt>
      <trkpt lat="42.3202" lon="2.59418">
        <ele>666.807</ele>
        <time>2014-02-15T18:53:25Z</time>
      </trkpt>
      <trkpt lat="42.32019" lon="2.59418">
        <ele>666.315</ele>
        <time>2014-02-15T18:53:27Z</time>
      </trkpt>
      <trkpt lat="42.32016" lon="2.59419">
        <ele>663.05</ele>
        <time>2014-02-15T18:53:41Z</time>
      </trkpt>
      <trkpt lat="42.32012" lon="2.59421">
        <ele>660.153</ele>
        <time>2014-02-15T18:53:56Z</time>
      </trkpt>
      <trkpt lat="42.32008" lon="2.59423">
        <ele>657.738</ele>
        <time>2014-02-15T18:54:12Z</time>
      </trkpt>
      <trkpt lat="42.32003" lon="2.59419">
        <ele>654.367</ele>
        <time>2014-02-15T18:54:29Z</time>
      </trkpt>
      <trkpt lat="42.31998" lon="2.59415">
        <ele>651.414</ele>
        <time>2014-02-15T18:54:40Z</time>
      </trkpt>
      <trkpt lat="42.31992" lon="2.59414">
        <ele>648.136</ele>
        <time>2014-02-15T18:54:51Z</time>
      </trkpt>
      <trkpt lat="42.31987" lon="2.59416">
        <ele>645.786</ele>
        <time>2014-02-15T18:55:00Z</time>
      </trkpt>
      <trkpt lat="42.31978" lon="2.59424">
        <ele>642.86</ele>
        <time>2014-02-15T18:55:14Z</time>
      </trkpt>
      <trkpt lat="42.31976" lon="2.59431">
        <ele>639.426</ele>
        <time>2014-02-15T18:55:23Z</time>
      </trkpt>
      <trkpt lat="42.31972" lon="2.59439">
        <ele>637.007</ele>
        <time>2014-02-15T18:55:35Z</time>
      </trkpt>
      <trkpt lat="42.31976" lon="2.59438">
        <ele>634.164</ele>
        <time>2014-02-15T18:55:46Z</time>
      </trkpt>
      <trkpt lat="42.31982" lon="2.59445">
        <ele>631.789</ele>
        <time>2014-02-15T18:56:03Z</time>
      </trkpt>
      <trkpt lat="42.31985" lon="2.59459">
        <ele>628.482</ele>
        <time>2014-02-15T18:56:18Z</time>
      </trkpt>
      <trkpt lat="42.31984" lon="2.59475">
        <ele>626.437</ele>
        <time>2014-02-15T18:56:31Z</time>
      </trkpt>
      <trkpt lat="42.3198" lon="2.59479">
        <ele>624.096</ele>
        <time>2014-02-15T18:56:45Z</time>
      </trkpt>
      <trkpt lat="42.31976" lon="2.59478">
        <ele>621.293</ele>
        <time>2014-02-15T18:56:56Z</time>
      </trkpt>
      <trkpt lat="42.31975" lon="2.59484">
        <ele>618.365</ele>
        <time>2014-02-15T18:57:10Z</time>
      </trkpt>
      <trkpt lat="42.31974" lon="2.59485">
        <ele>616.822</ele>
        <time>2014-02-15T18:57:12Z</time>
      </trkpt>
      <trkpt lat="42.31969" lon="2.5949">
        <ele>613.562</ele>
        <time>2014-02-15T18:57:25Z</time>
      </trkpt>
      <trkpt lat="42.31963" lon="2.59489">
        <ele>611.108</ele>
        <time>2014-02-15T18:57:38Z</time>
      </trkpt>
      <trkpt lat="42.3196" lon="2.59489">
        <ele>610.107</ele>
        <time>2014-02-15T18:57:43Z</time>
      </trkpt>
      <trkpt lat="42.31954" lon="2.59487">
        <ele>608.758</ele>
        <time>2014-02-15T18:57:53Z</time>
      </trkpt>
      <trkpt lat="42.31949" lon="2.59489">
        <ele>608.223</ele>
        <time>2014-02-15T18:57:59Z</time>
      </trkpt>
      <trkpt lat="42.31943" lon="2.59488">
        <ele>607.746</ele>
        <time>2014-02-15T18:58:06Z</time>
      </trkpt>
      <trkpt lat="42.31931" lon="2.5948">
        <ele>605.831</ele>
        <time>2014-02-15T18:58:20Z</time>
      </trkpt>
      <trkpt lat="42.31924" lon="2.59476">
        <ele>602.44</ele>
        <time>2014-02-15T18:58:31Z</time>
      </trkpt>
      <trkpt lat="42.31908" lon="2.5947">
        <ele>601.057</ele>
        <time>2014-02-15T18:58:44Z</time>
      </trkpt>
      <trkpt lat="42.31905" lon="2.59455">
        <ele>600.029</ele>
        <time>2014-02-15T18:58:56Z</time>
      </trkpt>
      <trkpt lat="42.31893" lon="2.59446">
        <ele>598.118</ele>
        <time>2014-02-15T18:59:10Z</time>
      </trkpt>
      <trkpt lat="42.31885" lon="2.59439">
        <ele>598.198</ele>
        <time>2014-02-15T18:59:25Z</time>
      </trkpt>
      <trkpt lat="42.3188" lon="2.59435">
        <ele>596.617</ele>
        <time>2014-02-15T18:59:32Z</time>
      </trkpt>
      <trkpt lat="42.31879" lon="2.59433">
        <ele>596.607</ele>
        <time>2014-02-15T18:59:33Z</time>
      </trkpt>
      <trkpt lat="42.31876" lon="2.59428">
        <ele>597.117</ele>
        <time>2014-02-15T18:59:38Z</time>
      </trkpt>
      <trkpt lat="42.31873" lon="2.59425">
        <ele>596.672</ele>
        <time>2014-02-15T18:59:41Z</time>
      </trkpt>
      <trkpt lat="42.31867" lon="2.59417">
        <ele>593.845</ele>
        <time>2014-02-15T18:59:54Z</time>
      </trkpt>
      <trkpt lat="42.31862" lon="2.59419">
        <ele>589.91</ele>
        <time>2014-02-15T19:00:04Z</time>
      </trkpt>
      <trkpt lat="42.31851" lon="2.59419">
        <ele>588.579</ele>
        <time>2014-02-15T19:00:16Z</time>
      </trkpt>
      <trkpt lat="42.31842" lon="2.59413">
        <ele>587.586</ele>
        <time>2014-02-15T19:00:29Z</time>
      </trkpt>
      <trkpt lat="42.31831" lon="2.59405">
        <ele>584.688</ele>
        <time>2014-02-15T19:00:44Z</time>
      </trkpt>
      <trkpt lat="42.31823" lon="2.59398">
        <ele>582.211</ele>
        <time>2014-02-15T19:00:56Z</time>
      </trkpt>
      <trkpt lat="42.31811" lon="2.59384">
        <ele>580.321</ele>
        <time>2014-02-15T19:01:10Z</time>
      </trkpt>
      <trkpt lat="42.318" lon="2.59384">
        <ele>580.303</ele>
        <time>2014-02-15T19:01:22Z</time>
      </trkpt>
      <trkpt lat="42.31786" lon="2.59377">
        <ele>578.407</ele>
        <time>2014-02-15T19:01:39Z</time>
      </trkpt>
      <trkpt lat="42.31772" lon="2.59375">
        <ele>576.047</ele>
        <time>2014-02-15T19:01:52Z</time>
      </trkpt>
      <trkpt lat="42.3176" lon="2.59372">
        <ele>574.542</ele>
        <time>2014-02-15T19:02:08Z</time>
      </trkpt>
      <trkpt lat="42.31757" lon="2.59364">
        <ele>575.025</ele>
        <time>2014-02-15T19:02:13Z</time>
      </trkpt>
      <trkpt lat="42.31747" lon="2.59332">
        <ele>575.06</ele>
        <time>2014-02-15T19:02:31Z</time>
      </trkpt>
      <trkpt lat="42.31739" lon="2.59311">
        <ele>574.079</ele>
        <time>2014-02-15T19:02:46Z</time>
      </trkpt>
      <trkpt lat="42.31738" lon="2.5931">
        <ele>573.686</ele>
        <time>2014-02-15T19:02:47Z</time>
      </trkpt>
      <trkpt lat="42.31731" lon="2.59296">
        <ele>573.658</ele>
        <time>2014-02-15T19:02:54Z</time>
      </trkpt>
      <trkpt lat="42.31729" lon="2.59291">
        <ele>573.693</ele>
        <time>2014-02-15T19:02:57Z</time>
      </trkpt>
      <trkpt lat="42.31723" lon="2.59269">
        <ele>572.665</ele>
        <time>2014-02-15T19:03:09Z</time>
      </trkpt>
      <trkpt lat="42.3172" lon="2.59249">
        <ele>571.221</ele>
        <time>2014-02-15T19:03:22Z</time>
      </trkpt>
      <trkpt lat="42.31712" lon="2.59221">
        <ele>574.007</ele>
        <time>2014-02-15T19:03:36Z</time>
      </trkpt>
      <trkpt lat="42.3171" lon="2.592">
        <ele>572.665</ele>
        <time>2014-02-15T19:03:49Z</time>
      </trkpt>
      <trkpt lat="42.31708" lon="2.59196">
        <ele>571.26</ele>
        <time>2014-02-15T19:03:53Z</time>
      </trkpt>
      <trkpt lat="42.31705" lon="2.59168">
        <ele>568.813</ele>
        <time>2014-02-15T19:04:04Z</time>
      </trkpt>
      <trkpt lat="42.317" lon="2.59151">
        <ele>565.918</ele>
        <time>2014-02-15T19:04:16Z</time>
      </trkpt>
      <trkpt lat="42.31693" lon="2.59135">
        <ele>563.527</ele>
        <time>2014-02-15T19:04:30Z</time>
      </trkpt>
      <trkpt lat="42.31695" lon="2.59128">
        <ele>562.034</ele>
        <time>2014-02-15T19:04:35Z</time>
      </trkpt>
      <trkpt lat="42.31703" lon="2.59121">
        <ele>560.656</ele>
        <time>2014-02-15T19:04:46Z</time>
      </trkpt>
      <trkpt lat="42.31711" lon="2.59106">
        <ele>558.257</ele>
        <time>2014-02-15T19:04:58Z</time>
      </trkpt>
      <trkpt lat="42.31713" lon="2.59102">
        <ele>558.2</ele>
        <time>2014-02-15T19:05:03Z</time>
      </trkpt>
      <trkpt lat="42.31713" lon="2.59093">
        <ele>556.72</ele>
        <time>2014-02-15T19:05:14Z</time>
      </trkpt>
      <trkpt lat="42.31713" lon="2.59088">
        <ele>555.307</ele>
        <time>2014-02-15T19:05:17Z</time>
      </trkpt>
      <trkpt lat="42.31709" lon="2.59084">
        <ele>553.431</ele>
        <time>2014-02-15T19:05:31Z</time>
      </trkpt>
      <trkpt lat="42.31708" lon="2.59075">
        <ele>551.036</ele>
        <time>2014-02-15T19:05:44Z</time>
      </trkpt>
      <trkpt lat="42.31702" lon="2.59071">
        <ele>548.679</ele>
        <time>2014-02-15T19:05:56Z</time>
      </trkpt>
      <trkpt lat="42.317" lon="2.59059">
        <ele>545.234</ele>
        <time>2014-02-15T19:06:11Z</time>
      </trkpt>
      <trkpt lat="42.31699" lon="2.59054">
        <ele>543.353</ele>
        <time>2014-02-15T19:06:17Z</time>
      </trkpt>
      <trkpt lat="42.31698" lon="2.59038">
        <ele>541.44</ele>
        <time>2014-02-15T19:06:28Z</time>
      </trkpt>
      <trkpt lat="42.31698" lon="2.59037">
        <ele>541.432</ele>
        <time>2014-02-15T19:06:29Z</time>
      </trkpt>
      <trkpt lat="42.31695" lon="2.59027">
        <ele>539.016</ele>
        <time>2014-02-15T19:06:43Z</time>
      </trkpt>
      <trkpt lat="42.31691" lon="2.59023">
        <ele>535.676</ele>
        <time>2014-02-15T19:06:54Z</time>
      </trkpt>
      <trkpt lat="42.31686" lon="2.59019">
        <ele>533.713</ele>
        <time>2014-02-15T19:07:06Z</time>
      </trkpt>
      <trkpt lat="42.31694" lon="2.59002">
        <ele>530.807</ele>
        <time>2014-02-15T19:07:19Z</time>
      </trkpt>
      <trkpt lat="42.31697" lon="2.58999">
        <ele>529.877</ele>
        <time>2014-02-15T19:07:24Z</time>
      </trkpt>
      <trkpt lat="42.31702" lon="2.5899">
        <ele>527.452</ele>
        <time>2014-02-15T19:07:35Z</time>
      </trkpt>
      <trkpt lat="42.31706" lon="2.5899">
        <ele>525.515</ele>
        <time>2014-02-15T19:07:47Z</time>
      </trkpt>
      <trkpt lat="42.31709" lon="2.58988">
        <ele>522.67</ele>
        <time>2014-02-15T19:07:57Z</time>
      </trkpt>
      <trkpt lat="42.31713" lon="2.58983">
        <ele>521.219</ele>
        <time>2014-02-15T19:08:09Z</time>
      </trkpt>
      <trkpt lat="42.31716" lon="2.58974">
        <ele>518.356</ele>
        <time>2014-02-15T19:08:23Z</time>
      </trkpt>
      <trkpt lat="42.31717" lon="2.58973">
        <ele>515.498</ele>
        <time>2014-02-15T19:08:36Z</time>
      </trkpt>
      <trkpt lat="42.31719" lon="2.58961">
        <ele>513.049</ele>
        <time>2014-02-15T19:08:49Z</time>
      </trkpt>
      <trkpt lat="42.31725" lon="2.58951">
        <ele>511.602</ele>
        <time>2014-02-15T19:09:01Z</time>
      </trkpt>
      <trkpt lat="42.31732" lon="2.58946">
        <ele>508.222</ele>
        <time>2014-02-15T19:09:14Z</time>
      </trkpt>
      <trkpt lat="42.31739" lon="2.58945">
        <ele>505.807</ele>
        <time>2014-02-15T19:09:25Z</time>
      </trkpt>
      <trkpt lat="42.31743" lon="2.58939">
        <ele>502.96</ele>
        <time>2014-02-15T19:09:36Z</time>
      </trkpt>
      <trkpt lat="42.3174" lon="2.58929">
        <ele>500.095</ele>
        <time>2014-02-15T19:09:53Z</time>
      </trkpt>
      <trkpt lat="42.31745" lon="2.5892">
        <ele>497.668</ele>
        <time>2014-02-15T19:10:06Z</time>
      </trkpt>
      <trkpt lat="42.31748" lon="2.58917">
        <ele>497.163</ele>
        <time>2014-02-15T19:10:21Z</time>
      </trkpt>
      <trkpt lat="42.31749" lon="2.58915">
        <ele>495.742</ele>
        <time>2014-02-15T19:10:23Z</time>
      </trkpt>
      <trkpt lat="42.31752" lon="2.58908">
        <ele>495.229</ele>
        <time>2014-02-15T19:10:29Z</time>
      </trkpt>
      <trkpt lat="42.31754" lon="2.58904">
        <ele>495.241</ele>
        <time>2014-02-15T19:10:33Z</time>
      </trkpt>
      <trkpt lat="42.31755" lon="2.58898">
        <ele>495.258</ele>
        <time>2014-02-15T19:10:37Z</time>
      </trkpt>
      <trkpt lat="42.3176" lon="2.58886">
        <ele>492.852</ele>
        <time>2014-02-15T19:10:50Z</time>
      </trkpt>
      <trkpt lat="42.31761" lon="2.58879">
        <ele>489.917</ele>
        <time>2014-02-15T19:11:02Z</time>
      </trkpt>
      <trkpt lat="42.31761" lon="2.58878">
        <ele>489.907</ele>
        <time>2014-02-15T19:11:03Z</time>
      </trkpt>
      <trkpt lat="42.31762" lon="2.58873">
        <ele>489.021</ele>
        <time>2014-02-15T19:11:09Z</time>
      </trkpt>
      <trkpt lat="42.31763" lon="2.58865">
        <ele>485.686</ele>
        <time>2014-02-15T19:11:21Z</time>
      </trkpt>
      <trkpt lat="42.31759" lon="2.58859">
        <ele>482.789</ele>
        <time>2014-02-15T19:11:35Z</time>
      </trkpt>
      <trkpt lat="42.31757" lon="2.58854">
        <ele>479.494</ele>
        <time>2014-02-15T19:11:49Z</time>
      </trkpt>
      <trkpt lat="42.31753" lon="2.58848">
        <ele>476.063</ele>
        <time>2014-02-15T19:12:02Z</time>
      </trkpt>
      <trkpt lat="42.31751" lon="2.58836">
        <ele>474.19</ele>
        <time>2014-02-15T19:12:15Z</time>
      </trkpt>
      <trkpt lat="42.31746" lon="2.58828">
        <ele>472.142</ele>
        <time>2014-02-15T19:12:26Z</time>
      </trkpt>
      <trkpt lat="42.3174" lon="2.58826">
        <ele>468.818</ele>
        <time>2014-02-15T19:12:37Z</time>
      </trkpt>
      <trkpt lat="42.31734" lon="2.58813">
        <ele>465.998</ele>
        <time>2014-02-15T19:12:50Z</time>
      </trkpt>
      <trkpt lat="42.31733" lon="2.58811">
        <ele>465.417</ele>
        <time>2014-02-15T19:12:51Z</time>
      </trkpt>
      <trkpt lat="42.31728" lon="2.58795">
        <ele>463.007</ele>
        <time>2014-02-15T19:13:04Z</time>
      </trkpt>
      <trkpt lat="42.31725" lon="2.58789">
        <ele>460.677</ele>
        <time>2014-02-15T19:13:13Z</time>
      </trkpt>
      <trkpt lat="42.31722" lon="2.5879">
        <ele>459.712</ele>
        <time>2014-02-15T19:13:17Z</time>
      </trkpt>
      <trkpt lat="42.3172" lon="2.58797">
        <ele>458.265</ele>
        <time>2014-02-15T19:13:31Z</time>
      </trkpt>
      <trkpt lat="42.31717" lon="2.58805">
        <ele>454.88</ele>
        <time>2014-02-15T19:13:39Z</time>
      </trkpt>
      <trkpt lat="42.31708" lon="2.58811">
        <ele>453.459</ele>
        <time>2014-02-15T19:13:53Z</time>
      </trkpt>
      <trkpt lat="42.31704" lon="2.5881">
        <ele>453.436</ele>
        <time>2014-02-15T19:14:00Z</time>
      </trkpt>
      <trkpt lat="42.31695" lon="2.58807">
        <ele>453.938</ele>
        <time>2014-02-15T19:14:14Z</time>
      </trkpt>
      <trkpt lat="42.31685" lon="2.58807">
        <ele>456.334</ele>
        <time>2014-02-15T19:14:27Z</time>
      </trkpt>
      <trkpt lat="42.3168" lon="2.58803">
        <ele>457.755</ele>
        <time>2014-02-15T19:14:35Z</time>
      </trkpt>
      <trkpt lat="42.31669" lon="2.58791">
        <ele>459.71</ele>
        <time>2014-02-15T19:14:52Z</time>
      </trkpt>
      <trkpt lat="42.31665" lon="2.58785">
        <ele>461.107</ele>
        <time>2014-02-15T19:15:02Z</time>
      </trkpt>
      <trkpt lat="42.31664" lon="2.58758">
        <ele>462.119</ele>
        <time>2014-02-15T19:15:14Z</time>
      </trkpt>
      <trkpt lat="42.31668" lon="2.5874">
        <ele>463.064</ele>
        <time>2014-02-15T19:15:27Z</time>
      </trkpt>
      <trkpt lat="42.31664" lon="2.58721">
        <ele>463.527</ele>
        <time>2014-02-15T19:15:46Z</time>
      </trkpt>
      <trkpt lat="42.31662" lon="2.58718">
        <ele>462.512</ele>
        <time>2014-02-15T19:16:09Z</time>
      </trkpt>
      <trkpt lat="42.31659" lon="2.58721">
        <ele>462.141</ele>
        <time>2014-02-15T19:16:48Z</time>
      </trkpt>
      <trkpt lat="42.31666" lon="2.58721">
        <ele>462.548</ele>
        <time>2014-02-15T19:17:21Z</time>
      </trkpt>
      <trkpt lat="42.31668" lon="2.58725">
        <ele>462.16</ele>
        <time>2014-02-15T19:17:58Z</time>
      </trkpt>
      <trkpt lat="42.3167" lon="2.58724">
        <ele>461.654</ele>
        <time>2014-02-15T19:18:26Z</time>
      </trkpt>
      <trkpt lat="42.31662" lon="2.5873">
        <ele>462.156</ele>
        <time>2014-02-15T19:18:57Z</time>
      </trkpt>
      <trkpt lat="42.31673" lon="2.58731">
        <ele>461.611</ele>
        <time>2014-02-15T19:19:11Z</time>
      </trkpt>
      <trkpt lat="42.31673" lon="2.58735">
        <ele>461.607</ele>
        <time>2014-02-15T19:19:40Z</time>
      </trkpt>
      <trkpt lat="42.31676" lon="2.58744">
        <ele>461.121</ele>
        <time>2014-02-15T19:19:57Z</time>
      </trkpt>
      <trkpt lat="42.31674" lon="2.5875">
        <ele>459.716</ele>
        <time>2014-02-15T19:20:06Z</time>
      </trkpt>
      <trkpt lat="42.31672" lon="2.58754">
        <ele>459.219</ele>
        <time>2014-02-15T19:20:11Z</time>
      </trkpt>
      <trkpt lat="42.31673" lon="2.58759">
        <ele>457.784</ele>
        <time>2014-02-15T19:20:17Z</time>
      </trkpt>
      <trkpt lat="42.31675" lon="2.5877">
        <ele>456.813</ele>
        <time>2014-02-15T19:20:26Z</time>
      </trkpt>
      <trkpt lat="42.31676" lon="2.58773">
        <ele>456.33</ele>
        <time>2014-02-15T19:20:28Z</time>
      </trkpt>
      <trkpt lat="42.31681" lon="2.58787">
        <ele>453.442</ele>
        <time>2014-02-15T19:20:40Z</time>
      </trkpt>
      <trkpt lat="42.31687" lon="2.58792">
        <ele>452.497</ele>
        <time>2014-02-15T19:20:52Z</time>
      </trkpt>
      <trkpt lat="42.31697" lon="2.58803">
        <ele>451.523</ele>
        <time>2014-02-15T19:21:05Z</time>
      </trkpt>
      <trkpt lat="42.31699" lon="2.58809">
        <ele>451.025</ele>
        <time>2014-02-15T19:21:11Z</time>
      </trkpt>
      <trkpt lat="42.317" lon="2.58822">
        <ele>452.407</ele>
        <time>2014-02-15T19:21:22Z</time>
      </trkpt>
      <trkpt lat="42.31694" lon="2.58832">
        <ele>452.415</ele>
        <time>2014-02-15T19:21:36Z</time>
      </trkpt>
      <trkpt lat="42.31691" lon="2.58842">
        <ele>454.49</ele>
        <time>2014-02-15T19:21:48Z</time>
      </trkpt>
      <trkpt lat="42.31686" lon="2.5885">
        <ele>457.763</ele>
        <time>2014-02-15T19:22:01Z</time>
      </trkpt>
      <trkpt lat="42.31678" lon="2.58859">
        <ele>461.178</ele>
        <time>2014-02-15T19:22:15Z</time>
      </trkpt>
      <trkpt lat="42.31667" lon="2.58865">
        <ele>460.167</ele>
        <time>2014-02-15T19:22:29Z</time>
      </trkpt>
      <trkpt lat="42.31651" lon="2.58874">
        <ele>457.714</ele>
        <time>2014-02-15T19:22:42Z</time>
      </trkpt>
      <trkpt lat="42.31635" lon="2.58889">
        <ele>456.846</ele>
        <time>2014-02-15T19:22:56Z</time>
      </trkpt>
      <trkpt lat="42.31615" lon="2.58895">
        <ele>455.331</ele>
        <time>2014-02-15T19:23:09Z</time>
      </trkpt>
      <trkpt lat="42.31611" lon="2.58893">
        <ele>454.861</ele>
        <time>2014-02-15T19:23:14Z</time>
      </trkpt>
      <trkpt lat="42.31582" lon="2.58892">
        <ele>452.907</ele>
        <time>2014-02-15T19:23:26Z</time>
      </trkpt>
      <trkpt lat="42.3157" lon="2.58892">
        <ele>452.407</ele>
        <time>2014-02-15T19:23:29Z</time>
      </trkpt>
      <trkpt lat="42.31555" lon="2.58891">
        <ele>450.059</ele>
        <time>2014-02-15T19:23:43Z</time>
      </trkpt>
      <trkpt lat="42.31553" lon="2.58874">
        <ele>449.194</ele>
        <time>2014-02-15T19:23:53Z</time>
      </trkpt>
      <trkpt lat="42.31543" lon="2.58857">
        <ele>448.147</ele>
        <time>2014-02-15T19:24:07Z</time>
      </trkpt>
      <trkpt lat="42.31533" lon="2.58847">
        <ele>447.292</ele>
        <time>2014-02-15T19:24:18Z</time>
      </trkpt>
      <trkpt lat="42.31518" lon="2.58823">
        <ele>446.251</ele>
        <time>2014-02-15T19:24:36Z</time>
      </trkpt>
      <trkpt lat="42.31494" lon="2.58817">
        <ele>446.748</ele>
        <time>2014-02-15T19:24:50Z</time>
      </trkpt>
      <trkpt lat="42.31472" lon="2.58823">
        <ele>446.22</ele>
        <time>2014-02-15T19:24:56Z</time>
      </trkpt>
      <trkpt lat="42.31463" lon="2.58815">
        <ele>444.365</ele>
        <time>2014-02-15T19:25:09Z</time>
      </trkpt>
      <trkpt lat="42.31462" lon="2.58815">
        <ele>443.368</ele>
        <time>2014-02-15T19:25:11Z</time>
      </trkpt>
      <trkpt lat="42.3146" lon="2.58816">
        <ele>442.314</ele>
        <time>2014-02-15T19:25:13Z</time>
      </trkpt>
      <trkpt lat="42.31456" lon="2.58821">
        <ele>442.807</ele>
        <time>2014-02-15T19:25:24Z</time>
      </trkpt>
      <trkpt lat="42.3145" lon="2.58829">
        <ele>442.812</ele>
        <time>2014-02-15T19:25:32Z</time>
      </trkpt>
      <trkpt lat="42.31449" lon="2.58834">
        <ele>443.837</ele>
        <time>2014-02-15T19:25:37Z</time>
      </trkpt>
      <trkpt lat="42.31448" lon="2.58845">
        <ele>445.29</ele>
        <time>2014-02-15T19:25:50Z</time>
      </trkpt>
      <trkpt lat="42.31447" lon="2.58852">
        <ele>445.785</ele>
        <time>2014-02-15T19:25:55Z</time>
      </trkpt>
      <trkpt lat="42.31447" lon="2.58873">
        <ele>444.324</ele>
        <time>2014-02-15T19:26:07Z</time>
      </trkpt>
      <trkpt lat="42.31446" lon="2.58877">
        <ele>444.861</ele>
        <time>2014-02-15T19:26:09Z</time>
      </trkpt>
      <trkpt lat="42.31445" lon="2.58889">
        <ele>443.853</ele>
        <time>2014-02-15T19:26:15Z</time>
      </trkpt>
      <trkpt lat="42.31437" lon="2.58915">
        <ele>441.913</ele>
        <time>2014-02-15T19:26:30Z</time>
      </trkpt>
      <trkpt lat="42.31429" lon="2.58937">
        <ele>442.843</ele>
        <time>2014-02-15T19:26:43Z</time>
      </trkpt>
      <trkpt lat="42.31426" lon="2.58947">
        <ele>444.807</ele>
        <time>2014-02-15T19:26:51Z</time>
      </trkpt>
      <trkpt lat="42.31421" lon="2.58965">
        <ele>446.207</ele>
        <time>2014-02-15T19:27:06Z</time>
      </trkpt>
      <trkpt lat="42.3141" lon="2.58988">
        <ele>447.287</ele>
        <time>2014-02-15T19:27:20Z</time>
      </trkpt>
      <trkpt lat="42.31405" lon="2.59">
        <ele>448.662</ele>
        <time>2014-02-15T19:27:32Z</time>
      </trkpt>
      <trkpt lat="42.31395" lon="2.59014">
        <ele>446.715</ele>
        <time>2014-02-15T19:27:47Z</time>
      </trkpt>
      <trkpt lat="42.31378" lon="2.59028">
        <ele>444.84</ele>
        <time>2014-02-15T19:28:02Z</time>
      </trkpt>
      <trkpt lat="42.31369" lon="2.59027">
        <ele>442.839</ele>
        <time>2014-02-15T19:28:09Z</time>
      </trkpt>
      <trkpt lat="42.31346" lon="2.59038">
        <ele>440.946</ele>
        <time>2014-02-15T19:28:19Z</time>
      </trkpt>
      <trkpt lat="42.31341" lon="2.59046">
        <ele>439.018</ele>
        <time>2014-02-15T19:28:28Z</time>
      </trkpt>
      <trkpt lat="42.31336" lon="2.59044">
        <ele>435.621</ele>
        <time>2014-02-15T19:28:40Z</time>
      </trkpt>
      <trkpt lat="42.3133" lon="2.59036">
        <ele>432.741</ele>
        <time>2014-02-15T19:28:52Z</time>
      </trkpt>
      <trkpt lat="42.31325" lon="2.59031">
        <ele>431.305</ele>
        <time>2014-02-15T19:28:58Z</time>
      </trkpt>
      <trkpt lat="42.31322" lon="2.59029">
        <ele>430.807</ele>
        <time>2014-02-15T19:29:01Z</time>
      </trkpt>
      <trkpt lat="42.31313" lon="2.59013">
        <ele>427.938</ele>
        <time>2014-02-15T19:29:15Z</time>
      </trkpt>
      <trkpt lat="42.3131" lon="2.59013">
        <ele>427.953</ele>
        <time>2014-02-15T19:29:29Z</time>
      </trkpt>
      <trkpt lat="42.31303" lon="2.59008">
        <ele>427.076</ele>
        <time>2014-02-15T19:29:45Z</time>
      </trkpt>
      <trkpt lat="42.31299" lon="2.58995">
        <ele>424.111</ele>
        <time>2014-02-15T19:29:58Z</time>
      </trkpt>
      <trkpt lat="42.31296" lon="2.58977">
        <ele>422.24</ele>
        <time>2014-02-15T19:30:10Z</time>
      </trkpt>
      <trkpt lat="42.31285" lon="2.58951">
        <ele>420.757</ele>
        <time>2014-02-15T19:30:26Z</time>
      </trkpt>
      <trkpt lat="42.3127" lon="2.58934">
        <ele>421.289</ele>
        <time>2014-02-15T19:30:40Z</time>
      </trkpt>
      <trkpt lat="42.31256" lon="2.58915">
        <ele>419.893</ele>
        <time>2014-02-15T19:30:53Z</time>
      </trkpt>
      <trkpt lat="42.31244" lon="2.589">
        <ele>418.365</ele>
        <time>2014-02-15T19:31:06Z</time>
      </trkpt>
      <trkpt lat="42.3123" lon="2.58894">
        <ele>417.821</ele>
        <time>2014-02-15T19:31:18Z</time>
      </trkpt>
      <trkpt lat="42.31211" lon="2.58895">
        <ele>416.907</ele>
        <time>2014-02-15T19:31:33Z</time>
      </trkpt>
      <trkpt lat="42.31208" lon="2.58891">
        <ele>416.415</ele>
        <time>2014-02-15T19:31:46Z</time>
      </trkpt>
      <trkpt lat="42.31204" lon="2.58894">
        <ele>416.48</ele>
        <time>2014-02-15T19:32:01Z</time>
      </trkpt>
      <trkpt lat="42.31197" lon="2.58893">
        <ele>416.483</ele>
        <time>2014-02-15T19:32:17Z</time>
      </trkpt>
      <trkpt lat="42.3119" lon="2.58886">
        <ele>416.438</ele>
        <time>2014-02-15T19:32:31Z</time>
      </trkpt>
      <trkpt lat="42.31186" lon="2.58881">
        <ele>418.357</ele>
        <time>2014-02-15T19:32:44Z</time>
      </trkpt>
      <trkpt lat="42.31177" lon="2.58885">
        <ele>418.854</ele>
        <time>2014-02-15T19:32:58Z</time>
      </trkpt>
      <trkpt lat="42.31157" lon="2.58892">
        <ele>416.936</ele>
        <time>2014-02-15T19:33:11Z</time>
      </trkpt>
      <trkpt lat="42.31152" lon="2.58897">
        <ele>416.461</ele>
        <time>2014-02-15T19:33:16Z</time>
      </trkpt>
      <trkpt lat="42.31134" lon="2.58902">
        <ele>414.521</ele>
        <time>2014-02-15T19:33:29Z</time>
      </trkpt>
      <trkpt lat="42.31115" lon="2.58898">
        <ele>412.513</ele>
        <time>2014-02-15T19:33:43Z</time>
      </trkpt>
      <trkpt lat="42.31098" lon="2.58895">
        <ele>411.107</ele>
        <time>2014-02-15T19:33:56Z</time>
      </trkpt>
      <trkpt lat="42.31086" lon="2.58886">
        <ele>410.632</ele>
        <time>2014-02-15T19:34:09Z</time>
      </trkpt>
      <trkpt lat="42.31081" lon="2.58882">
        <ele>410.157</ele>
        <time>2014-02-15T19:34:14Z</time>
      </trkpt>
      <trkpt lat="42.31078" lon="2.58879">
        <ele>410.18</ele>
        <time>2014-02-15T19:34:17Z</time>
      </trkpt>
      <trkpt lat="42.31075" lon="2.58874">
        <ele>409.735</ele>
        <time>2014-02-15T19:34:21Z</time>
      </trkpt>
      <trkpt lat="42.3107" lon="2.58874">
        <ele>410.124</ele>
        <time>2014-02-15T19:34:30Z</time>
      </trkpt>
      <trkpt lat="42.31054" lon="2.58882">
        <ele>410.621</ele>
        <time>2014-02-15T19:34:45Z</time>
      </trkpt>
      <trkpt lat="42.31048" lon="2.58881">
        <ele>410.683</ele>
        <time>2014-02-15T19:34:56Z</time>
      </trkpt>
      <trkpt lat="42.31043" lon="2.58883">
        <ele>414.029</ele>
        <time>2014-02-15T19:35:07Z</time>
      </trkpt>
      <trkpt lat="42.31039" lon="2.58887">
        <ele>415.9</ele>
        <time>2014-02-15T19:35:19Z</time>
      </trkpt>
      <trkpt lat="42.31035" lon="2.58893">
        <ele>415.02</ele>
        <time>2014-02-15T19:35:32Z</time>
      </trkpt>
      <trkpt lat="42.31024" lon="2.58895">
        <ele>412.107</ele>
        <time>2014-02-15T19:35:46Z</time>
      </trkpt>
      <trkpt lat="42.31016" lon="2.58894">
        <ele>410.698</ele>
        <time>2014-02-15T19:35:57Z</time>
      </trkpt>
      <trkpt lat="42.31" lon="2.58905">
        <ele>412.193</ele>
        <time>2014-02-15T19:36:12Z</time>
      </trkpt>
      <trkpt lat="42.30992" lon="2.58907">
        <ele>413.556</ele>
        <time>2014-02-15T19:36:25Z</time>
      </trkpt>
      <trkpt lat="42.30988" lon="2.58902">
        <ele>416.491</ele>
        <time>2014-02-15T19:36:36Z</time>
      </trkpt>
      <trkpt lat="42.3098" lon="2.58898">
        <ele>418.85</ele>
        <time>2014-02-15T19:36:52Z</time>
      </trkpt>
      <trkpt lat="42.30957" lon="2.58893">
        <ele>420.717</ele>
        <time>2014-02-15T19:37:09Z</time>
      </trkpt>
      <trkpt lat="42.30934" lon="2.58896">
        <ele>417.889</ele>
        <time>2014-02-15T19:37:20Z</time>
      </trkpt>
      <trkpt lat="42.3093" lon="2.58896">
        <ele>416.918</ele>
        <time>2014-02-15T19:37:22Z</time>
      </trkpt>
      <trkpt lat="42.30915" lon="2.58894">
        <ele>414.098</ele>
        <time>2014-02-15T19:37:34Z</time>
      </trkpt>
      <trkpt lat="42.309" lon="2.58901">
        <ele>411.117</ele>
        <time>2014-02-15T19:37:47Z</time>
      </trkpt>
      <trkpt lat="42.30887" lon="2.58914">
        <ele>412.507</ele>
        <time>2014-02-15T19:38:00Z</time>
      </trkpt>
      <trkpt lat="42.30875" lon="2.58922">
        <ele>415.087</ele>
        <time>2014-02-15T19:38:11Z</time>
      </trkpt>
      <trkpt lat="42.30866" lon="2.58938">
        <ele>415.412</ele>
        <time>2014-02-15T19:38:25Z</time>
      </trkpt>
      <trkpt lat="42.30858" lon="2.58952">
        <ele>415.025</ele>
        <time>2014-02-15T19:38:37Z</time>
      </trkpt>
      <trkpt lat="42.30855" lon="2.58955">
        <ele>415.04</ele>
        <time>2014-02-15T19:38:39Z</time>
      </trkpt>
      <trkpt lat="42.30844" lon="2.58967">
        <ele>416.989</ele>
        <time>2014-02-15T19:38:54Z</time>
      </trkpt>
      <trkpt lat="42.30831" lon="2.58971">
        <ele>418.376</ele>
        <time>2014-02-15T19:39:09Z</time>
      </trkpt>
      <trkpt lat="42.30825" lon="2.58969">
        <ele>417.458</ele>
        <time>2014-02-15T19:39:16Z</time>
      </trkpt>
      <trkpt lat="42.3081" lon="2.58968">
        <ele>415.455</ele>
        <time>2014-02-15T19:39:32Z</time>
      </trkpt>
      <trkpt lat="42.30804" lon="2.58966">
        <ele>415.907</ele>
        <time>2014-02-15T19:39:41Z</time>
      </trkpt>
      <trkpt lat="42.30792" lon="2.58965">
        <ele>415.017</ele>
        <time>2014-02-15T19:39:57Z</time>
      </trkpt>
      <trkpt lat="42.30776" lon="2.58963">
        <ele>414.007</ele>
        <time>2014-02-15T19:40:10Z</time>
      </trkpt>
      <trkpt lat="42.30753" lon="2.58974">
        <ele>412.121</ele>
        <time>2014-02-15T19:40:26Z</time>
      </trkpt>
      <trkpt lat="42.30737" lon="2.58978">
        <ele>413.596</ele>
        <time>2014-02-15T19:40:40Z</time>
      </trkpt>
      <trkpt lat="42.30719" lon="2.58985">
        <ele>416.499</ele>
        <time>2014-02-15T19:40:56Z</time>
      </trkpt>
      <trkpt lat="42.30705" lon="2.58986">
        <ele>419.324</ele>
        <time>2014-02-15T19:41:09Z</time>
      </trkpt>
      <trkpt lat="42.30689" lon="2.58986">
        <ele>416.973</ele>
        <time>2014-02-15T19:41:24Z</time>
      </trkpt>
      <trkpt lat="42.30676" lon="2.58991">
        <ele>415.07</ele>
        <time>2014-02-15T19:41:38Z</time>
      </trkpt>
      <trkpt lat="42.30643" lon="2.59">
        <ele>411.652</ele>
        <time>2014-02-15T19:41:52Z</time>
      </trkpt>
      <trkpt lat="42.30638" lon="2.59004">
        <ele>410.647</ele>
        <time>2014-02-15T19:41:57Z</time>
      </trkpt>
      <trkpt lat="42.30633" lon="2.59008">
        <ele>407.329</ele>
        <time>2014-02-15T19:42:08Z</time>
      </trkpt>
      <trkpt lat="42.30629" lon="2.59006">
        <ele>406.321</ele>
        <time>2014-02-15T19:42:16Z</time>
      </trkpt>
      <trkpt lat="42.30603" lon="2.59002">
        <ele>408.207</ele>
        <time>2014-02-15T19:42:28Z</time>
      </trkpt>
      <trkpt lat="42.3059" lon="2.59004">
        <ele>405.89</ele>
        <time>2014-02-15T19:42:40Z</time>
      </trkpt>
      <trkpt lat="42.30578" lon="2.59004">
        <ele>402.555</ele>
        <time>2014-02-15T19:42:50Z</time>
      </trkpt>
      <trkpt lat="42.30571" lon="2.59003">
        <ele>400.168</ele>
        <time>2014-02-15T19:42:59Z</time>
      </trkpt>
      <trkpt lat="42.30553" lon="2.58995">
        <ele>401.053</ele>
        <time>2014-02-15T19:43:17Z</time>
      </trkpt>
      <trkpt lat="42.30544" lon="2.58993">
        <ele>400.582</ele>
        <time>2014-02-15T19:43:33Z</time>
      </trkpt>
      <trkpt lat="42.30541" lon="2.58992">
        <ele>400.599</ele>
        <time>2014-02-15T19:43:37Z</time>
      </trkpt>
      <trkpt lat="42.30529" lon="2.58986">
        <ele>402.071</ele>
        <time>2014-02-15T19:43:52Z</time>
      </trkpt>
      <trkpt lat="42.30513" lon="2.58989">
        <ele>401.099</ele>
        <time>2014-02-15T19:44:05Z</time>
      </trkpt>
      <trkpt lat="42.30506" lon="2.58982">
        <ele>397.607</ele>
        <time>2014-02-15T19:44:15Z</time>
      </trkpt>
      <trkpt lat="42.30498" lon="2.58979">
        <ele>394.327</ele>
        <time>2014-02-15T19:44:22Z</time>
      </trkpt>
      <trkpt lat="42.3048" lon="2.58974">
        <ele>391.407</ele>
        <time>2014-02-15T19:44:35Z</time>
      </trkpt>
      <trkpt lat="42.3047" lon="2.58961">
        <ele>393.335</ele>
        <time>2014-02-15T19:44:50Z</time>
      </trkpt>
      <trkpt lat="42.30467" lon="2.58962">
        <ele>391.91</ele>
        <time>2014-02-15T19:45:06Z</time>
      </trkpt>
      <trkpt lat="42.30465" lon="2.58956">
        <ele>389.573</ele>
        <time>2014-02-15T19:45:24Z</time>
      </trkpt>
      <trkpt lat="42.30454" lon="2.58949">
        <ele>390.428</ele>
        <time>2014-02-15T19:45:38Z</time>
      </trkpt>
      <trkpt lat="42.30443" lon="2.58942">
        <ele>392.877</ele>
        <time>2014-02-15T19:45:52Z</time>
      </trkpt>
      <trkpt lat="42.30431" lon="2.58933">
        <ele>392.494</ele>
        <time>2014-02-15T19:46:03Z</time>
      </trkpt>
      <trkpt lat="42.30418" lon="2.5892">
        <ele>389.526</ele>
        <time>2014-02-15T19:46:15Z</time>
      </trkpt>
      <trkpt lat="42.30388" lon="2.58912">
        <ele>390.939</ele>
        <time>2014-02-15T19:46:28Z</time>
      </trkpt>
      <trkpt lat="42.3036" lon="2.58899">
        <ele>391.901</ele>
        <time>2014-02-15T19:46:45Z</time>
      </trkpt>
      <trkpt lat="42.30331" lon="2.58892">
        <ele>392.421</ele>
        <time>2014-02-15T19:46:59Z</time>
      </trkpt>
      <trkpt lat="42.303" lon="2.58897">
        <ele>391.907</ele>
        <time>2014-02-15T19:47:09Z</time>
      </trkpt>
      <trkpt lat="42.30297" lon="2.58898">
        <ele>391.969</ele>
        <time>2014-02-15T19:47:12Z</time>
      </trkpt>
      <trkpt lat="42.30294" lon="2.58899">
        <ele>391.944</ele>
        <time>2014-02-15T19:47:13Z</time>
      </trkpt>
      <trkpt lat="42.30284" lon="2.58907">
        <ele>392.857</ele>
        <time>2014-02-15T19:47:21Z</time>
      </trkpt>
      <trkpt lat="42.30274" lon="2.58917">
        <ele>389.552</ele>
        <time>2014-02-15T19:47:29Z</time>
      </trkpt>
      <trkpt lat="42.30264" lon="2.58929">
        <ele>388.561</ele>
        <time>2014-02-15T19:47:39Z</time>
      </trkpt>
      <trkpt lat="42.30263" lon="2.5893">
        <ele>388.048</ele>
        <time>2014-02-15T19:47:40Z</time>
      </trkpt>
      <trkpt lat="42.30258" lon="2.58938">
        <ele>386.69</ele>
        <time>2014-02-15T19:47:52Z</time>
      </trkpt>
      <trkpt lat="42.30255" lon="2.58938">
        <ele>386.176</ele>
        <time>2014-02-15T19:48:06Z</time>
      </trkpt>
      <trkpt lat="42.30249" lon="2.58933">
        <ele>384.29</ele>
        <time>2014-02-15T19:48:17Z</time>
      </trkpt>
      <trkpt lat="42.30236" lon="2.58927">
        <ele>383.719</ele>
        <time>2014-02-15T19:48:31Z</time>
      </trkpt>
      <trkpt lat="42.30214" lon="2.58926">
        <ele>382.707</ele>
        <time>2014-02-15T19:48:40Z</time>
      </trkpt>
      <trkpt lat="42.30185" lon="2.58927">
        <ele>380.343</ele>
        <time>2014-02-15T19:48:51Z</time>
      </trkpt>
      <trkpt lat="42.30185" lon="2.58924">
        <ele>379.998</ele>
        <time>2014-02-15T19:49:05Z</time>
      </trkpt>
      <trkpt lat="42.30178" lon="2.58917">
        <ele>378.951</ele>
        <time>2014-02-15T19:49:16Z</time>
      </trkpt>
      <trkpt lat="42.30142" lon="2.58919">
        <ele>378.996</ele>
        <time>2014-02-15T19:49:35Z</time>
      </trkpt>
      <trkpt lat="42.30137" lon="2.58915">
        <ele>377.915</ele>
        <time>2014-02-15T19:49:48Z</time>
      </trkpt>
      <trkpt lat="42.30135" lon="2.58911">
        <ele>378.482</ele>
        <time>2014-02-15T19:50:03Z</time>
      </trkpt>
      <trkpt lat="42.3013" lon="2.58905">
        <ele>377.554</ele>
        <time>2014-02-15T19:50:17Z</time>
      </trkpt>
      <trkpt lat="42.30127" lon="2.58901">
        <ele>377.049</ele>
        <time>2014-02-15T19:50:29Z</time>
      </trkpt>
      <trkpt lat="42.30121" lon="2.58907">
        <ele>376.502</ele>
        <time>2014-02-15T19:50:41Z</time>
      </trkpt>
      <trkpt lat="42.30119" lon="2.58908">
        <ele>376.522</ele>
        <time>2014-02-15T19:50:42Z</time>
      </trkpt>
      <trkpt lat="42.30102" lon="2.58915">
        <ele>376.507</ele>
        <time>2014-02-15T19:50:56Z</time>
      </trkpt>
      <trkpt lat="42.30092" lon="2.58921">
        <ele>375.59</ele>
        <time>2014-02-15T19:51:07Z</time>
      </trkpt>
      <trkpt lat="42.30077" lon="2.58927">
        <ele>375.545</ele>
        <time>2014-02-15T19:51:23Z</time>
      </trkpt>
      <trkpt lat="42.30064" lon="2.58928">
        <ele>374.698</ele>
        <time>2014-02-15T19:51:35Z</time>
      </trkpt>
      <trkpt lat="42.30051" lon="2.5893">
        <ele>374.623</ele>
        <time>2014-02-15T19:51:49Z</time>
      </trkpt>
      <trkpt lat="42.30019" lon="2.5893">
        <ele>375.152</ele>
        <time>2014-02-15T19:52:01Z</time>
      </trkpt>
      <trkpt lat="42.30002" lon="2.58933">
        <ele>374.619</ele>
        <time>2014-02-15T19:52:14Z</time>
      </trkpt>
      <trkpt lat="42.29993" lon="2.58932">
        <ele>374.681</ele>
        <time>2014-02-15T19:52:23Z</time>
      </trkpt>
      <trkpt lat="42.29976" lon="2.5893">
        <ele>374.183</ele>
        <time>2014-02-15T19:52:35Z</time>
      </trkpt>
      <trkpt lat="42.29946" lon="2.58908">
        <ele>373.125</ele>
        <time>2014-02-15T19:52:52Z</time>
      </trkpt>
      <trkpt lat="42.29926" lon="2.5889">
        <ele>373.117</ele>
        <time>2014-02-15T19:53:08Z</time>
      </trkpt>
      <trkpt lat="42.29906" lon="2.58873">
        <ele>373.107</ele>
        <time>2014-02-15T19:53:22Z</time>
      </trkpt>
      <trkpt lat="42.29893" lon="2.58864">
        <ele>372.744</ele>
        <time>2014-02-15T19:53:34Z</time>
      </trkpt>
      <trkpt lat="42.29877" lon="2.5886">
        <ele>371.739</ele>
        <time>2014-02-15T19:53:48Z</time>
      </trkpt>
      <trkpt lat="42.2987" lon="2.58858">
        <ele>371.722</ele>
        <time>2014-02-15T19:53:54Z</time>
      </trkpt>
      <trkpt lat="42.29861" lon="2.58864">
        <ele>373.177</ele>
        <time>2014-02-15T19:54:07Z</time>
      </trkpt>
      <trkpt lat="42.29854" lon="2.58865">
        <ele>375.586</ele>
        <time>2014-02-15T19:54:21Z</time>
      </trkpt>
      <trkpt lat="42.29854" lon="2.58867">
        <ele>376.063</ele>
        <time>2014-02-15T19:54:24Z</time>
      </trkpt>
      <trkpt lat="42.29846" lon="2.58879">
        <ele>375.515</ele>
        <time>2014-02-15T19:54:40Z</time>
      </trkpt>
      <trkpt lat="42.29829" lon="2.58887">
        <ele>375.147</ele>
        <time>2014-02-15T19:54:57Z</time>
      </trkpt>
      <trkpt lat="42.29805" lon="2.58883">
        <ele>375.129</ele>
        <time>2014-02-15T19:55:07Z</time>
      </trkpt>
      <trkpt lat="42.29805" lon="2.58886">
        <ele>375.521</ele>
        <time>2014-02-15T19:55:08Z</time>
      </trkpt>
      <trkpt lat="42.29801" lon="2.58906">
        <ele>374.607</ele>
        <time>2014-02-15T19:55:22Z</time>
      </trkpt>
      <trkpt lat="42.29763" lon="2.58918">
        <ele>371.72</ele>
        <time>2014-02-15T19:55:39Z</time>
      </trkpt>
      <trkpt lat="42.29756" lon="2.58945">
        <ele>370.215</ele>
        <time>2014-02-15T19:55:52Z</time>
      </trkpt>
      <trkpt lat="42.29749" lon="2.58958">
        <ele>369.348</ele>
        <time>2014-02-15T19:56:00Z</time>
      </trkpt>
      <trkpt lat="42.29735" lon="2.58976">
        <ele>368.883</ele>
        <time>2014-02-15T19:56:16Z</time>
      </trkpt>
      <trkpt lat="42.29732" lon="2.58979">
        <ele>368.372</ele>
        <time>2014-02-15T19:56:19Z</time>
      </trkpt>
      <trkpt lat="42.29715" lon="2.58987">
        <ele>367.829</ele>
        <time>2014-02-15T19:56:32Z</time>
      </trkpt>
      <trkpt lat="42.29693" lon="2.58986">
        <ele>366.971</ele>
        <time>2014-02-15T19:56:46Z</time>
      </trkpt>
      <trkpt lat="42.29676" lon="2.58992">
        <ele>365.992</ele>
        <time>2014-02-15T19:56:59Z</time>
      </trkpt>
      <trkpt lat="42.2967" lon="2.58993">
        <ele>366.473</ele>
        <time>2014-02-15T19:57:03Z</time>
      </trkpt>
      <trkpt lat="42.29657" lon="2.58988">
        <ele>365.92</ele>
        <time>2014-02-15T19:57:10Z</time>
      </trkpt>
      <trkpt lat="42.2963" lon="2.58975">
        <ele>367.407</ele>
        <time>2014-02-15T19:57:23Z</time>
      </trkpt>
      <trkpt lat="42.29611" lon="2.58953">
        <ele>366.445</ele>
        <time>2014-02-15T19:57:37Z</time>
      </trkpt>
      <trkpt lat="42.29595" lon="2.58931">
        <ele>366.49</ele>
        <time>2014-02-15T19:57:50Z</time>
      </trkpt>
      <trkpt lat="42.29572" lon="2.58901">
        <ele>365.993</ele>
        <time>2014-02-15T19:58:05Z</time>
      </trkpt>
      <trkpt lat="42.29555" lon="2.58875">
        <ele>365.438</ele>
        <time>2014-02-15T19:58:22Z</time>
      </trkpt>
      <trkpt lat="42.29545" lon="2.58868">
        <ele>365.457</ele>
        <time>2014-02-15T19:58:36Z</time>
      </trkpt>
      <trkpt lat="42.2953" lon="2.58849">
        <ele>365.984</ele>
        <time>2014-02-15T19:58:52Z</time>
      </trkpt>
      <trkpt lat="42.29528" lon="2.58848">
        <ele>365.926</ele>
        <time>2014-02-15T19:58:53Z</time>
      </trkpt>
      <trkpt lat="42.29523" lon="2.58842">
        <ele>364.513</ele>
        <time>2014-02-15T19:59:09Z</time>
      </trkpt>
      <trkpt lat="42.29525" lon="2.58847">
        <ele>363.043</ele>
        <time>2014-02-15T19:59:16Z</time>
      </trkpt>
      <trkpt lat="42.29526" lon="2.5887">
        <ele>360.207</ele>
        <time>2014-02-15T19:59:37Z</time>
      </trkpt>
      <trkpt lat="42.29521" lon="2.58878">
        <ele>359.207</ele>
        <time>2014-02-15T19:59:45Z</time>
      </trkpt>
      <trkpt lat="42.29517" lon="2.58885">
        <ele>358.717</ele>
        <time>2014-02-15T19:59:51Z</time>
      </trkpt>
      <trkpt lat="42.29491" lon="2.58901">
        <ele>358.232</ele>
        <time>2014-02-15T20:00:05Z</time>
      </trkpt>
      <trkpt lat="42.29477" lon="2.58911">
        <ele>357.895</ele>
        <time>2014-02-15T20:00:11Z</time>
      </trkpt>
      <trkpt lat="42.29463" lon="2.58915">
        <ele>357.82</ele>
        <time>2014-02-15T20:00:16Z</time>
      </trkpt>
      <trkpt lat="42.29444" lon="2.58932">
        <ele>356.859</ele>
        <time>2014-02-15T20:00:28Z</time>
      </trkpt>
      <trkpt lat="42.29422" lon="2.58949">
        <ele>355.376</ele>
        <time>2014-02-15T20:00:43Z</time>
      </trkpt>
      <trkpt lat="42.29394" lon="2.58951">
        <ele>353.998</ele>
        <time>2014-02-15T20:01:00Z</time>
      </trkpt>
      <trkpt lat="42.29381" lon="2.5894">
        <ele>353.417</ele>
        <time>2014-02-15T20:01:15Z</time>
      </trkpt>
      <trkpt lat="42.29379" lon="2.58938">
        <ele>352.987</ele>
        <time>2014-02-15T20:01:18Z</time>
      </trkpt>
      <trkpt lat="42.29345" lon="2.58909">
        <ele>352.015</ele>
        <time>2014-02-15T20:01:32Z</time>
      </trkpt>
      <trkpt lat="42.29326" lon="2.58884">
        <ele>352.907</ele>
        <time>2014-02-15T20:01:45Z</time>
      </trkpt>
      <trkpt lat="42.29312" lon="2.58861">
        <ele>354.957</ele>
        <time>2014-02-15T20:01:59Z</time>
      </trkpt>
      <trkpt lat="42.29311" lon="2.5886">
        <ele>354.942</ele>
        <time>2014-02-15T20:02:00Z</time>
      </trkpt>
      <trkpt lat="42.29304" lon="2.58849">
        <ele>356.875</ele>
        <time>2014-02-15T20:02:11Z</time>
      </trkpt>
      <trkpt lat="42.29298" lon="2.5884">
        <ele>357.39</ele>
        <time>2014-02-15T20:02:19Z</time>
      </trkpt>
      <trkpt lat="42.29293" lon="2.58838">
        <ele>356.879</ele>
        <time>2014-02-15T20:02:23Z</time>
      </trkpt>
      <trkpt lat="42.29285" lon="2.58841">
        <ele>353.456</ele>
        <time>2014-02-15T20:02:32Z</time>
      </trkpt>
      <trkpt lat="42.2927" lon="2.58841">
        <ele>350.558</ele>
        <time>2014-02-15T20:02:42Z</time>
      </trkpt>
      <trkpt lat="42.29256" lon="2.58844">
        <ele>348.648</ele>
        <time>2014-02-15T20:02:57Z</time>
      </trkpt>
      <trkpt lat="42.29255" lon="2.58846">
        <ele>349.161</ele>
        <time>2014-02-15T20:03:00Z</time>
      </trkpt>
      <trkpt lat="42.29255" lon="2.58868">
        <ele>348.117</ele>
        <time>2014-02-15T20:03:17Z</time>
      </trkpt>
      <trkpt lat="42.29251" lon="2.58873">
        <ele>349.107</ele>
        <time>2014-02-15T20:03:23Z</time>
      </trkpt>
      <trkpt lat="42.29222" lon="2.58877">
        <ele>350.56</ele>
        <time>2014-02-15T20:03:38Z</time>
      </trkpt>
      <trkpt lat="42.29203" lon="2.58878">
        <ele>351.065</ele>
        <time>2014-02-15T20:03:52Z</time>
      </trkpt>
      <trkpt lat="42.29177" lon="2.58873">
        <ele>348.158</ele>
        <time>2014-02-15T20:04:08Z</time>
      </trkpt>
      <trkpt lat="42.29175" lon="2.58872">
        <ele>348.173</ele>
        <time>2014-02-15T20:04:09Z</time>
      </trkpt>
      <trkpt lat="42.29163" lon="2.58864">
        <ele>347.282</ele>
        <time>2014-02-15T20:04:15Z</time>
      </trkpt>
      <trkpt lat="42.2915" lon="2.58863">
        <ele>345.339</ele>
        <time>2014-02-15T20:04:23Z</time>
      </trkpt>
      <trkpt lat="42.29141" lon="2.58864">
        <ele>344.331</ele>
        <time>2014-02-15T20:04:39Z</time>
      </trkpt>
      <trkpt lat="42.29128" lon="2.58861">
        <ele>345.717</ele>
        <time>2014-02-15T20:04:51Z</time>
      </trkpt>
      <trkpt lat="42.29112" lon="2.58855">
        <ele>346.287</ele>
        <time>2014-02-15T20:04:58Z</time>
      </trkpt>
      <trkpt lat="42.29083" lon="2.5885">
        <ele>345.715</ele>
        <time>2014-02-15T20:05:09Z</time>
      </trkpt>
      <trkpt lat="42.29079" lon="2.58852">
        <ele>345.307</ele>
        <time>2014-02-15T20:05:12Z</time>
      </trkpt>
      <trkpt lat="42.29067" lon="2.5887">
        <ele>345.347</ele>
        <time>2014-02-15T20:05:28Z</time>
      </trkpt>
      <trkpt lat="42.29051" lon="2.58887">
        <ele>348.122</ele>
        <time>2014-02-15T20:05:44Z</time>
      </trkpt>
      <trkpt lat="42.29039" lon="2.58905">
        <ele>351.065</ele>
        <time>2014-02-15T20:05:58Z</time>
      </trkpt>
      <trkpt lat="42.29038" lon="2.58906">
        <ele>350.54</ele>
        <time>2014-02-15T20:05:59Z</time>
      </trkpt>
      <trkpt lat="42.29029" lon="2.58918">
        <ele>353.439</ele>
        <time>2014-02-15T20:06:12Z</time>
      </trkpt>
      <trkpt lat="42.29021" lon="2.58936">
        <ele>355.846</ele>
        <time>2014-02-15T20:06:26Z</time>
      </trkpt>
      <trkpt lat="42.29007" lon="2.58943">
        <ele>355.858</ele>
        <time>2014-02-15T20:06:37Z</time>
      </trkpt>
      <trkpt lat="42.28983" lon="2.58942">
        <ele>352.997</ele>
        <time>2014-02-15T20:06:51Z</time>
      </trkpt>
      <trkpt lat="42.28982" lon="2.58944">
        <ele>352.523</ele>
        <time>2014-02-15T20:06:52Z</time>
      </trkpt>
      <trkpt lat="42.28982" lon="2.58957">
        <ele>351.025</ele>
        <time>2014-02-15T20:07:08Z</time>
      </trkpt>
      <trkpt lat="42.28969" lon="2.58946">
        <ele>353.407</ele>
        <time>2014-02-15T20:07:22Z</time>
      </trkpt>
      <trkpt lat="42.28962" lon="2.58943">
        <ele>352.995</ele>
        <time>2014-02-15T20:07:24Z</time>
      </trkpt>
      <trkpt lat="42.28909" lon="2.58927">
        <ele>351.52</ele>
        <time>2014-02-15T20:07:42Z</time>
      </trkpt>
      <trkpt lat="42.289" lon="2.5893">
        <ele>350.583</ele>
        <time>2014-02-15T20:07:47Z</time>
      </trkpt>
      <trkpt lat="42.28886" lon="2.58949">
        <ele>349.168</ele>
        <time>2014-02-15T20:08:04Z</time>
      </trkpt>
      <trkpt lat="42.28884" lon="2.58951">
        <ele>349.137</ele>
        <time>2014-02-15T20:08:06Z</time>
      </trkpt>
      <trkpt lat="42.28871" lon="2.58959">
        <ele>348.614</ele>
        <time>2014-02-15T20:08:16Z</time>
      </trkpt>
      <trkpt lat="42.28856" lon="2.58973">
        <ele>349.156</ele>
        <time>2014-02-15T20:08:30Z</time>
      </trkpt>
      <trkpt lat="42.28845" lon="2.58992">
        <ele>350.539</ele>
        <time>2014-02-15T20:08:44Z</time>
      </trkpt>
      <trkpt lat="42.28827" lon="2.59012">
        <ele>352.901</ele>
        <time>2014-02-15T20:09:02Z</time>
      </trkpt>
      <trkpt lat="42.28814" lon="2.59018">
        <ele>355.321</ele>
        <time>2014-02-15T20:09:16Z</time>
      </trkpt>
      <trkpt lat="42.28797" lon="2.59024">
        <ele>356.807</ele>
        <time>2014-02-15T20:09:28Z</time>
      </trkpt>
      <trkpt lat="42.28781" lon="2.59039">
        <ele>357.859</ele>
        <time>2014-02-15T20:09:43Z</time>
      </trkpt>
      <trkpt lat="42.28543" lon="2.58977">
        <ele>358.744</ele>
        <time>2014-02-15T20:09:52Z</time>
      </trkpt>
      <trkpt lat="42.28533" lon="2.58999">
        <ele>360.617</ele>
        <time>2014-02-15T20:10:02Z</time>
      </trkpt>
      <trkpt lat="42.28533" lon="2.59">
        <ele>360.612</ele>
        <time>2014-02-15T20:10:03Z</time>
      </trkpt>
      <trkpt lat="42.28524" lon="2.59016">
        <ele>358.781</ele>
        <time>2014-02-15T20:10:15Z</time>
      </trkpt>
      <trkpt lat="42.28526" lon="2.59028">
        <ele>356.848</ele>
        <time>2014-02-15T20:10:27Z</time>
      </trkpt>
      <trkpt lat="42.28536" lon="2.5904">
        <ele>355.36</ele>
        <time>2014-02-15T20:10:36Z</time>
      </trkpt>
      <trkpt lat="42.28538" lon="2.59042">
        <ele>355.336</ele>
        <time>2014-02-15T20:10:37Z</time>
      </trkpt>
      <trkpt lat="42.28547" lon="2.5905">
        <ele>352.917</ele>
        <time>2014-02-15T20:10:51Z</time>
      </trkpt>
      <trkpt lat="42.28546" lon="2.59049">
        <ele>352.518</ele>
        <time>2014-02-15T20:10:58Z</time>
      </trkpt>
      <trkpt lat="42.28543" lon="2.59047">
        <ele>352.507</ele>
        <time>2014-02-15T20:11:01Z</time>
      </trkpt>
      <trkpt lat="42.2853" lon="2.59035">
        <ele>350.169</ele>
        <time>2014-02-15T20:11:12Z</time>
      </trkpt>
      <trkpt lat="42.28513" lon="2.59025">
        <ele>347.264</ele>
        <time>2014-02-15T20:11:25Z</time>
      </trkpt>
      <trkpt lat="42.28502" lon="2.59026">
        <ele>345.337</ele>
        <time>2014-02-15T20:11:38Z</time>
      </trkpt>
      <trkpt lat="42.28492" lon="2.59024">
        <ele>343.812</ele>
        <time>2014-02-15T20:11:49Z</time>
      </trkpt>
      <trkpt lat="42.28492" lon="2.59032">
        <ele>342.931</ele>
        <time>2014-02-15T20:12:04Z</time>
      </trkpt>
      <trkpt lat="42.28472" lon="2.59018">
        <ele>342.978</ele>
        <time>2014-02-15T20:12:17Z</time>
      </trkpt>
      <trkpt lat="42.28404" lon="2.5899">
        <ele>340.46</ele>
        <time>2014-02-15T20:12:30Z</time>
      </trkpt>
      <trkpt lat="42.28401" lon="2.58988">
        <ele>340.458</ele>
        <time>2014-02-15T20:12:31Z</time>
      </trkpt>
      <trkpt lat="42.28316" lon="2.58941">
        <ele>338.052</ele>
        <time>2014-02-15T20:12:43Z</time>
      </trkpt>
      <trkpt lat="42.2831" lon="2.58939">
        <ele>338.017</ele>
        <time>2014-02-15T20:12:44Z</time>
      </trkpt>
      <trkpt lat="42.28275" lon="2.58948">
        <ele>335.207</ele>
        <time>2014-02-15T20:13:01Z</time>
      </trkpt>
      <trkpt lat="42.28267" lon="2.58961">
        <ele>333.791</ele>
        <time>2014-02-15T20:13:15Z</time>
      </trkpt>
      <trkpt lat="42.28233" lon="2.58963">
        <ele>332.376</ele>
        <time>2014-02-15T20:13:32Z</time>
      </trkpt>
      <trkpt lat="42.28215" lon="2.58964">
        <ele>331.899</ele>
        <time>2014-02-15T20:13:41Z</time>
      </trkpt>
      <trkpt lat="42.28211" lon="2.58964">
        <ele>331.854</ele>
        <time>2014-02-15T20:13:44Z</time>
      </trkpt>
      <trkpt lat="42.28206" lon="2.58966">
        <ele>331.323</ele>
        <time>2014-02-15T20:13:47Z</time>
      </trkpt>
      <trkpt lat="42.28197" lon="2.58967">
        <ele>330.81</ele>
        <time>2014-02-15T20:13:56Z</time>
      </trkpt>
      <trkpt lat="42.28193" lon="2.58967">
        <ele>330.442</ele>
        <time>2014-02-15T20:13:59Z</time>
      </trkpt>
      <trkpt lat="42.28165" lon="2.58973">
        <ele>328.962</ele>
        <time>2014-02-15T20:14:15Z</time>
      </trkpt>
      <trkpt lat="42.28155" lon="2.58984">
        <ele>326.583</ele>
        <time>2014-02-15T20:14:25Z</time>
      </trkpt>
      <trkpt lat="42.28145" lon="2.59">
        <ele>324.111</ele>
        <time>2014-02-15T20:14:37Z</time>
      </trkpt>
      <trkpt lat="42.28145" lon="2.59004">
        <ele>324.107</ele>
        <time>2014-02-15T20:14:39Z</time>
      </trkpt>
      <trkpt lat="42.28151" lon="2.59016">
        <ele>323.182</ele>
        <time>2014-02-15T20:14:50Z</time>
      </trkpt>
      <trkpt lat="42.28151" lon="2.59017">
        <ele>323.137</ele>
        <time>2014-02-15T20:14:55Z</time>
      </trkpt>
      <trkpt lat="42.28146" lon="2.59016">
        <ele>322.73</ele>
        <time>2014-02-15T20:15:01Z</time>
      </trkpt>
      <trkpt lat="42.28132" lon="2.58999">
        <ele>321.285</ele>
        <time>2014-02-15T20:15:16Z</time>
      </trkpt>
      <trkpt lat="42.2811" lon="2.58985">
        <ele>318.374</ele>
        <time>2014-02-15T20:15:31Z</time>
      </trkpt>
      <trkpt lat="42.28108" lon="2.58988">
        <ele>315.971</ele>
        <time>2014-02-15T20:15:46Z</time>
      </trkpt>
      <trkpt lat="42.28108" lon="2.58992">
        <ele>315.573</ele>
        <time>2014-02-15T20:15:52Z</time>
      </trkpt>
      <trkpt lat="42.28106" lon="2.59002">
        <ele>314.055</ele>
        <time>2014-02-15T20:16:01Z</time>
      </trkpt>
      <trkpt lat="42.28113" lon="2.59028">
        <ele>312.107</ele>
        <time>2014-02-15T20:16:18Z</time>
      </trkpt>
      <trkpt lat="42.28121" lon="2.59045">
        <ele>308.717</ele>
        <time>2014-02-15T20:16:27Z</time>
      </trkpt>
      <trkpt lat="42.28135" lon="2.59083">
        <ele>306.307</ele>
        <time>2014-02-15T20:16:43Z</time>
      </trkpt>
      <trkpt lat="42.28135" lon="2.59095">
        <ele>305.441</ele>
        <time>2014-02-15T20:16:51Z</time>
      </trkpt>
      <trkpt lat="42.28133" lon="2.59095">
        <ele>305.466</ele>
        <time>2014-02-15T20:16:57Z</time>
      </trkpt>
      <trkpt lat="42.28132" lon="2.59095">
        <ele>305.839</ele>
        <time>2014-02-15T20:16:59Z</time>
      </trkpt>
      <trkpt lat="42.28107" lon="2.59084">
        <ele>305.824</ele>
        <time>2014-02-15T20:17:14Z</time>
      </trkpt>
      <trkpt lat="42.28081" lon="2.59061">
        <ele>306.373</ele>
        <time>2014-02-15T20:17:28Z</time>
      </trkpt>
      <trkpt lat="42.28035" lon="2.59018">
        <ele>307.81</ele>
        <time>2014-02-15T20:17:43Z</time>
      </trkpt>
      <trkpt lat="42.27974" lon="2.58967">
        <ele>308.262</ele>
        <time>2014-02-15T20:17:59Z</time>
      </trkpt>
      <trkpt lat="42.27934" lon="2.58934">
        <ele>308.219</ele>
        <time>2014-02-15T20:18:06Z</time>
      </trkpt>
      <trkpt lat="42.2792" lon="2.58918">
        <ele>308.209</ele>
        <time>2014-02-15T20:18:11Z</time>
      </trkpt>
      <trkpt lat="42.27918" lon="2.58915">
        <ele>307.819</ele>
        <time>2014-02-15T20:18:12Z</time>
      </trkpt>
      <trkpt lat="42.27913" lon="2.58909">
        <ele>308.207</ele>
        <time>2014-02-15T20:18:14Z</time>
      </trkpt>
      <trkpt lat="42.27826" lon="2.58842">
        <ele>308.227</ele>
        <time>2014-02-15T20:18:25Z</time>
      </trkpt>
      <trkpt lat="42.2781" lon="2.58828">
        <ele>307.842</ele>
        <time>2014-02-15T20:18:38Z</time>
      </trkpt>
      <trkpt lat="42.27811" lon="2.58832">
        <ele>308.295</ele>
        <time>2014-02-15T20:18:42Z</time>
      </trkpt>
      <trkpt lat="42.27825" lon="2.58858">
        <ele>309.22</ele>
        <time>2014-02-15T20:18:59Z</time>
      </trkpt>
      <trkpt lat="42.2783" lon="2.58893">
        <ele>310.279</ele>
        <time>2014-02-15T20:19:19Z</time>
      </trkpt>
      <trkpt lat="42.2779" lon="2.58891">
        <ele>310.296</ele>
        <time>2014-02-15T20:19:33Z</time>
      </trkpt>
      <trkpt lat="42.27735" lon="2.58877">
        <ele>310.628</ele>
        <time>2014-02-15T20:19:49Z</time>
      </trkpt>
      <trkpt lat="42.27709" lon="2.58878">
        <ele>311.146</ele>
        <time>2014-02-15T20:20:04Z</time>
      </trkpt>
      <trkpt lat="42.277" lon="2.58876">
        <ele>312.188</ele>
        <time>2014-02-15T20:20:09Z</time>
      </trkpt>
      <trkpt lat="42.27662" lon="2.58865">
        <ele>309.716</ele>
        <time>2014-02-15T20:20:23Z</time>
      </trkpt>
      <trkpt lat="42.27642" lon="2.58865">
        <ele>306.807</ele>
        <time>2014-02-15T20:20:33Z</time>
      </trkpt>
      <trkpt lat="42.27628" lon="2.58868">
        <ele>304.99</ele>
        <time>2014-02-15T20:20:41Z</time>
      </trkpt>
      <trkpt lat="42.27602" lon="2.58871">
        <ele>302.555</ele>
        <time>2014-02-15T20:20:57Z</time>
      </trkpt>
      <trkpt lat="42.27594" lon="2.58879">
        <ele>302.038</ele>
        <time>2014-02-15T20:21:06Z</time>
      </trkpt>
      <trkpt lat="42.27602" lon="2.58916">
        <ele>301.593</ele>
        <time>2014-02-15T20:21:23Z</time>
      </trkpt>
      <trkpt lat="42.27631" lon="2.58962">
        <ele>299.612</ele>
        <time>2014-02-15T20:21:38Z</time>
      </trkpt>
      <trkpt lat="42.27654" lon="2.58996">
        <ele>298.299</ele>
        <time>2014-02-15T20:21:50Z</time>
      </trkpt>
      <trkpt lat="42.27669" lon="2.59033">
        <ele>295.771</ele>
        <time>2014-02-15T20:22:03Z</time>
      </trkpt>
      <trkpt lat="42.27668" lon="2.59037">
        <ele>295.316</ele>
        <time>2014-02-15T20:22:06Z</time>
      </trkpt>
      <trkpt lat="42.27682" lon="2.59072">
        <ele>294.376</ele>
        <time>2014-02-15T20:22:18Z</time>
      </trkpt>
      <trkpt lat="42.27664" lon="2.59077">
        <ele>293.313</ele>
        <time>2014-02-15T20:22:23Z</time>
      </trkpt>
      <trkpt lat="42.27616" lon="2.59064">
        <ele>292.407</ele>
        <time>2014-02-15T20:22:31Z</time>
      </trkpt>
      <trkpt lat="42.27469" lon="2.58984">
        <ele>290.527</ele>
        <time>2014-02-15T20:22:45Z</time>
      </trkpt>
      <trkpt lat="42.27462" lon="2.58985">
        <ele>290.962</ele>
        <time>2014-02-15T20:22:48Z</time>
      </trkpt>
      <trkpt lat="42.27458" lon="2.59019">
        <ele>290.965</ele>
        <time>2014-02-15T20:23:06Z</time>
      </trkpt>
      <trkpt lat="42.2746" lon="2.59031">
        <ele>291.49</ele>
        <time>2014-02-15T20:23:14Z</time>
      </trkpt>
      <trkpt lat="42.27444" lon="2.59036">
        <ele>291.489</ele>
        <time>2014-02-15T20:23:31Z</time>
      </trkpt>
      <trkpt lat="42.27427" lon="2.5904">
        <ele>290.516</ele>
        <time>2014-02-15T20:23:44Z</time>
      </trkpt>
      <trkpt lat="42.27416" lon="2.59047">
        <ele>290.038</ele>
        <time>2014-02-15T20:23:59Z</time>
      </trkpt>
      <trkpt lat="42.27406" lon="2.59042">
        <ele>290.032</ele>
        <time>2014-02-15T20:24:08Z</time>
      </trkpt>
      <trkpt lat="42.27361" lon="2.59031">
        <ele>290.992</ele>
        <time>2014-02-15T20:24:24Z</time>
      </trkpt>
      <trkpt lat="42.27355" lon="2.59033">
        <ele>290.911</ele>
        <time>2014-02-15T20:24:29Z</time>
      </trkpt>
      <trkpt lat="42.27349" lon="2.59037">
        <ele>290.907</ele>
        <time>2014-02-15T20:24:36Z</time>
      </trkpt>
      <trkpt lat="42.27335" lon="2.59043">
        <ele>290.599</ele>
        <time>2014-02-15T20:24:53Z</time>
      </trkpt>
      <trkpt lat="42.2732" lon="2.5904">
        <ele>290.024</ele>
        <time>2014-02-15T20:25:06Z</time>
      </trkpt>
      <trkpt lat="42.27309" lon="2.59039">
        <ele>289.547</ele>
        <time>2014-02-15T20:25:16Z</time>
      </trkpt>
      <trkpt lat="42.2727" lon="2.59023">
        <ele>291.992</ele>
        <time>2014-02-15T20:25:34Z</time>
      </trkpt>
      <trkpt lat="42.2726" lon="2.59018">
        <ele>291.951</ele>
        <time>2014-02-15T20:25:36Z</time>
      </trkpt>
      <trkpt lat="42.27205" lon="2.58994">
        <ele>293.858</ele>
        <time>2014-02-15T20:25:53Z</time>
      </trkpt>
      <trkpt lat="42.27182" lon="2.58991">
        <ele>296.73</ele>
        <time>2014-02-15T20:26:11Z</time>
      </trkpt>
      <trkpt lat="42.27177" lon="2.58997">
        <ele>294.363</ele>
        <time>2014-02-15T20:26:25Z</time>
      </trkpt>
      <trkpt lat="42.27173" lon="2.59">
        <ele>293.344</ele>
        <time>2014-02-15T20:26:29Z</time>
      </trkpt>
      <trkpt lat="42.27171" lon="2.58999">
        <ele>293.318</ele>
        <time>2014-02-15T20:26:30Z</time>
      </trkpt>
      <trkpt lat="42.27165" lon="2.58999">
        <ele>293.307</ele>
        <time>2014-02-15T20:26:32Z</time>
      </trkpt>
      <trkpt lat="42.27155" lon="2.58999">
        <ele>292.492</ele>
        <time>2014-02-15T20:26:38Z</time>
      </trkpt>
      <trkpt lat="42.27104" lon="2.5898">
        <ele>289.027</ele>
        <time>2014-02-15T20:26:55Z</time>
      </trkpt>
      <trkpt lat="42.27079" lon="2.58977">
        <ele>289.03</ele>
        <time>2014-02-15T20:27:08Z</time>
      </trkpt>
      <trkpt lat="42.2707" lon="2.58984">
        <ele>288.525</ele>
        <time>2014-02-15T20:27:18Z</time>
      </trkpt>
      <trkpt lat="42.27068" lon="2.58995">
        <ele>288.524</ele>
        <time>2014-02-15T20:27:23Z</time>
      </trkpt>
      <trkpt lat="42.27054" lon="2.59013">
        <ele>289.031</ele>
        <time>2014-02-15T20:27:39Z</time>
      </trkpt>
      <trkpt lat="42.27018" lon="2.5901">
        <ele>290.593</ele>
        <time>2014-02-15T20:27:57Z</time>
      </trkpt>
      <trkpt lat="42.27013" lon="2.59009">
        <ele>290.515</ele>
        <time>2014-02-15T20:28:00Z</time>
      </trkpt>
      <trkpt lat="42.26986" lon="2.59008">
        <ele>290.565</ele>
        <time>2014-02-15T20:28:16Z</time>
      </trkpt>
      <trkpt lat="42.26978" lon="2.5901">
        <ele>290.911</ele>
        <time>2014-02-15T20:28:21Z</time>
      </trkpt>
      <trkpt lat="42.26971" lon="2.59016">
        <ele>290.907</ele>
        <time>2014-02-15T20:28:29Z</time>
      </trkpt>
      <trkpt lat="42.26967" lon="2.59039">
        <ele>290.537</ele>
        <time>2014-02-15T20:28:45Z</time>
      </trkpt>
      <trkpt lat="42.2697" lon="2.59052">
        <ele>290.032</ele>
        <time>2014-02-15T20:29:00Z</time>
      </trkpt>
      <trkpt lat="42.26963" lon="2.59054">
        <ele>290.015</ele>
        <time>2014-02-15T20:29:09Z</time>
      </trkpt>
      <trkpt lat="42.26931" lon="2.59056">
        <ele>290.53</ele>
        <time>2014-02-15T20:29:21Z</time>
      </trkpt>
      <trkpt lat="42.26908" lon="2.59055">
        <ele>290.039</ele>
        <time>2014-02-15T20:29:32Z</time>
      </trkpt>
      <trkpt lat="42.26878" lon="2.59055">
        <ele>290.936</ele>
        <time>2014-02-15T20:29:50Z</time>
      </trkpt>
      <trkpt lat="42.26847" lon="2.59053">
        <ele>291.468</ele>
        <time>2014-02-15T20:30:06Z</time>
      </trkpt>
      <trkpt lat="42.26817" lon="2.59052">
        <ele>290.988</ele>
        <time>2014-02-15T20:30:21Z</time>
      </trkpt>
      <trkpt lat="42.26795" lon="2.59057">
        <ele>290.524</ele>
        <time>2014-02-15T20:30:36Z</time>
      </trkpt>
      <trkpt lat="42.26792" lon="2.59056">
        <ele>290.926</ele>
        <time>2014-02-15T20:30:37Z</time>
      </trkpt>
      <trkpt lat="42.26783" lon="2.59056">
        <ele>290.507</ele>
        <time>2014-02-15T20:30:40Z</time>
      </trkpt>
      <trkpt lat="42.26767" lon="2.59057">
        <ele>290.524</ele>
        <time>2014-02-15T20:30:47Z</time>
      </trkpt>
      <trkpt lat="42.26747" lon="2.59066">
        <ele>290.949</ele>
        <time>2014-02-15T20:31:04Z</time>
      </trkpt>
      <trkpt lat="42.26735" lon="2.59066">
        <ele>290.992</ele>
        <time>2014-02-15T20:31:09Z</time>
      </trkpt>
      <trkpt lat="42.26713" lon="2.59076">
        <ele>291.477</ele>
        <time>2014-02-15T20:31:26Z</time>
      </trkpt>
      <trkpt lat="42.26687" lon="2.59088">
        <ele>291.476</ele>
        <time>2014-02-15T20:31:41Z</time>
      </trkpt>
      <trkpt lat="42.26673" lon="2.59091">
        <ele>292.443</ele>
        <time>2014-02-15T20:31:47Z</time>
      </trkpt>
      <trkpt lat="42.26641" lon="2.59099">
        <ele>294.345</ele>
        <time>2014-02-15T20:32:01Z</time>
      </trkpt>
      <trkpt lat="42.26637" lon="2.591">
        <ele>294.869</ele>
        <time>2014-02-15T20:32:03Z</time>
      </trkpt>
      <trkpt lat="42.26626" lon="2.59103">
        <ele>295.304</ele>
        <time>2014-02-15T20:32:08Z</time>
      </trkpt>
      <trkpt lat="42.2663" lon="2.59124">
        <ele>295.324</ele>
        <time>2014-02-15T20:32:21Z</time>
      </trkpt>
      <trkpt lat="42.26631" lon="2.59132">
        <ele>297.707</ele>
        <time>2014-02-15T20:32:32Z</time>
      </trkpt>
      <trkpt lat="42.26622" lon="2.59127">
        <ele>300.192</ele>
        <time>2014-02-15T20:32:46Z</time>
      </trkpt>
      <trkpt lat="42.26617" lon="2.59121">
        <ele>301.597</ele>
        <time>2014-02-15T20:32:53Z</time>
      </trkpt>
      <trkpt lat="42.26628" lon="2.5913">
        <ele>304.41</ele>
        <time>2014-02-15T20:33:05Z</time>
      </trkpt>
      <trkpt lat="42.26636" lon="2.59136">
        <ele>306.395</ele>
        <time>2014-02-15T20:33:15Z</time>
      </trkpt>
      <trkpt lat="42.26645" lon="2.5914">
        <ele>307.894</ele>
        <time>2014-02-15T20:33:29Z</time>
      </trkpt>
      <trkpt lat="42.26665" lon="2.59167">
        <ele>308.771</ele>
        <time>2014-02-15T20:33:44Z</time>
      </trkpt>
      <trkpt lat="42.26665" lon="2.59165">
        <ele>309.223</ele>
        <time>2014-02-15T20:33:58Z</time>
      </trkpt>
      <trkpt lat="42.26629" lon="2.59109">
        <ele>310.234</ele>
        <time>2014-02-15T20:34:12Z</time>
      </trkpt>
      <trkpt lat="42.26877" lon="2.59333">
        <ele>309.255</ele>
        <time>2014-02-15T20:34:29Z</time>
      </trkpt>
      <trkpt lat="42.26959" lon="2.59386">
        <ele>309.21</ele>
        <time>2014-02-15T20:34:59Z</time>
      </trkpt>
      <trkpt lat="42.26964" lon="2.59385">
        <ele>310.207</ele>
        <time>2014-02-15T20:35:11Z</time>
      </trkpt>
      <trkpt lat="42.26964" lon="2.59388">
        <ele>310.219</ele>
        <time>2014-02-15T20:35:45Z</time>
      </trkpt>
    </trkseg>
  </trk>
</gpx>